<?xml version='1.0' encoding='UTF-8'?><gpx version="1.1" creator="JPX - https://github.com/jenetics/jpx" xmlns="http://www.topografix.com/GPX/1/1"><trk><trkseg><trkpt lat="45.65872890224861" lon="9.324958617635223"><ele>268.0</ele><time>2026-05-04T13:58:33Z</time></trkpt><trkpt lat="45.65876909586027" lon="9.325033723011867"><ele>268.0</ele><time>2026-05-04T13:58:36Z</time></trkpt><trkpt lat="45.65882032127724" lon="9.325109775047054"><ele>268.0</ele><time>2026-05-04T13:58:39Z</time></trkpt><trkpt lat="45.65885703830789" lon="9.325193262185504"><ele>268.0</ele><time>2026-05-04T13:59:28Z</time></trkpt><trkpt lat="45.65886528696416" lon="9.325292209590543"><ele>268.0</ele><time>2026-05-04T13:59:32Z</time></trkpt><trkpt lat="45.658870074347824" lon="9.325432631469827"><ele>268.0</ele><time>2026-05-04T13:59:34Z</time></trkpt><trkpt lat="45.65893363071329" lon="9.325588070552016"><ele>268.0</ele><time>2026-05-04T13:59:36Z</time></trkpt><trkpt lat="45.658983824838046" lon="9.32573219640126"><ele>268.0</ele><time>2026-05-04T13:59:38Z</time></trkpt><trkpt lat="45.6590546873098" lon="9.325860327623705"><ele>268.0</ele><time>2026-05-04T13:59:40Z</time></trkpt><trkpt lat="45.65911262770374" lon="9.325954259205087"><ele>268.0</ele><time>2026-05-04T13:59:42Z</time></trkpt><trkpt lat="45.659039885733065" lon="9.326071439734454"><ele>268.0</ele><time>2026-05-04T13:59:45Z</time></trkpt><trkpt lat="45.65893898368072" lon="9.326130896745317"><ele>268.0</ele><time>2026-05-04T13:59:47Z</time></trkpt><trkpt lat="45.65883629455649" lon="9.32622396635156"><ele>268.0</ele><time>2026-05-04T13:59:49Z</time></trkpt><trkpt lat="45.658738193723096" lon="9.326326751071905"><ele>268.0</ele><time>2026-05-04T13:59:51Z</time></trkpt><trkpt lat="45.65865055921913" lon="9.326438069762814"><ele>268.0</ele><time>2026-05-04T13:59:53Z</time></trkpt><trkpt lat="45.658569644348916" lon="9.326556383134339"><ele>266.6</ele><time>2026-05-04T13:59:55Z</time></trkpt><trkpt lat="45.65850177751442" lon="9.32667844673283"><ele>265.20000000000005</ele><time>2026-05-04T13:59:57Z</time></trkpt><trkpt lat="45.65838700353535" lon="9.326758024377819"><ele>263.8</ele><time>2026-05-04T13:59:59Z</time></trkpt><trkpt lat="45.65832031950002" lon="9.32679314223945"><ele>262.40000000000003</ele><time>2026-05-04T14:00:00Z</time></trkpt><trkpt lat="45.65825255060236" lon="9.326807494020601"><ele>261.0</ele><time>2026-05-04T14:00:01Z</time></trkpt><trkpt lat="45.6581791773078" lon="9.32682737025647"><ele>261.0</ele><time>2026-05-04T14:00:02Z</time></trkpt><trkpt lat="45.65810963620334" lon="9.326827551654855"><ele>261.0</ele><time>2026-05-04T14:00:03Z</time></trkpt><trkpt lat="45.65804528670691" lon="9.326847643119219"><ele>261.0</ele><time>2026-05-04T14:00:04Z</time></trkpt><trkpt lat="45.657979977286445" lon="9.326885037431769"><ele>261.0</ele><time>2026-05-04T14:00:05Z</time></trkpt><trkpt lat="45.657913822702" lon="9.326926335200554"><ele>261.0</ele><time>2026-05-04T14:00:05.999Z</time></trkpt><trkpt lat="45.657849225677474" lon="9.326974340987215"><ele>261.0</ele><time>2026-05-04T14:00:06.999Z</time></trkpt><trkpt lat="45.65779104675929" lon="9.327026190073687"><ele>261.0</ele><time>2026-05-04T14:00:07.999Z</time></trkpt><trkpt lat="45.6577328874058" lon="9.327110482374005"><ele>259.57142857142856</ele><time>2026-05-04T14:00:08.999Z</time></trkpt><trkpt lat="45.657652341728344" lon="9.327189774787842"><ele>258.1428571428571</ele><time>2026-05-04T14:00:10.999Z</time></trkpt><trkpt lat="45.65758634158536" lon="9.327246551526535"><ele>256.71428571428567</ele><time>2026-05-04T14:00:11.999Z</time></trkpt><trkpt lat="45.65752947942749" lon="9.327292705802803"><ele>255.28571428571428</ele><time>2026-05-04T14:00:12.999Z</time></trkpt><trkpt lat="45.65747228152186" lon="9.327347105626819"><ele>253.85714285714283</ele><time>2026-05-04T14:00:13.999Z</time></trkpt><trkpt lat="45.65741529708456" lon="9.327390163518297"><ele>252.4285714285714</ele><time>2026-05-04T14:00:14.999Z</time></trkpt><trkpt lat="45.65735287852862" lon="9.327424721390788"><ele>250.99999999999997</ele><time>2026-05-04T14:00:15.999Z</time></trkpt><trkpt lat="45.65729124095765" lon="9.327469402551086"><ele>251.00000000000003</ele><time>2026-05-04T14:00:16.999Z</time></trkpt><trkpt lat="45.6572245791177" lon="9.327494501043304"><ele>251.0</ele><time>2026-05-04T14:00:17.999Z</time></trkpt><trkpt lat="45.65715929761225" lon="9.327523852359738"><ele>251.0</ele><time>2026-05-04T14:00:18.999Z</time></trkpt><trkpt lat="45.657107428826215" lon="9.327598260362427"><ele>251.0</ele><time>2026-05-04T14:00:19.999Z</time></trkpt><trkpt lat="45.6570525139696" lon="9.32764598256515"><ele>251.00000000000003</ele><time>2026-05-04T14:00:21Z</time></trkpt><trkpt lat="45.656988085693804" lon="9.327735648560317"><ele>251.0</ele><time>2026-05-04T14:00:23Z</time></trkpt><trkpt lat="45.656924900835236" lon="9.32786773934455"><ele>250.8</ele><time>2026-05-04T14:00:25Z</time></trkpt><trkpt lat="45.65694165658631" lon="9.327997168808611"><ele>250.60000000000002</ele><time>2026-05-04T14:00:26Z</time></trkpt><trkpt lat="45.65702440634568" lon="9.32811556983167"><ele>250.4</ele><time>2026-05-04T14:00:27Z</time></trkpt><trkpt lat="45.65707464546854" lon="9.328220303612634"><ele>250.2</ele><time>2026-05-04T14:00:28Z</time></trkpt><trkpt lat="45.65711775324287" lon="9.32832314340542"><ele>250.0</ele><time>2026-05-04T14:00:29Z</time></trkpt><trkpt lat="45.657153697846354" lon="9.328425132673845"><ele>249.99999999999997</ele><time>2026-05-04T14:00:30Z</time></trkpt><trkpt lat="45.65719069910698" lon="9.328537925155473"><ele>250.0</ele><time>2026-05-04T14:00:31Z</time></trkpt><trkpt lat="45.657227974218635" lon="9.328647435044042"><ele>250.0</ele><time>2026-05-04T14:00:32Z</time></trkpt><trkpt lat="45.657239675029466" lon="9.328743173875594"><ele>250.0</ele><time>2026-05-04T14:00:34Z</time></trkpt><trkpt lat="45.65729871604485" lon="9.328825563787456"><ele>249.99999999999997</ele><time>2026-05-04T14:00:37Z</time></trkpt><trkpt lat="45.657221554976594" lon="9.32878482016537"><ele>250.0</ele><time>2026-05-04T14:00:38Z</time></trkpt><trkpt lat="45.6570158621329" lon="9.328817074987716"><ele>249.0</ele><time>2026-05-04T14:00:39Z</time></trkpt><trkpt lat="45.65691515559893" lon="9.328841194376613"><ele>248.0</ele><time>2026-05-04T14:00:40Z</time></trkpt><trkpt lat="45.65681000072439" lon="9.328925956200129"><ele>247.0</ele><time>2026-05-04T14:00:41Z</time></trkpt><trkpt lat="45.65668314828705" lon="9.328960956994539"><ele>246.0</ele><time>2026-05-04T14:00:42Z</time></trkpt><trkpt lat="45.656545899205945" lon="9.32899997399891"><ele>246.0</ele><time>2026-05-04T14:00:43Z</time></trkpt><trkpt lat="45.65642449197122" lon="9.329036862423525"><ele>246.0</ele><time>2026-05-04T14:00:44Z</time></trkpt><trkpt lat="45.65629067160255" lon="9.329086262184331"><ele>246.0</ele><time>2026-05-04T14:00:45Z</time></trkpt><trkpt lat="45.65616162180766" lon="9.329130339696922"><ele>246.0</ele><time>2026-05-04T14:00:46Z</time></trkpt><trkpt lat="45.656021140481414" lon="9.32917967519113"><ele>245.0</ele><time>2026-05-04T14:00:47Z</time></trkpt><trkpt lat="45.6559229115019" lon="9.329221225339216"><ele>244.00000000000003</ele><time>2026-05-04T14:00:48Z</time></trkpt><trkpt lat="45.655812368696246" lon="9.329260359318654"><ele>243.00000000000003</ele><time>2026-05-04T14:00:49Z</time></trkpt><trkpt lat="45.655698618202614" lon="9.329304808573697"><ele>242.0</ele><time>2026-05-04T14:00:50Z</time></trkpt><trkpt lat="45.65559534984647" lon="9.329317088175939"><ele>241.0</ele><time>2026-05-04T14:00:51Z</time></trkpt><trkpt lat="45.65548896924557" lon="9.329363922351"><ele>240.99999999999997</ele><time>2026-05-04T14:00:52Z</time></trkpt><trkpt lat="45.65539944198465" lon="9.32939637129481"><ele>241.0</ele><time>2026-05-04T14:00:53Z</time></trkpt><trkpt lat="45.65532759481357" lon="9.32942488042061"><ele>241.0</ele><time>2026-05-04T14:00:54Z</time></trkpt><trkpt lat="45.655254012225825" lon="9.329447639350768"><ele>241.0</ele><time>2026-05-04T14:00:55Z</time></trkpt><trkpt lat="45.655154523910376" lon="9.329490138578976"><ele>240.99999999999997</ele><time>2026-05-04T14:00:57Z</time></trkpt><trkpt lat="45.65509344474422" lon="9.329589629775521"><ele>241.0</ele><time>2026-05-04T14:01:06Z</time></trkpt><trkpt lat="45.65509434719344" lon="9.329728006697732"><ele>240.5</ele><time>2026-05-04T14:01:07Z</time></trkpt><trkpt lat="45.655093829206265" lon="9.329864917523233"><ele>240.0</ele><time>2026-05-04T14:01:08Z</time></trkpt><trkpt lat="45.65508443774429" lon="9.32998008938304"><ele>239.5</ele><time>2026-05-04T14:01:09Z</time></trkpt><trkpt lat="45.65506703576945" lon="9.33018909486107"><ele>239.0</ele><time>2026-05-04T14:01:10Z</time></trkpt><trkpt lat="45.65504706908091" lon="9.330378728597832"><ele>239.25</ele><time>2026-05-04T14:01:11Z</time></trkpt><trkpt lat="45.655023278903485" lon="9.330569844039234"><ele>239.5</ele><time>2026-05-04T14:01:12Z</time></trkpt><trkpt lat="45.655002207116745" lon="9.330738984797764"><ele>239.75</ele><time>2026-05-04T14:01:13Z</time></trkpt><trkpt lat="45.65497338562307" lon="9.330907547678661"><ele>240.0</ele><time>2026-05-04T14:01:14Z</time></trkpt><trkpt lat="45.65495346570069" lon="9.331079998424661"><ele>240.0</ele><time>2026-05-04T14:01:15Z</time></trkpt><trkpt lat="45.6549561653783" lon="9.33123656708808"><ele>240.0</ele><time>2026-05-04T14:01:16Z</time></trkpt><trkpt lat="45.65494335364521" lon="9.331381703086814"><ele>240.0</ele><time>2026-05-04T14:01:17Z</time></trkpt><trkpt lat="45.65493756651282" lon="9.331510400805543"><ele>240.0</ele><time>2026-05-04T14:01:18Z</time></trkpt><trkpt lat="45.65492697719272" lon="9.331636664694905"><ele>240.0</ele><time>2026-05-04T14:01:19Z</time></trkpt><trkpt lat="45.654914127388565" lon="9.331753177294496"><ele>239.83333333333334</ele><time>2026-05-04T14:01:20Z</time></trkpt><trkpt lat="45.654916415123935" lon="9.331871214523632"><ele>239.66666666666669</ele><time>2026-05-04T14:01:21Z</time></trkpt><trkpt lat="45.65489355700258" lon="9.331961553192075"><ele>239.5</ele><time>2026-05-04T14:01:23Z</time></trkpt><trkpt lat="45.65481290889608" lon="9.331938312330271"><ele>239.33333333333334</ele><time>2026-05-04T14:01:25Z</time></trkpt><trkpt lat="45.65472383838689" lon="9.331928293775324"><ele>239.16666666666669</ele><time>2026-05-04T14:01:26Z</time></trkpt><trkpt lat="45.65465205086485" lon="9.331976774072729"><ele>239.0</ele><time>2026-05-04T14:01:27Z</time></trkpt><trkpt lat="45.65459594728324" lon="9.332021444178595"><ele>239.0</ele><time>2026-05-04T14:01:29Z</time></trkpt><trkpt lat="45.65449051032143" lon="9.332060024515943"><ele>238.99999999999997</ele><time>2026-05-04T14:01:31Z</time></trkpt><trkpt lat="45.654411688627164" lon="9.332136726890694"><ele>238.99999999999997</ele><time>2026-05-04T14:01:33Z</time></trkpt><trkpt lat="45.65440745988763" lon="9.33230204245722"><ele>239.0</ele><time>2026-05-04T14:01:34Z</time></trkpt><trkpt lat="45.654310924006296" lon="9.332308420242232"><ele>239.0</ele><time>2026-05-04T14:01:35Z</time></trkpt><trkpt lat="45.65420492128519" lon="9.332322824883795"><ele>238.25</ele><time>2026-05-04T14:01:36Z</time></trkpt><trkpt lat="45.654089185741654" lon="9.332355294335924"><ele>237.5</ele><time>2026-05-04T14:01:37Z</time></trkpt><trkpt lat="45.65396884024747" lon="9.332390457061022"><ele>236.75</ele><time>2026-05-04T14:01:38Z</time></trkpt><trkpt lat="45.65383252440945" lon="9.332422231374293"><ele>236.0</ele><time>2026-05-04T14:01:39Z</time></trkpt><trkpt lat="45.6536984470337" lon="9.332485102039643"><ele>235.0</ele><time>2026-05-04T14:01:40Z</time></trkpt><trkpt lat="45.65356093364383" lon="9.332524491473883"><ele>234.0</ele><time>2026-05-04T14:01:41Z</time></trkpt><trkpt lat="45.65342613656343" lon="9.332571000341039"><ele>233.0</ele><time>2026-05-04T14:01:42Z</time></trkpt><trkpt lat="45.65328680465055" lon="9.332609086853314"><ele>232.0</ele><time>2026-05-04T14:01:43Z</time></trkpt><trkpt lat="45.65315671760331" lon="9.332649320672735"><ele>232.0</ele><time>2026-05-04T14:01:44Z</time></trkpt><trkpt lat="45.653037212205895" lon="9.332686249695634"><ele>232.0</ele><time>2026-05-04T14:01:45Z</time></trkpt><trkpt lat="45.652919758210196" lon="9.33272099971437"><ele>232.0</ele><time>2026-05-04T14:01:46Z</time></trkpt><trkpt lat="45.652788286568175" lon="9.332755499473759"><ele>232.0</ele><time>2026-05-04T14:01:47Z</time></trkpt><trkpt lat="45.65263400142647" lon="9.332797048580256"><ele>231.75</ele><time>2026-05-04T14:01:48Z</time></trkpt><trkpt lat="45.652467187689155" lon="9.332862769097805"><ele>231.5</ele><time>2026-05-04T14:01:49Z</time></trkpt><trkpt lat="45.65234037091514" lon="9.332889261469322"><ele>231.25</ele><time>2026-05-04T14:01:50Z</time></trkpt><trkpt lat="45.65223291542917" lon="9.332916278455944"><ele>231.0</ele><time>2026-05-04T14:01:51Z</time></trkpt><trkpt lat="45.652118884559926" lon="9.332946154831152"><ele>231.0</ele><time>2026-05-04T14:01:52Z</time></trkpt><trkpt lat="45.652010695718026" lon="9.332976858615538"><ele>231.00000000000003</ele><time>2026-05-04T14:01:53Z</time></trkpt><trkpt lat="45.651922131117914" lon="9.33302100033136"><ele>231.00000000000003</ele><time>2026-05-04T14:01:54Z</time></trkpt><trkpt lat="45.651843623541325" lon="9.333045264052256"><ele>231.0</ele><time>2026-05-04T14:01:55Z</time></trkpt><trkpt lat="45.65175163987873" lon="9.333070094375273"><ele>231.0</ele><time>2026-05-04T14:01:56Z</time></trkpt><trkpt lat="45.65164393682745" lon="9.333097777303841"><ele>230.60000000000002</ele><time>2026-05-04T14:01:57Z</time></trkpt><trkpt lat="45.6515445866529" lon="9.333060929075058"><ele>230.20000000000002</ele><time>2026-05-04T14:01:58Z</time></trkpt><trkpt lat="45.65146303245463" lon="9.333051142496242"><ele>229.79999999999998</ele><time>2026-05-04T14:01:59Z</time></trkpt><trkpt lat="45.65136417118728" lon="9.333039279047776"><ele>229.39999999999998</ele><time>2026-05-04T14:02:00Z</time></trkpt><trkpt lat="45.65125554517765" lon="9.333218533685901"><ele>229.0</ele><time>2026-05-04T14:02:01Z</time></trkpt><trkpt lat="45.65114698137007" lon="9.333253896604063"><ele>228.79999999999998</ele><time>2026-05-04T14:02:02Z</time></trkpt><trkpt lat="45.65104564833096" lon="9.333287123495179"><ele>228.59999999999997</ele><time>2026-05-04T14:02:03Z</time></trkpt><trkpt lat="45.650959048513336" lon="9.333318010265788"><ele>228.4</ele><time>2026-05-04T14:02:04Z</time></trkpt><trkpt lat="45.65086023741621" lon="9.333347930529854"><ele>228.2</ele><time>2026-05-04T14:02:05Z</time></trkpt><trkpt lat="45.65076036605642" lon="9.333376949319707"><ele>228.0</ele><time>2026-05-04T14:02:06Z</time></trkpt><trkpt lat="45.65067015427085" lon="9.33340219493422"><ele>228.0</ele><time>2026-05-04T14:02:07Z</time></trkpt><trkpt lat="45.650597409403794" lon="9.333425297684242"><ele>228.0</ele><time>2026-05-04T14:02:08Z</time></trkpt><trkpt lat="45.65052592703143" lon="9.333448133923813"><ele>228.0</ele><time>2026-05-04T14:02:09Z</time></trkpt><trkpt lat="45.650438378215526" lon="9.333483336795092"><ele>228.0</ele><time>2026-05-04T14:02:11Z</time></trkpt><trkpt lat="45.650393222566656" lon="9.333412686813634"><ele>228.0</ele><time>2026-05-04T14:02:13.999Z</time></trkpt><trkpt lat="45.650385458098846" lon="9.33327367135433"><ele>228.0</ele><time>2026-05-04T14:02:15.999Z</time></trkpt><trkpt lat="45.650392539845434" lon="9.333138962866162"><ele>228.0</ele><time>2026-05-04T14:02:16.999Z</time></trkpt><trkpt lat="45.650387831597264" lon="9.333028643857386"><ele>228.0</ele><time>2026-05-04T14:02:17.999Z</time></trkpt><trkpt lat="45.65038510114084" lon="9.332867833754312"><ele>228.0</ele><time>2026-05-04T14:02:19.999Z</time></trkpt><trkpt lat="45.65037196569368" lon="9.332715626515936"><ele>228.0</ele><time>2026-05-04T14:02:21.999Z</time></trkpt><trkpt lat="45.65037261242086" lon="9.332563949074729"><ele>228.0</ele><time>2026-05-04T14:02:24Z</time></trkpt><trkpt lat="45.65036709568403" lon="9.332408567101877"><ele>228.0</ele><time>2026-05-04T14:02:26Z</time></trkpt><trkpt lat="45.650373473194854" lon="9.332256650848665"><ele>228.0</ele><time>2026-05-04T14:02:28Z</time></trkpt><trkpt lat="45.65037736112524" lon="9.332085069316092"><ele>228.0</ele><time>2026-05-04T14:02:30Z</time></trkpt><trkpt lat="45.650377986411286" lon="9.33199276572939"><ele>228.0</ele><time>2026-05-04T14:02:31Z</time></trkpt><trkpt lat="45.65037711468266" lon="9.331892365549434"><ele>228.0</ele><time>2026-05-04T14:02:32Z</time></trkpt><trkpt lat="45.6503728358177" lon="9.331786956658972"><ele>228.0</ele><time>2026-05-04T14:02:33Z</time></trkpt><trkpt lat="45.65036858218851" lon="9.331673276262626"><ele>228.2</ele><time>2026-05-04T14:02:34Z</time></trkpt><trkpt lat="45.65037171557809" lon="9.331545516376277"><ele>228.4</ele><time>2026-05-04T14:02:35Z</time></trkpt><trkpt lat="45.65037773935892" lon="9.331427035036093"><ele>228.59999999999997</ele><time>2026-05-04T14:02:36Z</time></trkpt><trkpt lat="45.65036027457064" lon="9.331251581340743"><ele>228.79999999999998</ele><time>2026-05-04T14:02:38Z</time></trkpt><trkpt lat="45.65034189715156" lon="9.331151135136425"><ele>229.0</ele><time>2026-05-04T14:02:40Z</time></trkpt><trkpt lat="45.65024714099355" lon="9.331119382858278"><ele>229.39999999999998</ele><time>2026-05-04T14:02:42Z</time></trkpt><trkpt lat="45.65016515619566" lon="9.33116432216609"><ele>229.79999999999998</ele><time>2026-05-04T14:02:43Z</time></trkpt><trkpt lat="45.65008586758738" lon="9.331198659126757"><ele>230.20000000000002</ele><time>2026-05-04T14:02:44Z</time></trkpt><trkpt lat="45.64999373155568" lon="9.331227579783468"><ele>230.60000000000002</ele><time>2026-05-04T14:02:45Z</time></trkpt><trkpt lat="45.64989513044096" lon="9.331255058030186"><ele>231.0</ele><time>2026-05-04T14:02:46Z</time></trkpt><trkpt lat="45.649786340438865" lon="9.331290598770288"><ele>231.0</ele><time>2026-05-04T14:02:47Z</time></trkpt><trkpt lat="45.64967425231056" lon="9.331317710139922"><ele>231.00000000000003</ele><time>2026-05-04T14:02:48Z</time></trkpt><trkpt lat="45.649560940889984" lon="9.33135497565551"><ele>231.00000000000003</ele><time>2026-05-04T14:02:49Z</time></trkpt><trkpt lat="45.64944261064826" lon="9.3313924882467"><ele>231.0</ele><time>2026-05-04T14:02:50Z</time></trkpt><trkpt lat="45.64936675529294" lon="9.33142238436307"><ele>231.0</ele><time>2026-05-04T14:02:51Z</time></trkpt><trkpt lat="45.64927261267619" lon="9.331443323724207"><ele>230.20000000000002</ele><time>2026-05-04T14:02:52Z</time></trkpt><trkpt lat="45.649144661807185" lon="9.331474567966866"><ele>229.40000000000003</ele><time>2026-05-04T14:02:54Z</time></trkpt><trkpt lat="45.64906041410683" lon="9.331526706775975"><ele>228.6</ele><time>2026-05-04T14:02:55Z</time></trkpt><trkpt lat="45.648993807784244" lon="9.331603522811138"><ele>227.8</ele><time>2026-05-04T14:02:56Z</time></trkpt><trkpt lat="45.64893679782785" lon="9.331661352817665"><ele>227.0</ele><time>2026-05-04T14:02:57Z</time></trkpt><trkpt lat="45.64885021288514" lon="9.331726997097132"><ele>227.00000000000003</ele><time>2026-05-04T14:02:59Z</time></trkpt><trkpt lat="45.64876699124264" lon="9.331758317155062"><ele>227.0</ele><time>2026-05-04T14:03:01Z</time></trkpt><trkpt lat="45.64871407590316" lon="9.3318185895046"><ele>227.0</ele><time>2026-05-04T14:03:04Z</time></trkpt><trkpt lat="45.64865779998226" lon="9.33187053521545"><ele>227.0</ele><time>2026-05-04T14:03:11Z</time></trkpt><trkpt lat="45.64856976376963" lon="9.33193006380003"><ele>227.00000000000003</ele><time>2026-05-04T14:03:16Z</time></trkpt><trkpt lat="45.64851776343097" lon="9.33198119300573"><ele>227.0</ele><time>2026-05-04T14:03:18Z</time></trkpt><trkpt lat="45.648441510124634" lon="9.332016264702002"><ele>226.6</ele><time>2026-05-04T14:03:21Z</time></trkpt><trkpt lat="45.64833738620317" lon="9.33208008417303"><ele>226.2</ele><time>2026-05-04T14:03:23Z</time></trkpt><trkpt lat="45.64825372432012" lon="9.332135991315422"><ele>225.8</ele><time>2026-05-04T14:03:25Z</time></trkpt><trkpt lat="45.64818097883337" lon="9.332185517593505"><ele>225.4</ele><time>2026-05-04T14:03:26Z</time></trkpt><trkpt lat="45.648099157630156" lon="9.332238590655608"><ele>225.0</ele><time>2026-05-04T14:03:27Z</time></trkpt><trkpt lat="45.64801530300589" lon="9.332302531453943"><ele>225.0</ele><time>2026-05-04T14:03:28Z</time></trkpt><trkpt lat="45.64794442639592" lon="9.332356132783403"><ele>225.0</ele><time>2026-05-04T14:03:29Z</time></trkpt><trkpt lat="45.647786092825555" lon="9.332467466612284"><ele>225.0</ele><time>2026-05-04T14:03:31Z</time></trkpt><trkpt lat="45.64773042731201" lon="9.332537967058038"><ele>225.0</ele><time>2026-05-04T14:03:32Z</time></trkpt><trkpt lat="45.647588727841544" lon="9.332599675715041"><ele>225.0</ele><time>2026-05-04T14:03:33Z</time></trkpt><trkpt lat="45.64747379086913" lon="9.332679067619072"><ele>225.0</ele><time>2026-05-04T14:03:34Z</time></trkpt><trkpt lat="45.64737123615225" lon="9.3327401818634"><ele>225.0</ele><time>2026-05-04T14:03:35Z</time></trkpt><trkpt lat="45.647252165326314" lon="9.332800381457758"><ele>225.0</ele><time>2026-05-04T14:03:36Z</time></trkpt><trkpt lat="45.6471709566995" lon="9.332842982905495"><ele>225.0</ele><time>2026-05-04T14:03:37Z</time></trkpt><trkpt lat="45.64708588558848" lon="9.332892334026932"><ele>225.0</ele><time>2026-05-04T14:03:38Z</time></trkpt><trkpt lat="45.64701005773773" lon="9.332950000777997"><ele>225.0</ele><time>2026-05-04T14:03:39Z</time></trkpt><trkpt lat="45.64693189822362" lon="9.333014880522631"><ele>225.0</ele><time>2026-05-04T14:03:40Z</time></trkpt><trkpt lat="45.64684088330919" lon="9.333072389992283"><ele>225.0</ele><time>2026-05-04T14:03:41Z</time></trkpt><trkpt lat="45.64676075010025" lon="9.333087115368572"><ele>225.0</ele><time>2026-05-04T14:03:42Z</time></trkpt><trkpt lat="45.64670156466825" lon="9.333133663084238"><ele>225.2</ele><time>2026-05-04T14:03:43Z</time></trkpt><trkpt lat="45.646629697599124" lon="9.33319253915199"><ele>225.4</ele><time>2026-05-04T14:03:44Z</time></trkpt><trkpt lat="45.64650041514716" lon="9.333249332900616"><ele>225.60000000000002</ele><time>2026-05-04T14:03:45Z</time></trkpt><trkpt lat="45.646385162108736" lon="9.333272337347825"><ele>225.8</ele><time>2026-05-04T14:03:46Z</time></trkpt><trkpt lat="45.64629845423918" lon="9.333289358002448"><ele>226.0</ele><time>2026-05-04T14:03:47Z</time></trkpt><trkpt lat="45.64623749192889" lon="9.333330918200822"><ele>226.0</ele><time>2026-05-04T14:03:48Z</time></trkpt><trkpt lat="45.646174353732135" lon="9.333330485952416"><ele>226.00000000000003</ele><time>2026-05-04T14:03:53Z</time></trkpt><trkpt lat="45.64604383273079" lon="9.333397893229773"><ele>226.00000000000003</ele><time>2026-05-04T14:03:55Z</time></trkpt><trkpt lat="45.64594866011173" lon="9.333415155883067"><ele>226.0</ele><time>2026-05-04T14:03:56Z</time></trkpt><trkpt lat="45.645833769684096" lon="9.33346320173461"><ele>226.0</ele><time>2026-05-04T14:03:57Z</time></trkpt><trkpt lat="45.64575538226941" lon="9.333508814953179"><ele>225.8</ele><time>2026-05-04T14:03:58Z</time></trkpt><trkpt lat="45.645674469402934" lon="9.33352978297835"><ele>225.60000000000002</ele><time>2026-05-04T14:03:59Z</time></trkpt><trkpt lat="45.64557315987139" lon="9.333522398373955"><ele>225.4</ele><time>2026-05-04T14:04:00Z</time></trkpt><trkpt lat="45.64547473681139" lon="9.333453372138848"><ele>225.2</ele><time>2026-05-04T14:04:01Z</time></trkpt><trkpt lat="45.645352185295025" lon="9.333375714537476"><ele>225.0</ele><time>2026-05-04T14:04:02Z</time></trkpt><trkpt lat="45.64525671679073" lon="9.333329982372257"><ele>225.0</ele><time>2026-05-04T14:04:03Z</time></trkpt><trkpt lat="45.64520080774074" lon="9.333257539826636"><ele>225.0</ele><time>2026-05-04T14:04:04Z</time></trkpt><trkpt lat="45.64513013699475" lon="9.333260518436074"><ele>225.0</ele><time>2026-05-04T14:04:06Z</time></trkpt><trkpt lat="45.64503658975957" lon="9.333389582810154"><ele>225.0</ele><time>2026-05-04T14:04:08Z</time></trkpt><trkpt lat="45.64497065001063" lon="9.333508756235535"><ele>225.0</ele><time>2026-05-04T14:04:09Z</time></trkpt><trkpt lat="45.6449083209931" lon="9.333633831685042"><ele>225.0</ele><time>2026-05-04T14:04:10Z</time></trkpt><trkpt lat="45.64482460923078" lon="9.333786471269967"><ele>225.0</ele><time>2026-05-04T14:04:11Z</time></trkpt><trkpt lat="45.644748716712414" lon="9.333896244287546"><ele>225.0</ele><time>2026-05-04T14:04:12Z</time></trkpt><trkpt lat="45.64468280368172" lon="9.33404018734493"><ele>225.0</ele><time>2026-05-04T14:04:13Z</time></trkpt><trkpt lat="45.64460387799594" lon="9.334161442218502"><ele>225.0</ele><time>2026-05-04T14:04:14Z</time></trkpt><trkpt lat="45.64452324668325" lon="9.334306422346362"><ele>225.0</ele><time>2026-05-04T14:04:15Z</time></trkpt><trkpt lat="45.6444006376176" lon="9.334517567606483"><ele>225.0</ele><time>2026-05-04T14:04:16Z</time></trkpt><trkpt lat="45.64428026428059" lon="9.334721860667274"><ele>224.0</ele><time>2026-05-04T14:04:17Z</time></trkpt><trkpt lat="45.64414727153049" lon="9.334903119501796"><ele>223.0</ele><time>2026-05-04T14:04:18Z</time></trkpt><trkpt lat="45.64404206483233" lon="9.335069012851488"><ele>222.0</ele><time>2026-05-04T14:04:19Z</time></trkpt><trkpt lat="45.6439473261933" lon="9.335217642683656"><ele>222.0</ele><time>2026-05-04T14:04:20Z</time></trkpt><trkpt lat="45.64386685518202" lon="9.335341727908133"><ele>222.0</ele><time>2026-05-04T14:04:21Z</time></trkpt><trkpt lat="45.6437695907863" lon="9.335490495846615"><ele>222.0</ele><time>2026-05-04T14:04:22Z</time></trkpt><trkpt lat="45.643681274978675" lon="9.33562495124816"><ele>222.0</ele><time>2026-05-04T14:04:23Z</time></trkpt><trkpt lat="45.64362836707473" lon="9.33573759943179"><ele>222.0</ele><time>2026-05-04T14:04:24Z</time></trkpt><trkpt lat="45.643530616530896" lon="9.335853220700715"><ele>222.0</ele><time>2026-05-04T14:04:26Z</time></trkpt><trkpt lat="45.64348065979928" lon="9.33592749336286"><ele>222.0</ele><time>2026-05-04T14:04:27Z</time></trkpt><trkpt lat="45.643402281400164" lon="9.336072491592939"><ele>222.0</ele><time>2026-05-04T14:04:29Z</time></trkpt><trkpt lat="45.64333818083611" lon="9.336134083624286"><ele>222.0</ele><time>2026-05-04T14:04:30Z</time></trkpt><trkpt lat="45.64330003320593" lon="9.3362189752144"><ele>222.0</ele><time>2026-05-04T14:04:31Z</time></trkpt><trkpt lat="45.643226530551026" lon="9.336310021779646"><ele>222.0</ele><time>2026-05-04T14:04:33Z</time></trkpt><trkpt lat="45.64316237973413" lon="9.33637418332361"><ele>222.0</ele><time>2026-05-04T14:04:36Z</time></trkpt><trkpt lat="45.643104511447866" lon="9.336451293456417"><ele>222.0</ele><time>2026-05-04T14:04:38Z</time></trkpt><trkpt lat="45.643046054569574" lon="9.33651276679518"><ele>222.0</ele><time>2026-05-04T14:04:39Z</time></trkpt><trkpt lat="45.64296310649907" lon="9.336469887291917"><ele>222.0</ele><time>2026-05-04T14:04:40Z</time></trkpt><trkpt lat="45.642884943528394" lon="9.336454438362585"><ele>221.83333333333334</ele><time>2026-05-04T14:04:41Z</time></trkpt><trkpt lat="45.64281371891569" lon="9.336441866153413"><ele>221.66666666666669</ele><time>2026-05-04T14:04:42Z</time></trkpt><trkpt lat="45.64273418667479" lon="9.336429745427994"><ele>221.5</ele><time>2026-05-04T14:04:43Z</time></trkpt><trkpt lat="45.64263838380524" lon="9.336430251046085"><ele>221.33333333333334</ele><time>2026-05-04T14:04:44Z</time></trkpt><trkpt lat="45.642561079673186" lon="9.336424886046062"><ele>221.16666666666669</ele><time>2026-05-04T14:04:45Z</time></trkpt><trkpt lat="45.64246477759286" lon="9.33643095122915"><ele>221.0</ele><time>2026-05-04T14:04:46Z</time></trkpt><trkpt lat="45.642386524620704" lon="9.336425482311768"><ele>219.66666666666669</ele><time>2026-05-04T14:04:47Z</time></trkpt><trkpt lat="45.642315086149715" lon="9.33639963611675"><ele>218.33333333333334</ele><time>2026-05-04T14:04:48Z</time></trkpt><trkpt lat="45.642189733395405" lon="9.33640605863516"><ele>217.0</ele><time>2026-05-04T14:04:50Z</time></trkpt><trkpt lat="45.64209336742811" lon="9.33640411125438"><ele>215.66666666666669</ele><time>2026-05-04T14:04:51Z</time></trkpt><trkpt lat="45.64201857576862" lon="9.336404009534755"><ele>214.33333333333334</ele><time>2026-05-04T14:04:52Z</time></trkpt><trkpt lat="45.64195285060239" lon="9.336398887771447"><ele>213.0</ele><time>2026-05-04T14:04:53Z</time></trkpt><trkpt lat="45.64183656640308" lon="9.336430490138405"><ele>211.66666666666666</ele><time>2026-05-04T14:04:55Z</time></trkpt><trkpt lat="45.64177070785132" lon="9.336503844849993"><ele>210.33333333333331</ele><time>2026-05-04T14:04:56Z</time></trkpt><trkpt lat="45.64169406449813" lon="9.336603025331032"><ele>209.0</ele><time>2026-05-04T14:04:57Z</time></trkpt><trkpt lat="45.64163750696114" lon="9.336680841070029"><ele>207.66666666666666</ele><time>2026-05-04T14:04:58Z</time></trkpt><trkpt lat="45.64157834212312" lon="9.336731734998953"><ele>206.33333333333331</ele><time>2026-05-04T14:05:00Z</time></trkpt><trkpt lat="45.64152366216535" lon="9.336804958153849"><ele>205.0</ele><time>2026-05-04T14:05:12Z</time></trkpt><trkpt lat="45.641449415496275" lon="9.336662343595131"><ele>205.0</ele><time>2026-05-04T14:05:13Z</time></trkpt><trkpt lat="45.641386378527166" lon="9.336592248735743"><ele>205.0</ele><time>2026-05-04T14:05:14Z</time></trkpt><trkpt lat="45.64131815470944" lon="9.336514113103638"><ele>205.0</ele><time>2026-05-04T14:05:15Z</time></trkpt><trkpt lat="45.641243133891315" lon="9.336414570295233"><ele>205.0</ele><time>2026-05-04T14:05:16Z</time></trkpt><trkpt lat="45.64114898163356" lon="9.336290667715112"><ele>205.0</ele><time>2026-05-04T14:05:17Z</time></trkpt><trkpt lat="45.641055659068975" lon="9.3361818068348"><ele>204.25</ele><time>2026-05-04T14:05:18Z</time></trkpt><trkpt lat="45.64096326974325" lon="9.336061914433747"><ele>203.5</ele><time>2026-05-04T14:05:19Z</time></trkpt><trkpt lat="45.6408758225024" lon="9.33593752654986"><ele>202.75</ele><time>2026-05-04T14:05:20Z</time></trkpt><trkpt lat="45.64082871271848" lon="9.335862582108511"><ele>202.0</ele><time>2026-05-04T14:05:21Z</time></trkpt><trkpt lat="45.64072617971452" lon="9.335730673672188"><ele>202.0</ele><time>2026-05-04T14:05:22Z</time></trkpt><trkpt lat="45.64062343745434" lon="9.335600488128982"><ele>202.0</ele><time>2026-05-04T14:05:23Z</time></trkpt><trkpt lat="45.640525092571544" lon="9.335468581764545"><ele>202.0</ele><time>2026-05-04T14:05:24Z</time></trkpt><trkpt lat="45.64041843900729" lon="9.335332863077122"><ele>202.0</ele><time>2026-05-04T14:05:25Z</time></trkpt><trkpt lat="45.640306901320436" lon="9.335198375857397"><ele>202.0</ele><time>2026-05-04T14:05:26Z</time></trkpt><trkpt lat="45.64020031515359" lon="9.335063054506296"><ele>202.0</ele><time>2026-05-04T14:05:27Z</time></trkpt><trkpt lat="45.64009265100723" lon="9.334921874620512"><ele>202.0</ele><time>2026-05-04T14:05:28Z</time></trkpt><trkpt lat="45.63999138587545" lon="9.3347907425706"><ele>202.0</ele><time>2026-05-04T14:05:29Z</time></trkpt><trkpt lat="45.63989392454484" lon="9.334665945985206"><ele>202.0</ele><time>2026-05-04T14:05:30Z</time></trkpt><trkpt lat="45.639808172876485" lon="9.334539834439447"><ele>202.0</ele><time>2026-05-04T14:05:31Z</time></trkpt><trkpt lat="45.639714734861755" lon="9.334423233314515"><ele>202.0</ele><time>2026-05-04T14:05:32Z</time></trkpt><trkpt lat="45.63962361855028" lon="9.334306958632874"><ele>202.0</ele><time>2026-05-04T14:05:33Z</time></trkpt><trkpt lat="45.639549646437125" lon="9.334196967647618"><ele>202.0</ele><time>2026-05-04T14:05:34Z</time></trkpt><trkpt lat="45.63948351984021" lon="9.33409882661414"><ele>202.0</ele><time>2026-05-04T14:05:35Z</time></trkpt><trkpt lat="45.63939791266773" lon="9.33400884135949"><ele>202.0</ele><time>2026-05-04T14:05:36Z</time></trkpt><trkpt lat="45.63928984324648" lon="9.333876322724155"><ele>202.0</ele><time>2026-05-04T14:05:37Z</time></trkpt><trkpt lat="45.63918199090485" lon="9.333743550568464"><ele>202.5</ele><time>2026-05-04T14:05:38Z</time></trkpt><trkpt lat="45.63908502731079" lon="9.333622220840219"><ele>203.0</ele><time>2026-05-04T14:05:39Z</time></trkpt><trkpt lat="45.638990695611525" lon="9.333497331640249"><ele>203.5</ele><time>2026-05-04T14:05:40Z</time></trkpt><trkpt lat="45.638901387998196" lon="9.333380741598054"><ele>204.0</ele><time>2026-05-04T14:05:41Z</time></trkpt><trkpt lat="45.63880893350267" lon="9.33327078217668"><ele>204.0</ele><time>2026-05-04T14:05:42Z</time></trkpt><trkpt lat="45.63875569942004" lon="9.333136645217781"><ele>204.0</ele><time>2026-05-04T14:05:43Z</time></trkpt><trkpt lat="45.63867393468897" lon="9.333068638084908"><ele>204.0</ele><time>2026-05-04T14:05:44Z</time></trkpt><trkpt lat="45.63862595281842" lon="9.332993375657756"><ele>204.0</ele><time>2026-05-04T14:05:45Z</time></trkpt><trkpt lat="45.63858294548156" lon="9.332919427694279"><ele>204.0</ele><time>2026-05-04T14:05:48Z</time></trkpt><trkpt lat="45.638506390570726" lon="9.332881190846825"><ele>204.0</ele><time>2026-05-04T14:05:57Z</time></trkpt><trkpt lat="45.638399791664604" lon="9.333052798628335"><ele>203.25</ele><time>2026-05-04T14:05:58Z</time></trkpt><trkpt lat="45.63832405202478" lon="9.333179979718045"><ele>202.5</ele><time>2026-05-04T14:05:59Z</time></trkpt><trkpt lat="45.63823012897612" lon="9.333318131226205"><ele>201.75</ele><time>2026-05-04T14:06:00Z</time></trkpt><trkpt lat="45.63813666919245" lon="9.333447043023083"><ele>201.0</ele><time>2026-05-04T14:06:01Z</time></trkpt><trkpt lat="45.63804374725659" lon="9.333571684828206"><ele>201.0</ele><time>2026-05-04T14:06:02Z</time></trkpt><trkpt lat="45.63794239639559" lon="9.333696607339581"><ele>201.0</ele><time>2026-05-04T14:06:03Z</time></trkpt><trkpt lat="45.637836843188744" lon="9.333827133076495"><ele>201.0</ele><time>2026-05-04T14:06:04Z</time></trkpt><trkpt lat="45.63773473110851" lon="9.33398617140231"><ele>201.0</ele><time>2026-05-04T14:06:05Z</time></trkpt><trkpt lat="45.637629341709555" lon="9.334132666609069"><ele>201.25</ele><time>2026-05-04T14:06:06Z</time></trkpt><trkpt lat="45.63751735076595" lon="9.334269955311925"><ele>201.5</ele><time>2026-05-04T14:06:07Z</time></trkpt><trkpt lat="45.63741941889242" lon="9.33439940514072"><ele>201.75</ele><time>2026-05-04T14:06:08Z</time></trkpt><trkpt lat="45.637331716405065" lon="9.334514000505276"><ele>202.0</ele><time>2026-05-04T14:06:09Z</time></trkpt><trkpt lat="45.63724704315491" lon="9.334626932942053"><ele>202.25</ele><time>2026-05-04T14:06:10Z</time></trkpt><trkpt lat="45.637160854545385" lon="9.334741760784995"><ele>202.5</ele><time>2026-05-04T14:06:11Z</time></trkpt><trkpt lat="45.63707479823932" lon="9.334861033349638"><ele>202.75</ele><time>2026-05-04T14:06:12Z</time></trkpt><trkpt lat="45.636985768124525" lon="9.334983332489266"><ele>203.0</ele><time>2026-05-04T14:06:13Z</time></trkpt><trkpt lat="45.63689999915212" lon="9.335097084668586"><ele>202.5</ele><time>2026-05-04T14:06:14Z</time></trkpt><trkpt lat="45.63681614737534" lon="9.335211473353793"><ele>202.0</ele><time>2026-05-04T14:06:15Z</time></trkpt><trkpt lat="45.636730908939086" lon="9.3353314505698"><ele>201.5</ele><time>2026-05-04T14:06:16Z</time></trkpt><trkpt lat="45.63664804938855" lon="9.335448150056205"><ele>201.0</ele><time>2026-05-04T14:06:17Z</time></trkpt><trkpt lat="45.63656407147636" lon="9.335575689937297"><ele>201.0</ele><time>2026-05-04T14:06:18Z</time></trkpt><trkpt lat="45.636455547371526" lon="9.335707128377905"><ele>201.0</ele><time>2026-05-04T14:06:19Z</time></trkpt><trkpt lat="45.63634299619497" lon="9.335848009075399"><ele>201.0</ele><time>2026-05-04T14:06:20Z</time></trkpt><trkpt lat="45.63627865801273" lon="9.335958597044792"><ele>201.0</ele><time>2026-05-04T14:06:21Z</time></trkpt><trkpt lat="45.63619341450075" lon="9.33607234133398"><ele>201.20000000000002</ele><time>2026-05-04T14:06:22Z</time></trkpt><trkpt lat="45.63610642092464" lon="9.33617981248242"><ele>201.4</ele><time>2026-05-04T14:06:23Z</time></trkpt><trkpt lat="45.63602118468002" lon="9.336296944865833"><ele>201.6</ele><time>2026-05-04T14:06:24Z</time></trkpt><trkpt lat="45.63594905209483" lon="9.33641862527306"><ele>201.8</ele><time>2026-05-04T14:06:25Z</time></trkpt><trkpt lat="45.63587395032386" lon="9.336515300024432"><ele>202.0</ele><time>2026-05-04T14:06:26Z</time></trkpt><trkpt lat="45.63580178399346" lon="9.336609354444379"><ele>201.66666666666666</ele><time>2026-05-04T14:06:27Z</time></trkpt><trkpt lat="45.63574323919343" lon="9.336705904532637"><ele>201.33333333333331</ele><time>2026-05-04T14:06:28Z</time></trkpt><trkpt lat="45.63570143020097" lon="9.336796671971296"><ele>201.0</ele><time>2026-05-04T14:06:29Z</time></trkpt><trkpt lat="45.63564761284164" lon="9.336866356274893"><ele>200.66666666666669</ele><time>2026-05-04T14:06:31Z</time></trkpt><trkpt lat="45.63557859306867" lon="9.336905550715397"><ele>200.33333333333334</ele><time>2026-05-04T14:06:50Z</time></trkpt><trkpt lat="45.63549586164584" lon="9.337037440071075"><ele>200.0</ele><time>2026-05-04T14:07:45Z</time></trkpt><trkpt lat="45.63543009663884" lon="9.337095295490462"><ele>200.0</ele><time>2026-05-04T14:07:46Z</time></trkpt><trkpt lat="45.635366898968" lon="9.337171744182276"><ele>200.0</ele><time>2026-05-04T14:07:47Z</time></trkpt><trkpt lat="45.635291692659926" lon="9.337270894588265"><ele>200.0</ele><time>2026-05-04T14:07:48Z</time></trkpt><trkpt lat="45.63522599346859" lon="9.337388777494201"><ele>200.0</ele><time>2026-05-04T14:07:49Z</time></trkpt><trkpt lat="45.63512061759666" lon="9.337497423509374"><ele>200.0</ele><time>2026-05-04T14:07:50Z</time></trkpt><trkpt lat="45.63502689032159" lon="9.337623270876318"><ele>200.4</ele><time>2026-05-04T14:07:51Z</time></trkpt><trkpt lat="45.63494221203527" lon="9.337736712144064"><ele>200.8</ele><time>2026-05-04T14:07:52Z</time></trkpt><trkpt lat="45.6348698109111" lon="9.337849335121478"><ele>201.2</ele><time>2026-05-04T14:07:53Z</time></trkpt><trkpt lat="45.63478522709129" lon="9.337944540804617"><ele>201.6</ele><time>2026-05-04T14:07:54Z</time></trkpt><trkpt lat="45.63470413543359" lon="9.338056657333457"><ele>202.0</ele><time>2026-05-04T14:07:55Z</time></trkpt><trkpt lat="45.634624878654144" lon="9.338156955592975"><ele>202.0</ele><time>2026-05-04T14:07:56Z</time></trkpt><trkpt lat="45.634537178516986" lon="9.338277754182172"><ele>202.0</ele><time>2026-05-04T14:07:57Z</time></trkpt><trkpt lat="45.63445767267306" lon="9.338403723851812"><ele>202.0</ele><time>2026-05-04T14:07:58Z</time></trkpt><trkpt lat="45.63437230012053" lon="9.338520338701992"><ele>202.0</ele><time>2026-05-04T14:07:59Z</time></trkpt><trkpt lat="45.63427772353477" lon="9.338642710356522"><ele>201.75</ele><time>2026-05-04T14:08:00Z</time></trkpt><trkpt lat="45.63418899133001" lon="9.338761062569471"><ele>201.5</ele><time>2026-05-04T14:08:01Z</time></trkpt><trkpt lat="45.63410917802542" lon="9.338885242977636"><ele>201.25</ele><time>2026-05-04T14:08:02Z</time></trkpt><trkpt lat="45.63400515067649" lon="9.339035493085117"><ele>201.0</ele><time>2026-05-04T14:08:03Z</time></trkpt><trkpt lat="45.633859974462176" lon="9.339233663336335"><ele>201.0</ele><time>2026-05-04T14:08:04Z</time></trkpt><trkpt lat="45.63373679439214" lon="9.339400474225368"><ele>201.0</ele><time>2026-05-04T14:08:05Z</time></trkpt><trkpt lat="45.633621925030305" lon="9.339530915622921"><ele>201.0</ele><time>2026-05-04T14:08:06Z</time></trkpt><trkpt lat="45.633526803960066" lon="9.339655689128156"><ele>201.0</ele><time>2026-05-04T14:08:07Z</time></trkpt><trkpt lat="45.63345473462672" lon="9.339774757453435"><ele>201.0</ele><time>2026-05-04T14:08:08Z</time></trkpt><trkpt lat="45.63337691305453" lon="9.339871447220892"><ele>201.0</ele><time>2026-05-04T14:08:09Z</time></trkpt><trkpt lat="45.63328795761781" lon="9.339965282856577"><ele>201.0</ele><time>2026-05-04T14:08:10Z</time></trkpt><trkpt lat="45.63319331278339" lon="9.340092751605644"><ele>201.0</ele><time>2026-05-04T14:08:11Z</time></trkpt><trkpt lat="45.63306610815115" lon="9.340207515523595"><ele>201.0</ele><time>2026-05-04T14:08:12Z</time></trkpt><trkpt lat="45.63296285340778" lon="9.34034331629687"><ele>201.0</ele><time>2026-05-04T14:08:13Z</time></trkpt><trkpt lat="45.6328722647212" lon="9.34048384124057"><ele>201.0</ele><time>2026-05-04T14:08:14Z</time></trkpt><trkpt lat="45.63278596499658" lon="9.340609826907775"><ele>201.0</ele><time>2026-05-04T14:08:15Z</time></trkpt><trkpt lat="45.63269719431149" lon="9.340715397710925"><ele>200.60000000000002</ele><time>2026-05-04T14:08:16Z</time></trkpt><trkpt lat="45.63263260461774" lon="9.34081527156576"><ele>200.2</ele><time>2026-05-04T14:08:17Z</time></trkpt><trkpt lat="45.632569277568244" lon="9.340908140042544"><ele>199.8</ele><time>2026-05-04T14:08:18Z</time></trkpt><trkpt lat="45.632497836228275" lon="9.340994813922189"><ele>199.39999999999998</ele><time>2026-05-04T14:08:19Z</time></trkpt><trkpt lat="45.632409575906095" lon="9.341078032777817"><ele>199.0</ele><time>2026-05-04T14:08:20Z</time></trkpt><trkpt lat="45.63231544153299" lon="9.341149309272334"><ele>199.0</ele><time>2026-05-04T14:08:21Z</time></trkpt><trkpt lat="45.632214079694876" lon="9.341245088534603"><ele>199.0</ele><time>2026-05-04T14:08:22Z</time></trkpt><trkpt lat="45.63214040370349" lon="9.341381918100591"><ele>199.0</ele><time>2026-05-04T14:08:23Z</time></trkpt><trkpt lat="45.63206426596549" lon="9.341545383583902"><ele>199.0</ele><time>2026-05-04T14:08:24Z</time></trkpt><trkpt lat="45.63197606199384" lon="9.341684991704817"><ele>199.25</ele><time>2026-05-04T14:08:25Z</time></trkpt><trkpt lat="45.63187458159324" lon="9.341808133612705"><ele>199.5</ele><time>2026-05-04T14:08:26Z</time></trkpt><trkpt lat="45.631776266727286" lon="9.34193856166223"><ele>199.75</ele><time>2026-05-04T14:08:27Z</time></trkpt><trkpt lat="45.631671572686855" lon="9.342073475244275"><ele>200.0</ele><time>2026-05-04T14:08:28Z</time></trkpt><trkpt lat="45.631571307203124" lon="9.342206441108473"><ele>200.25</ele><time>2026-05-04T14:08:29Z</time></trkpt><trkpt lat="45.63148423655932" lon="9.342356133539257"><ele>200.5</ele><time>2026-05-04T14:08:30Z</time></trkpt><trkpt lat="45.63138710228079" lon="9.342477956173683"><ele>200.75</ele><time>2026-05-04T14:08:31Z</time></trkpt><trkpt lat="45.63128298488271" lon="9.342577103492825"><ele>201.0</ele><time>2026-05-04T14:08:32Z</time></trkpt><trkpt lat="45.631193934895556" lon="9.342728856554379"><ele>201.0</ele><time>2026-05-04T14:08:33Z</time></trkpt><trkpt lat="45.63112005172037" lon="9.342829499693742"><ele>201.0</ele><time>2026-05-04T14:08:34Z</time></trkpt><trkpt lat="45.63105152646915" lon="9.342923047449059"><ele>201.0</ele><time>2026-05-04T14:08:35Z</time></trkpt><trkpt lat="45.63096633484314" lon="9.343011471567412"><ele>201.0</ele><time>2026-05-04T14:08:36Z</time></trkpt><trkpt lat="45.63090558865454" lon="9.34311053363211"><ele>201.0</ele><time>2026-05-04T14:08:37Z</time></trkpt><trkpt lat="45.6308232224175" lon="9.343213694321246"><ele>200.8</ele><time>2026-05-04T14:08:38Z</time></trkpt><trkpt lat="45.630750928864344" lon="9.34332110254727"><ele>200.60000000000002</ele><time>2026-05-04T14:08:39Z</time></trkpt><trkpt lat="45.630696079201854" lon="9.343419808834243"><ele>200.4</ele><time>2026-05-04T14:08:40Z</time></trkpt><trkpt lat="45.63063515317012" lon="9.34353511661748"><ele>200.2</ele><time>2026-05-04T14:08:42Z</time></trkpt><trkpt lat="45.63066593706283" lon="9.34368965436018"><ele>200.0</ele><time>2026-05-04T14:08:44Z</time></trkpt><trkpt lat="45.63073302677173" lon="9.343796067903455"><ele>200.0</ele><time>2026-05-04T14:08:45Z</time></trkpt><trkpt lat="45.63079585706401" lon="9.34393758826296"><ele>200.0</ele><time>2026-05-04T14:08:46Z</time></trkpt><trkpt lat="45.630847565272816" lon="9.34408756371041"><ele>200.0</ele><time>2026-05-04T14:08:47Z</time></trkpt><trkpt lat="45.63089607037485" lon="9.344232326645228"><ele>200.0</ele><time>2026-05-04T14:08:48Z</time></trkpt><trkpt lat="45.63096059360285" lon="9.344365638868522"><ele>200.0</ele><time>2026-05-04T14:08:49Z</time></trkpt><trkpt lat="45.63102358415459" lon="9.344508436721739"><ele>200.0</ele><time>2026-05-04T14:08:50Z</time></trkpt><trkpt lat="45.63108301499429" lon="9.34466516730697"><ele>200.0</ele><time>2026-05-04T14:08:51Z</time></trkpt><trkpt lat="45.63114482293965" lon="9.344825901240112"><ele>200.0</ele><time>2026-05-04T14:08:52Z</time></trkpt><trkpt lat="45.63119416968293" lon="9.344964950263911"><ele>200.4</ele><time>2026-05-04T14:08:53Z</time></trkpt><trkpt lat="45.631239289847805" lon="9.34509461502156"><ele>200.8</ele><time>2026-05-04T14:08:54Z</time></trkpt><trkpt lat="45.631290458760134" lon="9.345208955841006"><ele>201.2</ele><time>2026-05-04T14:08:55Z</time></trkpt><trkpt lat="45.63134772635962" lon="9.345329391427791"><ele>201.6</ele><time>2026-05-04T14:08:56Z</time></trkpt><trkpt lat="45.631413123949784" lon="9.345438012549911"><ele>202.0</ele><time>2026-05-04T14:08:57Z</time></trkpt><trkpt lat="45.63147609879946" lon="9.345560144593236"><ele>202.0</ele><time>2026-05-04T14:08:58Z</time></trkpt><trkpt lat="45.63154219452277" lon="9.345712987260287"><ele>202.0</ele><time>2026-05-04T14:08:59Z</time></trkpt><trkpt lat="45.631616422408385" lon="9.345861052713465"><ele>202.0</ele><time>2026-05-04T14:09:00Z</time></trkpt><trkpt lat="45.63169661053538" lon="9.346016675745647"><ele>202.0</ele><time>2026-05-04T14:09:01Z</time></trkpt><trkpt lat="45.631776544813064" lon="9.346148415884237"><ele>202.0</ele><time>2026-05-04T14:09:02Z</time></trkpt><trkpt lat="45.63184669345273" lon="9.34624911400396"><ele>202.0</ele><time>2026-05-04T14:09:03Z</time></trkpt><trkpt lat="45.631905788061914" lon="9.346341870127569"><ele>202.0</ele><time>2026-05-04T14:09:04Z</time></trkpt><trkpt lat="45.631967187281106" lon="9.346449506497398"><ele>202.0</ele><time>2026-05-04T14:09:05Z</time></trkpt><trkpt lat="45.632038440876315" lon="9.346568277533054"><ele>202.0</ele><time>2026-05-04T14:09:06Z</time></trkpt><trkpt lat="45.632117204206956" lon="9.346709478788938"><ele>202.0</ele><time>2026-05-04T14:09:07Z</time></trkpt><trkpt lat="45.632211547168424" lon="9.346869717491808"><ele>202.0</ele><time>2026-05-04T14:09:08Z</time></trkpt><trkpt lat="45.63230951740409" lon="9.347018492776149"><ele>202.0</ele><time>2026-05-04T14:09:09Z</time></trkpt><trkpt lat="45.632404919491776" lon="9.347157761509926"><ele>202.0</ele><time>2026-05-04T14:09:10Z</time></trkpt><trkpt lat="45.632509486140066" lon="9.347301714115432"><ele>202.0</ele><time>2026-05-04T14:09:11Z</time></trkpt><trkpt lat="45.63261048674979" lon="9.347459749452375"><ele>202.0</ele><time>2026-05-04T14:09:12Z</time></trkpt><trkpt lat="45.63271257639903" lon="9.347628842538647"><ele>202.0</ele><time>2026-05-04T14:09:13Z</time></trkpt><trkpt lat="45.6328109442078" lon="9.347803983882487"><ele>202.5</ele><time>2026-05-04T14:09:14Z</time></trkpt><trkpt lat="45.63290657770077" lon="9.347963215822904"><ele>203.0</ele><time>2026-05-04T14:09:15Z</time></trkpt><trkpt lat="45.63300190074054" lon="9.348121024883886"><ele>203.5</ele><time>2026-05-04T14:09:16Z</time></trkpt><trkpt lat="45.63311141917406" lon="9.348272512892645"><ele>204.0</ele><time>2026-05-04T14:09:17Z</time></trkpt><trkpt lat="45.63322470152453" lon="9.348441741331111"><ele>204.0</ele><time>2026-05-04T14:09:18Z</time></trkpt><trkpt lat="45.63334541914299" lon="9.3486509606983"><ele>204.0</ele><time>2026-05-04T14:09:19Z</time></trkpt><trkpt lat="45.63346636537842" lon="9.348827306860388"><ele>204.0</ele><time>2026-05-04T14:09:20Z</time></trkpt><trkpt lat="45.6335683950515" lon="9.348979126576902"><ele>203.75</ele><time>2026-05-04T14:09:21Z</time></trkpt><trkpt lat="45.63365529718365" lon="9.349121836409061"><ele>203.5</ele><time>2026-05-04T14:09:22Z</time></trkpt><trkpt lat="45.633739824061045" lon="9.349254260237393"><ele>203.25</ele><time>2026-05-04T14:09:23Z</time></trkpt><trkpt lat="45.63383010453684" lon="9.349365676542515"><ele>203.0</ele><time>2026-05-04T14:09:24Z</time></trkpt><trkpt lat="45.633920028561704" lon="9.349492428087386"><ele>203.0</ele><time>2026-05-04T14:09:25Z</time></trkpt><trkpt lat="45.63398900169452" lon="9.34962274535427"><ele>203.0</ele><time>2026-05-04T14:09:26Z</time></trkpt><trkpt lat="45.63408212092116" lon="9.349748861088221"><ele>203.0</ele><time>2026-05-04T14:09:27Z</time></trkpt><trkpt lat="45.6341595327726" lon="9.349861234726424"><ele>203.0</ele><time>2026-05-04T14:09:28Z</time></trkpt><trkpt lat="45.63425207830386" lon="9.350006340259027"><ele>203.0</ele><time>2026-05-04T14:09:29Z</time></trkpt><trkpt lat="45.63435599812965" lon="9.350157792694642"><ele>203.0</ele><time>2026-05-04T14:09:30Z</time></trkpt><trkpt lat="45.634412915163956" lon="9.350249272142072"><ele>203.0</ele><time>2026-05-04T14:09:31Z</time></trkpt><trkpt lat="45.63447848563682" lon="9.350357923800939"><ele>203.0</ele><time>2026-05-04T14:09:32Z</time></trkpt><trkpt lat="45.63452937895124" lon="9.35046660135525"><ele>203.0</ele><time>2026-05-04T14:09:33Z</time></trkpt><trkpt lat="45.634536991823765" lon="9.350626054659404"><ele>203.60000000000002</ele><time>2026-05-04T14:09:34Z</time></trkpt><trkpt lat="45.6345771500988" lon="9.350760007446434"><ele>204.20000000000002</ele><time>2026-05-04T14:09:35Z</time></trkpt><trkpt lat="45.634615766374175" lon="9.350880144792239"><ele>204.8</ele><time>2026-05-04T14:09:36Z</time></trkpt><trkpt lat="45.63467938675329" lon="9.350966900571557"><ele>205.4</ele><time>2026-05-04T14:09:37Z</time></trkpt><trkpt lat="45.63471783449183" lon="9.351042429825247"><ele>206.0</ele><time>2026-05-04T14:09:38Z</time></trkpt><trkpt lat="45.63465016113581" lon="9.351262033383648"><ele>205.75</ele><time>2026-05-04T14:09:40Z</time></trkpt><trkpt lat="45.63460013962076" lon="9.351435218528058"><ele>205.5</ele><time>2026-05-04T14:09:41Z</time></trkpt><trkpt lat="45.6345227128069" lon="9.351584975794362"><ele>205.25</ele><time>2026-05-04T14:09:42Z</time></trkpt><trkpt lat="45.63443161766564" lon="9.351657355907975"><ele>205.0</ele><time>2026-05-04T14:09:43Z</time></trkpt><trkpt lat="45.63434662411599" lon="9.351779004184475"><ele>205.0</ele><time>2026-05-04T14:09:44Z</time></trkpt><trkpt lat="45.63426634168062" lon="9.351901497519037"><ele>205.0</ele><time>2026-05-04T14:09:45Z</time></trkpt><trkpt lat="45.634188269235686" lon="9.35203694242419"><ele>205.0</ele><time>2026-05-04T14:09:46Z</time></trkpt><trkpt lat="45.63411321091949" lon="9.352165008101085"><ele>205.0</ele><time>2026-05-04T14:09:47Z</time></trkpt><trkpt lat="45.63403687669301" lon="9.352269430018637"><ele>204.99999999999997</ele><time>2026-05-04T14:09:48Z</time></trkpt><trkpt lat="45.6339712024433" lon="9.352356325544392"><ele>205.0</ele><time>2026-05-04T14:09:49Z</time></trkpt><trkpt lat="45.633916940838134" lon="9.352444269385655"><ele>205.0</ele><time>2026-05-04T14:09:53Z</time></trkpt><trkpt lat="45.63383700635984" lon="9.352540642794525"><ele>205.0</ele><time>2026-05-04T14:09:55Z</time></trkpt><trkpt lat="45.633796287259734" lon="9.352613280354353"><ele>204.99999999999997</ele><time>2026-05-04T14:09:56Z</time></trkpt><trkpt lat="45.63374926267559" lon="9.352707175074215"><ele>205.0</ele><time>2026-05-04T14:09:57Z</time></trkpt><trkpt lat="45.63370186659271" lon="9.352805486896358"><ele>205.0</ele><time>2026-05-04T14:09:58Z</time></trkpt><trkpt lat="45.63364890493224" lon="9.352940222050535"><ele>205.0</ele><time>2026-05-04T14:09:59Z</time></trkpt><trkpt lat="45.63356346716385" lon="9.353077049325893"><ele>205.0</ele><time>2026-05-04T14:10:00Z</time></trkpt><trkpt lat="45.633459097995456" lon="9.35324837401819"><ele>205.0</ele><time>2026-05-04T14:10:01Z</time></trkpt><trkpt lat="45.63337497830625" lon="9.353395558962807"><ele>205.25</ele><time>2026-05-04T14:10:02Z</time></trkpt><trkpt lat="45.633285897665324" lon="9.353511097369068"><ele>205.5</ele><time>2026-05-04T14:10:03Z</time></trkpt><trkpt lat="45.63320020605955" lon="9.353635954576678"><ele>205.75</ele><time>2026-05-04T14:10:04Z</time></trkpt><trkpt lat="45.63311336160634" lon="9.35377569486875"><ele>206.0</ele><time>2026-05-04T14:10:05Z</time></trkpt><trkpt lat="45.63304283090611" lon="9.353905135616076"><ele>206.20000000000002</ele><time>2026-05-04T14:10:06Z</time></trkpt><trkpt lat="45.632974810888456" lon="9.354018828962186"><ele>206.4</ele><time>2026-05-04T14:10:07Z</time></trkpt><trkpt lat="45.6329161925675" lon="9.354118318631887"><ele>206.6</ele><time>2026-05-04T14:10:08Z</time></trkpt><trkpt lat="45.632850169760566" lon="9.354216747269117"><ele>206.8</ele><time>2026-05-04T14:10:09Z</time></trkpt><trkpt lat="45.63278540601717" lon="9.354332084254258"><ele>207.0</ele><time>2026-05-04T14:10:10Z</time></trkpt><trkpt lat="45.63273225775836" lon="9.35443278230115"><ele>207.5</ele><time>2026-05-04T14:10:11Z</time></trkpt><trkpt lat="45.63268356205205" lon="9.354519819298837"><ele>208.0</ele><time>2026-05-04T14:10:12Z</time></trkpt><trkpt lat="45.63263483151807" lon="9.354603800356683"><ele>208.5</ele><time>2026-05-04T14:10:13Z</time></trkpt><trkpt lat="45.63260035207302" lon="9.3546945455086"><ele>209.0</ele><time>2026-05-04T14:10:14Z</time></trkpt><trkpt lat="45.632583336376555" lon="9.354812362276691"><ele>209.5</ele><time>2026-05-04T14:10:15Z</time></trkpt><trkpt lat="45.63255663969335" lon="9.35498333565095"><ele>210.0</ele><time>2026-05-04T14:10:16Z</time></trkpt><trkpt lat="45.63256032140108" lon="9.355175692777484"><ele>210.0</ele><time>2026-05-04T14:10:17Z</time></trkpt><trkpt lat="45.63255074674963" lon="9.355377365711377"><ele>210.0</ele><time>2026-05-04T14:10:18Z</time></trkpt><trkpt lat="45.63253815194582" lon="9.355576331682709"><ele>210.0</ele><time>2026-05-04T14:10:19Z</time></trkpt><trkpt lat="45.63252537297141" lon="9.355769312828514"><ele>210.0</ele><time>2026-05-04T14:10:20Z</time></trkpt><trkpt lat="45.63250897715767" lon="9.35595265910679"><ele>209.5</ele><time>2026-05-04T14:10:21Z</time></trkpt><trkpt lat="45.63249133329859" lon="9.356137310232386"><ele>209.0</ele><time>2026-05-04T14:10:22Z</time></trkpt><trkpt lat="45.63248116022315" lon="9.356324741912019"><ele>208.5</ele><time>2026-05-04T14:10:23Z</time></trkpt><trkpt lat="45.632485961168726" lon="9.356524309193613"><ele>208.0</ele><time>2026-05-04T14:10:24Z</time></trkpt><trkpt lat="45.63247178976364" lon="9.356718847188965"><ele>208.0</ele><time>2026-05-04T14:10:25Z</time></trkpt><trkpt lat="45.632457513168056" lon="9.356912519456506"><ele>208.0</ele><time>2026-05-04T14:10:26Z</time></trkpt><trkpt lat="45.632452799097194" lon="9.357109948102678"><ele>208.0</ele><time>2026-05-04T14:10:27Z</time></trkpt><trkpt lat="45.632440305452036" lon="9.357312816763999"><ele>208.0</ele><time>2026-05-04T14:10:28Z</time></trkpt><trkpt lat="45.632427363144" lon="9.357531285476622"><ele>208.0</ele><time>2026-05-04T14:10:29Z</time></trkpt><trkpt lat="45.63242307341572" lon="9.357734924530261"><ele>208.0</ele><time>2026-05-04T14:10:30Z</time></trkpt><trkpt lat="45.63240765571986" lon="9.357925588602582"><ele>208.0</ele><time>2026-05-04T14:10:31Z</time></trkpt><trkpt lat="45.632397087708796" lon="9.358122981188453"><ele>208.0</ele><time>2026-05-04T14:10:32Z</time></trkpt><trkpt lat="45.63238319194984" lon="9.358326479994508"><ele>208.0</ele><time>2026-05-04T14:10:33Z</time></trkpt><trkpt lat="45.6323736127476" lon="9.35852112423619"><ele>208.0</ele><time>2026-05-04T14:10:34Z</time></trkpt><trkpt lat="45.632375125900836" lon="9.358715348807634"><ele>208.0</ele><time>2026-05-04T14:10:35Z</time></trkpt><trkpt lat="45.63236214727799" lon="9.358898049027728"><ele>208.0</ele><time>2026-05-04T14:10:36Z</time></trkpt><trkpt lat="45.63235450609102" lon="9.359085847639376"><ele>208.0</ele><time>2026-05-04T14:10:37Z</time></trkpt><trkpt lat="45.632344252182584" lon="9.35927872903843"><ele>208.0</ele><time>2026-05-04T14:10:38Z</time></trkpt><trkpt lat="45.63232949929491" lon="9.359463262067766"><ele>208.0</ele><time>2026-05-04T14:10:39Z</time></trkpt><trkpt lat="45.632315352877754" lon="9.35966121945638"><ele>208.0</ele><time>2026-05-04T14:10:40Z</time></trkpt><trkpt lat="45.632303883597324" lon="9.359859081979986"><ele>208.0</ele><time>2026-05-04T14:10:41Z</time></trkpt><trkpt lat="45.63229255563764" lon="9.360052597023206"><ele>208.0</ele><time>2026-05-04T14:10:42Z</time></trkpt><trkpt lat="45.632279764531525" lon="9.36024186455455"><ele>208.0</ele><time>2026-05-04T14:10:43Z</time></trkpt><trkpt lat="45.632290279023216" lon="9.360431182722603"><ele>208.0</ele><time>2026-05-04T14:10:44Z</time></trkpt><trkpt lat="45.632351064046574" lon="9.36059869632665"><ele>208.5</ele><time>2026-05-04T14:10:45Z</time></trkpt><trkpt lat="45.63241805140448" lon="9.36076931304"><ele>209.0</ele><time>2026-05-04T14:10:46Z</time></trkpt><trkpt lat="45.63253986554184" lon="9.3608778400331"><ele>209.5</ele><time>2026-05-04T14:10:47Z</time></trkpt><trkpt lat="45.63262559858981" lon="9.360992399883198"><ele>210.0</ele><time>2026-05-04T14:10:48Z</time></trkpt><trkpt lat="45.632708683089085" lon="9.361079215918465"><ele>210.0</ele><time>2026-05-04T14:10:49Z</time></trkpt><trkpt lat="45.63278050627937" lon="9.361171792956666"><ele>210.0</ele><time>2026-05-04T14:10:50Z</time></trkpt><trkpt lat="45.632835515729845" lon="9.361267048405336"><ele>210.0</ele><time>2026-05-04T14:10:51Z</time></trkpt><trkpt lat="45.63288974795751" lon="9.361316515946502"><ele>210.0</ele><time>2026-05-04T14:10:54Z</time></trkpt><trkpt lat="45.63297324663363" lon="9.361425993251732"><ele>210.0</ele><time>2026-05-04T14:10:56Z</time></trkpt><trkpt lat="45.63300371053447" lon="9.361549371104912"><ele>210.0</ele><time>2026-05-04T14:10:57Z</time></trkpt><trkpt lat="45.63298538523615" lon="9.361692710343469"><ele>210.0</ele><time>2026-05-04T14:10:58Z</time></trkpt><trkpt lat="45.63299475317426" lon="9.361855623707035"><ele>210.0</ele><time>2026-05-04T14:10:59Z</time></trkpt><trkpt lat="45.633015677608256" lon="9.36203824613097"><ele>210.0</ele><time>2026-05-04T14:11:00Z</time></trkpt><trkpt lat="45.63298091662823" lon="9.362244265312379"><ele>210.0</ele><time>2026-05-04T14:11:01Z</time></trkpt><trkpt lat="45.63296293303558" lon="9.362441590096566"><ele>210.0</ele><time>2026-05-04T14:11:02Z</time></trkpt><trkpt lat="45.63294704604373" lon="9.36265139920814"><ele>210.0</ele><time>2026-05-04T14:11:03Z</time></trkpt><trkpt lat="45.63293197940666" lon="9.362882247437572"><ele>210.0</ele><time>2026-05-04T14:11:04Z</time></trkpt><trkpt lat="45.63290246567453" lon="9.363109810480358"><ele>209.75</ele><time>2026-05-04T14:11:05Z</time></trkpt><trkpt lat="45.63287488335137" lon="9.363336368571101"><ele>209.5</ele><time>2026-05-04T14:11:06Z</time></trkpt><trkpt lat="45.63285357799304" lon="9.363539157816643"><ele>209.25</ele><time>2026-05-04T14:11:07Z</time></trkpt><trkpt lat="45.63283131378804" lon="9.363726716687841"><ele>209.0</ele><time>2026-05-04T14:11:08Z</time></trkpt><trkpt lat="45.63280137975352" lon="9.363916087170484"><ele>209.0</ele><time>2026-05-04T14:11:09Z</time></trkpt><trkpt lat="45.63275764822937" lon="9.364121601941413"><ele>209.0</ele><time>2026-05-04T14:11:10Z</time></trkpt><trkpt lat="45.63270405374777" lon="9.364337432022198"><ele>209.0</ele><time>2026-05-04T14:11:11Z</time></trkpt><trkpt lat="45.632668582049746" lon="9.364553141006574"><ele>209.0</ele><time>2026-05-04T14:11:12Z</time></trkpt><trkpt lat="45.63266205456668" lon="9.364791350765799"><ele>209.0</ele><time>2026-05-04T14:11:13Z</time></trkpt><trkpt lat="45.632690902617846" lon="9.36503384927909"><ele>209.0</ele><time>2026-05-04T14:11:14Z</time></trkpt><trkpt lat="45.632737878002416" lon="9.365260223689814"><ele>209.0</ele><time>2026-05-04T14:11:15Z</time></trkpt><trkpt lat="45.63279070123792" lon="9.365480120786216"><ele>209.0</ele><time>2026-05-04T14:11:16Z</time></trkpt><trkpt lat="45.63283347616516" lon="9.36569497202223"><ele>209.0</ele><time>2026-05-04T14:11:17Z</time></trkpt><trkpt lat="45.63287691627164" lon="9.36588829567419"><ele>209.25</ele><time>2026-05-04T14:11:18Z</time></trkpt><trkpt lat="45.632907129452974" lon="9.366078581257138"><ele>209.5</ele><time>2026-05-04T14:11:19Z</time></trkpt><trkpt lat="45.63294210270021" lon="9.3662542233622"><ele>209.75</ele><time>2026-05-04T14:11:20Z</time></trkpt><trkpt lat="45.63297407921298" lon="9.366422206317537"><ele>210.0</ele><time>2026-05-04T14:11:21Z</time></trkpt><trkpt lat="45.63300311559467" lon="9.366594558476175"><ele>209.6</ele><time>2026-05-04T14:11:22Z</time></trkpt><trkpt lat="45.633033586779604" lon="9.366759171935696"><ele>209.2</ele><time>2026-05-04T14:11:23Z</time></trkpt><trkpt lat="45.633064666737354" lon="9.366910764069619"><ele>208.8</ele><time>2026-05-04T14:11:24Z</time></trkpt><trkpt lat="45.63308736137569" lon="9.367050988694087"><ele>208.4</ele><time>2026-05-04T14:11:25Z</time></trkpt><trkpt lat="45.63310653434088" lon="9.367187677695824"><ele>208.0</ele><time>2026-05-04T14:11:26Z</time></trkpt><trkpt lat="45.63314639937468" lon="9.367280217130174"><ele>208.0</ele><time>2026-05-04T14:11:27Z</time></trkpt><trkpt lat="45.63310411738092" lon="9.367430933580811"><ele>208.0</ele><time>2026-05-04T14:11:28Z</time></trkpt><trkpt lat="45.63305299710375" lon="9.367544457017495"><ele>208.0</ele><time>2026-05-04T14:11:29Z</time></trkpt><trkpt lat="45.63289773156037" lon="9.367576406634717"><ele>208.0</ele><time>2026-05-04T14:11:30Z</time></trkpt><trkpt lat="45.632788382431166" lon="9.36762225559513"><ele>208.0</ele><time>2026-05-04T14:11:31Z</time></trkpt><trkpt lat="45.63268140744279" lon="9.36767335335042"><ele>208.0</ele><time>2026-05-04T14:11:32Z</time></trkpt><trkpt lat="45.63256965899982" lon="9.367727959437584"><ele>208.0</ele><time>2026-05-04T14:11:33Z</time></trkpt><trkpt lat="45.63245494747004" lon="9.367792405521477"><ele>208.0</ele><time>2026-05-04T14:11:34Z</time></trkpt><trkpt lat="45.63234023933975" lon="9.367858967971358"><ele>208.0</ele><time>2026-05-04T14:11:35Z</time></trkpt><trkpt lat="45.632214864793944" lon="9.367927590302624"><ele>208.0</ele><time>2026-05-04T14:11:36Z</time></trkpt><trkpt lat="45.632091785957684" lon="9.367997861924264"><ele>208.0</ele><time>2026-05-04T14:11:37Z</time></trkpt><trkpt lat="45.63196709233964" lon="9.368068286083366"><ele>208.0</ele><time>2026-05-04T14:11:38Z</time></trkpt><trkpt lat="45.63183924993093" lon="9.368131224804928"><ele>208.0</ele><time>2026-05-04T14:11:39Z</time></trkpt><trkpt lat="45.6317083202147" lon="9.368202408587143"><ele>208.0</ele><time>2026-05-04T14:11:40Z</time></trkpt><trkpt lat="45.63158946921949" lon="9.36827078244776"><ele>208.0</ele><time>2026-05-04T14:11:41Z</time></trkpt><trkpt lat="45.631464671035246" lon="9.368336607855746"><ele>208.0</ele><time>2026-05-04T14:11:42Z</time></trkpt><trkpt lat="45.631345810162735" lon="9.368402833750716"><ele>208.0</ele><time>2026-05-04T14:11:43Z</time></trkpt><trkpt lat="45.6312171298796" lon="9.368459031034522"><ele>208.0</ele><time>2026-05-04T14:11:44Z</time></trkpt><trkpt lat="45.631089545316385" lon="9.368489937790136"><ele>208.0</ele><time>2026-05-04T14:11:45Z</time></trkpt><trkpt lat="45.63096271980445" lon="9.368527032056136"><ele>208.0</ele><time>2026-05-04T14:11:46Z</time></trkpt><trkpt lat="45.63084658547481" lon="9.368562388887113"><ele>207.75</ele><time>2026-05-04T14:11:47Z</time></trkpt><trkpt lat="45.63072799709148" lon="9.36859190742562"><ele>207.5</ele><time>2026-05-04T14:11:48Z</time></trkpt><trkpt lat="45.6306138696726" lon="9.36862480337435"><ele>207.25</ele><time>2026-05-04T14:11:49Z</time></trkpt><trkpt lat="45.63048713271971" lon="9.36866666185657"><ele>207.0</ele><time>2026-05-04T14:11:50Z</time></trkpt><trkpt lat="45.63039261772479" lon="9.36867312483115"><ele>206.75</ele><time>2026-05-04T14:11:51Z</time></trkpt><trkpt lat="45.63026915138343" lon="9.368702958276694"><ele>206.5</ele><time>2026-05-04T14:11:52Z</time></trkpt><trkpt lat="45.63014422440735" lon="9.368725523290635"><ele>206.25</ele><time>2026-05-04T14:11:53Z</time></trkpt><trkpt lat="45.630002405522156" lon="9.368740742586203"><ele>206.0</ele><time>2026-05-04T14:11:54Z</time></trkpt><trkpt lat="45.629855451254066" lon="9.368743297582451"><ele>206.0</ele><time>2026-05-04T14:11:55Z</time></trkpt><trkpt lat="45.62972027811106" lon="9.368729390991318"><ele>206.0</ele><time>2026-05-04T14:11:56Z</time></trkpt><trkpt lat="45.62959675371798" lon="9.368708416901086"><ele>206.0</ele><time>2026-05-04T14:11:57Z</time></trkpt><trkpt lat="45.629476277257616" lon="9.368684551229599"><ele>206.0</ele><time>2026-05-04T14:11:58Z</time></trkpt><trkpt lat="45.62935313457309" lon="9.368661423080454"><ele>205.75</ele><time>2026-05-04T14:11:59Z</time></trkpt><trkpt lat="45.62921127961528" lon="9.368649755604018"><ele>205.5</ele><time>2026-05-04T14:12:00Z</time></trkpt><trkpt lat="45.629074125576636" lon="9.36863886089312"><ele>205.25</ele><time>2026-05-04T14:12:01Z</time></trkpt><trkpt lat="45.628923280432865" lon="9.368646049910838"><ele>205.0</ele><time>2026-05-04T14:12:02Z</time></trkpt><trkpt lat="45.62876803119412" lon="9.368670519251825"><ele>205.66666666666666</ele><time>2026-05-04T14:12:03Z</time></trkpt><trkpt lat="45.628614143702464" lon="9.368699557493692"><ele>206.33333333333331</ele><time>2026-05-04T14:12:04Z</time></trkpt><trkpt lat="45.6284525747938" lon="9.368744057689117"><ele>207.0</ele><time>2026-05-04T14:12:05Z</time></trkpt><trkpt lat="45.62829645743225" lon="9.368764212936204"><ele>207.0</ele><time>2026-05-04T14:12:06Z</time></trkpt><trkpt lat="45.62815803408796" lon="9.36878838923558"><ele>207.0</ele><time>2026-05-04T14:12:07Z</time></trkpt><trkpt lat="45.628027438515616" lon="9.36882860908924"><ele>207.0</ele><time>2026-05-04T14:12:08Z</time></trkpt><trkpt lat="45.627905561132806" lon="9.368864664855115"><ele>207.0</ele><time>2026-05-04T14:12:09Z</time></trkpt><trkpt lat="45.627789118885644" lon="9.368896963121783"><ele>206.75</ele><time>2026-05-04T14:12:10Z</time></trkpt><trkpt lat="45.627684867899475" lon="9.368924812577097"><ele>206.5</ele><time>2026-05-04T14:12:11Z</time></trkpt><trkpt lat="45.62756190466627" lon="9.368955145547446"><ele>206.25</ele><time>2026-05-04T14:12:12Z</time></trkpt><trkpt lat="45.62742845338028" lon="9.36895317858309"><ele>206.0</ele><time>2026-05-04T14:12:13Z</time></trkpt><trkpt lat="45.62728846143166" lon="9.368990209306492"><ele>206.0</ele><time>2026-05-04T14:12:14Z</time></trkpt><trkpt lat="45.62715430293197" lon="9.369037918820739"><ele>206.0</ele><time>2026-05-04T14:12:15Z</time></trkpt><trkpt lat="45.627023430424664" lon="9.369072392600845"><ele>206.0</ele><time>2026-05-04T14:12:16Z</time></trkpt><trkpt lat="45.626912083863516" lon="9.36906806640395"><ele>206.0</ele><time>2026-05-04T14:12:17Z</time></trkpt><trkpt lat="45.62679535275634" lon="9.369106723118051"><ele>205.75</ele><time>2026-05-04T14:12:18Z</time></trkpt><trkpt lat="45.626691912038396" lon="9.36913616778061"><ele>205.5</ele><time>2026-05-04T14:12:19Z</time></trkpt><trkpt lat="45.62653894738696" lon="9.36915685051709"><ele>205.25</ele><time>2026-05-04T14:12:20Z</time></trkpt><trkpt lat="45.6264095111836" lon="9.369183082012556"><ele>205.0</ele><time>2026-05-04T14:12:21Z</time></trkpt><trkpt lat="45.62629043269759" lon="9.369210856820633"><ele>205.0</ele><time>2026-05-04T14:12:22Z</time></trkpt><trkpt lat="45.62617673958877" lon="9.369230147923425"><ele>205.0</ele><time>2026-05-04T14:12:23Z</time></trkpt><trkpt lat="45.62604539710797" lon="9.369261281297286"><ele>205.0</ele><time>2026-05-04T14:12:24Z</time></trkpt><trkpt lat="45.625935796328775" lon="9.369309785276254"><ele>205.0</ele><time>2026-05-04T14:12:25Z</time></trkpt><trkpt lat="45.62580876391974" lon="9.369338538126543"><ele>205.0</ele><time>2026-05-04T14:12:26Z</time></trkpt><trkpt lat="45.62567671131817" lon="9.369366159755495"><ele>205.0</ele><time>2026-05-04T14:12:27Z</time></trkpt><trkpt lat="45.62554778183888" lon="9.369383186783548"><ele>205.0</ele><time>2026-05-04T14:12:28Z</time></trkpt><trkpt lat="45.62542330148273" lon="9.36940898625423"><ele>205.0</ele><time>2026-05-04T14:12:29Z</time></trkpt><trkpt lat="45.62529875617714" lon="9.369448598548098"><ele>204.75</ele><time>2026-05-04T14:12:30Z</time></trkpt><trkpt lat="45.62514389662594" lon="9.369480872363757"><ele>204.5</ele><time>2026-05-04T14:12:31Z</time></trkpt><trkpt lat="45.62500154750771" lon="9.369506160850886"><ele>204.25</ele><time>2026-05-04T14:12:32Z</time></trkpt><trkpt lat="45.624853124642826" lon="9.369531008456388"><ele>204.0</ele><time>2026-05-04T14:12:33Z</time></trkpt><trkpt lat="45.62475465308605" lon="9.369553537838298"><ele>204.0</ele><time>2026-05-04T14:12:34Z</time></trkpt><trkpt lat="45.624653859408625" lon="9.369579294709178"><ele>204.0</ele><time>2026-05-04T14:12:35Z</time></trkpt><trkpt lat="45.62455611700119" lon="9.369602648500704"><ele>204.0</ele><time>2026-05-04T14:12:36Z</time></trkpt><trkpt lat="45.624462820171935" lon="9.369609158075804"><ele>204.0</ele><time>2026-05-04T14:12:37Z</time></trkpt><trkpt lat="45.624336731766526" lon="9.369635620668063"><ele>204.0</ele><time>2026-05-04T14:12:38Z</time></trkpt><trkpt lat="45.62416997620068" lon="9.36967880955862"><ele>203.75</ele><time>2026-05-04T14:12:39Z</time></trkpt><trkpt lat="45.62403519632785" lon="9.36971623130379"><ele>203.5</ele><time>2026-05-04T14:12:40Z</time></trkpt><trkpt lat="45.62391100351317" lon="9.369736975751026"><ele>203.25</ele><time>2026-05-04T14:12:41Z</time></trkpt><trkpt lat="45.62378502949591" lon="9.369758889155404"><ele>203.0</ele><time>2026-05-04T14:12:42Z</time></trkpt><trkpt lat="45.62366352168388" lon="9.369791191422372"><ele>203.0</ele><time>2026-05-04T14:12:43Z</time></trkpt><trkpt lat="45.623557108188294" lon="9.369823810875276"><ele>203.0</ele><time>2026-05-04T14:12:44Z</time></trkpt><trkpt lat="45.623449005311" lon="9.369832633843721"><ele>203.0</ele><time>2026-05-04T14:12:45Z</time></trkpt><trkpt lat="45.62331787170181" lon="9.369862488940363"><ele>203.0</ele><time>2026-05-04T14:12:46Z</time></trkpt><trkpt lat="45.62319862478425" lon="9.36987863413054"><ele>203.0</ele><time>2026-05-04T14:12:47Z</time></trkpt><trkpt lat="45.62306112770041" lon="9.36992625798723"><ele>203.0</ele><time>2026-05-04T14:12:48Z</time></trkpt><trkpt lat="45.62294850981058" lon="9.369954190104668"><ele>203.0</ele><time>2026-05-04T14:12:49Z</time></trkpt><trkpt lat="45.622827789712844" lon="9.369975482102065"><ele>203.0</ele><time>2026-05-04T14:12:50Z</time></trkpt><trkpt lat="45.622700061235086" lon="9.369999910235489"><ele>202.25</ele><time>2026-05-04T14:12:51Z</time></trkpt><trkpt lat="45.62258048116577" lon="9.369998526619039"><ele>201.5</ele><time>2026-05-04T14:12:52Z</time></trkpt><trkpt lat="45.622467045579306" lon="9.370017939781645"><ele>200.75</ele><time>2026-05-04T14:12:53Z</time></trkpt><trkpt lat="45.622329178031116" lon="9.370062781371288"><ele>200.0</ele><time>2026-05-04T14:12:54Z</time></trkpt><trkpt lat="45.62219396937578" lon="9.370083032580292"><ele>200.0</ele><time>2026-05-04T14:12:55Z</time></trkpt><trkpt lat="45.62206514451396" lon="9.370116237170183"><ele>200.0</ele><time>2026-05-04T14:12:56Z</time></trkpt><trkpt lat="45.621921864898816" lon="9.370148330547892"><ele>200.0</ele><time>2026-05-04T14:12:57Z</time></trkpt><trkpt lat="45.62181224038567" lon="9.370169902917079"><ele>200.0</ele><time>2026-05-04T14:12:58Z</time></trkpt><trkpt lat="45.621714218678036" lon="9.370201468357756"><ele>200.0</ele><time>2026-05-04T14:12:59Z</time></trkpt><trkpt lat="45.6216287768506" lon="9.37023002175209"><ele>200.0</ele><time>2026-05-04T14:13:00Z</time></trkpt><trkpt lat="45.621536986651755" lon="9.37024938896301"><ele>200.0</ele><time>2026-05-04T14:13:01Z</time></trkpt><trkpt lat="45.621430888056615" lon="9.370247350595458"><ele>200.0</ele><time>2026-05-04T14:13:02Z</time></trkpt><trkpt lat="45.621326287036396" lon="9.370268948043579"><ele>200.0</ele><time>2026-05-04T14:13:03Z</time></trkpt><trkpt lat="45.62121014663218" lon="9.370292928091743"><ele>199.5</ele><time>2026-05-04T14:13:04Z</time></trkpt><trkpt lat="45.621116967586595" lon="9.370314313069033"><ele>199.0</ele><time>2026-05-04T14:13:05Z</time></trkpt><trkpt lat="45.620980935836904" lon="9.370357117570167"><ele>198.5</ele><time>2026-05-04T14:13:06Z</time></trkpt><trkpt lat="45.620820639275244" lon="9.370386897112953"><ele>198.0</ele><time>2026-05-04T14:13:07Z</time></trkpt><trkpt lat="45.62067397106223" lon="9.370417592389096"><ele>198.0</ele><time>2026-05-04T14:13:08Z</time></trkpt><trkpt lat="45.620554083131815" lon="9.370443618142877"><ele>198.0</ele><time>2026-05-04T14:13:09Z</time></trkpt><trkpt lat="45.6204382411158" lon="9.37046231304016"><ele>198.0</ele><time>2026-05-04T14:13:10Z</time></trkpt><trkpt lat="45.62033308314003" lon="9.370481012388312"><ele>198.0</ele><time>2026-05-04T14:13:11Z</time></trkpt><trkpt lat="45.62023985840018" lon="9.370504615595804"><ele>198.0</ele><time>2026-05-04T14:13:12Z</time></trkpt><trkpt lat="45.62017486749282" lon="9.370527730457408"><ele>198.25</ele><time>2026-05-04T14:13:13Z</time></trkpt><trkpt lat="45.62008064295542" lon="9.370531465230997"><ele>198.5</ele><time>2026-05-04T14:13:15Z</time></trkpt><trkpt lat="45.62010628895235" lon="9.37085936239253"><ele>198.75</ele><time>2026-05-04T14:13:16Z</time></trkpt><trkpt lat="45.620129026548916" lon="9.371006356230456"><ele>199.0</ele><time>2026-05-04T14:13:17Z</time></trkpt><trkpt lat="45.620147196097435" lon="9.37117374979408"><ele>198.99999999999997</ele><time>2026-05-04T14:13:18Z</time></trkpt><trkpt lat="45.620172575790725" lon="9.37130234998182"><ele>199.0</ele><time>2026-05-04T14:13:19Z</time></trkpt><trkpt lat="45.62018711068679" lon="9.371423388725253"><ele>199.0</ele><time>2026-05-04T14:13:20Z</time></trkpt><trkpt lat="45.620210201688714" lon="9.37154055194819"><ele>199.0</ele><time>2026-05-04T14:13:21Z</time></trkpt><trkpt lat="45.62022487670406" lon="9.371652124078944"><ele>198.99999999999997</ele><time>2026-05-04T14:13:22Z</time></trkpt><trkpt lat="45.620234669310165" lon="9.371786456450272"><ele>199.0</ele><time>2026-05-04T14:13:23Z</time></trkpt><trkpt lat="45.62024853135671" lon="9.371921062355511"><ele>199.0</ele><time>2026-05-04T14:13:24Z</time></trkpt><trkpt lat="45.62026785582374" lon="9.372058912510392"><ele>199.0</ele><time>2026-05-04T14:13:25Z</time></trkpt><trkpt lat="45.62028681633068" lon="9.372218351906602"><ele>199.0</ele><time>2026-05-04T14:13:26Z</time></trkpt><trkpt lat="45.6203090757072" lon="9.372384379206174"><ele>199.0</ele><time>2026-05-04T14:13:27Z</time></trkpt><trkpt lat="45.62033816056325" lon="9.372568380495771"><ele>199.0</ele><time>2026-05-04T14:13:28Z</time></trkpt><trkpt lat="45.62034803714451" lon="9.372802543011705"><ele>199.0</ele><time>2026-05-04T14:13:29Z</time></trkpt><trkpt lat="45.620376650783044" lon="9.37296860073388"><ele>199.0</ele><time>2026-05-04T14:13:30Z</time></trkpt><trkpt lat="45.62038065790273" lon="9.373138156197053"><ele>199.0</ele><time>2026-05-04T14:13:31Z</time></trkpt><trkpt lat="45.62038466466767" lon="9.373310305571882"><ele>199.25</ele><time>2026-05-04T14:13:32Z</time></trkpt><trkpt lat="45.62037498909026" lon="9.373481714496817"><ele>199.5</ele><time>2026-05-04T14:13:33Z</time></trkpt><trkpt lat="45.62036485591178" lon="9.373652866109566"><ele>199.75</ele><time>2026-05-04T14:13:34Z</time></trkpt><trkpt lat="45.620340529930516" lon="9.373844010184387"><ele>200.0</ele><time>2026-05-04T14:13:35Z</time></trkpt><trkpt lat="45.62030333698448" lon="9.37399233803507"><ele>200.0</ele><time>2026-05-04T14:13:36Z</time></trkpt><trkpt lat="45.620275244793596" lon="9.374163765551073"><ele>200.0</ele><time>2026-05-04T14:13:37Z</time></trkpt><trkpt lat="45.62024856964104" lon="9.374304002080864"><ele>200.0</ele><time>2026-05-04T14:13:38Z</time></trkpt><trkpt lat="45.62019337520468" lon="9.374519059857965"><ele>200.0</ele><time>2026-05-04T14:13:39Z</time></trkpt><trkpt lat="45.620153276835914" lon="9.374691971175181"><ele>200.0</ele><time>2026-05-04T14:13:40Z</time></trkpt><trkpt lat="45.620113456938064" lon="9.374832602851935"><ele>200.0</ele><time>2026-05-04T14:13:41Z</time></trkpt><trkpt lat="45.62007389226044" lon="9.374995356220206"><ele>200.0</ele><time>2026-05-04T14:13:42Z</time></trkpt><trkpt lat="45.6200374851595" lon="9.375156738602465"><ele>200.0</ele><time>2026-05-04T14:13:43Z</time></trkpt><trkpt lat="45.620005023042964" lon="9.375318279775767"><ele>200.0</ele><time>2026-05-04T14:13:44Z</time></trkpt><trkpt lat="45.61997590209365" lon="9.375487062430345"><ele>200.0</ele><time>2026-05-04T14:13:45Z</time></trkpt><trkpt lat="45.61994705706607" lon="9.375620453555912"><ele>200.0</ele><time>2026-05-04T14:13:46Z</time></trkpt><trkpt lat="45.61991223796246" lon="9.375757118696486"><ele>200.0</ele><time>2026-05-04T14:13:47Z</time></trkpt><trkpt lat="45.619876349715945" lon="9.37587857260388"><ele>200.0</ele><time>2026-05-04T14:13:48Z</time></trkpt><trkpt lat="45.619843614563955" lon="9.375981872464717"><ele>199.8</ele><time>2026-05-04T14:13:49Z</time></trkpt><trkpt lat="45.61981517105235" lon="9.376096562754563"><ele>199.6</ele><time>2026-05-04T14:13:50Z</time></trkpt><trkpt lat="45.619794691808025" lon="9.37623229742653"><ele>199.39999999999998</ele><time>2026-05-04T14:13:51Z</time></trkpt><trkpt lat="45.61976614150487" lon="9.376343956267553"><ele>199.2</ele><time>2026-05-04T14:13:52Z</time></trkpt><trkpt lat="45.61970011069176" lon="9.376483405629628"><ele>199.0</ele><time>2026-05-04T14:13:54Z</time></trkpt><trkpt lat="45.61962751735985" lon="9.376590916290093"><ele>199.0</ele><time>2026-05-04T14:13:56Z</time></trkpt><trkpt lat="45.619583810628214" lon="9.376758705677565"><ele>199.0</ele><time>2026-05-04T14:13:58Z</time></trkpt><trkpt lat="45.619599110630645" lon="9.376862245952"><ele>199.0</ele><time>2026-05-04T14:13:59Z</time></trkpt><trkpt lat="45.61969772742534" lon="9.376957980967452"><ele>199.0</ele><time>2026-05-04T14:14:00Z</time></trkpt><trkpt lat="45.61974872972099" lon="9.377088264064882"><ele>199.0</ele><time>2026-05-04T14:14:01Z</time></trkpt><trkpt lat="45.61980071684987" lon="9.377265852978656"><ele>199.0</ele><time>2026-05-04T14:14:02Z</time></trkpt><trkpt lat="45.61984420886292" lon="9.37744930006183"><ele>199.0</ele><time>2026-05-04T14:14:03Z</time></trkpt><trkpt lat="45.61987976383967" lon="9.377660121456024"><ele>199.0</ele><time>2026-05-04T14:14:04Z</time></trkpt><trkpt lat="45.619943090050334" lon="9.377858621208674"><ele>199.0</ele><time>2026-05-04T14:14:05Z</time></trkpt><trkpt lat="45.619979014756865" lon="9.378050059339886"><ele>199.0</ele><time>2026-05-04T14:14:06Z</time></trkpt><trkpt lat="45.620017563030544" lon="9.378228894854063"><ele>199.0</ele><time>2026-05-04T14:14:07Z</time></trkpt><trkpt lat="45.6200500503633" lon="9.378375241001955"><ele>199.0</ele><time>2026-05-04T14:14:08Z</time></trkpt><trkpt lat="45.62008781086918" lon="9.378536829673104"><ele>199.0</ele><time>2026-05-04T14:14:09Z</time></trkpt><trkpt lat="45.62013215785918" lon="9.378709466038476"><ele>198.75</ele><time>2026-05-04T14:14:10Z</time></trkpt><trkpt lat="45.62016225258048" lon="9.378906614041973"><ele>198.5</ele><time>2026-05-04T14:14:11Z</time></trkpt><trkpt lat="45.620203666076854" lon="9.379091930038442"><ele>198.25</ele><time>2026-05-04T14:14:12Z</time></trkpt><trkpt lat="45.620245993042346" lon="9.37925814460679"><ele>198.0</ele><time>2026-05-04T14:14:13Z</time></trkpt><trkpt lat="45.62028176597228" lon="9.379436880694458"><ele>198.0</ele><time>2026-05-04T14:14:14Z</time></trkpt><trkpt lat="45.620310000696904" lon="9.37960823024177"><ele>198.0</ele><time>2026-05-04T14:14:15Z</time></trkpt><trkpt lat="45.62035104683986" lon="9.379773494866326"><ele>198.0</ele><time>2026-05-04T14:14:16Z</time></trkpt><trkpt lat="45.62038824195059" lon="9.379930123949578"><ele>198.0</ele><time>2026-05-04T14:14:17Z</time></trkpt><trkpt lat="45.620421454122024" lon="9.380072941334063"><ele>197.75</ele><time>2026-05-04T14:14:18Z</time></trkpt><trkpt lat="45.620457832343554" lon="9.38022981236325"><ele>197.5</ele><time>2026-05-04T14:14:19Z</time></trkpt><trkpt lat="45.62050003031439" lon="9.380382882892702"><ele>197.25</ele><time>2026-05-04T14:14:20Z</time></trkpt><trkpt lat="45.62053972652887" lon="9.380531031842137"><ele>197.0</ele><time>2026-05-04T14:14:21Z</time></trkpt><trkpt lat="45.62057774510066" lon="9.380694585398583"><ele>196.75</ele><time>2026-05-04T14:14:22Z</time></trkpt><trkpt lat="45.62060856365984" lon="9.380864197789334"><ele>196.5</ele><time>2026-05-04T14:14:23Z</time></trkpt><trkpt lat="45.62063117261493" lon="9.381015223598775"><ele>196.25</ele><time>2026-05-04T14:14:24Z</time></trkpt><trkpt lat="45.620671315686074" lon="9.381172362363676"><ele>196.0</ele><time>2026-05-04T14:14:25Z</time></trkpt><trkpt lat="45.620704029019905" lon="9.381326319165764"><ele>196.60000000000002</ele><time>2026-05-04T14:14:26Z</time></trkpt><trkpt lat="45.62072557681207" lon="9.381446068768994"><ele>197.2</ele><time>2026-05-04T14:14:27Z</time></trkpt><trkpt lat="45.62073886122132" lon="9.381567311279067"><ele>197.8</ele><time>2026-05-04T14:14:28Z</time></trkpt><trkpt lat="45.62073896638569" lon="9.38172034183358"><ele>198.39999999999998</ele><time>2026-05-04T14:14:29Z</time></trkpt><trkpt lat="45.62073658270803" lon="9.38188524307411"><ele>199.0</ele><time>2026-05-04T14:14:30Z</time></trkpt><trkpt lat="45.620748570357456" lon="9.382049768130036"><ele>199.83333333333331</ele><time>2026-05-04T14:14:31Z</time></trkpt><trkpt lat="45.62075506169833" lon="9.382205764244878"><ele>200.66666666666666</ele><time>2026-05-04T14:14:32Z</time></trkpt><trkpt lat="45.62075974079235" lon="9.382356639199216"><ele>201.5</ele><time>2026-05-04T14:14:33Z</time></trkpt><trkpt lat="45.62075679755207" lon="9.382471939957568"><ele>202.33333333333331</ele><time>2026-05-04T14:14:34Z</time></trkpt><trkpt lat="45.62070569588161" lon="9.382542088911794"><ele>203.16666666666666</ele><time>2026-05-04T14:14:35Z</time></trkpt><trkpt lat="45.62065492616823" lon="9.382614028575336"><ele>204.0</ele><time>2026-05-04T14:14:37Z</time></trkpt><trkpt lat="45.62051771635229" lon="9.38266853752802"><ele>204.0</ele><time>2026-05-04T14:14:43Z</time></trkpt><trkpt lat="45.62040493141465" lon="9.382674323799161"><ele>204.0</ele><time>2026-05-04T14:14:44Z</time></trkpt><trkpt lat="45.620280634181064" lon="9.382635556356075"><ele>204.0</ele><time>2026-05-04T14:14:45Z</time></trkpt><trkpt lat="45.62015792928441" lon="9.382601032266898"><ele>204.0</ele><time>2026-05-04T14:14:46Z</time></trkpt><trkpt lat="45.62003000177792" lon="9.382564993119924"><ele>204.5</ele><time>2026-05-04T14:14:47Z</time></trkpt><trkpt lat="45.619912155284304" lon="9.382530204651857"><ele>205.0</ele><time>2026-05-04T14:14:48Z</time></trkpt><trkpt lat="45.61978305663782" lon="9.382472239684638"><ele>205.5</ele><time>2026-05-04T14:14:49Z</time></trkpt><trkpt lat="45.619657518768406" lon="9.382445216330856"><ele>206.0</ele><time>2026-05-04T14:14:50Z</time></trkpt><trkpt lat="45.61950147037676" lon="9.382365573398351"><ele>204.33333333333334</ele><time>2026-05-04T14:14:51Z</time></trkpt><trkpt lat="45.619361888687564" lon="9.38235114538442"><ele>202.66666666666669</ele><time>2026-05-04T14:14:52Z</time></trkpt><trkpt lat="45.61919868783414" lon="9.38233010570721"><ele>201.0</ele><time>2026-05-04T14:14:53Z</time></trkpt><trkpt lat="45.61904916984308" lon="9.382341266881799"><ele>201.0</ele><time>2026-05-04T14:14:55Z</time></trkpt><trkpt lat="45.618920111765824" lon="9.382364654792452"><ele>201.0</ele><time>2026-05-04T14:14:56Z</time></trkpt><trkpt lat="45.61878980841638" lon="9.382403808407759"><ele>201.0</ele><time>2026-05-04T14:14:57Z</time></trkpt><trkpt lat="45.61866398103612" lon="9.382469920780425"><ele>201.0</ele><time>2026-05-04T14:14:58Z</time></trkpt><trkpt lat="45.618540262166775" lon="9.382552090339628"><ele>200.5</ele><time>2026-05-04T14:14:59Z</time></trkpt><trkpt lat="45.61841837354138" lon="9.382663275518903"><ele>200.0</ele><time>2026-05-04T14:15:00Z</time></trkpt><trkpt lat="45.61830497491712" lon="9.382793210226318"><ele>199.5</ele><time>2026-05-04T14:15:01Z</time></trkpt><trkpt lat="45.61820367858107" lon="9.382939043511906"><ele>199.0</ele><time>2026-05-04T14:15:02Z</time></trkpt><trkpt lat="45.61809643062894" lon="9.383091264198502"><ele>198.5</ele><time>2026-05-04T14:15:03Z</time></trkpt><trkpt lat="45.6179943595707" lon="9.383231826981897"><ele>198.0</ele><time>2026-05-04T14:15:04Z</time></trkpt><trkpt lat="45.61789949517298" lon="9.38335868944391"><ele>197.5</ele><time>2026-05-04T14:15:05Z</time></trkpt><trkpt lat="45.61781089258814" lon="9.383468454725215"><ele>197.0</ele><time>2026-05-04T14:15:06Z</time></trkpt><trkpt lat="45.61772863381061" lon="9.383574465772165"><ele>197.5</ele><time>2026-05-04T14:15:07Z</time></trkpt><trkpt lat="45.61765306062535" lon="9.383681558141348"><ele>198.0</ele><time>2026-05-04T14:15:08Z</time></trkpt><trkpt lat="45.61756896076011" lon="9.383795321082735"><ele>198.5</ele><time>2026-05-04T14:15:09Z</time></trkpt><trkpt lat="45.61747882664805" lon="9.383919546083854"><ele>199.0</ele><time>2026-05-04T14:15:10Z</time></trkpt><trkpt lat="45.617379435180936" lon="9.384046772802506"><ele>199.0</ele><time>2026-05-04T14:15:11Z</time></trkpt><trkpt lat="45.61728012301966" lon="9.38417521910812"><ele>199.0</ele><time>2026-05-04T14:15:12Z</time></trkpt><trkpt lat="45.6171785432907" lon="9.384306918724418"><ele>199.0</ele><time>2026-05-04T14:15:13Z</time></trkpt><trkpt lat="45.617076151790876" lon="9.38443681246388"><ele>199.0</ele><time>2026-05-04T14:15:14Z</time></trkpt><trkpt lat="45.616978581667695" lon="9.384563827286664"><ele>199.25</ele><time>2026-05-04T14:15:15Z</time></trkpt><trkpt lat="45.616876153892896" lon="9.384697876673963"><ele>199.5</ele><time>2026-05-04T14:15:16Z</time></trkpt><trkpt lat="45.61677195818167" lon="9.384829735312152"><ele>199.75</ele><time>2026-05-04T14:15:17Z</time></trkpt><trkpt lat="45.61667261279295" lon="9.384955174785905"><ele>200.0</ele><time>2026-05-04T14:15:18Z</time></trkpt><trkpt lat="45.61657796239837" lon="9.385086495811152"><ele>200.0</ele><time>2026-05-04T14:15:19Z</time></trkpt><trkpt lat="45.616482413964405" lon="9.385211846491945"><ele>200.0</ele><time>2026-05-04T14:15:20Z</time></trkpt><trkpt lat="45.61638777743407" lon="9.38533683898604"><ele>200.0</ele><time>2026-05-04T14:15:21Z</time></trkpt><trkpt lat="45.61628998765842" lon="9.385458092789147"><ele>200.0</ele><time>2026-05-04T14:15:22Z</time></trkpt><trkpt lat="45.61619204442408" lon="9.385580562892208"><ele>199.0</ele><time>2026-05-04T14:15:23Z</time></trkpt><trkpt lat="45.616096510745095" lon="9.385703080431343"><ele>198.0</ele><time>2026-05-04T14:15:24Z</time></trkpt><trkpt lat="45.61600114621264" lon="9.385833167503748"><ele>197.0</ele><time>2026-05-04T14:15:25Z</time></trkpt><trkpt lat="45.61590592907738" lon="9.385950139063622"><ele>196.0</ele><time>2026-05-04T14:15:26Z</time></trkpt><trkpt lat="45.61580819419996" lon="9.386070139214565"><ele>196.0</ele><time>2026-05-04T14:15:27Z</time></trkpt><trkpt lat="45.615715945918296" lon="9.3861964694711"><ele>196.0</ele><time>2026-05-04T14:15:28Z</time></trkpt><trkpt lat="45.615630446640345" lon="9.386313753156461"><ele>196.0</ele><time>2026-05-04T14:15:29Z</time></trkpt><trkpt lat="45.61555889331128" lon="9.386411962506449"><ele>196.0</ele><time>2026-05-04T14:15:30Z</time></trkpt><trkpt lat="45.615488374550374" lon="9.386507271146824"><ele>196.0</ele><time>2026-05-04T14:15:31Z</time></trkpt><trkpt lat="45.61542178205196" lon="9.386598137722498"><ele>195.99999999999997</ele><time>2026-05-04T14:15:32Z</time></trkpt><trkpt lat="45.615370755036935" lon="9.386685899763714"><ele>196.0</ele><time>2026-05-04T14:15:33Z</time></trkpt><trkpt lat="45.61530519056374" lon="9.386764753860794"><ele>196.0</ele><time>2026-05-04T14:15:34Z</time></trkpt><trkpt lat="45.61523907302116" lon="9.386856745882925"><ele>196.0</ele><time>2026-05-04T14:15:35Z</time></trkpt><trkpt lat="45.61518302196399" lon="9.38691587281759"><ele>195.99999999999997</ele><time>2026-05-04T14:15:36Z</time></trkpt><trkpt lat="45.615107535146144" lon="9.386916543882197"><ele>196.0</ele><time>2026-05-04T14:15:38Z</time></trkpt><trkpt lat="45.61503287806927" lon="9.386917882925193"><ele>196.0</ele><time>2026-05-04T14:15:43Z</time></trkpt><trkpt lat="45.614952946754116" lon="9.386906657003754"><ele>196.0</ele><time>2026-05-04T14:15:44Z</time></trkpt><trkpt lat="45.61486636074418" lon="9.386840513959584"><ele>196.0</ele><time>2026-05-04T14:15:45Z</time></trkpt><trkpt lat="45.614755553786416" lon="9.386820392802138"><ele>196.0</ele><time>2026-05-04T14:15:46Z</time></trkpt><trkpt lat="45.61465662686292" lon="9.386867968362525"><ele>196.0</ele><time>2026-05-04T14:15:47Z</time></trkpt><trkpt lat="45.61459214351041" lon="9.386952424015451"><ele>196.0</ele><time>2026-05-04T14:15:48Z</time></trkpt><trkpt lat="45.61454712315704" lon="9.387084871989277"><ele>196.0</ele><time>2026-05-04T14:15:49Z</time></trkpt><trkpt lat="45.61452756192287" lon="9.387242781542389"><ele>196.0</ele><time>2026-05-04T14:15:50Z</time></trkpt><trkpt lat="45.614551661317584" lon="9.387383548133526"><ele>196.0</ele><time>2026-05-04T14:15:51Z</time></trkpt><trkpt lat="45.61460539460361" lon="9.387510686231986"><ele>196.0</ele><time>2026-05-04T14:15:52Z</time></trkpt><trkpt lat="45.61467630725661" lon="9.387618485110615"><ele>195.75</ele><time>2026-05-04T14:15:53Z</time></trkpt><trkpt lat="45.61475966978225" lon="9.387708630578668"><ele>195.5</ele><time>2026-05-04T14:15:54Z</time></trkpt><trkpt lat="45.61485077457721" lon="9.387804093121296"><ele>195.25</ele><time>2026-05-04T14:15:55Z</time></trkpt><trkpt lat="45.614955467923615" lon="9.387941246646328"><ele>195.0</ele><time>2026-05-04T14:15:56Z</time></trkpt><trkpt lat="45.61506534344897" lon="9.388054532849106"><ele>194.66666666666669</ele><time>2026-05-04T14:15:57Z</time></trkpt><trkpt lat="45.61510605859668" lon="9.388287674947263"><ele>194.33333333333334</ele><time>2026-05-04T14:15:58Z</time></trkpt><trkpt lat="45.61515922918173" lon="9.388481074285691"><ele>194.0</ele><time>2026-05-04T14:15:59Z</time></trkpt><trkpt lat="45.61519444807447" lon="9.388686577779923"><ele>194.0</ele><time>2026-05-04T14:16:00Z</time></trkpt><trkpt lat="45.61521952727252" lon="9.388903425816357"><ele>194.0</ele><time>2026-05-04T14:16:01Z</time></trkpt><trkpt lat="45.61524596811444" lon="9.389116123165612"><ele>194.0</ele><time>2026-05-04T14:16:02Z</time></trkpt><trkpt lat="45.61528137697835" lon="9.38932938006062"><ele>194.0</ele><time>2026-05-04T14:16:03Z</time></trkpt><trkpt lat="45.615319468642326" lon="9.38954265215401"><ele>194.0</ele><time>2026-05-04T14:16:04Z</time></trkpt><trkpt lat="45.61535560555648" lon="9.389755336251369"><ele>194.0</ele><time>2026-05-04T14:16:05Z</time></trkpt><trkpt lat="45.6153906651435" lon="9.389962973660467"><ele>194.0</ele><time>2026-05-04T14:16:06Z</time></trkpt><trkpt lat="45.61542706049247" lon="9.39014993218616"><ele>194.0</ele><time>2026-05-04T14:16:07Z</time></trkpt><trkpt lat="45.61546410035281" lon="9.390333685592077"><ele>194.0</ele><time>2026-05-04T14:16:08Z</time></trkpt><trkpt lat="45.61550095484783" lon="9.390522592231818"><ele>194.0</ele><time>2026-05-04T14:16:09Z</time></trkpt><trkpt lat="45.61553372877433" lon="9.390708244563934"><ele>194.0</ele><time>2026-05-04T14:16:10Z</time></trkpt><trkpt lat="45.615563097772295" lon="9.390884697429705"><ele>194.0</ele><time>2026-05-04T14:16:11Z</time></trkpt><trkpt lat="45.61559062786594" lon="9.391056057534701"><ele>194.0</ele><time>2026-05-04T14:16:12Z</time></trkpt><trkpt lat="45.615612726530735" lon="9.391226384478793"><ele>194.0</ele><time>2026-05-04T14:16:13Z</time></trkpt><trkpt lat="45.61563012670635" lon="9.391398639032653"><ele>194.39999999999998</ele><time>2026-05-04T14:16:14Z</time></trkpt><trkpt lat="45.61563740752676" lon="9.391577070580766"><ele>194.8</ele><time>2026-05-04T14:16:15Z</time></trkpt><trkpt lat="45.615636142871395" lon="9.391758165182399"><ele>195.2</ele><time>2026-05-04T14:16:16Z</time></trkpt><trkpt lat="45.61563474731522" lon="9.39191691847772"><ele>195.60000000000002</ele><time>2026-05-04T14:16:17Z</time></trkpt><trkpt lat="45.615623923223225" lon="9.392038839196417"><ele>196.0</ele><time>2026-05-04T14:16:18Z</time></trkpt><trkpt lat="45.61560624054053" lon="9.39213029931999"><ele>196.0</ele><time>2026-05-04T14:16:20Z</time></trkpt><trkpt lat="45.615479919821986" lon="9.392155018052883"><ele>196.0</ele><time>2026-05-04T14:16:21Z</time></trkpt><trkpt lat="45.61538416890942" lon="9.392159289932598"><ele>196.0</ele><time>2026-05-04T14:16:23Z</time></trkpt><trkpt lat="45.61535734068796" lon="9.392289238703444"><ele>196.0</ele><time>2026-05-04T14:16:24Z</time></trkpt><trkpt lat="45.615290764416315" lon="9.392293472077045"><ele>196.0</ele><time>2026-05-04T14:16:25Z</time></trkpt><trkpt lat="45.615203056251964" lon="9.392269531827386"><ele>196.60000000000002</ele><time>2026-05-04T14:16:26Z</time></trkpt><trkpt lat="45.61510698921759" lon="9.3922584650847"><ele>197.2</ele><time>2026-05-04T14:16:27Z</time></trkpt><trkpt lat="45.6149977048237" lon="9.392257693826753"><ele>197.8</ele><time>2026-05-04T14:16:28Z</time></trkpt><trkpt lat="45.6149035725683" lon="9.392240504979899"><ele>198.39999999999998</ele><time>2026-05-04T14:16:29Z</time></trkpt><trkpt lat="45.61481665945595" lon="9.392214359236995"><ele>199.0</ele><time>2026-05-04T14:16:30Z</time></trkpt><trkpt lat="45.614737756995616" lon="9.392183919162912"><ele>198.49999999999997</ele><time>2026-05-04T14:16:31Z</time></trkpt><trkpt lat="45.614654939321426" lon="9.39216125528397"><ele>198.0</ele><time>2026-05-04T14:16:32Z</time></trkpt><trkpt lat="45.614590431107665" lon="9.392154819919227"><ele>197.5</ele><time>2026-05-04T14:16:33Z</time></trkpt><trkpt lat="45.614498275334505" lon="9.392078199304736"><ele>197.0</ele><time>2026-05-04T14:16:35Z</time></trkpt><trkpt lat="45.614464034676445" lon="9.391993970495417"><ele>196.49999999999997</ele><time>2026-05-04T14:16:36Z</time></trkpt><trkpt lat="45.614398283483496" lon="9.391884269460276"><ele>196.0</ele><time>2026-05-04T14:16:37Z</time></trkpt><trkpt lat="45.6143220571406" lon="9.391753950734035"><ele>196.0</ele><time>2026-05-04T14:16:38Z</time></trkpt><trkpt lat="45.61426363122019" lon="9.391608857403371"><ele>196.0</ele><time>2026-05-04T14:16:39Z</time></trkpt><trkpt lat="45.61418805192975" lon="9.39145488244432"><ele>196.0</ele><time>2026-05-04T14:16:40Z</time></trkpt><trkpt lat="45.61411803729063" lon="9.391302392064443"><ele>196.0</ele><time>2026-05-04T14:16:41Z</time></trkpt><trkpt lat="45.6140668054613" lon="9.391170252826642"><ele>196.0</ele><time>2026-05-04T14:16:42Z</time></trkpt><trkpt lat="45.61401870494725" lon="9.391036654245148"><ele>196.0</ele><time>2026-05-04T14:16:43Z</time></trkpt><trkpt lat="45.613989006617004" lon="9.390908588655648"><ele>196.0</ele><time>2026-05-04T14:16:44Z</time></trkpt><trkpt lat="45.6139889565553" lon="9.390730000216958"><ele>196.0</ele><time>2026-05-04T14:16:45Z</time></trkpt><trkpt lat="45.61398020887616" lon="9.390567316834197"><ele>196.0</ele><time>2026-05-04T14:16:46Z</time></trkpt><trkpt lat="45.61396944669201" lon="9.390394560678198"><ele>195.60000000000002</ele><time>2026-05-04T14:16:47Z</time></trkpt><trkpt lat="45.61397474526519" lon="9.390249258534553"><ele>195.2</ele><time>2026-05-04T14:16:48Z</time></trkpt><trkpt lat="45.61397244458795" lon="9.390119511615932"><ele>194.8</ele><time>2026-05-04T14:16:49Z</time></trkpt><trkpt lat="45.613963253753184" lon="9.389963936099239"><ele>194.39999999999998</ele><time>2026-05-04T14:16:50Z</time></trkpt><trkpt lat="45.61395590176695" lon="9.389822968281514"><ele>194.0</ele><time>2026-05-04T14:16:51Z</time></trkpt><trkpt lat="45.61395521405674" lon="9.389672149429398"><ele>193.75</ele><time>2026-05-04T14:16:52Z</time></trkpt><trkpt lat="45.61395569134795" lon="9.389497313599081"><ele>193.5</ele><time>2026-05-04T14:16:53Z</time></trkpt><trkpt lat="45.613950309245915" lon="9.389302167550998"><ele>193.25</ele><time>2026-05-04T14:16:54Z</time></trkpt><trkpt lat="45.613958109712115" lon="9.389149149601266"><ele>193.0</ele><time>2026-05-04T14:16:55Z</time></trkpt><trkpt lat="45.61393893282498" lon="9.389017881875768"><ele>193.0</ele><time>2026-05-04T14:16:56Z</time></trkpt><trkpt lat="45.61393351526801" lon="9.388909163450476"><ele>193.0</ele><time>2026-05-04T14:16:57Z</time></trkpt><trkpt lat="45.613918873982406" lon="9.388812739000272"><ele>193.0</ele><time>2026-05-04T14:16:58Z</time></trkpt><trkpt lat="45.61385483758573" lon="9.38874440061736"><ele>193.0</ele><time>2026-05-04T14:16:59Z</time></trkpt><trkpt lat="45.61376243590724" lon="9.38862349526242"><ele>193.0</ele><time>2026-05-04T14:17:00Z</time></trkpt><trkpt lat="45.61367373230948" lon="9.388468801795137"><ele>192.66666666666666</ele><time>2026-05-04T14:17:01Z</time></trkpt><trkpt lat="45.613624607082805" lon="9.38836473635167"><ele>192.33333333333331</ele><time>2026-05-04T14:17:02Z</time></trkpt><trkpt lat="45.61358455442472" lon="9.38826396890823"><ele>192.0</ele><time>2026-05-04T14:17:03Z</time></trkpt><trkpt lat="45.6135508306364" lon="9.388171340716598"><ele>191.66666666666666</ele><time>2026-05-04T14:17:04Z</time></trkpt><trkpt lat="45.61352845985809" lon="9.388062795166968"><ele>191.33333333333331</ele><time>2026-05-04T14:17:06Z</time></trkpt><trkpt lat="45.61352657828972" lon="9.387968768975837"><ele>191.0</ele><time>2026-05-04T14:17:09Z</time></trkpt><trkpt lat="45.613531370708856" lon="9.387838095686924"><ele>191.66666666666666</ele><time>2026-05-04T14:17:11Z</time></trkpt><trkpt lat="45.61352338119651" lon="9.387716088325316"><ele>192.33333333333331</ele><time>2026-05-04T14:17:12Z</time></trkpt><trkpt lat="45.61352320670838" lon="9.387616184998178"><ele>193.0</ele><time>2026-05-04T14:17:13Z</time></trkpt><trkpt lat="45.61342483826157" lon="9.387561333439894"><ele>193.66666666666666</ele><time>2026-05-04T14:17:18Z</time></trkpt><trkpt lat="45.6133592311233" lon="9.387560695559985"><ele>194.33333333333334</ele><time>2026-05-04T14:17:21Z</time></trkpt><trkpt lat="45.61325412059359" lon="9.387567647631524"><ele>195.0</ele><time>2026-05-04T14:17:23Z</time></trkpt><trkpt lat="45.61314494588643" lon="9.38756468777271"><ele>195.0</ele><time>2026-05-04T14:17:24Z</time></trkpt><trkpt lat="45.61301522803274" lon="9.387579323396645"><ele>195.0</ele><time>2026-05-04T14:17:25Z</time></trkpt><trkpt lat="45.61287410631208" lon="9.387575925220744"><ele>195.0</ele><time>2026-05-04T14:17:26Z</time></trkpt><trkpt lat="45.612715488534555" lon="9.387574228475874"><ele>195.0</ele><time>2026-05-04T14:17:27Z</time></trkpt><trkpt lat="45.61254237399206" lon="9.387571846552495"><ele>195.0</ele><time>2026-05-04T14:17:28Z</time></trkpt><trkpt lat="45.61238396662745" lon="9.387570704717765"><ele>195.0</ele><time>2026-05-04T14:17:29Z</time></trkpt><trkpt lat="45.6122132714208" lon="9.387564274865264"><ele>195.0</ele><time>2026-05-04T14:17:30Z</time></trkpt><trkpt lat="45.61205552678627" lon="9.387561958871508"><ele>195.25</ele><time>2026-05-04T14:17:31Z</time></trkpt><trkpt lat="45.611925327867155" lon="9.387564374518336"><ele>195.5</ele><time>2026-05-04T14:17:32Z</time></trkpt><trkpt lat="45.611805175268" lon="9.387557873360528"><ele>195.75</ele><time>2026-05-04T14:17:33Z</time></trkpt><trkpt lat="45.61168817941792" lon="9.387552569673785"><ele>196.0</ele><time>2026-05-04T14:17:34Z</time></trkpt><trkpt lat="45.611603166407335" lon="9.387548749077375"><ele>196.0</ele><time>2026-05-04T14:17:35Z</time></trkpt><trkpt lat="45.61153276977589" lon="9.38754763653149"><ele>196.0</ele><time>2026-05-04T14:17:36Z</time></trkpt><trkpt lat="45.61141414180056" lon="9.387602931328408"><ele>196.0</ele><time>2026-05-04T14:17:38Z</time></trkpt><trkpt lat="45.611400594645914" lon="9.387794835756193"><ele>196.0</ele><time>2026-05-04T14:17:40Z</time></trkpt><trkpt lat="45.611363776924804" lon="9.387945179024234"><ele>196.0</ele><time>2026-05-04T14:17:41Z</time></trkpt><trkpt lat="45.61133394570314" lon="9.388102074753412"><ele>195.25</ele><time>2026-05-04T14:17:42Z</time></trkpt><trkpt lat="45.611307819836846" lon="9.388283951980938"><ele>194.5</ele><time>2026-05-04T14:17:43Z</time></trkpt><trkpt lat="45.611314102373726" lon="9.388492407371434"><ele>193.75</ele><time>2026-05-04T14:17:44Z</time></trkpt><trkpt lat="45.611304198753004" lon="9.388724576702755"><ele>193.0</ele><time>2026-05-04T14:17:45Z</time></trkpt><trkpt lat="45.611302111393044" lon="9.388909124823552"><ele>192.49999999999997</ele><time>2026-05-04T14:17:46Z</time></trkpt><trkpt lat="45.61129658114811" lon="9.389051096820054"><ele>192.0</ele><time>2026-05-04T14:17:47Z</time></trkpt><trkpt lat="45.61129447278944" lon="9.389170771764759"><ele>191.5</ele><time>2026-05-04T14:17:48Z</time></trkpt><trkpt lat="45.61128418306936" lon="9.389288973561596"><ele>191.0</ele><time>2026-05-04T14:17:49Z</time></trkpt><trkpt lat="45.61127284415598" lon="9.3894048522811"><ele>190.5</ele><time>2026-05-04T14:17:50Z</time></trkpt><trkpt lat="45.611240519003786" lon="9.38952435660882"><ele>190.0</ele><time>2026-05-04T14:17:51Z</time></trkpt><trkpt lat="45.61117205936997" lon="9.389630311099143"><ele>190.8</ele><time>2026-05-04T14:17:52Z</time></trkpt><trkpt lat="45.61111897628989" lon="9.389741071506279"><ele>191.6</ele><time>2026-05-04T14:17:53Z</time></trkpt><trkpt lat="45.61105191743352" lon="9.389812705183822"><ele>192.39999999999998</ele><time>2026-05-04T14:17:54Z</time></trkpt><trkpt lat="45.61097751666782" lon="9.389937982777061"><ele>193.2</ele><time>2026-05-04T14:17:56Z</time></trkpt><trkpt lat="45.61090731917414" lon="9.39004156430311"><ele>194.0</ele><time>2026-05-04T14:17:58Z</time></trkpt><trkpt lat="45.61085687714966" lon="9.390113144159894"><ele>194.0</ele><time>2026-05-04T14:17:59Z</time></trkpt><trkpt lat="45.61079963538243" lon="9.390159112019754"><ele>194.0</ele><time>2026-05-04T14:18:00Z</time></trkpt><trkpt lat="45.61081236024045" lon="9.390269851418058"><ele>194.0</ele><time>2026-05-04T14:18:03Z</time></trkpt><trkpt lat="45.61086779051944" lon="9.3903146234186"><ele>194.0</ele><time>2026-05-04T14:18:06Z</time></trkpt><trkpt lat="45.61090272833552" lon="9.390236484160065"><ele>194.0</ele><time>2026-05-04T14:18:09Z</time></trkpt><trkpt lat="45.61084238074177" lon="9.390210565787898"><ele>194.0</ele><time>2026-05-04T14:18:12Z</time></trkpt><trkpt lat="45.6107826471778" lon="9.390239213771407"><ele>194.0</ele><time>2026-05-04T14:18:15Z</time></trkpt><trkpt lat="45.61082156873005" lon="9.390158303738499"><ele>194.0</ele><time>2026-05-04T14:18:22Z</time></trkpt><trkpt lat="45.6108636011484" lon="9.390056344531084"><ele>194.0</ele><time>2026-05-04T14:18:24Z</time></trkpt><trkpt lat="45.61093810871681" lon="9.39003484775507"><ele>194.0</ele><time>2026-05-04T14:18:26Z</time></trkpt><trkpt lat="45.6108838569019" lon="9.390109340275373"><ele>194.0</ele><time>2026-05-04T14:18:31Z</time></trkpt><trkpt lat="45.61083421649894" lon="9.390173118782208"><ele>194.0</ele><time>2026-05-04T14:18:32Z</time></trkpt><trkpt lat="45.61078597139733" lon="9.390243746755369"><ele>194.0</ele><time>2026-05-04T14:18:33Z</time></trkpt><trkpt lat="45.610733561695696" lon="9.39031571046066"><ele>194.0</ele><time>2026-05-04T14:18:34Z</time></trkpt><trkpt lat="45.61066380393369" lon="9.390394705617076"><ele>194.0</ele><time>2026-05-04T14:18:35Z</time></trkpt><trkpt lat="45.61059889445426" lon="9.390500621901081"><ele>194.0</ele><time>2026-05-04T14:18:36Z</time></trkpt><trkpt lat="45.61053251400065" lon="9.39059978249675"><ele>194.0</ele><time>2026-05-04T14:18:37Z</time></trkpt><trkpt lat="45.61052228456725" lon="9.390830711464908"><ele>194.0</ele><time>2026-05-04T14:18:38Z</time></trkpt><trkpt lat="45.61045639553004" lon="9.390971722738733"><ele>194.16666666666669</ele><time>2026-05-04T14:18:39Z</time></trkpt><trkpt lat="45.6104012864963" lon="9.391086918425536"><ele>194.33333333333334</ele><time>2026-05-04T14:18:40Z</time></trkpt><trkpt lat="45.61036239811907" lon="9.391175148436412"><ele>194.5</ele><time>2026-05-04T14:18:41Z</time></trkpt><trkpt lat="45.61034730165466" lon="9.39129761377779"><ele>194.66666666666669</ele><time>2026-05-04T14:18:42Z</time></trkpt><trkpt lat="45.61032650023316" lon="9.3914232093736"><ele>194.83333333333334</ele><time>2026-05-04T14:18:43Z</time></trkpt><trkpt lat="45.610309960931254" lon="9.391550061042318"><ele>195.0</ele><time>2026-05-04T14:18:44Z</time></trkpt><trkpt lat="45.610296414490854" lon="9.391698214795463"><ele>195.0</ele><time>2026-05-04T14:18:45Z</time></trkpt><trkpt lat="45.61028398031354" lon="9.391853732753798"><ele>195.0</ele><time>2026-05-04T14:18:46Z</time></trkpt><trkpt lat="45.61026999201855" lon="9.392023035768306"><ele>195.0</ele><time>2026-05-04T14:18:47Z</time></trkpt><trkpt lat="45.61025179454486" lon="9.392227184246726"><ele>195.0</ele><time>2026-05-04T14:18:48Z</time></trkpt><trkpt lat="45.610235321258315" lon="9.39243505042639"><ele>195.0</ele><time>2026-05-04T14:18:49Z</time></trkpt><trkpt lat="45.610225486183204" lon="9.39262749736946"><ele>195.0</ele><time>2026-05-04T14:18:50Z</time></trkpt><trkpt lat="45.6102144740699" lon="9.392814741379533"><ele>195.0</ele><time>2026-05-04T14:18:51Z</time></trkpt><trkpt lat="45.61020609063038" lon="9.392981252828077"><ele>195.0</ele><time>2026-05-04T14:18:52Z</time></trkpt><trkpt lat="45.610198128378244" lon="9.393123194650006"><ele>195.0</ele><time>2026-05-04T14:18:53Z</time></trkpt><trkpt lat="45.61018270859613" lon="9.393286083446807"><ele>195.0</ele><time>2026-05-04T14:18:54Z</time></trkpt><trkpt lat="45.61016099842483" lon="9.393490155517346"><ele>195.0</ele><time>2026-05-04T14:18:55Z</time></trkpt><trkpt lat="45.61013886012945" lon="9.393687369298888"><ele>195.0</ele><time>2026-05-04T14:18:56Z</time></trkpt><trkpt lat="45.61011671816288" lon="9.393856139167285"><ele>195.0</ele><time>2026-05-04T14:18:57Z</time></trkpt><trkpt lat="45.61009960590851" lon="9.394012976381447"><ele>195.0</ele><time>2026-05-04T14:18:58Z</time></trkpt><trkpt lat="45.61008162159051" lon="9.394166909373093"><ele>195.0</ele><time>2026-05-04T14:18:59Z</time></trkpt><trkpt lat="45.610063686220386" lon="9.394330556807494"><ele>195.0</ele><time>2026-05-04T14:19:00Z</time></trkpt><trkpt lat="45.610046093969686" lon="9.39451139250201"><ele>194.75</ele><time>2026-05-04T14:19:01Z</time></trkpt><trkpt lat="45.610027503363234" lon="9.394730631351097"><ele>194.5</ele><time>2026-05-04T14:19:02Z</time></trkpt><trkpt lat="45.61001292964884" lon="9.394939300779276"><ele>194.25</ele><time>2026-05-04T14:19:03Z</time></trkpt><trkpt lat="45.61000669357154" lon="9.395118114543926"><ele>194.0</ele><time>2026-05-04T14:19:04Z</time></trkpt><trkpt lat="45.61000119967504" lon="9.395274082266125"><ele>194.0</ele><time>2026-05-04T14:19:05Z</time></trkpt><trkpt lat="45.610009865036645" lon="9.395400952163701"><ele>194.0</ele><time>2026-05-04T14:19:06Z</time></trkpt><trkpt lat="45.61000775500314" lon="9.395544632317002"><ele>194.0</ele><time>2026-05-04T14:19:07Z</time></trkpt><trkpt lat="45.61000026856176" lon="9.395696114349432"><ele>194.0</ele><time>2026-05-04T14:19:08Z</time></trkpt><trkpt lat="45.609984662401715" lon="9.39585342310929"><ele>194.0</ele><time>2026-05-04T14:19:09Z</time></trkpt><trkpt lat="45.60997119503109" lon="9.395992313793958"><ele>194.0</ele><time>2026-05-04T14:19:10Z</time></trkpt><trkpt lat="45.60995849777405" lon="9.396100467551136"><ele>194.0</ele><time>2026-05-04T14:19:11Z</time></trkpt><trkpt lat="45.60994675998369" lon="9.396204565102128"><ele>194.0</ele><time>2026-05-04T14:19:12Z</time></trkpt><trkpt lat="45.609938722678514" lon="9.396375093863952"><ele>194.0</ele><time>2026-05-04T14:19:14Z</time></trkpt><trkpt lat="45.60992946797135" lon="9.396543610901462"><ele>194.0</ele><time>2026-05-04T14:19:16Z</time></trkpt><trkpt lat="45.60993528070243" lon="9.396701197106655"><ele>194.00000000000003</ele><time>2026-05-04T14:19:18Z</time></trkpt><trkpt lat="45.60994629994593" lon="9.39679112247253"><ele>194.0</ele><time>2026-05-04T14:19:19Z</time></trkpt><trkpt lat="45.609959230055914" lon="9.396919494787973"><ele>194.0</ele><time>2026-05-04T14:19:20Z</time></trkpt><trkpt lat="45.609976188951606" lon="9.397028029052711"><ele>194.0</ele><time>2026-05-04T14:19:21Z</time></trkpt><trkpt lat="45.60998558562423" lon="9.397140990797963"><ele>194.00000000000003</ele><time>2026-05-04T14:19:22Z</time></trkpt><trkpt lat="45.609984974047464" lon="9.397263758105067"><ele>194.0</ele><time>2026-05-04T14:19:23Z</time></trkpt><trkpt lat="45.60999010826208" lon="9.397412883610386"><ele>193.2</ele><time>2026-05-04T14:19:24Z</time></trkpt><trkpt lat="45.60998125041312" lon="9.397584973408364"><ele>192.39999999999998</ele><time>2026-05-04T14:19:25Z</time></trkpt><trkpt lat="45.60996829269702" lon="9.39773603534213"><ele>191.6</ele><time>2026-05-04T14:19:26Z</time></trkpt><trkpt lat="45.60996604367717" lon="9.397886538694216"><ele>190.8</ele><time>2026-05-04T14:19:27Z</time></trkpt><trkpt lat="45.60996693747255" lon="9.39800351439749"><ele>190.0</ele><time>2026-05-04T14:19:28Z</time></trkpt><trkpt lat="45.60996758834521" lon="9.398096751719406"><ele>189.8</ele><time>2026-05-04T14:19:29Z</time></trkpt><trkpt lat="45.60997074938547" lon="9.398216857361838"><ele>189.6</ele><time>2026-05-04T14:19:31Z</time></trkpt><trkpt lat="45.609983490078605" lon="9.398366230312604"><ele>189.39999999999998</ele><time>2026-05-04T14:19:33Z</time></trkpt><trkpt lat="45.60999201008341" lon="9.398498538930102"><ele>189.2</ele><time>2026-05-04T14:19:34Z</time></trkpt><trkpt lat="45.61000938194438" lon="9.39865201429334"><ele>189.0</ele><time>2026-05-04T14:19:35Z</time></trkpt><trkpt lat="45.61002609633776" lon="9.398807929602198"><ele>188.6</ele><time>2026-05-04T14:19:36Z</time></trkpt><trkpt lat="45.610044461466316" lon="9.39894590481248"><ele>188.2</ele><time>2026-05-04T14:19:37Z</time></trkpt><trkpt lat="45.61005046886181" lon="9.399057175053809"><ele>187.79999999999998</ele><time>2026-05-04T14:19:38Z</time></trkpt><trkpt lat="45.61004799117532" lon="9.399161155823043"><ele>187.39999999999998</ele><time>2026-05-04T14:19:39Z</time></trkpt><trkpt lat="45.61005154155712" lon="9.399299540735752"><ele>187.0</ele><time>2026-05-04T14:19:40Z</time></trkpt><trkpt lat="45.6100466650492" lon="9.399463707733325"><ele>187.0</ele><time>2026-05-04T14:19:41Z</time></trkpt><trkpt lat="45.6100406141306" lon="9.3996559046652"><ele>187.0</ele><time>2026-05-04T14:19:42Z</time></trkpt><trkpt lat="45.61001653850011" lon="9.399808305398967"><ele>187.0</ele><time>2026-05-04T14:19:43Z</time></trkpt><trkpt lat="45.6100001522614" lon="9.399948487473083"><ele>187.0</ele><time>2026-05-04T14:19:44Z</time></trkpt><trkpt lat="45.61000645319529" lon="9.400085585647204"><ele>187.0</ele><time>2026-05-04T14:19:45Z</time></trkpt><trkpt lat="45.61000985116466" lon="9.400220064882992"><ele>187.33333333333334</ele><time>2026-05-04T14:19:46Z</time></trkpt><trkpt lat="45.610019256386494" lon="9.400344346339372"><ele>187.66666666666669</ele><time>2026-05-04T14:19:48Z</time></trkpt><trkpt lat="45.61000204804228" lon="9.40043615261571"><ele>188.0</ele><time>2026-05-04T14:19:51Z</time></trkpt><trkpt lat="45.60991297511959" lon="9.40043963049355"><ele>188.33333333333334</ele><time>2026-05-04T14:19:53Z</time></trkpt><trkpt lat="45.60983731286369" lon="9.40043314221113"><ele>188.66666666666666</ele><time>2026-05-04T14:19:54Z</time></trkpt><trkpt lat="45.609729833033896" lon="9.400449309872863"><ele>189.0</ele><time>2026-05-04T14:19:55Z</time></trkpt><trkpt lat="45.6096118787427" lon="9.40044690188566"><ele>189.0</ele><time>2026-05-04T14:19:56Z</time></trkpt><trkpt lat="45.60953518670805" lon="9.400452932037785"><ele>189.0</ele><time>2026-05-04T14:19:57Z</time></trkpt><trkpt lat="45.60946880561935" lon="9.400494983846212"><ele>189.0</ele><time>2026-05-04T14:19:58Z</time></trkpt><trkpt lat="45.60940848393968" lon="9.400592989807462"><ele>189.0</ele><time>2026-05-04T14:19:59Z</time></trkpt><trkpt lat="45.60934264327651" lon="9.400721524703258"><ele>189.0</ele><time>2026-05-04T14:20:00Z</time></trkpt><trkpt lat="45.60926854284048" lon="9.400871293579963"><ele>189.66666666666666</ele><time>2026-05-04T14:20:01Z</time></trkpt><trkpt lat="45.609215319516714" lon="9.400993245161606"><ele>190.33333333333331</ele><time>2026-05-04T14:20:02Z</time></trkpt><trkpt lat="45.60919248154013" lon="9.401080054095816"><ele>191.0</ele><time>2026-05-04T14:20:03Z</time></trkpt><trkpt lat="45.6091860266388" lon="9.401176574883431"><ele>191.66666666666666</ele><time>2026-05-04T14:20:04Z</time></trkpt><trkpt lat="45.60919050410373" lon="9.401300479215807"><ele>192.33333333333331</ele><time>2026-05-04T14:20:06Z</time></trkpt><trkpt lat="45.609175395119095" lon="9.40143401412715"><ele>193.0</ele><time>2026-05-04T14:20:08Z</time></trkpt><trkpt lat="45.60916228117746" lon="9.401583816477455"><ele>193.16666666666666</ele><time>2026-05-04T14:20:10Z</time></trkpt><trkpt lat="45.609164566641134" lon="9.401756594037662"><ele>193.33333333333331</ele><time>2026-05-04T14:20:12Z</time></trkpt><trkpt lat="45.60916048588988" lon="9.401850026932637"><ele>193.5</ele><time>2026-05-04T14:20:13Z</time></trkpt><trkpt lat="45.60915724030669" lon="9.401940695223017"><ele>193.66666666666669</ele><time>2026-05-04T14:20:14Z</time></trkpt><trkpt lat="45.60914789479505" lon="9.402040384270713"><ele>193.83333333333334</ele><time>2026-05-04T14:20:15Z</time></trkpt><trkpt lat="45.6091373371122" lon="9.402137337727078"><ele>194.0</ele><time>2026-05-04T14:20:16Z</time></trkpt><trkpt lat="45.60912839623415" lon="9.402239359771214"><ele>194.33333333333334</ele><time>2026-05-04T14:20:17Z</time></trkpt><trkpt lat="45.60912163145609" lon="9.402347679955707"><ele>194.66666666666669</ele><time>2026-05-04T14:20:18Z</time></trkpt><trkpt lat="45.60911460743346" lon="9.402465180243325"><ele>195.0</ele><time>2026-05-04T14:20:19Z</time></trkpt><trkpt lat="45.60910833200973" lon="9.40258600278178"><ele>195.33333333333331</ele><time>2026-05-04T14:20:20Z</time></trkpt><trkpt lat="45.609101885251185" lon="9.402705681773773"><ele>195.66666666666666</ele><time>2026-05-04T14:20:21Z</time></trkpt><trkpt lat="45.60909405135084" lon="9.402821930308797"><ele>196.0</ele><time>2026-05-04T14:20:22Z</time></trkpt><trkpt lat="45.609083422561255" lon="9.402951596393399"><ele>196.20000000000002</ele><time>2026-05-04T14:20:23Z</time></trkpt><trkpt lat="45.60907309669286" lon="9.403064261703753"><ele>196.4</ele><time>2026-05-04T14:20:24Z</time></trkpt><trkpt lat="45.60906409713484" lon="9.403177791739088"><ele>196.6</ele><time>2026-05-04T14:20:25Z</time></trkpt><trkpt lat="45.60905734746762" lon="9.403275378184423"><ele>196.8</ele><time>2026-05-04T14:20:26Z</time></trkpt><trkpt lat="45.60901755910723" lon="9.403383246612012"><ele>197.0</ele><time>2026-05-04T14:20:27Z</time></trkpt><trkpt lat="45.60902417951589" lon="9.403579685820585"><ele>197.00000000000003</ele><time>2026-05-04T14:20:29Z</time></trkpt><trkpt lat="45.60901280695015" lon="9.403687005505327"><ele>197.0</ele><time>2026-05-04T14:20:30Z</time></trkpt><trkpt lat="45.60900969345335" lon="9.403784452363368"><ele>197.0</ele><time>2026-05-04T14:20:31Z</time></trkpt><trkpt lat="45.609010499801975" lon="9.40389236876539"><ele>197.0</ele><time>2026-05-04T14:20:32Z</time></trkpt><trkpt lat="45.60901134700602" lon="9.404026550651798"><ele>197.00000000000003</ele><time>2026-05-04T14:20:33Z</time></trkpt><trkpt lat="45.609014659542424" lon="9.404168679952779"><ele>197.0</ele><time>2026-05-04T14:20:34Z</time></trkpt><trkpt lat="45.609020360278706" lon="9.404322970123989"><ele>197.00000000000003</ele><time>2026-05-04T14:20:35Z</time></trkpt><trkpt lat="45.6090224682897" lon="9.404462728821672"><ele>197.0</ele><time>2026-05-04T14:20:36Z</time></trkpt><trkpt lat="45.60902398462861" lon="9.40458145859245"><ele>197.0</ele><time>2026-05-04T14:20:37Z</time></trkpt><trkpt lat="45.60903023136252" lon="9.404689045578241"><ele>197.0</ele><time>2026-05-04T14:20:38Z</time></trkpt><trkpt lat="45.609011285915464" lon="9.40480955907842"><ele>197.00000000000003</ele><time>2026-05-04T14:20:39Z</time></trkpt><trkpt lat="45.60897102915471" lon="9.404931513339186"><ele>197.0</ele><time>2026-05-04T14:20:40Z</time></trkpt><trkpt lat="45.60897123427605" lon="9.40509270782364"><ele>197.0</ele><time>2026-05-04T14:20:42Z</time></trkpt><trkpt lat="45.6089967160444" lon="9.405213945038891"><ele>197.0</ele><time>2026-05-04T14:20:44Z</time></trkpt><trkpt lat="45.60900047960467" lon="9.405326502552851"><ele>197.0</ele><time>2026-05-04T14:20:46Z</time></trkpt><trkpt lat="45.60900592886852" lon="9.40544820488376"><ele>197.0</ele><time>2026-05-04T14:20:47Z</time></trkpt><trkpt lat="45.60906503476351" lon="9.405567504646184"><ele>197.0</ele><time>2026-05-04T14:20:48Z</time></trkpt><trkpt lat="45.60906610864127" lon="9.405705722323336"><ele>197.0</ele><time>2026-05-04T14:20:49Z</time></trkpt><trkpt lat="45.609068877670815" lon="9.40587624417911"><ele>197.0</ele><time>2026-05-04T14:20:50Z</time></trkpt><trkpt lat="45.609060172127435" lon="9.406051567892687"><ele>197.0</ele><time>2026-05-04T14:20:51Z</time></trkpt><trkpt lat="45.609074768295386" lon="9.406232607005185"><ele>197.0</ele><time>2026-05-04T14:20:52Z</time></trkpt><trkpt lat="45.609078758882845" lon="9.406438281954491"><ele>196.25</ele><time>2026-05-04T14:20:53Z</time></trkpt><trkpt lat="45.609086387144714" lon="9.406632001801729"><ele>195.5</ele><time>2026-05-04T14:20:54Z</time></trkpt><trkpt lat="45.60908740716495" lon="9.406818679224196"><ele>194.75</ele><time>2026-05-04T14:20:55Z</time></trkpt><trkpt lat="45.609086135497975" lon="9.407019167622122"><ele>194.0</ele><time>2026-05-04T14:20:56Z</time></trkpt><trkpt lat="45.60909142273095" lon="9.40720659980526"><ele>194.0</ele><time>2026-05-04T14:20:57Z</time></trkpt><trkpt lat="45.60907728610131" lon="9.40739423401518"><ele>194.0</ele><time>2026-05-04T14:20:58Z</time></trkpt><trkpt lat="45.609078898609866" lon="9.407581994650883"><ele>194.0</ele><time>2026-05-04T14:20:59Z</time></trkpt><trkpt lat="45.60908129564847" lon="9.407776970714234"><ele>194.0</ele><time>2026-05-04T14:21:00Z</time></trkpt><trkpt lat="45.609099988117244" lon="9.407960556457363"><ele>194.0</ele><time>2026-05-04T14:21:01Z</time></trkpt><trkpt lat="45.60910054563344" lon="9.408130512711514"><ele>194.0</ele><time>2026-05-04T14:21:02Z</time></trkpt><trkpt lat="45.609106374774214" lon="9.40829050836525"><ele>194.0</ele><time>2026-05-04T14:21:03Z</time></trkpt><trkpt lat="45.60910723647205" lon="9.408455067274005"><ele>194.0</ele><time>2026-05-04T14:21:04Z</time></trkpt><trkpt lat="45.60910662596069" lon="9.40863254003024"><ele>194.0</ele><time>2026-05-04T14:21:05Z</time></trkpt><trkpt lat="45.609111045817436" lon="9.408796900388358"><ele>194.0</ele><time>2026-05-04T14:21:06Z</time></trkpt><trkpt lat="45.6091162477111" lon="9.408968128836394"><ele>194.0</ele><time>2026-05-04T14:21:07Z</time></trkpt><trkpt lat="45.6091196355583" lon="9.40914657641455"><ele>194.0</ele><time>2026-05-04T14:21:08Z</time></trkpt><trkpt lat="45.60912293628471" lon="9.409304101419975"><ele>193.75</ele><time>2026-05-04T14:21:09Z</time></trkpt><trkpt lat="45.60912740828716" lon="9.409475585371498"><ele>193.5</ele><time>2026-05-04T14:21:10Z</time></trkpt><trkpt lat="45.609130401603366" lon="9.409663623376982"><ele>193.25</ele><time>2026-05-04T14:21:11Z</time></trkpt><trkpt lat="45.6091293407259" lon="9.40986945675419"><ele>193.0</ele><time>2026-05-04T14:21:12Z</time></trkpt><trkpt lat="45.60913102547707" lon="9.410080122778721"><ele>193.0</ele><time>2026-05-04T14:21:13Z</time></trkpt><trkpt lat="45.609133351465026" lon="9.410261049998008"><ele>193.0</ele><time>2026-05-04T14:21:14Z</time></trkpt><trkpt lat="45.609114144290956" lon="9.410455504144066"><ele>193.0</ele><time>2026-05-04T14:21:15Z</time></trkpt><trkpt lat="45.60910832413444" lon="9.410704615751795"><ele>193.0</ele><time>2026-05-04T14:21:16Z</time></trkpt><trkpt lat="45.60911437768223" lon="9.410940133695007"><ele>193.25</ele><time>2026-05-04T14:21:17Z</time></trkpt><trkpt lat="45.60910185458124" lon="9.411163751925395"><ele>193.5</ele><time>2026-05-04T14:21:18Z</time></trkpt><trkpt lat="45.609101183550386" lon="9.41135496022889"><ele>193.75</ele><time>2026-05-04T14:21:19Z</time></trkpt><trkpt lat="45.609097657323396" lon="9.411551856418328"><ele>194.0</ele><time>2026-05-04T14:21:20Z</time></trkpt><trkpt lat="45.60908926349108" lon="9.411726445446993"><ele>194.0</ele><time>2026-05-04T14:21:21Z</time></trkpt><trkpt lat="45.609090352145415" lon="9.411904944210386"><ele>194.0</ele><time>2026-05-04T14:21:22Z</time></trkpt><trkpt lat="45.60907187916691" lon="9.41211924815777"><ele>194.0</ele><time>2026-05-04T14:21:23Z</time></trkpt><trkpt lat="45.609072203227534" lon="9.412358429231993"><ele>194.0</ele><time>2026-05-04T14:21:24Z</time></trkpt><trkpt lat="45.60906401151392" lon="9.41254915718006"><ele>194.0</ele><time>2026-05-04T14:21:25Z</time></trkpt><trkpt lat="45.60904971706706" lon="9.412720291716743"><ele>194.0</ele><time>2026-05-04T14:21:26Z</time></trkpt><trkpt lat="45.609040440103364" lon="9.412872216487626"><ele>194.0</ele><time>2026-05-04T14:21:27Z</time></trkpt><trkpt lat="45.60899209866198" lon="9.412999753839156"><ele>194.0</ele><time>2026-05-04T14:21:28Z</time></trkpt><trkpt lat="45.608985737137644" lon="9.413134391118758"><ele>194.0</ele><time>2026-05-04T14:21:29Z</time></trkpt><trkpt lat="45.60896527323138" lon="9.413266099127739"><ele>194.0</ele><time>2026-05-04T14:21:30Z</time></trkpt><trkpt lat="45.60896496713631" lon="9.413461302260458"><ele>194.0</ele><time>2026-05-04T14:21:31Z</time></trkpt><trkpt lat="45.60896051172975" lon="9.413672950528895"><ele>194.0</ele><time>2026-05-04T14:21:32Z</time></trkpt><trkpt lat="45.60895294097241" lon="9.41383523242355"><ele>194.0</ele><time>2026-05-04T14:21:33Z</time></trkpt><trkpt lat="45.60895394378184" lon="9.41397572127429"><ele>194.25</ele><time>2026-05-04T14:21:34Z</time></trkpt><trkpt lat="45.60895657085223" lon="9.41413946104589"><ele>194.5</ele><time>2026-05-04T14:21:35Z</time></trkpt><trkpt lat="45.608968846533536" lon="9.414327201670673"><ele>194.75</ele><time>2026-05-04T14:21:36Z</time></trkpt><trkpt lat="45.608965022495894" lon="9.41450428460378"><ele>195.0</ele><time>2026-05-04T14:21:37Z</time></trkpt><trkpt lat="45.60899063789868" lon="9.414670260475145"><ele>195.0</ele><time>2026-05-04T14:21:38Z</time></trkpt><trkpt lat="45.60896970316134" lon="9.414834112738475"><ele>195.0</ele><time>2026-05-04T14:21:39Z</time></trkpt><trkpt lat="45.60895416430325" lon="9.415029615944167"><ele>195.0</ele><time>2026-05-04T14:21:40Z</time></trkpt><trkpt lat="45.60895384079257" lon="9.415208553219125"><ele>195.0</ele><time>2026-05-04T14:21:41Z</time></trkpt><trkpt lat="45.60892507527986" lon="9.415402612705932"><ele>194.75</ele><time>2026-05-04T14:21:42Z</time></trkpt><trkpt lat="45.60891990326689" lon="9.415598642275574"><ele>194.5</ele><time>2026-05-04T14:21:43Z</time></trkpt><trkpt lat="45.60890602710773" lon="9.415795059908742"><ele>194.25</ele><time>2026-05-04T14:21:44Z</time></trkpt><trkpt lat="45.60889048622719" lon="9.416016931166524"><ele>194.0</ele><time>2026-05-04T14:21:45Z</time></trkpt><trkpt lat="45.60888250225408" lon="9.416208923334246"><ele>193.75</ele><time>2026-05-04T14:21:46Z</time></trkpt><trkpt lat="45.60887703822688" lon="9.416390091237412"><ele>193.5</ele><time>2026-05-04T14:21:47Z</time></trkpt><trkpt lat="45.60885972007393" lon="9.416585449139617"><ele>193.25</ele><time>2026-05-04T14:21:48Z</time></trkpt><trkpt lat="45.60885760286831" lon="9.416781961979131"><ele>193.0</ele><time>2026-05-04T14:21:49Z</time></trkpt><trkpt lat="45.60885665820183" lon="9.416985914853221"><ele>193.25</ele><time>2026-05-04T14:21:50Z</time></trkpt><trkpt lat="45.608870210786556" lon="9.417176524179474"><ele>193.5</ele><time>2026-05-04T14:21:51Z</time></trkpt><trkpt lat="45.60887013033442" lon="9.417337337282541"><ele>193.75</ele><time>2026-05-04T14:21:52Z</time></trkpt><trkpt lat="45.60887606395472" lon="9.41750653906382"><ele>194.0</ele><time>2026-05-04T14:21:53Z</time></trkpt><trkpt lat="45.60887381700843" lon="9.417654555872335"><ele>194.0</ele><time>2026-05-04T14:21:54Z</time></trkpt><trkpt lat="45.60888670579995" lon="9.417812218787473"><ele>194.0</ele><time>2026-05-04T14:21:55Z</time></trkpt><trkpt lat="45.60889558784977" lon="9.417955268138499"><ele>194.0</ele><time>2026-05-04T14:21:56Z</time></trkpt><trkpt lat="45.60889704900255" lon="9.418062738367313"><ele>194.0</ele><time>2026-05-04T14:21:57Z</time></trkpt><trkpt lat="45.60889894856106" lon="9.418221241013727"><ele>194.0</ele><time>2026-05-04T14:21:59Z</time></trkpt><trkpt lat="45.60886107439623" lon="9.418381774896256"><ele>194.2</ele><time>2026-05-04T14:22:01Z</time></trkpt><trkpt lat="45.60885271777885" lon="9.418487107067312"><ele>194.39999999999998</ele><time>2026-05-04T14:22:02Z</time></trkpt><trkpt lat="45.60883615936028" lon="9.418601326982373"><ele>194.6</ele><time>2026-05-04T14:22:03Z</time></trkpt><trkpt lat="45.60881849845331" lon="9.418756862985344"><ele>194.8</ele><time>2026-05-04T14:22:05Z</time></trkpt><trkpt lat="45.608802766657966" lon="9.41888529037411"><ele>195.0</ele><time>2026-05-04T14:22:07Z</time></trkpt><trkpt lat="45.60879521259188" lon="9.419024912000861"><ele>195.0</ele><time>2026-05-04T14:22:09Z</time></trkpt><trkpt lat="45.60878932522903" lon="9.4191588175766"><ele>195.0</ele><time>2026-05-04T14:22:11Z</time></trkpt><trkpt lat="45.60877829108735" lon="9.419256787045983"><ele>195.0</ele><time>2026-05-04T14:22:14Z</time></trkpt><trkpt lat="45.60861826819982" lon="9.419315557749188"><ele>195.0</ele><time>2026-05-04T14:22:30Z</time></trkpt><trkpt lat="45.60852807947918" lon="9.419309538403082"><ele>195.0</ele><time>2026-05-04T14:22:31Z</time></trkpt><trkpt lat="45.60843278065167" lon="9.419310640040559"><ele>194.75</ele><time>2026-05-04T14:22:32Z</time></trkpt><trkpt lat="45.60834044201946" lon="9.419314212204053"><ele>194.5</ele><time>2026-05-04T14:22:33Z</time></trkpt><trkpt lat="45.6082452890066" lon="9.41933105934899"><ele>194.25</ele><time>2026-05-04T14:22:34Z</time></trkpt><trkpt lat="45.60815317300161" lon="9.419349282639999"><ele>194.0</ele><time>2026-05-04T14:22:36Z</time></trkpt><trkpt lat="45.607763079094454" lon="9.419349454341237"><ele>193.75</ele><time>2026-05-04T14:22:38Z</time></trkpt><trkpt lat="45.60766378196106" lon="9.419347449797224"><ele>193.5</ele><time>2026-05-04T14:22:39Z</time></trkpt><trkpt lat="45.60754477661146" lon="9.419258838222465"><ele>193.25</ele><time>2026-05-04T14:22:40Z</time></trkpt><trkpt lat="45.60740953202949" lon="9.41926329317861"><ele>193.0</ele><time>2026-05-04T14:22:41Z</time></trkpt><trkpt lat="45.607264097902025" lon="9.419340885429085"><ele>193.0</ele><time>2026-05-04T14:22:42Z</time></trkpt><trkpt lat="45.60711296624412" lon="9.41941042327492"><ele>193.0</ele><time>2026-05-04T14:22:43Z</time></trkpt><trkpt lat="45.606953227419964" lon="9.419394439975466"><ele>193.0</ele><time>2026-05-04T14:22:44Z</time></trkpt><trkpt lat="45.60681230629633" lon="9.419360661275634"><ele>192.5</ele><time>2026-05-04T14:22:45Z</time></trkpt><trkpt lat="45.606681963965336" lon="9.419339205429644"><ele>192.0</ele><time>2026-05-04T14:22:46Z</time></trkpt><trkpt lat="45.60655540725909" lon="9.419329136465162"><ele>191.5</ele><time>2026-05-04T14:22:47Z</time></trkpt><trkpt lat="45.606419146192884" lon="9.41932235183926"><ele>191.0</ele><time>2026-05-04T14:22:48Z</time></trkpt><trkpt lat="45.60628460704486" lon="9.419317285308383"><ele>191.0</ele><time>2026-05-04T14:22:49Z</time></trkpt><trkpt lat="45.60616278535141" lon="9.419293640976097"><ele>191.0</ele><time>2026-05-04T14:22:50Z</time></trkpt><trkpt lat="45.60604846974915" lon="9.419278492059917"><ele>191.0</ele><time>2026-05-04T14:22:51Z</time></trkpt><trkpt lat="45.6059385874381" lon="9.419256090278667"><ele>191.0</ele><time>2026-05-04T14:22:52Z</time></trkpt><trkpt lat="45.60582089772471" lon="9.419233785819413"><ele>191.0</ele><time>2026-05-04T14:22:53Z</time></trkpt><trkpt lat="45.60570056940964" lon="9.419209052989272"><ele>191.0</ele><time>2026-05-04T14:22:54Z</time></trkpt><trkpt lat="45.605577903972325" lon="9.419187498315004"><ele>191.0</ele><time>2026-05-04T14:22:55Z</time></trkpt><trkpt lat="45.60544623379177" lon="9.41915480368389"><ele>191.0</ele><time>2026-05-04T14:22:56Z</time></trkpt><trkpt lat="45.605319736588555" lon="9.419127808507463"><ele>190.75</ele><time>2026-05-04T14:22:57Z</time></trkpt><trkpt lat="45.60518739862402" lon="9.419095384673339"><ele>190.5</ele><time>2026-05-04T14:22:58Z</time></trkpt><trkpt lat="45.60504789245368" lon="9.419058125661346"><ele>190.25</ele><time>2026-05-04T14:22:59Z</time></trkpt><trkpt lat="45.604908259402336" lon="9.419032826700322"><ele>190.0</ele><time>2026-05-04T14:23:00Z</time></trkpt><trkpt lat="45.604750662986376" lon="9.4189585504548"><ele>190.0</ele><time>2026-05-04T14:23:01Z</time></trkpt><trkpt lat="45.60462008752932" lon="9.418848305804218"><ele>190.0</ele><time>2026-05-04T14:23:02Z</time></trkpt><trkpt lat="45.60450660767067" lon="9.418698971461332"><ele>190.0</ele><time>2026-05-04T14:23:03Z</time></trkpt><trkpt lat="45.60441134844869" lon="9.41851118347157"><ele>189.66666666666669</ele><time>2026-05-04T14:23:04Z</time></trkpt><trkpt lat="45.60434171911963" lon="9.418291090085571"><ele>189.33333333333334</ele><time>2026-05-04T14:23:05Z</time></trkpt><trkpt lat="45.60434811158329" lon="9.41804980030304"><ele>189.0</ele><time>2026-05-04T14:23:06Z</time></trkpt><trkpt lat="45.60433948187163" lon="9.417814762055688"><ele>189.66666666666666</ele><time>2026-05-04T14:23:07Z</time></trkpt><trkpt lat="45.60433279228641" lon="9.417569009106062"><ele>190.33333333333331</ele><time>2026-05-04T14:23:08Z</time></trkpt><trkpt lat="45.6043009129395" lon="9.417316174016708"><ele>191.0</ele><time>2026-05-04T14:23:09Z</time></trkpt><trkpt lat="45.604280088946126" lon="9.41708422710476"><ele>191.0</ele><time>2026-05-04T14:23:10Z</time></trkpt><trkpt lat="45.604261504697234" lon="9.416861512406197"><ele>191.0</ele><time>2026-05-04T14:23:11Z</time></trkpt><trkpt lat="45.6042622109833" lon="9.416660056533155"><ele>191.0</ele><time>2026-05-04T14:23:12Z</time></trkpt><trkpt lat="45.60424401784825" lon="9.416483124102522"><ele>191.0</ele><time>2026-05-04T14:23:13Z</time></trkpt><trkpt lat="45.60422231483579" lon="9.416321049866934"><ele>191.0</ele><time>2026-05-04T14:23:14Z</time></trkpt><trkpt lat="45.60421213509167" lon="9.416175956334694"><ele>191.0</ele><time>2026-05-04T14:23:15Z</time></trkpt><trkpt lat="45.60421272933334" lon="9.41604978499909"><ele>191.0</ele><time>2026-05-04T14:23:16Z</time></trkpt><trkpt lat="45.60421690784777" lon="9.41594365806434"><ele>191.0</ele><time>2026-05-04T14:23:17Z</time></trkpt><trkpt lat="45.60422788549893" lon="9.415843249994325"><ele>191.0</ele><time>2026-05-04T14:23:18Z</time></trkpt><trkpt lat="45.6042585959124" lon="9.415733113527804"><ele>191.0</ele><time>2026-05-04T14:23:19Z</time></trkpt><trkpt lat="45.60425448267731" lon="9.415612627530145"><ele>190.75</ele><time>2026-05-04T14:23:20Z</time></trkpt><trkpt lat="45.60421168214047" lon="9.415464059938294"><ele>190.5</ele><time>2026-05-04T14:23:21Z</time></trkpt><trkpt lat="45.60414841417831" lon="9.415308598406556"><ele>190.25</ele><time>2026-05-04T14:23:22Z</time></trkpt><trkpt lat="45.60411757291491" lon="9.415150197055114"><ele>190.0</ele><time>2026-05-04T14:23:23Z</time></trkpt><trkpt lat="45.604106155624955" lon="9.414945577387448"><ele>190.0</ele><time>2026-05-04T14:23:24Z</time></trkpt><trkpt lat="45.60409219872936" lon="9.414710651478437"><ele>190.0</ele><time>2026-05-04T14:23:25Z</time></trkpt><trkpt lat="45.604079444503505" lon="9.414505332803708"><ele>190.0</ele><time>2026-05-04T14:23:26Z</time></trkpt><trkpt lat="45.60407288574404" lon="9.414304093902043"><ele>190.0</ele><time>2026-05-04T14:23:27Z</time></trkpt><trkpt lat="45.60406636215911" lon="9.41412101818816"><ele>190.0</ele><time>2026-05-04T14:23:28Z</time></trkpt><trkpt lat="45.60406361998672" lon="9.413925245238438"><ele>190.0</ele><time>2026-05-04T14:23:29Z</time></trkpt><trkpt lat="45.60407012442388" lon="9.413704599901182"><ele>190.0</ele><time>2026-05-04T14:23:30Z</time></trkpt><trkpt lat="45.60406727560344" lon="9.41358347448438"><ele>189.75</ele><time>2026-05-04T14:23:31Z</time></trkpt><trkpt lat="45.60406305838725" lon="9.413404167888288"><ele>189.5</ele><time>2026-05-04T14:23:32Z</time></trkpt><trkpt lat="45.60405844079403" lon="9.413216865573453"><ele>189.25</ele><time>2026-05-04T14:23:33Z</time></trkpt><trkpt lat="45.60405341562786" lon="9.413018883578093"><ele>189.0</ele><time>2026-05-04T14:23:34Z</time></trkpt><trkpt lat="45.60404830513443" lon="9.41281753988491"><ele>189.0</ele><time>2026-05-04T14:23:35Z</time></trkpt><trkpt lat="45.6040644101502" lon="9.412620479868473"><ele>189.0</ele><time>2026-05-04T14:23:36Z</time></trkpt><trkpt lat="45.60405225660075" lon="9.41243132994168"><ele>189.0</ele><time>2026-05-04T14:23:37Z</time></trkpt><trkpt lat="45.60404707985927" lon="9.412246504498384"><ele>189.0</ele><time>2026-05-04T14:23:38Z</time></trkpt><trkpt lat="45.60404326876398" lon="9.41206129997393"><ele>189.25</ele><time>2026-05-04T14:23:39Z</time></trkpt><trkpt lat="45.604035839797675" lon="9.411877680268107"><ele>189.5</ele><time>2026-05-04T14:23:40Z</time></trkpt><trkpt lat="45.60402855367176" lon="9.411694715529567"><ele>189.75</ele><time>2026-05-04T14:23:41Z</time></trkpt><trkpt lat="45.604018394273915" lon="9.411508458755348"><ele>190.0</ele><time>2026-05-04T14:23:42Z</time></trkpt><trkpt lat="45.60400849081615" lon="9.411318319213223"><ele>190.0</ele><time>2026-05-04T14:23:43Z</time></trkpt><trkpt lat="45.60400303370867" lon="9.411137285117332"><ele>190.0</ele><time>2026-05-04T14:23:44Z</time></trkpt><trkpt lat="45.603990528348746" lon="9.410937990582696"><ele>190.0</ele><time>2026-05-04T14:23:45Z</time></trkpt><trkpt lat="45.60399122314943" lon="9.410757673163577"><ele>190.0</ele><time>2026-05-04T14:23:46Z</time></trkpt><trkpt lat="45.60398423860652" lon="9.410569336584272"><ele>190.0</ele><time>2026-05-04T14:23:47Z</time></trkpt><trkpt lat="45.60398713551305" lon="9.410389554435422"><ele>190.0</ele><time>2026-05-04T14:23:48Z</time></trkpt><trkpt lat="45.60398049891573" lon="9.410208164054886"><ele>190.0</ele><time>2026-05-04T14:23:49Z</time></trkpt><trkpt lat="45.60397741782242" lon="9.410010863317108"><ele>190.0</ele><time>2026-05-04T14:23:50Z</time></trkpt><trkpt lat="45.60396570310503" lon="9.40982575726556"><ele>190.0</ele><time>2026-05-04T14:23:51Z</time></trkpt><trkpt lat="45.6039600680631" lon="9.409682358552686"><ele>190.0</ele><time>2026-05-04T14:23:52Z</time></trkpt><trkpt lat="45.60396271262888" lon="9.409533293652892"><ele>190.0</ele><time>2026-05-04T14:23:53Z</time></trkpt><trkpt lat="45.603978081336905" lon="9.409397003224058"><ele>190.0</ele><time>2026-05-04T14:23:54Z</time></trkpt><trkpt lat="45.60399846493336" lon="9.40927467898918"><ele>190.0</ele><time>2026-05-04T14:23:55Z</time></trkpt><trkpt lat="45.604066342972764" lon="9.409176893919375"><ele>189.8</ele><time>2026-05-04T14:23:56Z</time></trkpt><trkpt lat="45.60405602815736" lon="9.408994521572218"><ele>189.6</ele><time>2026-05-04T14:23:58Z</time></trkpt><trkpt lat="45.604018031227234" lon="9.408874925026009"><ele>189.39999999999998</ele><time>2026-05-04T14:23:59Z</time></trkpt><trkpt lat="45.603914778860855" lon="9.408823186201356"><ele>189.2</ele><time>2026-05-04T14:24:00Z</time></trkpt><trkpt lat="45.60380901939722" lon="9.408875653326547"><ele>189.0</ele><time>2026-05-04T14:24:01Z</time></trkpt><trkpt lat="45.603733787748524" lon="9.408956318153397"><ele>189.0</ele><time>2026-05-04T14:24:02Z</time></trkpt><trkpt lat="45.60371841606186" lon="9.409130538379314"><ele>189.0</ele><time>2026-05-04T14:24:03Z</time></trkpt><trkpt lat="45.603546690241124" lon="9.409165110089598"><ele>189.0</ele><time>2026-05-04T14:24:04Z</time></trkpt><trkpt lat="45.60340393860618" lon="9.409196898626059"><ele>189.0</ele><time>2026-05-04T14:24:05Z</time></trkpt><trkpt lat="45.60326874861188" lon="9.40920640434606"><ele>188.75</ele><time>2026-05-04T14:24:06Z</time></trkpt><trkpt lat="45.60312587160758" lon="9.40922588442875"><ele>188.5</ele><time>2026-05-04T14:24:07Z</time></trkpt><trkpt lat="45.6029831374018" lon="9.409226673184943"><ele>188.25</ele><time>2026-05-04T14:24:08Z</time></trkpt><trkpt lat="45.602840676788226" lon="9.40923046594292"><ele>188.0</ele><time>2026-05-04T14:24:09Z</time></trkpt><trkpt lat="45.60269936773721" lon="9.409242777506257"><ele>188.0</ele><time>2026-05-04T14:24:10Z</time></trkpt><trkpt lat="45.60255122046643" lon="9.40925760914611"><ele>188.0</ele><time>2026-05-04T14:24:11Z</time></trkpt><trkpt lat="45.6024176204804" lon="9.409262430045334"><ele>188.0</ele><time>2026-05-04T14:24:12Z</time></trkpt><trkpt lat="45.602295606345685" lon="9.409262736389769"><ele>188.0</ele><time>2026-05-04T14:24:13Z</time></trkpt><trkpt lat="45.60217770595968" lon="9.409265485591813"><ele>188.0</ele><time>2026-05-04T14:24:14Z</time></trkpt><trkpt lat="45.60208068960855" lon="9.409278202358157"><ele>188.0</ele><time>2026-05-04T14:24:15Z</time></trkpt><trkpt lat="45.60199381633302" lon="9.409282450534281"><ele>188.0</ele><time>2026-05-04T14:24:16Z</time></trkpt><trkpt lat="45.60191020332359" lon="9.40923915321986"><ele>188.0</ele><time>2026-05-04T14:24:17Z</time></trkpt><trkpt lat="45.601830986917776" lon="9.409172871213512"><ele>188.0</ele><time>2026-05-04T14:24:18Z</time></trkpt><trkpt lat="45.601736393601485" lon="9.40914425325541"><ele>188.0</ele><time>2026-05-04T14:24:19Z</time></trkpt><trkpt lat="45.60163416333142" lon="9.409180641610869"><ele>188.0</ele><time>2026-05-04T14:24:20Z</time></trkpt><trkpt lat="45.60153806400788" lon="9.409276695203468"><ele>188.0</ele><time>2026-05-04T14:24:21Z</time></trkpt><trkpt lat="45.60142231238298" lon="9.409362285605358"><ele>188.0</ele><time>2026-05-04T14:24:22Z</time></trkpt><trkpt lat="45.60127085892146" lon="9.409362356151439"><ele>187.66666666666666</ele><time>2026-05-04T14:24:23Z</time></trkpt><trkpt lat="45.60112459486857" lon="9.409378689061164"><ele>187.33333333333334</ele><time>2026-05-04T14:24:24Z</time></trkpt><trkpt lat="45.60097300197385" lon="9.409366940502293"><ele>187.0</ele><time>2026-05-04T14:24:25Z</time></trkpt><trkpt lat="45.600819974353406" lon="9.409370952300302"><ele>187.0</ele><time>2026-05-04T14:24:26Z</time></trkpt><trkpt lat="45.60067350270585" lon="9.409382244748974"><ele>187.0</ele><time>2026-05-04T14:24:27Z</time></trkpt><trkpt lat="45.60053148548047" lon="9.409390743133356"><ele>187.0</ele><time>2026-05-04T14:24:28Z</time></trkpt><trkpt lat="45.60038907694807" lon="9.40939843270416"><ele>187.0</ele><time>2026-05-04T14:24:29Z</time></trkpt><trkpt lat="45.60023803727647" lon="9.409407220847738"><ele>186.25</ele><time>2026-05-04T14:24:30Z</time></trkpt><trkpt lat="45.60009316582446" lon="9.409417598563502"><ele>185.5</ele><time>2026-05-04T14:24:31Z</time></trkpt><trkpt lat="45.59994387430568" lon="9.409434315296068"><ele>184.75</ele><time>2026-05-04T14:24:32Z</time></trkpt><trkpt lat="45.59979698421084" lon="9.409452611694299"><ele>184.0</ele><time>2026-05-04T14:24:33Z</time></trkpt><trkpt lat="45.59965650998542" lon="9.409478146561069"><ele>184.0</ele><time>2026-05-04T14:24:34Z</time></trkpt><trkpt lat="45.59951375043171" lon="9.409503589970035"><ele>184.0</ele><time>2026-05-04T14:24:35Z</time></trkpt><trkpt lat="45.599362644243456" lon="9.409505499519042"><ele>184.0</ele><time>2026-05-04T14:24:36Z</time></trkpt><trkpt lat="45.59920600935607" lon="9.409525657611383"><ele>183.75</ele><time>2026-05-04T14:24:37Z</time></trkpt><trkpt lat="45.599055147900906" lon="9.409552396542509"><ele>183.5</ele><time>2026-05-04T14:24:38Z</time></trkpt><trkpt lat="45.598904553321866" lon="9.409562291047855"><ele>183.25</ele><time>2026-05-04T14:24:39Z</time></trkpt><trkpt lat="45.59876084285054" lon="9.40957786942117"><ele>183.0</ele><time>2026-05-04T14:24:40Z</time></trkpt><trkpt lat="45.598610744693346" lon="9.409594275523084"><ele>183.0</ele><time>2026-05-04T14:24:41Z</time></trkpt><trkpt lat="45.598500111759414" lon="9.40963455254001"><ele>183.0</ele><time>2026-05-04T14:24:42Z</time></trkpt><trkpt lat="45.59831785553565" lon="9.409634303258"><ele>183.0</ele><time>2026-05-04T14:24:43Z</time></trkpt><trkpt lat="45.59811710939617" lon="9.409641811400745"><ele>183.0</ele><time>2026-05-04T14:24:44Z</time></trkpt><trkpt lat="45.5979312462946" lon="9.409662639919652"><ele>183.0</ele><time>2026-05-04T14:24:45Z</time></trkpt><trkpt lat="45.59777342323309" lon="9.409677650407524"><ele>183.0</ele><time>2026-05-04T14:24:46Z</time></trkpt><trkpt lat="45.59760267562673" lon="9.409697881938474"><ele>183.0</ele><time>2026-05-04T14:24:47Z</time></trkpt><trkpt lat="45.59744078441929" lon="9.40972366271163"><ele>183.0</ele><time>2026-05-04T14:24:48Z</time></trkpt><trkpt lat="45.59728049357241" lon="9.409752301866702"><ele>183.0</ele><time>2026-05-04T14:24:49Z</time></trkpt><trkpt lat="45.597118577766565" lon="9.4097829612847"><ele>183.33333333333334</ele><time>2026-05-04T14:24:50Z</time></trkpt><trkpt lat="45.59696092085408" lon="9.409797750306357"><ele>183.66666666666669</ele><time>2026-05-04T14:24:51Z</time></trkpt><trkpt lat="45.59679348624362" lon="9.409815741363813"><ele>184.0</ele><time>2026-05-04T14:24:52Z</time></trkpt><trkpt lat="45.59663660423043" lon="9.40983435867337"><ele>184.0</ele><time>2026-05-04T14:24:53Z</time></trkpt><trkpt lat="45.596489112367124" lon="9.409849645098465"><ele>184.0</ele><time>2026-05-04T14:24:54Z</time></trkpt><trkpt lat="45.5963540732912" lon="9.409866162418416"><ele>184.0</ele><time>2026-05-04T14:24:55Z</time></trkpt><trkpt lat="45.596220160719824" lon="9.409881258220377"><ele>184.0</ele><time>2026-05-04T14:24:56Z</time></trkpt><trkpt lat="45.596084370145014" lon="9.409887072877286"><ele>183.75</ele><time>2026-05-04T14:24:57Z</time></trkpt><trkpt lat="45.59595609504419" lon="9.409847296173576"><ele>183.5</ele><time>2026-05-04T14:24:58Z</time></trkpt><trkpt lat="45.59583826955132" lon="9.409814101264221"><ele>183.25</ele><time>2026-05-04T14:24:59Z</time></trkpt><trkpt lat="45.59573260420267" lon="9.40978401525827"><ele>183.0</ele><time>2026-05-04T14:25:00Z</time></trkpt><trkpt lat="45.59564272397758" lon="9.409696986421972"><ele>183.0</ele><time>2026-05-04T14:25:01Z</time></trkpt><trkpt lat="45.59558394645443" lon="9.40956005764269"><ele>183.0</ele><time>2026-05-04T14:25:02Z</time></trkpt><trkpt lat="45.59550189726252" lon="9.409503215174006"><ele>183.0</ele><time>2026-05-04T14:25:03Z</time></trkpt><trkpt lat="45.59539717708178" lon="9.409512822924492"><ele>183.0</ele><time>2026-05-04T14:25:04Z</time></trkpt><trkpt lat="45.59528250607866" lon="9.409615321033218"><ele>183.0</ele><time>2026-05-04T14:25:05Z</time></trkpt><trkpt lat="45.59516379311923" lon="9.409678191083309"><ele>183.0</ele><time>2026-05-04T14:25:06Z</time></trkpt><trkpt lat="45.59503233324922" lon="9.409660670180221"><ele>183.0</ele><time>2026-05-04T14:25:07Z</time></trkpt><trkpt lat="45.59490810563627" lon="9.409669703163317"><ele>183.0</ele><time>2026-05-04T14:25:08Z</time></trkpt><trkpt lat="45.594776965604645" lon="9.409654061247098"><ele>183.0</ele><time>2026-05-04T14:25:09Z</time></trkpt><trkpt lat="45.594645477437155" lon="9.40965030591862"><ele>183.0</ele><time>2026-05-04T14:25:10Z</time></trkpt><trkpt lat="45.594514810521595" lon="9.409668802269223"><ele>183.0</ele><time>2026-05-04T14:25:11Z</time></trkpt><trkpt lat="45.59438000214092" lon="9.409690617107216"><ele>183.0</ele><time>2026-05-04T14:25:12Z</time></trkpt><trkpt lat="45.594249084350125" lon="9.409719087451593"><ele>183.0</ele><time>2026-05-04T14:25:13Z</time></trkpt><trkpt lat="45.59411791925027" lon="9.409763852194002"><ele>182.25</ele><time>2026-05-04T14:25:14Z</time></trkpt><trkpt lat="45.59398754689693" lon="9.409830404995342"><ele>181.5</ele><time>2026-05-04T14:25:15Z</time></trkpt><trkpt lat="45.59387277270611" lon="9.409935861963623"><ele>180.75</ele><time>2026-05-04T14:25:16Z</time></trkpt><trkpt lat="45.59376675275363" lon="9.410040902477027"><ele>180.0</ele><time>2026-05-04T14:25:17Z</time></trkpt><trkpt lat="45.59367077801946" lon="9.410170419868221"><ele>180.0</ele><time>2026-05-04T14:25:18Z</time></trkpt><trkpt lat="45.593581716752865" lon="9.410312692484672"><ele>180.0</ele><time>2026-05-04T14:25:19Z</time></trkpt><trkpt lat="45.59350582719692" lon="9.410464003380484"><ele>180.0</ele><time>2026-05-04T14:25:20Z</time></trkpt><trkpt lat="45.59343480946379" lon="9.410646020355978"><ele>180.0</ele><time>2026-05-04T14:25:21Z</time></trkpt><trkpt lat="45.59339554360669" lon="9.410824632048062"><ele>179.75</ele><time>2026-05-04T14:25:22Z</time></trkpt><trkpt lat="45.59336393756731" lon="9.411017830002857"><ele>179.5</ele><time>2026-05-04T14:25:23Z</time></trkpt><trkpt lat="45.593342529475535" lon="9.41121680468195"><ele>179.25</ele><time>2026-05-04T14:25:24Z</time></trkpt><trkpt lat="45.59333138790896" lon="9.4113986230162"><ele>179.0</ele><time>2026-05-04T14:25:25Z</time></trkpt><trkpt lat="45.59332680585012" lon="9.41155552671753"><ele>179.0</ele><time>2026-05-04T14:25:26Z</time></trkpt><trkpt lat="45.59332832264624" lon="9.411720740678955"><ele>179.0</ele><time>2026-05-04T14:25:27Z</time></trkpt><trkpt lat="45.59325227408258" lon="9.411593843745615"><ele>179.0</ele><time>2026-05-04T14:25:35Z</time></trkpt><trkpt lat="45.59324079547874" lon="9.41147774302063"><ele>179.0</ele><time>2026-05-04T14:25:36Z</time></trkpt><trkpt lat="45.59322006883898" lon="9.411361124694743"><ele>179.0</ele><time>2026-05-04T14:25:37Z</time></trkpt><trkpt lat="45.593199973370126" lon="9.411226855936286"><ele>179.0</ele><time>2026-05-04T14:25:38Z</time></trkpt><trkpt lat="45.593170069381195" lon="9.411079723559778"><ele>179.0</ele><time>2026-05-04T14:25:39Z</time></trkpt><trkpt lat="45.593144194706724" lon="9.410926103772526"><ele>179.0</ele><time>2026-05-04T14:25:40Z</time></trkpt><trkpt lat="45.59312671845043" lon="9.41077308680484"><ele>179.0</ele><time>2026-05-04T14:25:41Z</time></trkpt><trkpt lat="45.59310972054125" lon="9.410616209255393"><ele>179.0</ele><time>2026-05-04T14:25:42Z</time></trkpt><trkpt lat="45.59310275858262" lon="9.41046052178183"><ele>179.2</ele><time>2026-05-04T14:25:43Z</time></trkpt><trkpt lat="45.593081764901136" lon="9.41030621475059"><ele>179.39999999999998</ele><time>2026-05-04T14:25:44Z</time></trkpt><trkpt lat="45.593059508355886" lon="9.410164366787312"><ele>179.6</ele><time>2026-05-04T14:25:45Z</time></trkpt><trkpt lat="45.593037911629594" lon="9.41003459026382"><ele>179.8</ele><time>2026-05-04T14:25:46Z</time></trkpt><trkpt lat="45.59301920444633" lon="9.4099138105955"><ele>180.0</ele><time>2026-05-04T14:25:47Z</time></trkpt><trkpt lat="45.59300010233106" lon="9.40981570262004"><ele>180.0</ele><time>2026-05-04T14:25:48Z</time></trkpt><trkpt lat="45.59298357648821" lon="9.409683433356813"><ele>180.0</ele><time>2026-05-04T14:25:50Z</time></trkpt><trkpt lat="45.592944338922145" lon="9.409505629670507"><ele>180.0</ele><time>2026-05-04T14:25:52Z</time></trkpt><trkpt lat="45.59292866811037" lon="9.409387884355162"><ele>180.0</ele><time>2026-05-04T14:25:53Z</time></trkpt><trkpt lat="45.59291668383071" lon="9.409260617860856"><ele>180.0</ele><time>2026-05-04T14:25:54Z</time></trkpt><trkpt lat="45.592906090047464" lon="9.409136999376605"><ele>180.0</ele><time>2026-05-04T14:25:55Z</time></trkpt><trkpt lat="45.592898386442485" lon="9.409024562700466"><ele>180.0</ele><time>2026-05-04T14:25:56Z</time></trkpt><trkpt lat="45.59289856158281" lon="9.40893200126732"><ele>180.0</ele><time>2026-05-04T14:25:57Z</time></trkpt><trkpt lat="45.59290515206945" lon="9.408842260771443"><ele>180.0</ele><time>2026-05-04T14:25:58Z</time></trkpt><trkpt lat="45.59290316979147" lon="9.408747258441261"><ele>180.0</ele><time>2026-05-04T14:25:59Z</time></trkpt><trkpt lat="45.592884275708926" lon="9.408645895558948"><ele>180.0</ele><time>2026-05-04T14:26:00Z</time></trkpt><trkpt lat="45.59286503000574" lon="9.408540393841127"><ele>180.0</ele><time>2026-05-04T14:26:01Z</time></trkpt><trkpt lat="45.59284466593745" lon="9.408437217242257"><ele>180.16666666666666</ele><time>2026-05-04T14:26:02Z</time></trkpt><trkpt lat="45.59282677630785" lon="9.408325702258788"><ele>180.33333333333334</ele><time>2026-05-04T14:26:03Z</time></trkpt><trkpt lat="45.59280831748637" lon="9.408200670197566"><ele>180.5</ele><time>2026-05-04T14:26:04Z</time></trkpt><trkpt lat="45.59279678948867" lon="9.408088068832896"><ele>180.66666666666669</ele><time>2026-05-04T14:26:05Z</time></trkpt><trkpt lat="45.59278911189296" lon="9.407994554346807"><ele>180.83333333333334</ele><time>2026-05-04T14:26:06Z</time></trkpt><trkpt lat="45.592772125846324" lon="9.407866611053235"><ele>181.0</ele><time>2026-05-04T14:26:08Z</time></trkpt><trkpt lat="45.59277788651762" lon="9.407769375905639"><ele>180.66666666666669</ele><time>2026-05-04T14:26:15Z</time></trkpt><trkpt lat="45.59279514045871" lon="9.40767908472695"><ele>180.33333333333334</ele><time>2026-05-04T14:26:18Z</time></trkpt><trkpt lat="45.5927718653255" lon="9.407537838833248"><ele>180.0</ele><time>2026-05-04T14:26:21Z</time></trkpt><trkpt lat="45.59274682793348" lon="9.40743112602647"><ele>179.66666666666666</ele><time>2026-05-04T14:26:23Z</time></trkpt><trkpt lat="45.592735817339914" lon="9.407303677818247"><ele>179.33333333333331</ele><time>2026-05-04T14:26:25Z</time></trkpt><trkpt lat="45.59272191320018" lon="9.407188581947215"><ele>179.0</ele><time>2026-05-04T14:26:27Z</time></trkpt><trkpt lat="45.592709158637206" lon="9.407096102114874"><ele>179.0</ele><time>2026-05-04T14:26:30Z</time></trkpt><trkpt lat="45.59269929401073" lon="9.406996640496583"><ele>179.0</ele><time>2026-05-04T14:26:32Z</time></trkpt><trkpt lat="45.59268977996359" lon="9.406902796982518"><ele>179.0</ele><time>2026-05-04T14:26:34Z</time></trkpt><trkpt lat="45.592674100055994" lon="9.406795243260612"><ele>179.0</ele><time>2026-05-04T14:26:36Z</time></trkpt><trkpt lat="45.59266569820987" lon="9.406698258978482"><ele>179.0</ele><time>2026-05-04T14:26:38Z</time></trkpt><trkpt lat="45.59264752817025" lon="9.406581524085919"><ele>179.0</ele><time>2026-05-04T14:26:40Z</time></trkpt><trkpt lat="45.592624879759065" lon="9.40646013474261"><ele>179.00000000000003</ele><time>2026-05-04T14:26:42Z</time></trkpt><trkpt lat="45.59261103049869" lon="9.40635019065635"><ele>179.0</ele><time>2026-05-04T14:26:44Z</time></trkpt><trkpt lat="45.59259057380568" lon="9.406243587673499"><ele>179.0</ele><time>2026-05-04T14:26:46Z</time></trkpt><trkpt lat="45.59258324526856" lon="9.406149498615227"><ele>179.0</ele><time>2026-05-04T14:26:48Z</time></trkpt><trkpt lat="45.592568971614696" lon="9.406047179906059"><ele>179.0</ele><time>2026-05-04T14:26:51Z</time></trkpt><trkpt lat="45.59254670471184" lon="9.405943981730479"><ele>179.00000000000003</ele><time>2026-05-04T14:27:00Z</time></trkpt><trkpt lat="45.59251020771307" lon="9.405869764041478"><ele>179.0</ele><time>2026-05-04T14:27:10Z</time></trkpt><trkpt lat="45.592513525665176" lon="9.405736505619316"><ele>179.16666666666666</ele><time>2026-05-04T14:27:14Z</time></trkpt><trkpt lat="45.59252506557448" lon="9.405637202906883"><ele>179.33333333333331</ele><time>2026-05-04T14:27:15Z</time></trkpt><trkpt lat="45.592535865993206" lon="9.405534123068941"><ele>179.5</ele><time>2026-05-04T14:27:16Z</time></trkpt><trkpt lat="45.59256707975122" lon="9.405413668805927"><ele>179.66666666666666</ele><time>2026-05-04T14:27:17Z</time></trkpt><trkpt lat="45.592584483408366" lon="9.40527587487821"><ele>179.83333333333334</ele><time>2026-05-04T14:27:18Z</time></trkpt><trkpt lat="45.59260172420709" lon="9.405161507554846"><ele>180.0</ele><time>2026-05-04T14:27:19Z</time></trkpt><trkpt lat="45.59261573982053" lon="9.405047859243934"><ele>179.16666666666666</ele><time>2026-05-04T14:27:20Z</time></trkpt><trkpt lat="45.59263240288829" lon="9.404944202701447"><ele>178.33333333333334</ele><time>2026-05-04T14:27:21Z</time></trkpt><trkpt lat="45.59264449017431" lon="9.40484120282079"><ele>177.5</ele><time>2026-05-04T14:27:22Z</time></trkpt><trkpt lat="45.592657931833166" lon="9.404741279668558"><ele>176.66666666666669</ele><time>2026-05-04T14:27:23Z</time></trkpt><trkpt lat="45.59266832844295" lon="9.404599739431225"><ele>175.83333333333334</ele><time>2026-05-04T14:27:24Z</time></trkpt><trkpt lat="45.59268367959468" lon="9.404446980478633"><ele>175.0</ele><time>2026-05-04T14:27:25Z</time></trkpt><trkpt lat="45.59269137967037" lon="9.40428802962965"><ele>174.6</ele><time>2026-05-04T14:27:26Z</time></trkpt><trkpt lat="45.59269076807712" lon="9.404142965397112"><ele>174.2</ele><time>2026-05-04T14:27:27Z</time></trkpt><trkpt lat="45.59269499455825" lon="9.40400560726822"><ele>173.8</ele><time>2026-05-04T14:27:28Z</time></trkpt><trkpt lat="45.59270313646417" lon="9.403866688418956"><ele>173.4</ele><time>2026-05-04T14:27:29Z</time></trkpt><trkpt lat="45.592711361298726" lon="9.403717495176437"><ele>173.0</ele><time>2026-05-04T14:27:30Z</time></trkpt><trkpt lat="45.59272128557807" lon="9.403572196146268"><ele>173.0</ele><time>2026-05-04T14:27:31Z</time></trkpt><trkpt lat="45.592721712105075" lon="9.403466617975516"><ele>173.0</ele><time>2026-05-04T14:27:32Z</time></trkpt><trkpt lat="45.59272076447751" lon="9.403367265533939"><ele>173.0</ele><time>2026-05-04T14:27:33Z</time></trkpt><trkpt lat="45.592725125931004" lon="9.403254637644736"><ele>173.0</ele><time>2026-05-04T14:27:34Z</time></trkpt><trkpt lat="45.59273645973459" lon="9.403128848672146"><ele>173.0</ele><time>2026-05-04T14:27:35Z</time></trkpt><trkpt lat="45.59274893392994" lon="9.403002844462312"><ele>173.0</ele><time>2026-05-04T14:27:36Z</time></trkpt><trkpt lat="45.592748091084545" lon="9.402890869754168"><ele>173.4</ele><time>2026-05-04T14:27:37Z</time></trkpt><trkpt lat="45.5927396889428" lon="9.402797400004845"><ele>173.8</ele><time>2026-05-04T14:27:38Z</time></trkpt><trkpt lat="45.59273586070264" lon="9.402645543058393"><ele>174.2</ele><time>2026-05-04T14:27:40Z</time></trkpt><trkpt lat="45.59274759213956" lon="9.40246514157154"><ele>174.6</ele><time>2026-05-04T14:27:42Z</time></trkpt><trkpt lat="45.59274524310911" lon="9.402290564040143"><ele>175.0</ele><time>2026-05-04T14:27:44Z</time></trkpt><trkpt lat="45.592748615603476" lon="9.402113783739802"><ele>175.16666666666669</ele><time>2026-05-04T14:27:46Z</time></trkpt><trkpt lat="45.592745627494935" lon="9.40201647531327"><ele>175.33333333333334</ele><time>2026-05-04T14:27:47Z</time></trkpt><trkpt lat="45.59274165097168" lon="9.401920486221025"><ele>175.5</ele><time>2026-05-04T14:27:48Z</time></trkpt><trkpt lat="45.59273333932201" lon="9.401830674943165"><ele>175.66666666666666</ele><time>2026-05-04T14:27:49Z</time></trkpt><trkpt lat="45.59271585167277" lon="9.401678592760357"><ele>175.83333333333331</ele><time>2026-05-04T14:27:51Z</time></trkpt><trkpt lat="45.5927049304933" lon="9.401568151787062"><ele>176.0</ele><time>2026-05-04T14:27:53Z</time></trkpt><trkpt lat="45.592626893455716" lon="9.401501226983306"><ele>176.0</ele><time>2026-05-04T14:27:56Z</time></trkpt><trkpt lat="45.592550708854176" lon="9.401509979643453"><ele>176.0</ele><time>2026-05-04T14:27:58Z</time></trkpt><trkpt lat="45.592435101590034" lon="9.401508874963"><ele>176.0</ele><time>2026-05-04T14:28:00Z</time></trkpt><trkpt lat="45.592366003429035" lon="9.401507620259792"><ele>176.0</ele><time>2026-05-04T14:28:02Z</time></trkpt><trkpt lat="45.592301946432904" lon="9.401463701272506"><ele>176.0</ele><time>2026-05-04T14:28:04Z</time></trkpt><trkpt lat="45.592290600468836" lon="9.401300894630753"><ele>176.0</ele><time>2026-05-04T14:28:06Z</time></trkpt><trkpt lat="45.59235366046285" lon="9.401205514275013"><ele>176.0</ele><time>2026-05-04T14:28:07Z</time></trkpt><trkpt lat="45.59235433467261" lon="9.401085895446979"><ele>176.0</ele><time>2026-05-04T14:28:08Z</time></trkpt><trkpt lat="45.59235501056884" lon="9.400985685078272"><ele>176.0</ele><time>2026-05-04T14:28:09Z</time></trkpt><trkpt lat="45.59235650755692" lon="9.400827768089036"><ele>176.0</ele><time>2026-05-04T14:28:11Z</time></trkpt><trkpt lat="45.59234678579063" lon="9.400722469980558"><ele>176.0</ele><time>2026-05-04T14:28:12Z</time></trkpt><trkpt lat="45.592357344485876" lon="9.40061057691627"><ele>176.0</ele><time>2026-05-04T14:28:13Z</time></trkpt><trkpt lat="45.59236355534561" lon="9.400484895964135"><ele>176.0</ele><time>2026-05-04T14:28:14Z</time></trkpt><trkpt lat="45.59237183411329" lon="9.400374754000017"><ele>176.0</ele><time>2026-05-04T14:28:15Z</time></trkpt><trkpt lat="45.592346325026334" lon="9.400292398088936"><ele>176.0</ele><time>2026-05-04T14:28:16Z</time></trkpt><trkpt lat="45.59237404983466" lon="9.40014567685959"><ele>176.0</ele><time>2026-05-04T14:28:18Z</time></trkpt><trkpt lat="45.592380391966216" lon="9.399997068175804"><ele>176.0</ele><time>2026-05-04T14:28:20Z</time></trkpt><trkpt lat="45.59239551138096" lon="9.39982497585293"><ele>176.0</ele><time>2026-05-04T14:28:22Z</time></trkpt><trkpt lat="45.59240338213237" lon="9.399728446211142"><ele>176.0</ele><time>2026-05-04T14:28:29Z</time></trkpt><trkpt lat="45.592401349040486" lon="9.39962519278814"><ele>176.0</ele><time>2026-05-04T14:28:30Z</time></trkpt><trkpt lat="45.5923849998872" lon="9.399470338334979"><ele>176.0</ele><time>2026-05-04T14:28:31Z</time></trkpt><trkpt lat="45.592380036045476" lon="9.399304108796212"><ele>176.0</ele><time>2026-05-04T14:28:32Z</time></trkpt><trkpt lat="45.59237661481485" lon="9.399091280332717"><ele>175.5</ele><time>2026-05-04T14:28:33Z</time></trkpt><trkpt lat="45.5923841851434" lon="9.398877365277313"><ele>175.0</ele><time>2026-05-04T14:28:34Z</time></trkpt><trkpt lat="45.59236707928556" lon="9.398683863466609"><ele>174.5</ele><time>2026-05-04T14:28:35Z</time></trkpt><trkpt lat="45.59236398306889" lon="9.39850797869483"><ele>174.0</ele><time>2026-05-04T14:28:36Z</time></trkpt><trkpt lat="45.59237151853096" lon="9.398338863862866"><ele>174.0</ele><time>2026-05-04T14:28:37Z</time></trkpt><trkpt lat="45.592367431227494" lon="9.39817392817198"><ele>174.0</ele><time>2026-05-04T14:28:38Z</time></trkpt><trkpt lat="45.59234760519274" lon="9.398008371955989"><ele>174.0</ele><time>2026-05-04T14:28:39Z</time></trkpt><trkpt lat="45.59234294307222" lon="9.397793263610483"><ele>174.0</ele><time>2026-05-04T14:28:40Z</time></trkpt><trkpt lat="45.59233904691667" lon="9.397659685875022"><ele>174.25</ele><time>2026-05-04T14:28:41Z</time></trkpt><trkpt lat="45.59233921737055" lon="9.397484362575561"><ele>174.5</ele><time>2026-05-04T14:28:42Z</time></trkpt><trkpt lat="45.592331243955925" lon="9.397271447458682"><ele>174.75</ele><time>2026-05-04T14:28:43Z</time></trkpt><trkpt lat="45.59234204326237" lon="9.397092276310667"><ele>175.0</ele><time>2026-05-04T14:28:44Z</time></trkpt><trkpt lat="45.59232259263992" lon="9.396934025235483"><ele>175.5</ele><time>2026-05-04T14:28:45Z</time></trkpt><trkpt lat="45.5923217327423" lon="9.396762869535017"><ele>176.0</ele><time>2026-05-04T14:28:46Z</time></trkpt><trkpt lat="45.59231922248514" lon="9.39659798051867"><ele>176.5</ele><time>2026-05-04T14:28:47Z</time></trkpt><trkpt lat="45.592316241484575" lon="9.396426676514261"><ele>177.0</ele><time>2026-05-04T14:28:48Z</time></trkpt><trkpt lat="45.592341222602755" lon="9.396258907299918"><ele>177.2</ele><time>2026-05-04T14:28:49Z</time></trkpt><trkpt lat="45.59237262958525" lon="9.396088245885277"><ele>177.39999999999998</ele><time>2026-05-04T14:28:50Z</time></trkpt><trkpt lat="45.59238031324421" lon="9.39594848813241"><ele>177.60000000000002</ele><time>2026-05-04T14:28:51Z</time></trkpt><trkpt lat="45.5924054844338" lon="9.395819958740216"><ele>177.8</ele><time>2026-05-04T14:28:52Z</time></trkpt><trkpt lat="45.592426422846685" lon="9.395689754609007"><ele>178.0</ele><time>2026-05-04T14:28:53Z</time></trkpt><trkpt lat="45.59244926995619" lon="9.395579951636275"><ele>177.4</ele><time>2026-05-04T14:28:54Z</time></trkpt><trkpt lat="45.5924624265552" lon="9.39546568560196"><ele>176.8</ele><time>2026-05-04T14:28:55Z</time></trkpt><trkpt lat="45.59249699010294" lon="9.395311611869774"><ele>176.2</ele><time>2026-05-04T14:28:56Z</time></trkpt><trkpt lat="45.59251995536924" lon="9.395171274917438"><ele>175.6</ele><time>2026-05-04T14:28:57Z</time></trkpt><trkpt lat="45.59254306002713" lon="9.395034063259272"><ele>175.0</ele><time>2026-05-04T14:28:58Z</time></trkpt><trkpt lat="45.592547680316244" lon="9.394856238342634"><ele>175.0</ele><time>2026-05-04T14:28:59Z</time></trkpt><trkpt lat="45.59255917869729" lon="9.39470094463945"><ele>175.0</ele><time>2026-05-04T14:29:00Z</time></trkpt><trkpt lat="45.5925710988763" lon="9.394556054395006"><ele>175.0</ele><time>2026-05-04T14:29:01Z</time></trkpt><trkpt lat="45.592580503549925" lon="9.394406629653918"><ele>175.0</ele><time>2026-05-04T14:29:02Z</time></trkpt><trkpt lat="45.59259850327838" lon="9.394216915852043"><ele>175.25</ele><time>2026-05-04T14:29:03Z</time></trkpt><trkpt lat="45.5926108299694" lon="9.394032620432787"><ele>175.5</ele><time>2026-05-04T14:29:04Z</time></trkpt><trkpt lat="45.59263992957223" lon="9.39384701955081"><ele>175.75</ele><time>2026-05-04T14:29:05Z</time></trkpt><trkpt lat="45.59265493093005" lon="9.393672737512034"><ele>176.0</ele><time>2026-05-04T14:29:06Z</time></trkpt><trkpt lat="45.59265887599228" lon="9.393533264703017"><ele>176.0</ele><time>2026-05-04T14:29:07Z</time></trkpt><trkpt lat="45.59265816606041" lon="9.393430029123419"><ele>176.0</ele><time>2026-05-04T14:29:08Z</time></trkpt><trkpt lat="45.592662050601675" lon="9.39333699325191"><ele>176.0</ele><time>2026-05-04T14:29:09Z</time></trkpt><trkpt lat="45.59268483912417" lon="9.393249901044396"><ele>176.0</ele><time>2026-05-04T14:29:12Z</time></trkpt><trkpt lat="45.59252573345813" lon="9.393203137490476"><ele>176.0</ele><time>2026-05-04T14:29:14Z</time></trkpt><trkpt lat="45.59242654708633" lon="9.393185975277278"><ele>176.0</ele><time>2026-05-04T14:29:15Z</time></trkpt><trkpt lat="45.59234085911796" lon="9.393180242667903"><ele>176.0</ele><time>2026-05-04T14:29:16Z</time></trkpt><trkpt lat="45.59225479380975" lon="9.393170830803289"><ele>176.0</ele><time>2026-05-04T14:29:17Z</time></trkpt><trkpt lat="45.592167502120375" lon="9.393182129289597"><ele>176.0</ele><time>2026-05-04T14:29:18Z</time></trkpt><trkpt lat="45.59206613012872" lon="9.393172038130686"><ele>176.0</ele><time>2026-05-04T14:29:19Z</time></trkpt><trkpt lat="45.59197711859645" lon="9.393165369874744"><ele>175.25</ele><time>2026-05-04T14:29:20Z</time></trkpt><trkpt lat="45.59187364836537" lon="9.393136157973244"><ele>174.5</ele><time>2026-05-04T14:29:21Z</time></trkpt><trkpt lat="45.59174873992398" lon="9.393147513479802"><ele>173.75</ele><time>2026-05-04T14:29:22Z</time></trkpt><trkpt lat="45.5916358800137" lon="9.393138608734786"><ele>173.0</ele><time>2026-05-04T14:29:23Z</time></trkpt><trkpt lat="45.59151235388024" lon="9.393131646950971"><ele>173.0</ele><time>2026-05-04T14:29:24Z</time></trkpt><trkpt lat="45.591408495141465" lon="9.393124522909874"><ele>173.0</ele><time>2026-05-04T14:29:25Z</time></trkpt><trkpt lat="45.59131699869088" lon="9.393103961421964"><ele>173.0</ele><time>2026-05-04T14:29:26Z</time></trkpt><trkpt lat="45.591205701172655" lon="9.393123567291868"><ele>173.0</ele><time>2026-05-04T14:29:27Z</time></trkpt><trkpt lat="45.59107884099136" lon="9.393133158226323"><ele>173.0</ele><time>2026-05-04T14:29:28Z</time></trkpt><trkpt lat="45.59095885365998" lon="9.393141258081547"><ele>173.0</ele><time>2026-05-04T14:29:29Z</time></trkpt><trkpt lat="45.59086848252517" lon="9.393153834620563"><ele>173.0</ele><time>2026-05-04T14:29:30Z</time></trkpt><trkpt lat="45.59079188196548" lon="9.393163638323388"><ele>173.0</ele><time>2026-05-04T14:29:31Z</time></trkpt><trkpt lat="45.590682503455646" lon="9.393148091422614"><ele>173.0</ele><time>2026-05-04T14:29:33Z</time></trkpt><trkpt lat="45.590608788666096" lon="9.393170306341155"><ele>173.0</ele><time>2026-05-04T14:29:34Z</time></trkpt><trkpt lat="45.59049535630293" lon="9.393178481492914"><ele>173.0</ele><time>2026-05-04T14:29:35Z</time></trkpt><trkpt lat="45.59037949351922" lon="9.39316492835391"><ele>173.0</ele><time>2026-05-04T14:29:36Z</time></trkpt><trkpt lat="45.59026295786962" lon="9.393193850699669"><ele>173.0</ele><time>2026-05-04T14:29:37Z</time></trkpt><trkpt lat="45.590158063695824" lon="9.393190876869346"><ele>173.0</ele><time>2026-05-04T14:29:38Z</time></trkpt><trkpt lat="45.5900614969613" lon="9.393211345756866"><ele>173.0</ele><time>2026-05-04T14:29:39Z</time></trkpt><trkpt lat="45.58998694457101" lon="9.39322715764685"><ele>173.0</ele><time>2026-05-04T14:29:40Z</time></trkpt><trkpt lat="45.589893478122846" lon="9.393234632161821"><ele>173.0</ele><time>2026-05-04T14:29:42Z</time></trkpt><trkpt lat="45.589823829940315" lon="9.393258287479524"><ele>173.0</ele><time>2026-05-04T14:29:48Z</time></trkpt><trkpt lat="45.589879804293986" lon="9.393421743514496"><ele>173.0</ele><time>2026-05-04T14:29:49Z</time></trkpt><trkpt lat="45.589885302578296" lon="9.393539933124053"><ele>173.0</ele><time>2026-05-04T14:29:51Z</time></trkpt><trkpt lat="45.58990230975516" lon="9.393645804063587"><ele>173.0</ele><time>2026-05-04T14:29:53Z</time></trkpt><trkpt lat="45.58990631014753" lon="9.393744972770874"><ele>173.0</ele><time>2026-05-04T14:29:55Z</time></trkpt><trkpt lat="45.589900680793775" lon="9.393863590610819"><ele>173.0</ele><time>2026-05-04T14:29:57Z</time></trkpt><trkpt lat="45.58990172700647" lon="9.393977404411736"><ele>173.0</ele><time>2026-05-04T14:29:59Z</time></trkpt><trkpt lat="45.5898946032986" lon="9.394088924815582"><ele>173.0</ele><time>2026-05-04T14:30:01Z</time></trkpt><trkpt lat="45.58988503095848" lon="9.394226221187814"><ele>173.0</ele><time>2026-05-04T14:30:04Z</time></trkpt><trkpt lat="45.58987401478796" lon="9.394324483862546"><ele>173.0</ele><time>2026-05-04T14:30:06Z</time></trkpt><trkpt lat="45.58976463468874" lon="9.394246819977555"><ele>173.0</ele><time>2026-05-04T14:30:07Z</time></trkpt><trkpt lat="45.58963988045055" lon="9.394228169583439"><ele>173.0</ele><time>2026-05-04T14:30:09Z</time></trkpt><trkpt lat="45.58951972111697" lon="9.394210193288737"><ele>173.0</ele><time>2026-05-04T14:30:10Z</time></trkpt><trkpt lat="45.58937509875485" lon="9.394188447387792"><ele>173.0</ele><time>2026-05-04T14:30:11Z</time></trkpt><trkpt lat="45.5892477582171" lon="9.394169299989601"><ele>173.0</ele><time>2026-05-04T14:30:12Z</time></trkpt><trkpt lat="45.58914867417606" lon="9.394154401340488"><ele>173.0</ele><time>2026-05-04T14:30:13Z</time></trkpt><trkpt lat="45.58905464263538" lon="9.394140213779226"><ele>173.0</ele><time>2026-05-04T14:30:14Z</time></trkpt><trkpt lat="45.588975095105496" lon="9.394130460541755"><ele>173.0</ele><time>2026-05-04T14:30:15Z</time></trkpt><trkpt lat="45.5889068256363" lon="9.394122090083558"><ele>173.0</ele><time>2026-05-04T14:30:16Z</time></trkpt><trkpt lat="45.58880015683094" lon="9.394130978704759"><ele>173.0</ele><time>2026-05-04T14:30:18Z</time></trkpt><trkpt lat="45.588737034776244" lon="9.394117306211275"><ele>173.0</ele><time>2026-05-04T14:30:19Z</time></trkpt><trkpt lat="45.58865797810305" lon="9.394093699059509"><ele>173.0</ele><time>2026-05-04T14:30:20Z</time></trkpt><trkpt lat="45.588520266898044" lon="9.394077898390119"><ele>173.0</ele><time>2026-05-04T14:30:22Z</time></trkpt><trkpt lat="45.5884163079176" lon="9.394067787911816"><ele>173.33333333333331</ele><time>2026-05-04T14:30:24Z</time></trkpt><trkpt lat="45.588333745564704" lon="9.394091455131452"><ele>173.66666666666666</ele><time>2026-05-04T14:30:26Z</time></trkpt><trkpt lat="45.58825661778458" lon="9.394097291932885"><ele>174.0</ele><time>2026-05-04T14:30:28Z</time></trkpt><trkpt lat="45.58816309357565" lon="9.394067975410495"><ele>174.33333333333334</ele><time>2026-05-04T14:30:30Z</time></trkpt><trkpt lat="45.5880794946688" lon="9.394079988513901"><ele>174.66666666666669</ele><time>2026-05-04T14:30:34Z</time></trkpt><trkpt lat="45.58800055354485" lon="9.394068866576285"><ele>175.0</ele><time>2026-05-04T14:30:38Z</time></trkpt><trkpt lat="45.58793479253574" lon="9.394049114086737"><ele>175.0</ele><time>2026-05-04T14:30:44Z</time></trkpt><trkpt lat="45.587857374403924" lon="9.394045794620062"><ele>175.0</ele><time>2026-05-04T14:30:47Z</time></trkpt><trkpt lat="45.58777081798353" lon="9.394033869693756"><ele>175.0</ele><time>2026-05-04T14:30:51Z</time></trkpt><trkpt lat="45.58769827751923" lon="9.39404989235971"><ele>175.0</ele><time>2026-05-04T14:30:53Z</time></trkpt><trkpt lat="45.58765020297432" lon="9.394118432515665"><ele>175.0</ele><time>2026-05-04T14:30:55Z</time></trkpt><trkpt lat="45.587591667612486" lon="9.394248116459535"><ele>175.0</ele><time>2026-05-04T14:30:57Z</time></trkpt><trkpt lat="45.58755932197041" lon="9.394380730526079"><ele>175.0</ele><time>2026-05-04T14:30:59Z</time></trkpt><trkpt lat="45.58755642349511" lon="9.39447788453431"><ele>175.0</ele><time>2026-05-04T14:31:00Z</time></trkpt><trkpt lat="45.58751205612128" lon="9.394628774021985"><ele>175.0</ele><time>2026-05-04T14:31:02Z</time></trkpt><trkpt lat="45.58752486937423" lon="9.394845322866146"><ele>175.0</ele><time>2026-05-04T14:31:04Z</time></trkpt><trkpt lat="45.58754330761517" lon="9.394978826676764"><ele>175.0</ele><time>2026-05-04T14:31:06Z</time></trkpt><trkpt lat="45.58756164849486" lon="9.395065280669698"><ele>175.0</ele><time>2026-05-04T14:31:07Z</time></trkpt><trkpt lat="45.587566853545056" lon="9.395196732620724"><ele>175.0</ele><time>2026-05-04T14:31:08Z</time></trkpt><trkpt lat="45.587577980773226" lon="9.395341781681731"><ele>175.0</ele><time>2026-05-04T14:31:09Z</time></trkpt><trkpt lat="45.58758406282538" lon="9.395517690107342"><ele>175.0</ele><time>2026-05-04T14:31:11Z</time></trkpt><trkpt lat="45.587567492378575" lon="9.395621669032094"><ele>175.0</ele><time>2026-05-04T14:31:13Z</time></trkpt><trkpt lat="45.58756070239831" lon="9.395733814334118"><ele>174.8</ele><time>2026-05-04T14:31:15Z</time></trkpt><trkpt lat="45.58755307776153" lon="9.395887020620638"><ele>174.6</ele><time>2026-05-04T14:31:17Z</time></trkpt><trkpt lat="45.58752551367016" lon="9.396035041837928"><ele>174.39999999999998</ele><time>2026-05-04T14:31:19Z</time></trkpt><trkpt lat="45.58754782738453" lon="9.396127073596194"><ele>174.2</ele><time>2026-05-04T14:31:20Z</time></trkpt><trkpt lat="45.587535529563006" lon="9.39626862741264"><ele>174.0</ele><time>2026-05-04T14:31:22Z</time></trkpt><trkpt lat="45.58752015587528" lon="9.396364010228925"><ele>174.0</ele><time>2026-05-04T14:31:23Z</time></trkpt><trkpt lat="45.58750121605593" lon="9.396525303675928"><ele>174.0</ele><time>2026-05-04T14:31:25Z</time></trkpt><trkpt lat="45.587512170430934" lon="9.396657537384947"><ele>174.0</ele><time>2026-05-04T14:31:27Z</time></trkpt><trkpt lat="45.58750471324247" lon="9.396755122588912"><ele>174.0</ele><time>2026-05-04T14:31:29Z</time></trkpt><trkpt lat="45.587501411299804" lon="9.396866740363846"><ele>174.0</ele><time>2026-05-04T14:31:31Z</time></trkpt><trkpt lat="45.587492129133125" lon="9.397053035392567"><ele>174.0</ele><time>2026-05-04T14:31:33Z</time></trkpt><trkpt lat="45.58749519750204" lon="9.397163502418124"><ele>174.0</ele><time>2026-05-04T14:31:35Z</time></trkpt><trkpt lat="45.58745241960955" lon="9.397349443077777"><ele>174.0</ele><time>2026-05-04T14:31:37Z</time></trkpt><trkpt lat="45.58743154856261" lon="9.397442850983651"><ele>174.0</ele><time>2026-05-04T14:31:38Z</time></trkpt><trkpt lat="45.5873889851043" lon="9.397561218140632"><ele>174.0</ele><time>2026-05-04T14:31:40Z</time></trkpt><trkpt lat="45.58741611904866" lon="9.397684532998957"><ele>174.33333333333334</ele><time>2026-05-04T14:31:41Z</time></trkpt><trkpt lat="45.58742759902894" lon="9.397796414589743"><ele>174.66666666666666</ele><time>2026-05-04T14:31:42Z</time></trkpt><trkpt lat="45.58743768406503" lon="9.397905001401053"><ele>175.0</ele><time>2026-05-04T14:31:43Z</time></trkpt><trkpt lat="45.587435721225766" lon="9.398040808507583"><ele>175.33333333333331</ele><time>2026-05-04T14:31:45Z</time></trkpt><trkpt lat="45.58743740911186" lon="9.398157407535269"><ele>175.66666666666666</ele><time>2026-05-04T14:31:48Z</time></trkpt><trkpt lat="45.58740124538573" lon="9.398248712173162"><ele>176.0</ele><time>2026-05-04T14:31:50Z</time></trkpt><trkpt lat="45.58724373308324" lon="9.398302716074765"><ele>176.0</ele><time>2026-05-04T14:31:52Z</time></trkpt><trkpt lat="45.58714787847353" lon="9.398329974481983"><ele>176.0</ele><time>2026-05-04T14:31:53Z</time></trkpt><trkpt lat="45.58706669598744" lon="9.398335478467537"><ele>176.0</ele><time>2026-05-04T14:31:54Z</time></trkpt><trkpt lat="45.58697129265701" lon="9.398327678805563"><ele>176.0</ele><time>2026-05-04T14:31:55Z</time></trkpt><trkpt lat="45.58689611640769" lon="9.398341833885285"><ele>176.0</ele><time>2026-05-04T14:31:56Z</time></trkpt><trkpt lat="45.586800417728405" lon="9.398340770135945"><ele>176.0</ele><time>2026-05-04T14:31:58Z</time></trkpt><trkpt lat="45.586702337848365" lon="9.398347706344305"><ele>175.4</ele><time>2026-05-04T14:32:00Z</time></trkpt><trkpt lat="45.58660778166812" lon="9.39833729852976"><ele>174.8</ele><time>2026-05-04T14:32:01Z</time></trkpt><trkpt lat="45.58652787912608" lon="9.398323706597452"><ele>174.20000000000002</ele><time>2026-05-04T14:32:02Z</time></trkpt><trkpt lat="45.58641057662489" lon="9.398360341863727"><ele>173.60000000000002</ele><time>2026-05-04T14:32:03Z</time></trkpt><trkpt lat="45.58633377464578" lon="9.398344412629925"><ele>173.0</ele><time>2026-05-04T14:32:04Z</time></trkpt><trkpt lat="45.586255668727176" lon="9.398339486352043"><ele>173.0</ele><time>2026-05-04T14:32:05Z</time></trkpt><trkpt lat="45.586183991771854" lon="9.398330644417054"><ele>173.0</ele><time>2026-05-04T14:32:06Z</time></trkpt><trkpt lat="45.5861082255903" lon="9.39830148979119"><ele>173.0</ele><time>2026-05-04T14:32:07Z</time></trkpt><trkpt lat="45.586044325821916" lon="9.398265422489635"><ele>173.0</ele><time>2026-05-04T14:32:08Z</time></trkpt><trkpt lat="45.585907540249586" lon="9.398315757855405"><ele>173.0</ele><time>2026-05-04T14:32:10Z</time></trkpt><trkpt lat="45.58582007962063" lon="9.398316543007342"><ele>173.0</ele><time>2026-05-04T14:32:11Z</time></trkpt><trkpt lat="45.58572768995763" lon="9.398306983393361"><ele>173.0</ele><time>2026-05-04T14:32:12Z</time></trkpt><trkpt lat="45.58566005974518" lon="9.39830683230133"><ele>173.0</ele><time>2026-05-04T14:32:13Z</time></trkpt><trkpt lat="45.585585502549755" lon="9.398284590613935"><ele>173.0</ele><time>2026-05-04T14:32:15Z</time></trkpt><trkpt lat="45.585549313606684" lon="9.398128526060535"><ele>173.0</ele><time>2026-05-04T14:32:17Z</time></trkpt><trkpt lat="45.58554667564354" lon="9.39802949679082"><ele>173.0</ele><time>2026-05-04T14:32:18Z</time></trkpt><trkpt lat="45.58555802408956" lon="9.397923036873701"><ele>173.0</ele><time>2026-05-04T14:32:19Z</time></trkpt><trkpt lat="45.585559566799496" lon="9.397754196492821"><ele>173.0</ele><time>2026-05-04T14:32:20Z</time></trkpt><trkpt lat="45.5855581068165" lon="9.397623132505052"><ele>173.0</ele><time>2026-05-04T14:32:21Z</time></trkpt><trkpt lat="45.585567807349314" lon="9.397482887752407"><ele>173.0</ele><time>2026-05-04T14:32:23Z</time></trkpt><trkpt lat="45.58559371009446" lon="9.397389188470186"><ele>173.0</ele><time>2026-05-04T14:32:26Z</time></trkpt><trkpt lat="45.58553541903318" lon="9.397288111805127"><ele>173.0</ele><time>2026-05-04T14:32:28Z</time></trkpt><trkpt lat="45.58545775312804" lon="9.397290704498474"><ele>173.0</ele><time>2026-05-04T14:32:29Z</time></trkpt><trkpt lat="45.58537440667064" lon="9.397303159000558"><ele>172.0</ele><time>2026-05-04T14:32:30Z</time></trkpt><trkpt lat="45.58530384676415" lon="9.397303151040513"><ele>171.0</ele><time>2026-05-04T14:32:31Z</time></trkpt><trkpt lat="45.58521437179614" lon="9.39730021339317"><ele>170.0</ele><time>2026-05-04T14:32:32Z</time></trkpt><trkpt lat="45.5851049889281" lon="9.397290174910937"><ele>169.0</ele><time>2026-05-04T14:32:33Z</time></trkpt><trkpt lat="45.584995294171" lon="9.39727738104717"><ele>168.0</ele><time>2026-05-04T14:32:34Z</time></trkpt><trkpt lat="45.584893459122846" lon="9.39727613532138"><ele>168.0</ele><time>2026-05-04T14:32:35Z</time></trkpt><trkpt lat="45.5847919954189" lon="9.397273747762267"><ele>168.0</ele><time>2026-05-04T14:32:36Z</time></trkpt><trkpt lat="45.58468250920349" lon="9.397249991336349"><ele>168.0</ele><time>2026-05-04T14:32:37Z</time></trkpt><trkpt lat="45.58456272904091" lon="9.397237112777809"><ele>168.0</ele><time>2026-05-04T14:32:38Z</time></trkpt><trkpt lat="45.584447949416" lon="9.397222190821651"><ele>168.0</ele><time>2026-05-04T14:32:39Z</time></trkpt><trkpt lat="45.58432106862356" lon="9.39720237325957"><ele>167.83333333333334</ele><time>2026-05-04T14:32:40Z</time></trkpt><trkpt lat="45.58419336613149" lon="9.397186317583442"><ele>167.66666666666666</ele><time>2026-05-04T14:32:41Z</time></trkpt><trkpt lat="45.5841001798651" lon="9.397174107599392"><ele>167.5</ele><time>2026-05-04T14:32:42Z</time></trkpt><trkpt lat="45.58402087403727" lon="9.397160266579256"><ele>167.33333333333331</ele><time>2026-05-04T14:32:43Z</time></trkpt><trkpt lat="45.58395071084248" lon="9.397152766362534"><ele>167.16666666666666</ele><time>2026-05-04T14:32:44Z</time></trkpt><trkpt lat="45.58388731519913" lon="9.39716127262723"><ele>167.0</ele><time>2026-05-04T14:32:45Z</time></trkpt><trkpt lat="45.58382014142184" lon="9.397094098851332"><ele>167.39999999999998</ele><time>2026-05-04T14:32:48Z</time></trkpt><trkpt lat="45.58380202573991" lon="9.396914544692379"><ele>167.79999999999998</ele><time>2026-05-04T14:32:50Z</time></trkpt><trkpt lat="45.58380491570284" lon="9.39677407308714"><ele>168.2</ele><time>2026-05-04T14:32:51Z</time></trkpt><trkpt lat="45.583812878066524" lon="9.39662230494614"><ele>168.6</ele><time>2026-05-04T14:32:52Z</time></trkpt><trkpt lat="45.58383003802785" lon="9.396492907771467"><ele>169.0</ele><time>2026-05-04T14:32:53Z</time></trkpt><trkpt lat="45.583881123270494" lon="9.396382297324864"><ele>169.5</ele><time>2026-05-04T14:32:54Z</time></trkpt><trkpt lat="45.58391607078288" lon="9.396292186896073"><ele>170.0</ele><time>2026-05-04T14:32:55Z</time></trkpt><trkpt lat="45.58393942819866" lon="9.396204463228438"><ele>170.5</ele><time>2026-05-04T14:32:56Z</time></trkpt><trkpt lat="45.583945349268554" lon="9.396102728474144"><ele>171.0</ele><time>2026-05-04T14:32:57Z</time></trkpt><trkpt lat="45.58394093772828" lon="9.395996704898872"><ele>171.5</ele><time>2026-05-04T14:32:58Z</time></trkpt><trkpt lat="45.583911443532735" lon="9.395850753049903"><ele>172.0</ele><time>2026-05-04T14:32:59Z</time></trkpt><trkpt lat="45.583911674271576" lon="9.395696470258965"><ele>172.0</ele><time>2026-05-04T14:33:00Z</time></trkpt><trkpt lat="45.58391272421894" lon="9.395520837090789"><ele>172.0</ele><time>2026-05-04T14:33:01Z</time></trkpt><trkpt lat="45.583910796382035" lon="9.395357150057011"><ele>172.0</ele><time>2026-05-04T14:33:02Z</time></trkpt><trkpt lat="45.583917902986514" lon="9.395219486693147"><ele>172.0</ele><time>2026-05-04T14:33:03Z</time></trkpt><trkpt lat="45.58391857663419" lon="9.395074904112171"><ele>172.0</ele><time>2026-05-04T14:33:04Z</time></trkpt><trkpt lat="45.583907869196025" lon="9.394909057324469"><ele>171.75</ele><time>2026-05-04T14:33:05Z</time></trkpt><trkpt lat="45.583924543658874" lon="9.394746333347705"><ele>171.5</ele><time>2026-05-04T14:33:06Z</time></trkpt><trkpt lat="45.58391691742152" lon="9.39462999782443"><ele>171.25</ele><time>2026-05-04T14:33:07Z</time></trkpt><trkpt lat="45.583904825861836" lon="9.394443971562564"><ele>171.0</ele><time>2026-05-04T14:33:08Z</time></trkpt><trkpt lat="45.583895017439154" lon="9.39420883169249"><ele>170.5</ele><time>2026-05-04T14:33:09Z</time></trkpt><trkpt lat="45.58389004633721" lon="9.394019886396723"><ele>170.0</ele><time>2026-05-04T14:33:10Z</time></trkpt><trkpt lat="45.58389304566473" lon="9.393819205455237"><ele>169.5</ele><time>2026-05-04T14:33:11Z</time></trkpt><trkpt lat="45.583891026414435" lon="9.39361527072924"><ele>169.0</ele><time>2026-05-04T14:33:12Z</time></trkpt><trkpt lat="45.58387477682048" lon="9.393388442074844"><ele>168.79999999999998</ele><time>2026-05-04T14:33:13Z</time></trkpt><trkpt lat="45.583869533067315" lon="9.393220771100818"><ele>168.6</ele><time>2026-05-04T14:33:14Z</time></trkpt><trkpt lat="45.583850122914285" lon="9.39306423854114"><ele>168.4</ele><time>2026-05-04T14:33:15Z</time></trkpt><trkpt lat="45.5838553132982" lon="9.392944860190594"><ele>168.2</ele><time>2026-05-04T14:33:16Z</time></trkpt><trkpt lat="45.58385320870795" lon="9.39283038973665"><ele>168.0</ele><time>2026-05-04T14:33:17Z</time></trkpt><trkpt lat="45.5838464273871" lon="9.39273218954082"><ele>169.2</ele><time>2026-05-04T14:33:18Z</time></trkpt><trkpt lat="45.58381979426662" lon="9.39264264504038"><ele>170.4</ele><time>2026-05-04T14:33:19Z</time></trkpt><trkpt lat="45.58379094410153" lon="9.392522390294475"><ele>171.6</ele><time>2026-05-04T14:33:20Z</time></trkpt><trkpt lat="45.583769603130925" lon="9.392359279780218"><ele>172.79999999999998</ele><time>2026-05-04T14:33:21Z</time></trkpt><trkpt lat="45.58377015997847" lon="9.392160322201171"><ele>174.0</ele><time>2026-05-04T14:33:22Z</time></trkpt><trkpt lat="45.5837616446863" lon="9.391965569954182"><ele>174.0</ele><time>2026-05-04T14:33:23Z</time></trkpt><trkpt lat="45.583745644061224" lon="9.391745579237915"><ele>174.0</ele><time>2026-05-04T14:33:24Z</time></trkpt><trkpt lat="45.583719186624336" lon="9.391582538863135"><ele>174.0</ele><time>2026-05-04T14:33:25Z</time></trkpt><trkpt lat="45.58374137235351" lon="9.391465626334666"><ele>174.0</ele><time>2026-05-04T14:33:26Z</time></trkpt><trkpt lat="45.58373905844815" lon="9.3913345020241"><ele>174.0</ele><time>2026-05-04T14:33:27Z</time></trkpt><trkpt lat="45.58373562927617" lon="9.391206940000224"><ele>174.0</ele><time>2026-05-04T14:33:28Z</time></trkpt><trkpt lat="45.58374052602115" lon="9.391090185164874"><ele>174.0</ele><time>2026-05-04T14:33:29Z</time></trkpt><trkpt lat="45.58374040433201" lon="9.390994380924642"><ele>174.0</ele><time>2026-05-04T14:33:30Z</time></trkpt><trkpt lat="45.583739170359344" lon="9.390868811549336"><ele>174.0</ele><time>2026-05-04T14:33:32Z</time></trkpt><trkpt lat="45.58370601261494" lon="9.390759233185795"><ele>174.0</ele><time>2026-05-04T14:33:34Z</time></trkpt><trkpt lat="45.58367992729241" lon="9.390579616952271"><ele>174.0</ele><time>2026-05-04T14:33:36Z</time></trkpt><trkpt lat="45.58368368967519" lon="9.390447788447066"><ele>173.5</ele><time>2026-05-04T14:33:37Z</time></trkpt><trkpt lat="45.583695423451914" lon="9.390298035226188"><ele>173.0</ele><time>2026-05-04T14:33:38Z</time></trkpt><trkpt lat="45.583688403076486" lon="9.390125678302951"><ele>172.5</ele><time>2026-05-04T14:33:39Z</time></trkpt><trkpt lat="45.58367951927611" lon="9.389939237850987"><ele>172.0</ele><time>2026-05-04T14:33:40Z</time></trkpt><trkpt lat="45.58367491161995" lon="9.38970997092387"><ele>172.0</ele><time>2026-05-04T14:33:41Z</time></trkpt><trkpt lat="45.58366859124439" lon="9.389468784123391"><ele>172.0</ele><time>2026-05-04T14:33:42Z</time></trkpt><trkpt lat="45.58366151638229" lon="9.38926534390692"><ele>172.0</ele><time>2026-05-04T14:33:43Z</time></trkpt><trkpt lat="45.583648090686516" lon="9.389077046263798"><ele>172.0</ele><time>2026-05-04T14:33:44Z</time></trkpt><trkpt lat="45.58363864565982" lon="9.388891927609771"><ele>171.75</ele><time>2026-05-04T14:33:45Z</time></trkpt><trkpt lat="45.583629811719646" lon="9.388711327783279"><ele>171.5</ele><time>2026-05-04T14:33:46Z</time></trkpt><trkpt lat="45.58362188655497" lon="9.388533730381"><ele>171.25</ele><time>2026-05-04T14:33:47Z</time></trkpt><trkpt lat="45.58362535635755" lon="9.388326531816892"><ele>171.0</ele><time>2026-05-04T14:33:48Z</time></trkpt><trkpt lat="45.58363442431955" lon="9.388102239345828"><ele>170.5</ele><time>2026-05-04T14:33:49Z</time></trkpt><trkpt lat="45.58363008629995" lon="9.387915319073466"><ele>170.0</ele><time>2026-05-04T14:33:50Z</time></trkpt><trkpt lat="45.58362405279322" lon="9.387738047749798"><ele>169.5</ele><time>2026-05-04T14:33:51Z</time></trkpt><trkpt lat="45.583629117930144" lon="9.387545839430661"><ele>169.0</ele><time>2026-05-04T14:33:52Z</time></trkpt><trkpt lat="45.58362206894235" lon="9.387330190140807"><ele>168.5</ele><time>2026-05-04T14:33:53Z</time></trkpt><trkpt lat="45.5836156713162" lon="9.387150729866361"><ele>168.0</ele><time>2026-05-04T14:33:54Z</time></trkpt><trkpt lat="45.5836104725519" lon="9.386959305449466"><ele>167.5</ele><time>2026-05-04T14:33:55Z</time></trkpt><trkpt lat="45.58360149070383" lon="9.386745069358245"><ele>167.0</ele><time>2026-05-04T14:33:56Z</time></trkpt><trkpt lat="45.583590540559385" lon="9.386530610724966"><ele>167.25</ele><time>2026-05-04T14:33:57Z</time></trkpt><trkpt lat="45.583585063724534" lon="9.38633743861926"><ele>167.5</ele><time>2026-05-04T14:33:58Z</time></trkpt><trkpt lat="45.583575146249" lon="9.386164812198016"><ele>167.75</ele><time>2026-05-04T14:33:59Z</time></trkpt><trkpt lat="45.583610070459414" lon="9.38599491257421"><ele>168.0</ele><time>2026-05-04T14:34:00Z</time></trkpt><trkpt lat="45.583599513119104" lon="9.385830403757211"><ele>168.0</ele><time>2026-05-04T14:34:01Z</time></trkpt><trkpt lat="45.58358087284531" lon="9.385623610155154"><ele>168.0</ele><time>2026-05-04T14:34:02Z</time></trkpt><trkpt lat="45.58356393091266" lon="9.385401597996339"><ele>168.0</ele><time>2026-05-04T14:34:03Z</time></trkpt><trkpt lat="45.58355269096482" lon="9.38520552861115"><ele>168.0</ele><time>2026-05-04T14:34:04Z</time></trkpt><trkpt lat="45.58355031363503" lon="9.385027998598574"><ele>168.5</ele><time>2026-05-04T14:34:05Z</time></trkpt><trkpt lat="45.583548455627195" lon="9.384867490745032"><ele>169.0</ele><time>2026-05-04T14:34:06Z</time></trkpt><trkpt lat="45.58353744892594" lon="9.384692831204099"><ele>169.5</ele><time>2026-05-04T14:34:07Z</time></trkpt><trkpt lat="45.58354492892353" lon="9.38453703262325"><ele>170.0</ele><time>2026-05-04T14:34:08Z</time></trkpt><trkpt lat="45.58354355043003" lon="9.384386364723385"><ele>170.0</ele><time>2026-05-04T14:34:09Z</time></trkpt><trkpt lat="45.58353339106709" lon="9.384246893819826"><ele>170.0</ele><time>2026-05-04T14:34:10Z</time></trkpt><trkpt lat="45.58354329493942" lon="9.384097401025361"><ele>170.0</ele><time>2026-05-04T14:34:11Z</time></trkpt><trkpt lat="45.583540404284676" lon="9.38395611494346"><ele>170.0</ele><time>2026-05-04T14:34:12Z</time></trkpt><trkpt lat="45.583536159627386" lon="9.383808258627695"><ele>170.0</ele><time>2026-05-04T14:34:13Z</time></trkpt><trkpt lat="45.583532595127586" lon="9.38369490279125"><ele>170.0</ele><time>2026-05-04T14:34:14Z</time></trkpt><trkpt lat="45.58351889447732" lon="9.383580305627753"><ele>170.0</ele><time>2026-05-04T14:34:15Z</time></trkpt><trkpt lat="45.58351018337583" lon="9.383481586661555"><ele>170.0</ele><time>2026-05-04T14:34:16Z</time></trkpt><trkpt lat="45.5835141047252" lon="9.383352827895"><ele>170.0</ele><time>2026-05-04T14:34:18Z</time></trkpt><trkpt lat="45.583514025292125" lon="9.383240980105121"><ele>170.0</ele><time>2026-05-04T14:34:20Z</time></trkpt><trkpt lat="45.583507362451165" lon="9.383138350577793"><ele>170.0</ele><time>2026-05-04T14:34:22Z</time></trkpt><trkpt lat="45.58351751082813" lon="9.383300662675055"><ele>170.0</ele><time>2026-05-04T14:34:32Z</time></trkpt><trkpt lat="45.58352223607081" lon="9.383420950190063"><ele>170.0</ele><time>2026-05-04T14:34:33Z</time></trkpt><trkpt lat="45.583515304642546" lon="9.383558895600423"><ele>170.0</ele><time>2026-05-04T14:34:34Z</time></trkpt><trkpt lat="45.58353159565175" lon="9.383747340115827"><ele>170.0</ele><time>2026-05-04T14:34:35Z</time></trkpt><trkpt lat="45.583536289896486" lon="9.383932940871928"><ele>170.0</ele><time>2026-05-04T14:34:36Z</time></trkpt><trkpt lat="45.583535252453224" lon="9.384116777777823"><ele>170.0</ele><time>2026-05-04T14:34:37Z</time></trkpt><trkpt lat="45.58355113384523" lon="9.38430078905488"><ele>170.0</ele><time>2026-05-04T14:34:38Z</time></trkpt><trkpt lat="45.583550036783116" lon="9.384484396031667"><ele>170.0</ele><time>2026-05-04T14:34:39Z</time></trkpt><trkpt lat="45.58354259346898" lon="9.384692717873124"><ele>170.0</ele><time>2026-05-04T14:34:40Z</time></trkpt><trkpt lat="45.58353518718858" lon="9.384879748459474"><ele>170.0</ele><time>2026-05-04T14:34:41Z</time></trkpt><trkpt lat="45.58354960392917" lon="9.385071248432597"><ele>170.0</ele><time>2026-05-04T14:34:42Z</time></trkpt><trkpt lat="45.583546660592596" lon="9.385280742034784"><ele>170.0</ele><time>2026-05-04T14:34:43Z</time></trkpt><trkpt lat="45.583565613021555" lon="9.385496728132896"><ele>170.0</ele><time>2026-05-04T14:34:44Z</time></trkpt><trkpt lat="45.583579811090544" lon="9.385678050956441"><ele>169.6</ele><time>2026-05-04T14:34:45Z</time></trkpt><trkpt lat="45.583589822270895" lon="9.385835199207008"><ele>169.2</ele><time>2026-05-04T14:34:46Z</time></trkpt><trkpt lat="45.58360029791128" lon="9.385985548380054"><ele>168.8</ele><time>2026-05-04T14:34:47Z</time></trkpt><trkpt lat="45.58362613599069" lon="9.38613131855316"><ele>168.4</ele><time>2026-05-04T14:34:48Z</time></trkpt><trkpt lat="45.58362911503204" lon="9.386269878689271"><ele>168.0</ele><time>2026-05-04T14:34:49Z</time></trkpt><trkpt lat="45.58361734117027" lon="9.38638963394491"><ele>167.8</ele><time>2026-05-04T14:34:50Z</time></trkpt><trkpt lat="45.58359394216793" lon="9.38649799796227"><ele>167.60000000000002</ele><time>2026-05-04T14:34:51Z</time></trkpt><trkpt lat="45.58350779828572" lon="9.386549774541711"><ele>167.39999999999998</ele><time>2026-05-04T14:34:52Z</time></trkpt><trkpt lat="45.5836282892606" lon="9.386706116708773"><ele>167.2</ele><time>2026-05-04T14:34:53Z</time></trkpt><trkpt lat="45.58363268590987" lon="9.38681405949604"><ele>167.0</ele><time>2026-05-04T14:34:54Z</time></trkpt><trkpt lat="45.58363646571444" lon="9.3869377996401"><ele>167.0</ele><time>2026-05-04T14:34:55Z</time></trkpt><trkpt lat="45.58364154897835" lon="9.387059191295558"><ele>167.0</ele><time>2026-05-04T14:34:56Z</time></trkpt><trkpt lat="45.58363465233619" lon="9.38717451717938"><ele>167.0</ele><time>2026-05-04T14:34:57Z</time></trkpt><trkpt lat="45.58364703226361" lon="9.387303481473602"><ele>167.0</ele><time>2026-05-04T14:34:58Z</time></trkpt><trkpt lat="45.583649184841065" lon="9.387420232035879"><ele>167.0</ele><time>2026-05-04T14:34:59Z</time></trkpt><trkpt lat="45.58364724348399" lon="9.387548698417984"><ele>167.0</ele><time>2026-05-04T14:35:00Z</time></trkpt><trkpt lat="45.58364020324105" lon="9.38764389743838"><ele>167.33333333333331</ele><time>2026-05-04T14:35:01Z</time></trkpt><trkpt lat="45.58363432139547" lon="9.387755464396204"><ele>167.66666666666666</ele><time>2026-05-04T14:35:02Z</time></trkpt><trkpt lat="45.58363231203172" lon="9.387858259522705"><ele>168.0</ele><time>2026-05-04T14:35:03Z</time></trkpt><trkpt lat="45.583633473179674" lon="9.387968508189521"><ele>168.33333333333334</ele><time>2026-05-04T14:35:04Z</time></trkpt><trkpt lat="45.583635748311366" lon="9.388081939571787"><ele>168.66666666666669</ele><time>2026-05-04T14:35:05Z</time></trkpt><trkpt lat="45.58363857023075" lon="9.388190323719165"><ele>169.0</ele><time>2026-05-04T14:35:06Z</time></trkpt><trkpt lat="45.58363722546764" lon="9.388299985904501"><ele>169.33333333333334</ele><time>2026-05-04T14:35:07Z</time></trkpt><trkpt lat="45.58363638890511" lon="9.388407006183803"><ele>169.66666666666669</ele><time>2026-05-04T14:35:08Z</time></trkpt><trkpt lat="45.583630982024076" lon="9.388511238839563"><ele>170.0</ele><time>2026-05-04T14:35:09Z</time></trkpt><trkpt lat="45.58363204855073" lon="9.388618256256805"><ele>170.33333333333334</ele><time>2026-05-04T14:35:10Z</time></trkpt><trkpt lat="45.58363798346055" lon="9.38871755805104"><ele>170.66666666666666</ele><time>2026-05-04T14:35:11Z</time></trkpt><trkpt lat="45.583641324874534" lon="9.388815905804382"><ele>171.0</ele><time>2026-05-04T14:35:12Z</time></trkpt><trkpt lat="45.583640148375" lon="9.38900204090616"><ele>171.20000000000002</ele><time>2026-05-04T14:35:14Z</time></trkpt><trkpt lat="45.58364129071178" lon="9.389099068434561"><ele>171.4</ele><time>2026-05-04T14:35:15Z</time></trkpt><trkpt lat="45.58365852659786" lon="9.389278591804311"><ele>171.6</ele><time>2026-05-04T14:35:17Z</time></trkpt><trkpt lat="45.58365943958803" lon="9.389456911630596"><ele>171.8</ele><time>2026-05-04T14:35:19Z</time></trkpt><trkpt lat="45.58366630260184" lon="9.389547658632283"><ele>172.0</ele><time>2026-05-04T14:35:20Z</time></trkpt><trkpt lat="45.58366857685049" lon="9.389648120582036"><ele>172.0</ele><time>2026-05-04T14:35:21Z</time></trkpt><trkpt lat="45.5836704301732" lon="9.389769508134258"><ele>172.0</ele><time>2026-05-04T14:35:22Z</time></trkpt><trkpt lat="45.58367779710858" lon="9.389899890840017"><ele>172.0</ele><time>2026-05-04T14:35:23Z</time></trkpt><trkpt lat="45.58368161886759" lon="9.390057173372327"><ele>172.0</ele><time>2026-05-04T14:35:24Z</time></trkpt><trkpt lat="45.5836854829894" lon="9.390227085169224"><ele>172.0</ele><time>2026-05-04T14:35:25Z</time></trkpt><trkpt lat="45.58369139367186" lon="9.390374813261957"><ele>172.0</ele><time>2026-05-04T14:35:26Z</time></trkpt><trkpt lat="45.58369281957131" lon="9.390507363615294"><ele>172.0</ele><time>2026-05-04T14:35:27Z</time></trkpt><trkpt lat="45.58369437459639" lon="9.390622787962764"><ele>172.0</ele><time>2026-05-04T14:35:28Z</time></trkpt><trkpt lat="45.583699679954314" lon="9.390736719957506"><ele>172.0</ele><time>2026-05-04T14:35:29Z</time></trkpt><trkpt lat="45.58371351446341" lon="9.390845484200854"><ele>172.0</ele><time>2026-05-04T14:35:30Z</time></trkpt><trkpt lat="45.58372895408597" lon="9.390941825675322"><ele>172.0</ele><time>2026-05-04T14:35:31Z</time></trkpt><trkpt lat="45.5837427811453" lon="9.391043226931972"><ele>172.39999999999998</ele><time>2026-05-04T14:35:32Z</time></trkpt><trkpt lat="45.5837463973237" lon="9.39115261640906"><ele>172.79999999999998</ele><time>2026-05-04T14:35:33Z</time></trkpt><trkpt lat="45.58373648739466" lon="9.39128554321615"><ele>173.2</ele><time>2026-05-04T14:35:34Z</time></trkpt><trkpt lat="45.583737627952736" lon="9.391470739448247"><ele>173.6</ele><time>2026-05-04T14:35:35Z</time></trkpt><trkpt lat="45.58373786976587" lon="9.391631327548039"><ele>174.0</ele><time>2026-05-04T14:35:36Z</time></trkpt><trkpt lat="45.5837468451725" lon="9.391791843189845"><ele>174.0</ele><time>2026-05-04T14:35:37Z</time></trkpt><trkpt lat="45.58375025350554" lon="9.391969655001283"><ele>174.0</ele><time>2026-05-04T14:35:38Z</time></trkpt><trkpt lat="45.5837528390275" lon="9.392157065954619"><ele>174.0</ele><time>2026-05-04T14:35:39Z</time></trkpt><trkpt lat="45.583755638111796" lon="9.392346263085207"><ele>174.0</ele><time>2026-05-04T14:35:40Z</time></trkpt><trkpt lat="45.58375627514971" lon="9.392513674588287"><ele>174.0</ele><time>2026-05-04T14:35:41Z</time></trkpt><trkpt lat="45.58376233242826" lon="9.392641041694475"><ele>174.0</ele><time>2026-05-04T14:35:42Z</time></trkpt><trkpt lat="45.58377289127137" lon="9.392739432346051"><ele>174.0</ele><time>2026-05-04T14:35:43Z</time></trkpt><trkpt lat="45.58380932880683" lon="9.39281908086037"><ele>174.0</ele><time>2026-05-04T14:35:44Z</time></trkpt><trkpt lat="45.583846751752" lon="9.392921357896352"><ele>174.0</ele><time>2026-05-04T14:35:45Z</time></trkpt><trkpt lat="45.58384887518792" lon="9.393014827812381"><ele>174.0</ele><time>2026-05-04T14:35:46Z</time></trkpt><trkpt lat="45.58383974077938" lon="9.393182033721322"><ele>172.75</ele><time>2026-05-04T14:35:47Z</time></trkpt><trkpt lat="45.58383735323168" lon="9.393363241583092"><ele>171.5</ele><time>2026-05-04T14:35:48Z</time></trkpt><trkpt lat="45.58385092856162" lon="9.393543901399447"><ele>170.25</ele><time>2026-05-04T14:35:49Z</time></trkpt><trkpt lat="45.58386429998919" lon="9.39371700279896"><ele>169.0</ele><time>2026-05-04T14:35:50Z</time></trkpt><trkpt lat="45.5838768719959" lon="9.393903438345617"><ele>169.0</ele><time>2026-05-04T14:35:51Z</time></trkpt><trkpt lat="45.583879951530626" lon="9.394087007993699"><ele>169.0</ele><time>2026-05-04T14:35:52Z</time></trkpt><trkpt lat="45.583877314529644" lon="9.394299652068218"><ele>169.0</ele><time>2026-05-04T14:35:53Z</time></trkpt><trkpt lat="45.583886010755506" lon="9.394542864480494"><ele>169.0</ele><time>2026-05-04T14:35:54Z</time></trkpt><trkpt lat="45.58389267227785" lon="9.394737475980255"><ele>169.39999999999998</ele><time>2026-05-04T14:35:55Z</time></trkpt><trkpt lat="45.58390557929701" lon="9.394892077166727"><ele>169.8</ele><time>2026-05-04T14:35:56Z</time></trkpt><trkpt lat="45.58390171269389" lon="9.395025718070288"><ele>170.2</ele><time>2026-05-04T14:35:57Z</time></trkpt><trkpt lat="45.58389098946997" lon="9.395165122694442"><ele>170.60000000000002</ele><time>2026-05-04T14:35:58Z</time></trkpt><trkpt lat="45.58388854802092" lon="9.395340762127198"><ele>171.0</ele><time>2026-05-04T14:35:59Z</time></trkpt><trkpt lat="45.58389140517159" lon="9.39552361518857"><ele>171.25</ele><time>2026-05-04T14:36:00Z</time></trkpt><trkpt lat="45.58389658417945" lon="9.395708410380713"><ele>171.5</ele><time>2026-05-04T14:36:01Z</time></trkpt><trkpt lat="45.58390534483811" lon="9.395881328100142"><ele>171.75</ele><time>2026-05-04T14:36:02Z</time></trkpt><trkpt lat="45.58390569241661" lon="9.396060041638943"><ele>172.0</ele><time>2026-05-04T14:36:04Z</time></trkpt><trkpt lat="45.583936622712656" lon="9.396225601210297"><ele>172.0</ele><time>2026-05-04T14:36:06Z</time></trkpt><trkpt lat="45.5839032055935" lon="9.396334261139202"><ele>172.0</ele><time>2026-05-04T14:36:08Z</time></trkpt><trkpt lat="45.58384069094083" lon="9.396498886496497"><ele>172.0</ele><time>2026-05-04T14:36:09Z</time></trkpt><trkpt lat="45.58382185588343" lon="9.396624472986256"><ele>172.0</ele><time>2026-05-04T14:36:10Z</time></trkpt><trkpt lat="45.583798155285066" lon="9.396768314696667"><ele>172.0</ele><time>2026-05-04T14:36:11Z</time></trkpt><trkpt lat="45.583778318879716" lon="9.396855193232174"><ele>171.5</ele><time>2026-05-04T14:36:12Z</time></trkpt><trkpt lat="45.58378073821389" lon="9.396958334047163"><ele>171.0</ele><time>2026-05-04T14:36:13Z</time></trkpt><trkpt lat="45.58380577441455" lon="9.397066815802244"><ele>170.5</ele><time>2026-05-04T14:36:16Z</time></trkpt><trkpt lat="45.58378165386246" lon="9.397154700810049"><ele>170.0</ele><time>2026-05-04T14:36:34Z</time></trkpt><trkpt lat="45.58377293913692" lon="9.397269946449732"><ele>169.5</ele><time>2026-05-04T14:36:35Z</time></trkpt><trkpt lat="45.58376711459607" lon="9.39736787171503"><ele>169.0</ele><time>2026-05-04T14:36:36Z</time></trkpt><trkpt lat="45.583755333988336" lon="9.397518147967274"><ele>169.0</ele><time>2026-05-04T14:36:37Z</time></trkpt><trkpt lat="45.58374909920098" lon="9.39767069453959"><ele>169.0</ele><time>2026-05-04T14:36:38Z</time></trkpt><trkpt lat="45.583732960380374" lon="9.39783949235755"><ele>169.0</ele><time>2026-05-04T14:36:39Z</time></trkpt><trkpt lat="45.58371348149296" lon="9.398018834035167"><ele>169.0</ele><time>2026-05-04T14:36:40Z</time></trkpt><trkpt lat="45.5837070205803" lon="9.398140135876913"><ele>169.0</ele><time>2026-05-04T14:36:41Z</time></trkpt><trkpt lat="45.58368804595636" lon="9.398294787711206"><ele>169.0</ele><time>2026-05-04T14:36:42Z</time></trkpt><trkpt lat="45.5836635537826" lon="9.3984431379134"><ele>169.0</ele><time>2026-05-04T14:36:43Z</time></trkpt><trkpt lat="45.583640665500695" lon="9.398596262025123"><ele>169.0</ele><time>2026-05-04T14:36:44Z</time></trkpt><trkpt lat="45.58363393003498" lon="9.398797748033"><ele>169.0</ele><time>2026-05-04T14:36:45Z</time></trkpt><trkpt lat="45.58361701885239" lon="9.399022536987932"><ele>169.0</ele><time>2026-05-04T14:36:46Z</time></trkpt><trkpt lat="45.58360892795211" lon="9.399206214031015"><ele>169.0</ele><time>2026-05-04T14:36:47Z</time></trkpt><trkpt lat="45.58362483157901" lon="9.399354892924398"><ele>169.0</ele><time>2026-05-04T14:36:48Z</time></trkpt><trkpt lat="45.583616249803306" lon="9.399493158430182"><ele>169.0</ele><time>2026-05-04T14:36:49Z</time></trkpt><trkpt lat="45.583610189375015" lon="9.399616977662706"><ele>169.0</ele><time>2026-05-04T14:36:50Z</time></trkpt><trkpt lat="45.583609117776405" lon="9.399721351213115"><ele>169.2</ele><time>2026-05-04T14:36:51Z</time></trkpt><trkpt lat="45.58359326286253" lon="9.39982140448718"><ele>169.39999999999998</ele><time>2026-05-04T14:36:52Z</time></trkpt><trkpt lat="45.58351972629907" lon="9.399921675796065"><ele>169.6</ele><time>2026-05-04T14:36:54Z</time></trkpt><trkpt lat="45.58343792231584" lon="9.399938581578395"><ele>169.8</ele><time>2026-05-04T14:36:55Z</time></trkpt><trkpt lat="45.58332420048932" lon="9.39989702689271"><ele>170.0</ele><time>2026-05-04T14:36:56Z</time></trkpt><trkpt lat="45.583189649424675" lon="9.399913347318652"><ele>170.0</ele><time>2026-05-04T14:36:57Z</time></trkpt><trkpt lat="45.58307887824329" lon="9.399913262114689"><ele>170.0</ele><time>2026-05-04T14:36:58Z</time></trkpt><trkpt lat="45.58298227117779" lon="9.399905252678789"><ele>170.0</ele><time>2026-05-04T14:36:59Z</time></trkpt><trkpt lat="45.58289663285235" lon="9.399906542555035"><ele>170.0</ele><time>2026-05-04T14:37:00Z</time></trkpt><trkpt lat="45.58279115960565" lon="9.399952098254284"><ele>170.0</ele><time>2026-05-04T14:37:02Z</time></trkpt><trkpt lat="45.58274184129813" lon="9.40010418227181"><ele>169.0</ele><time>2026-05-04T14:37:04Z</time></trkpt><trkpt lat="45.58277900178302" lon="9.400210610923555"><ele>168.0</ele><time>2026-05-04T14:37:05Z</time></trkpt><trkpt lat="45.58281187407339" lon="9.400314709058797"><ele>167.0</ele><time>2026-05-04T14:37:07Z</time></trkpt><trkpt lat="45.582592576877694" lon="9.400257122091364"><ele>166.0</ele><time>2026-05-04T14:37:21Z</time></trkpt><trkpt lat="45.582492920838504" lon="9.400221266533869"><ele>166.0</ele><time>2026-05-04T14:37:22Z</time></trkpt><trkpt lat="45.58237104311954" lon="9.400168592405329"><ele>166.0</ele><time>2026-05-04T14:37:23Z</time></trkpt><trkpt lat="45.582236028002015" lon="9.400113778727848"><ele>166.0</ele><time>2026-05-04T14:37:24Z</time></trkpt><trkpt lat="45.58209923264193" lon="9.400037993051424"><ele>166.0</ele><time>2026-05-04T14:37:25Z</time></trkpt><trkpt lat="45.581979644507456" lon="9.399966708349197"><ele>166.5</ele><time>2026-05-04T14:37:26Z</time></trkpt><trkpt lat="45.58187123508494" lon="9.399909913619387"><ele>167.0</ele><time>2026-05-04T14:37:27Z</time></trkpt><trkpt lat="45.581761572196754" lon="9.399876578261553"><ele>167.5</ele><time>2026-05-04T14:37:28Z</time></trkpt><trkpt lat="45.58164766150103" lon="9.399804000143076"><ele>168.0</ele><time>2026-05-04T14:37:29Z</time></trkpt><trkpt lat="45.58153371337906" lon="9.399760546084204"><ele>168.0</ele><time>2026-05-04T14:37:30Z</time></trkpt><trkpt lat="45.5814180365661" lon="9.399716432788022"><ele>168.0</ele><time>2026-05-04T14:37:31Z</time></trkpt><trkpt lat="45.58128968003065" lon="9.399687021406915"><ele>168.0</ele><time>2026-05-04T14:37:32Z</time></trkpt><trkpt lat="45.581185311007694" lon="9.3996292206826"><ele>168.0</ele><time>2026-05-04T14:37:33Z</time></trkpt><trkpt lat="45.58107273865008" lon="9.39957923884941"><ele>167.75</ele><time>2026-05-04T14:37:34Z</time></trkpt><trkpt lat="45.58096063521572" lon="9.399523672954118"><ele>167.5</ele><time>2026-05-04T14:37:35Z</time></trkpt><trkpt lat="45.580840137741504" lon="9.399458809980661"><ele>167.25</ele><time>2026-05-04T14:37:36Z</time></trkpt><trkpt lat="45.580724090256346" lon="9.399390907820411"><ele>167.0</ele><time>2026-05-04T14:37:37Z</time></trkpt><trkpt lat="45.580628965214785" lon="9.399331344376746"><ele>167.0</ele><time>2026-05-04T14:37:38Z</time></trkpt><trkpt lat="45.58053720377609" lon="9.399268667784733"><ele>167.0</ele><time>2026-05-04T14:37:39Z</time></trkpt><trkpt lat="45.58044396880158" lon="9.399214165267681"><ele>167.0</ele><time>2026-05-04T14:37:40Z</time></trkpt><trkpt lat="45.580336552640226" lon="9.399162329054953"><ele>167.0</ele><time>2026-05-04T14:37:41Z</time></trkpt><trkpt lat="45.580254269808194" lon="9.399091189106505"><ele>167.0</ele><time>2026-05-04T14:37:42Z</time></trkpt><trkpt lat="45.580161908178326" lon="9.39905127993641"><ele>166.66666666666666</ele><time>2026-05-04T14:37:43Z</time></trkpt><trkpt lat="45.58008278431009" lon="9.399002412723855"><ele>166.33333333333331</ele><time>2026-05-04T14:37:44Z</time></trkpt><trkpt lat="45.58002218576171" lon="9.398968205097235"><ele>166.0</ele><time>2026-05-04T14:37:45Z</time></trkpt><trkpt lat="45.57994581489064" lon="9.398945507021883"><ele>165.66666666666666</ele><time>2026-05-04T14:37:47Z</time></trkpt><trkpt lat="45.579872687942725" lon="9.398908239150646"><ele>165.33333333333334</ele><time>2026-05-04T14:37:51Z</time></trkpt><trkpt lat="45.579841331078214" lon="9.398748178107747"><ele>165.0</ele><time>2026-05-04T14:38:02Z</time></trkpt><trkpt lat="45.579832500402595" lon="9.398596607163293"><ele>165.0</ele><time>2026-05-04T14:38:03Z</time></trkpt><trkpt lat="45.57982601042047" lon="9.398434037183232"><ele>165.0</ele><time>2026-05-04T14:38:04Z</time></trkpt><trkpt lat="45.579818678990094" lon="9.398241237059661"><ele>165.0</ele><time>2026-05-04T14:38:05Z</time></trkpt><trkpt lat="45.57981096713137" lon="9.398038432701638"><ele>165.0</ele><time>2026-05-04T14:38:06Z</time></trkpt><trkpt lat="45.579805011919085" lon="9.397844237369213"><ele>165.0</ele><time>2026-05-04T14:38:07Z</time></trkpt><trkpt lat="45.57979732918614" lon="9.397607458086881"><ele>165.0</ele><time>2026-05-04T14:38:08Z</time></trkpt><trkpt lat="45.57979022352673" lon="9.397388463966795"><ele>165.0</ele><time>2026-05-04T14:38:09Z</time></trkpt><trkpt lat="45.579784401775186" lon="9.397209039409383"><ele>165.0</ele><time>2026-05-04T14:38:10Z</time></trkpt><trkpt lat="45.579779953979404" lon="9.397024730949456"><ele>165.25</ele><time>2026-05-04T14:38:11Z</time></trkpt><trkpt lat="45.57979294508851" lon="9.396892186978382"><ele>165.5</ele><time>2026-05-04T14:38:12Z</time></trkpt><trkpt lat="45.57981183936591" lon="9.396773423994299"><ele>165.75</ele><time>2026-05-04T14:38:13Z</time></trkpt><trkpt lat="45.57980180481733" lon="9.396654928112229"><ele>166.0</ele><time>2026-05-04T14:38:14Z</time></trkpt><trkpt lat="45.579728034722685" lon="9.396127353428529"><ele>166.0</ele><time>2026-05-04T14:38:15Z</time></trkpt><trkpt lat="45.579714733101284" lon="9.395903385881393"><ele>166.0</ele><time>2026-05-04T14:38:16Z</time></trkpt><trkpt lat="45.579708060580785" lon="9.395668628830473"><ele>166.0</ele><time>2026-05-04T14:38:17Z</time></trkpt><trkpt lat="45.5796999949903" lon="9.39543335216318"><ele>166.0</ele><time>2026-05-04T14:38:18Z</time></trkpt><trkpt lat="45.57969350273587" lon="9.395201414123552"><ele>166.0</ele><time>2026-05-04T14:38:19Z</time></trkpt><trkpt lat="45.57968897069095" lon="9.394970796842777"><ele>166.0</ele><time>2026-05-04T14:38:20Z</time></trkpt><trkpt lat="45.57968354668675" lon="9.394737362921616"><ele>165.0</ele><time>2026-05-04T14:38:21Z</time></trkpt><trkpt lat="45.57967652594247" lon="9.394499696313444"><ele>164.0</ele><time>2026-05-04T14:38:22Z</time></trkpt><trkpt lat="45.57967021015309" lon="9.394270286471698"><ele>163.0</ele><time>2026-05-04T14:38:23Z</time></trkpt><trkpt lat="45.57966051740303" lon="9.394033229761126"><ele>162.66666666666669</ele><time>2026-05-04T14:38:24Z</time></trkpt><trkpt lat="45.57964949491189" lon="9.393787545509921"><ele>162.33333333333334</ele><time>2026-05-04T14:38:25Z</time></trkpt><trkpt lat="45.579640799501725" lon="9.393541869688308"><ele>162.0</ele><time>2026-05-04T14:38:26Z</time></trkpt><trkpt lat="45.57964377492612" lon="9.393294198536026"><ele>162.0</ele><time>2026-05-04T14:38:27Z</time></trkpt><trkpt lat="45.579634496211575" lon="9.393039302893518"><ele>162.0</ele><time>2026-05-04T14:38:28Z</time></trkpt><trkpt lat="45.57962501513354" lon="9.392790878150866"><ele>162.0</ele><time>2026-05-04T14:38:29Z</time></trkpt><trkpt lat="45.57960111538316" lon="9.392546089089866"><ele>162.33333333333334</ele><time>2026-05-04T14:38:30Z</time></trkpt><trkpt lat="45.57959199229525" lon="9.392296394861066"><ele>162.66666666666669</ele><time>2026-05-04T14:38:31Z</time></trkpt><trkpt lat="45.579587769462286" lon="9.39204779452392"><ele>163.0</ele><time>2026-05-04T14:38:32Z</time></trkpt><trkpt lat="45.57958454998618" lon="9.3918001793759"><ele>163.33333333333334</ele><time>2026-05-04T14:38:33Z</time></trkpt><trkpt lat="45.5795830111957" lon="9.391541861297513"><ele>163.66666666666666</ele><time>2026-05-04T14:38:34Z</time></trkpt><trkpt lat="45.57956980352651" lon="9.391294018814321"><ele>164.0</ele><time>2026-05-04T14:38:35Z</time></trkpt><trkpt lat="45.5795612074235" lon="9.391036767240236"><ele>164.33333333333331</ele><time>2026-05-04T14:38:36Z</time></trkpt><trkpt lat="45.57954884159479" lon="9.390787913589058"><ele>164.66666666666666</ele><time>2026-05-04T14:38:37Z</time></trkpt><trkpt lat="45.57953673141208" lon="9.390552098598583"><ele>165.0</ele><time>2026-05-04T14:38:38Z</time></trkpt><trkpt lat="45.57953216089833" lon="9.390329536131675"><ele>165.0</ele><time>2026-05-04T14:38:39Z</time></trkpt><trkpt lat="45.57952094953035" lon="9.390106470891123"><ele>165.0</ele><time>2026-05-04T14:38:40Z</time></trkpt><trkpt lat="45.57950716935939" lon="9.389876025423591"><ele>165.0</ele><time>2026-05-04T14:38:41Z</time></trkpt><trkpt lat="45.57948964126947" lon="9.38964450602038"><ele>165.0</ele><time>2026-05-04T14:38:42Z</time></trkpt><trkpt lat="45.57948685210045" lon="9.389426049492522"><ele>165.0</ele><time>2026-05-04T14:38:43Z</time></trkpt><trkpt lat="45.57949015039159" lon="9.389210479721935"><ele>165.0</ele><time>2026-05-04T14:38:44Z</time></trkpt><trkpt lat="45.57949131284296" lon="9.388970552971756"><ele>165.0</ele><time>2026-05-04T14:38:45Z</time></trkpt><trkpt lat="45.57954530629955" lon="9.38875061893757"><ele>165.0</ele><time>2026-05-04T14:38:46Z</time></trkpt><trkpt lat="45.579619209760786" lon="9.38853786490487"><ele>165.0</ele><time>2026-05-04T14:38:47Z</time></trkpt><trkpt lat="45.579685360443555" lon="9.388333186745147"><ele>165.0</ele><time>2026-05-04T14:38:48Z</time></trkpt><trkpt lat="45.57976880250095" lon="9.388143728573132"><ele>165.0</ele><time>2026-05-04T14:38:49Z</time></trkpt><trkpt lat="45.57984075814198" lon="9.387941666188935"><ele>165.0</ele><time>2026-05-04T14:38:50Z</time></trkpt><trkpt lat="45.579887268635694" lon="9.38771785509899"><ele>165.33333333333334</ele><time>2026-05-04T14:38:51Z</time></trkpt><trkpt lat="45.57991489095986" lon="9.38748013883582"><ele>165.66666666666669</ele><time>2026-05-04T14:38:52Z</time></trkpt><trkpt lat="45.579919836053996" lon="9.387255589070524"><ele>166.0</ele><time>2026-05-04T14:38:53Z</time></trkpt><trkpt lat="45.579927680927604" lon="9.387032982722122"><ele>166.0</ele><time>2026-05-04T14:38:54Z</time></trkpt><trkpt lat="45.57993769061488" lon="9.38679038988472"><ele>166.0</ele><time>2026-05-04T14:38:55Z</time></trkpt><trkpt lat="45.57995580947716" lon="9.386575017424926"><ele>166.0</ele><time>2026-05-04T14:38:56Z</time></trkpt><trkpt lat="45.579978743341314" lon="9.386369966279627"><ele>166.0</ele><time>2026-05-04T14:38:57Z</time></trkpt><trkpt lat="45.579975702307266" lon="9.386144054016675"><ele>166.0</ele><time>2026-05-04T14:38:58Z</time></trkpt><trkpt lat="45.57998802734619" lon="9.385927468201114"><ele>166.0</ele><time>2026-05-04T14:38:59Z</time></trkpt><trkpt lat="45.58001558016139" lon="9.385723758897827"><ele>166.0</ele><time>2026-05-04T14:39:00Z</time></trkpt><trkpt lat="45.580014750744304" lon="9.385538178002838"><ele>166.0</ele><time>2026-05-04T14:39:01Z</time></trkpt><trkpt lat="45.58002647316785" lon="9.38536242075588"><ele>166.0</ele><time>2026-05-04T14:39:02Z</time></trkpt><trkpt lat="45.58004342420343" lon="9.385182085717542"><ele>166.0</ele><time>2026-05-04T14:39:03Z</time></trkpt><trkpt lat="45.580047545735" lon="9.385012477008363"><ele>166.0</ele><time>2026-05-04T14:39:04Z</time></trkpt><trkpt lat="45.580051136747194" lon="9.384851957762416"><ele>166.0</ele><time>2026-05-04T14:39:05Z</time></trkpt><trkpt lat="45.58005525104647" lon="9.384707007419687"><ele>166.0</ele><time>2026-05-04T14:39:06Z</time></trkpt><trkpt lat="45.580063930346014" lon="9.384574057214898"><ele>166.0</ele><time>2026-05-04T14:39:07Z</time></trkpt><trkpt lat="45.58006736480314" lon="9.384456286168843"><ele>166.0</ele><time>2026-05-04T14:39:08Z</time></trkpt><trkpt lat="45.58007042733569" lon="9.384334946356342"><ele>166.16666666666669</ele><time>2026-05-04T14:39:09Z</time></trkpt><trkpt lat="45.580077512333794" lon="9.384243860810013"><ele>166.33333333333334</ele><time>2026-05-04T14:39:10Z</time></trkpt><trkpt lat="45.58009456195106" lon="9.384155009167278"><ele>166.5</ele><time>2026-05-04T14:39:11Z</time></trkpt><trkpt lat="45.58008950585507" lon="9.384032507216519"><ele>166.66666666666666</ele><time>2026-05-04T14:39:12Z</time></trkpt><trkpt lat="45.58009740614622" lon="9.383894289977336"><ele>166.83333333333331</ele><time>2026-05-04T14:39:13Z</time></trkpt><trkpt lat="45.580100913466" lon="9.383768993520524"><ele>167.0</ele><time>2026-05-04T14:39:14Z</time></trkpt><trkpt lat="45.58009120444273" lon="9.383647239082485"><ele>167.2</ele><time>2026-05-04T14:39:15Z</time></trkpt><trkpt lat="45.5800610263308" lon="9.383529662599564"><ele>167.39999999999998</ele><time>2026-05-04T14:39:16Z</time></trkpt><trkpt lat="45.57999776002844" lon="9.383464706360174"><ele>167.60000000000002</ele><time>2026-05-04T14:39:17Z</time></trkpt><trkpt lat="45.57991576133667" lon="9.383430829720112"><ele>167.8</ele><time>2026-05-04T14:39:18Z</time></trkpt><trkpt lat="45.579810772609164" lon="9.383495006793336"><ele>168.0</ele><time>2026-05-04T14:39:19Z</time></trkpt><trkpt lat="45.579691200341124" lon="9.383541391709707"><ele>168.0</ele><time>2026-05-04T14:39:20Z</time></trkpt><trkpt lat="45.57954683714596" lon="9.383608028584234"><ele>168.0</ele><time>2026-05-04T14:39:21Z</time></trkpt><trkpt lat="45.5793888012397" lon="9.383652106799921"><ele>168.0</ele><time>2026-05-04T14:39:22Z</time></trkpt><trkpt lat="45.5792160685703" lon="9.383652087214458"><ele>167.66666666666666</ele><time>2026-05-04T14:39:23Z</time></trkpt><trkpt lat="45.57903611922483" lon="9.383666427002169"><ele>167.33333333333331</ele><time>2026-05-04T14:39:24Z</time></trkpt><trkpt lat="45.578845499856875" lon="9.383665006071567"><ele>167.0</ele><time>2026-05-04T14:39:25Z</time></trkpt><trkpt lat="45.57866851722571" lon="9.383682489834134"><ele>167.0</ele><time>2026-05-04T14:39:26Z</time></trkpt><trkpt lat="45.57848132412192" lon="9.383673794205025"><ele>167.0</ele><time>2026-05-04T14:39:27Z</time></trkpt><trkpt lat="45.578298361901744" lon="9.383677175398267"><ele>167.0</ele><time>2026-05-04T14:39:28Z</time></trkpt><trkpt lat="45.57810286426172" lon="9.383684318637759"><ele>167.0</ele><time>2026-05-04T14:39:29Z</time></trkpt><trkpt lat="45.577911300044256" lon="9.383702869575334"><ele>167.0</ele><time>2026-05-04T14:39:30Z</time></trkpt><trkpt lat="45.57772133556946" lon="9.383701694592213"><ele>167.0</ele><time>2026-05-04T14:39:31Z</time></trkpt><trkpt lat="45.57753372049103" lon="9.383707038697"><ele>167.0</ele><time>2026-05-04T14:39:32Z</time></trkpt><trkpt lat="45.57734582880499" lon="9.38371651003216"><ele>167.0</ele><time>2026-05-04T14:39:33Z</time></trkpt><trkpt lat="45.57715950828583" lon="9.383723283609099"><ele>167.0</ele><time>2026-05-04T14:39:34Z</time></trkpt><trkpt lat="45.57697166825736" lon="9.383706882859542"><ele>167.0</ele><time>2026-05-04T14:39:35Z</time></trkpt><trkpt lat="45.57678835789269" lon="9.38366441675937"><ele>167.0</ele><time>2026-05-04T14:39:36Z</time></trkpt><trkpt lat="45.57660726361109" lon="9.383587038478968"><ele>167.0</ele><time>2026-05-04T14:39:37Z</time></trkpt><trkpt lat="45.57643886852249" lon="9.383474980947117"><ele>167.0</ele><time>2026-05-04T14:39:38Z</time></trkpt><trkpt lat="45.576301022637594" lon="9.383314622813144"><ele>167.0</ele><time>2026-05-04T14:39:39Z</time></trkpt><trkpt lat="45.57616250067523" lon="9.383164494042626"><ele>167.0</ele><time>2026-05-04T14:39:40Z</time></trkpt><trkpt lat="45.57604483670884" lon="9.38296856280378"><ele>167.33333333333331</ele><time>2026-05-04T14:39:41Z</time></trkpt><trkpt lat="45.57595667983183" lon="9.382745125255415"><ele>167.66666666666666</ele><time>2026-05-04T14:39:42Z</time></trkpt><trkpt lat="45.57587821708582" lon="9.382512065840846"><ele>168.0</ele><time>2026-05-04T14:39:43Z</time></trkpt><trkpt lat="45.57582508363793" lon="9.382274902000013"><ele>167.33333333333334</ele><time>2026-05-04T14:39:44Z</time></trkpt><trkpt lat="45.57579183507081" lon="9.382029251444017"><ele>166.66666666666669</ele><time>2026-05-04T14:39:45Z</time></trkpt><trkpt lat="45.57577513854669" lon="9.381804083794774"><ele>166.0</ele><time>2026-05-04T14:39:46Z</time></trkpt><trkpt lat="45.57577004270101" lon="9.381584056798415"><ele>166.0</ele><time>2026-05-04T14:39:47Z</time></trkpt><trkpt lat="45.575767819203584" lon="9.381395703182868"><ele>166.0</ele><time>2026-05-04T14:39:48Z</time></trkpt><trkpt lat="45.575767226010356" lon="9.381216681015465"><ele>166.0</ele><time>2026-05-04T14:39:49Z</time></trkpt><trkpt lat="45.57578039935408" lon="9.381049644029757"><ele>166.0</ele><time>2026-05-04T14:39:50Z</time></trkpt><trkpt lat="45.57578651316975" lon="9.380948440855368"><ele>166.0</ele><time>2026-05-04T14:39:51Z</time></trkpt><trkpt lat="45.5757855399921" lon="9.380742812330917"><ele>165.83333333333334</ele><time>2026-05-04T14:39:53Z</time></trkpt><trkpt lat="45.57576265839088" lon="9.380628490007314"><ele>165.66666666666669</ele><time>2026-05-04T14:39:54Z</time></trkpt><trkpt lat="45.57576882166762" lon="9.380522657287669"><ele>165.5</ele><time>2026-05-04T14:39:55Z</time></trkpt><trkpt lat="45.57573563093651" lon="9.38043033329138"><ele>165.33333333333334</ele><time>2026-05-04T14:39:56Z</time></trkpt><trkpt lat="45.57562803785226" lon="9.38039829766456"><ele>165.16666666666666</ele><time>2026-05-04T14:39:57Z</time></trkpt><trkpt lat="45.57552953857211" lon="9.380392943168633"><ele>165.0</ele><time>2026-05-04T14:39:58Z</time></trkpt><trkpt lat="45.57542464211035" lon="9.380422873016759"><ele>165.25</ele><time>2026-05-04T14:39:59Z</time></trkpt><trkpt lat="45.57531601874476" lon="9.380445206496768"><ele>165.5</ele><time>2026-05-04T14:40:00Z</time></trkpt><trkpt lat="45.575189968568324" lon="9.3804544661204"><ele>165.75</ele><time>2026-05-04T14:40:01Z</time></trkpt><trkpt lat="45.57505701805554" lon="9.380463340370152"><ele>166.0</ele><time>2026-05-04T14:40:02Z</time></trkpt><trkpt lat="45.574910530070774" lon="9.380481687876962"><ele>166.0</ele><time>2026-05-04T14:40:03Z</time></trkpt><trkpt lat="45.57476230846546" lon="9.380479141697581"><ele>166.0</ele><time>2026-05-04T14:40:04Z</time></trkpt><trkpt lat="45.57460541715799" lon="9.380483025755177"><ele>166.0</ele><time>2026-05-04T14:40:05Z</time></trkpt><trkpt lat="45.574455052021996" lon="9.38047115609017"><ele>165.66666666666669</ele><time>2026-05-04T14:40:06Z</time></trkpt><trkpt lat="45.57429580123354" lon="9.380438123309485"><ele>165.33333333333334</ele><time>2026-05-04T14:40:07Z</time></trkpt><trkpt lat="45.57412557424799" lon="9.380384016307922"><ele>165.0</ele><time>2026-05-04T14:40:08Z</time></trkpt><trkpt lat="45.57396886049172" lon="9.380320795225476"><ele>165.0</ele><time>2026-05-04T14:40:09Z</time></trkpt><trkpt lat="45.573815972373616" lon="9.38025793138102"><ele>165.0</ele><time>2026-05-04T14:40:10Z</time></trkpt><trkpt lat="45.573662724524624" lon="9.380215803337363"><ele>165.0</ele><time>2026-05-04T14:40:11Z</time></trkpt><trkpt lat="45.57350228864634" lon="9.380189320787185"><ele>164.66666666666666</ele><time>2026-05-04T14:40:12Z</time></trkpt><trkpt lat="45.57334965396911" lon="9.380179383456403"><ele>164.33333333333331</ele><time>2026-05-04T14:40:13Z</time></trkpt><trkpt lat="45.573187985529124" lon="9.380190997349091"><ele>164.0</ele><time>2026-05-04T14:40:14Z</time></trkpt><trkpt lat="45.573025037552085" lon="9.380218142984827"><ele>164.0</ele><time>2026-05-04T14:40:15Z</time></trkpt><trkpt lat="45.572863606117195" lon="9.38026356784711"><ele>164.0</ele><time>2026-05-04T14:40:16Z</time></trkpt><trkpt lat="45.57270293848807" lon="9.38031737455013"><ele>164.0</ele><time>2026-05-04T14:40:17Z</time></trkpt><trkpt lat="45.572545011202294" lon="9.380378042397528"><ele>163.75</ele><time>2026-05-04T14:40:18Z</time></trkpt><trkpt lat="45.57241363372742" lon="9.380418340520125"><ele>163.5</ele><time>2026-05-04T14:40:19Z</time></trkpt><trkpt lat="45.572290591246485" lon="9.380454059140805"><ele>163.25</ele><time>2026-05-04T14:40:20Z</time></trkpt><trkpt lat="45.572165299055" lon="9.380496027007016"><ele>163.0</ele><time>2026-05-04T14:40:21Z</time></trkpt><trkpt lat="45.572034296599725" lon="9.380541512147643"><ele>162.5</ele><time>2026-05-04T14:40:22Z</time></trkpt><trkpt lat="45.57190512229776" lon="9.380586731818056"><ele>162.0</ele><time>2026-05-04T14:40:23Z</time></trkpt><trkpt lat="45.57176570209302" lon="9.380635566508815"><ele>161.5</ele><time>2026-05-04T14:40:24Z</time></trkpt><trkpt lat="45.571613712379666" lon="9.380683453582494"><ele>161.0</ele><time>2026-05-04T14:40:25Z</time></trkpt><trkpt lat="45.57146895636827" lon="9.380736680538138"><ele>161.0</ele><time>2026-05-04T14:40:26Z</time></trkpt><trkpt lat="45.571335493381866" lon="9.380779424394944"><ele>161.0</ele><time>2026-05-04T14:40:27Z</time></trkpt><trkpt lat="45.57121053460694" lon="9.380818748113237"><ele>161.0</ele><time>2026-05-04T14:40:28Z</time></trkpt><trkpt lat="45.57109845886019" lon="9.380852420811946"><ele>161.0</ele><time>2026-05-04T14:40:29Z</time></trkpt><trkpt lat="45.57099509260332" lon="9.380886338960156"><ele>161.16666666666666</ele><time>2026-05-04T14:40:30Z</time></trkpt><trkpt lat="45.57090101399529" lon="9.380923190536658"><ele>161.33333333333331</ele><time>2026-05-04T14:40:31Z</time></trkpt><trkpt lat="45.57083728906542" lon="9.380932237229505"><ele>161.5</ele><time>2026-05-04T14:40:32Z</time></trkpt><trkpt lat="45.57073231723463" lon="9.380944587313234"><ele>161.66666666666666</ele><time>2026-05-04T14:40:34Z</time></trkpt><trkpt lat="45.570655220596684" lon="9.38093344567997"><ele>161.83333333333334</ele><time>2026-05-04T14:40:36Z</time></trkpt><trkpt lat="45.570585921434706" lon="9.38092132190011"><ele>162.0</ele><time>2026-05-04T14:40:39Z</time></trkpt><trkpt lat="45.570534474391685" lon="9.380834147883501"><ele>162.0</ele><time>2026-05-04T14:40:40Z</time></trkpt><trkpt lat="45.570463133898365" lon="9.380788978830331"><ele>162.0</ele><time>2026-05-04T14:40:41Z</time></trkpt><trkpt lat="45.57032828403056" lon="9.380908647973142"><ele>162.0</ele><time>2026-05-04T14:40:43Z</time></trkpt><trkpt lat="45.57028725976541" lon="9.381012836660842"><ele>162.0</ele><time>2026-05-04T14:40:44Z</time></trkpt><trkpt lat="45.57029365549526" lon="9.381135087258482"><ele>162.0</ele><time>2026-05-04T14:40:45Z</time></trkpt><trkpt lat="45.570338402313965" lon="9.38123336122736"><ele>162.0</ele><time>2026-05-04T14:40:46Z</time></trkpt><trkpt lat="45.570410455798694" lon="9.381298727494865"><ele>162.0</ele><time>2026-05-04T14:40:47Z</time></trkpt><trkpt lat="45.57050296123752" lon="9.381313071612118"><ele>162.0</ele><time>2026-05-04T14:40:48Z</time></trkpt><trkpt lat="45.57059773918854" lon="9.381255127799026"><ele>162.0</ele><time>2026-05-04T14:40:49Z</time></trkpt><trkpt lat="45.570650607173114" lon="9.381128922472655"><ele>162.0</ele><time>2026-05-04T14:40:50Z</time></trkpt><trkpt lat="45.57065696556844" lon="9.380995996470176"><ele>162.0</ele><time>2026-05-04T14:40:51Z</time></trkpt><trkpt lat="45.57056958585788" lon="9.38089114454614"><ele>162.0</ele><time>2026-05-04T14:40:52Z</time></trkpt><trkpt lat="45.57049343344452" lon="9.380840041678477"><ele>162.0</ele><time>2026-05-04T14:40:53Z</time></trkpt><trkpt lat="45.57041538513546" lon="9.380849845897956"><ele>162.0</ele><time>2026-05-04T14:40:54Z</time></trkpt><trkpt lat="45.57034425146418" lon="9.380920854119696"><ele>162.0</ele><time>2026-05-04T14:40:55Z</time></trkpt><trkpt lat="45.570303975758904" lon="9.381020915322189"><ele>162.0</ele><time>2026-05-04T14:40:56Z</time></trkpt><trkpt lat="45.570282353475534" lon="9.3811302778975"><ele>162.0</ele><time>2026-05-04T14:40:57Z</time></trkpt><trkpt lat="45.57025558416451" lon="9.381239513685149"><ele>162.0</ele><time>2026-05-04T14:40:58Z</time></trkpt><trkpt lat="45.570214842997416" lon="9.381327383888319"><ele>162.0</ele><time>2026-05-04T14:40:59Z</time></trkpt><trkpt lat="45.57016614319059" lon="9.381400010600352"><ele>162.0</ele><time>2026-05-04T14:41:00Z</time></trkpt><trkpt lat="45.570110081442245" lon="9.381468890636539"><ele>162.0</ele><time>2026-05-04T14:41:01Z</time></trkpt><trkpt lat="45.57004339436019" lon="9.381534058961225"><ele>162.0</ele><time>2026-05-04T14:41:02Z</time></trkpt><trkpt lat="45.569975419397984" lon="9.38159173955139"><ele>162.0</ele><time>2026-05-04T14:41:03Z</time></trkpt><trkpt lat="45.56990161341838" lon="9.381654312650747"><ele>162.0</ele><time>2026-05-04T14:41:04Z</time></trkpt><trkpt lat="45.56982476890738" lon="9.38172284232999"><ele>162.0</ele><time>2026-05-04T14:41:05Z</time></trkpt><trkpt lat="45.56973890431093" lon="9.381799719009434"><ele>162.0</ele><time>2026-05-04T14:41:06Z</time></trkpt><trkpt lat="45.5696423227587" lon="9.381892344492648"><ele>162.0</ele><time>2026-05-04T14:41:07Z</time></trkpt><trkpt lat="45.56954535574541" lon="9.381976230247297"><ele>161.8</ele><time>2026-05-04T14:41:08Z</time></trkpt><trkpt lat="45.569435825841246" lon="9.382071517859572"><ele>161.6</ele><time>2026-05-04T14:41:09Z</time></trkpt><trkpt lat="45.5693459507306" lon="9.382145360362559"><ele>161.4</ele><time>2026-05-04T14:41:10Z</time></trkpt><trkpt lat="45.5692749183831" lon="9.382194219445093"><ele>161.20000000000002</ele><time>2026-05-04T14:41:11Z</time></trkpt><trkpt lat="45.56921531070092" lon="9.382259007989447"><ele>161.0</ele><time>2026-05-04T14:41:13Z</time></trkpt><trkpt lat="45.56886834280747" lon="9.38259518410943"><ele>161.0</ele><time>2026-05-04T14:41:15Z</time></trkpt><trkpt lat="45.56881478701461" lon="9.382645057069343"><ele>161.0</ele><time>2026-05-04T14:41:16Z</time></trkpt><trkpt lat="45.56873998366056" lon="9.382709855282743"><ele>161.0</ele><time>2026-05-04T14:41:18Z</time></trkpt><trkpt lat="45.568881887175564" lon="9.38294612202403"><ele>161.0</ele><time>2026-05-04T14:41:20Z</time></trkpt><trkpt lat="45.56889895563102" lon="9.383098613642334"><ele>161.0</ele><time>2026-05-04T14:41:21Z</time></trkpt><trkpt lat="45.56893801756811" lon="9.383283423970562"><ele>161.0</ele><time>2026-05-04T14:41:22Z</time></trkpt><trkpt lat="45.56895115339903" lon="9.383485119903947"><ele>161.0</ele><time>2026-05-04T14:41:23Z</time></trkpt><trkpt lat="45.568975670556725" lon="9.383688081117693"><ele>161.0</ele><time>2026-05-04T14:41:24Z</time></trkpt><trkpt lat="45.568996262781695" lon="9.383864300305444"><ele>160.75</ele><time>2026-05-04T14:41:25Z</time></trkpt><trkpt lat="45.56901085076527" lon="9.38402828153776"><ele>160.5</ele><time>2026-05-04T14:41:26Z</time></trkpt><trkpt lat="45.569027433938864" lon="9.384202087630403"><ele>160.25</ele><time>2026-05-04T14:41:27Z</time></trkpt><trkpt lat="45.56904679476986" lon="9.38438585504824"><ele>160.0</ele><time>2026-05-04T14:41:28Z</time></trkpt><trkpt lat="45.56906799875154" lon="9.384577383748583"><ele>159.75</ele><time>2026-05-04T14:41:29Z</time></trkpt><trkpt lat="45.569089782966465" lon="9.384771915284764"><ele>159.5</ele><time>2026-05-04T14:41:30Z</time></trkpt><trkpt lat="45.56911003792939" lon="9.384953369392935"><ele>159.25</ele><time>2026-05-04T14:41:31Z</time></trkpt><trkpt lat="45.56913365806441" lon="9.385115223779362"><ele>159.0</ele><time>2026-05-04T14:41:32Z</time></trkpt><trkpt lat="45.56915232403601" lon="9.38526663352261"><ele>159.0</ele><time>2026-05-04T14:41:33Z</time></trkpt><trkpt lat="45.56917300221661" lon="9.385412320363104"><ele>159.0</ele><time>2026-05-04T14:41:34Z</time></trkpt><trkpt lat="45.56920108835401" lon="9.385567035744705"><ele>159.0</ele><time>2026-05-04T14:41:35Z</time></trkpt><trkpt lat="45.569225211035686" lon="9.385733544914189"><ele>159.0</ele><time>2026-05-04T14:41:36Z</time></trkpt><trkpt lat="45.56925352601799" lon="9.38589185689245"><ele>159.0</ele><time>2026-05-04T14:41:37Z</time></trkpt><trkpt lat="45.569283004321065" lon="9.38605829879403"><ele>159.0</ele><time>2026-05-04T14:41:38Z</time></trkpt><trkpt lat="45.569308727515" lon="9.386218487503605"><ele>159.0</ele><time>2026-05-04T14:41:39Z</time></trkpt><trkpt lat="45.56933292648421" lon="9.386379812107153"><ele>159.0</ele><time>2026-05-04T14:41:40Z</time></trkpt><trkpt lat="45.5693531969572" lon="9.386536226195666"><ele>159.0</ele><time>2026-05-04T14:41:41Z</time></trkpt><trkpt lat="45.56937443637172" lon="9.38669243426045"><ele>159.0</ele><time>2026-05-04T14:41:42Z</time></trkpt><trkpt lat="45.56939643071503" lon="9.386831163139407"><ele>159.0</ele><time>2026-05-04T14:41:43Z</time></trkpt><trkpt lat="45.569416511095326" lon="9.386963932751659"><ele>159.0</ele><time>2026-05-04T14:41:44Z</time></trkpt><trkpt lat="45.569443053153606" lon="9.387077425621662"><ele>159.0</ele><time>2026-05-04T14:41:45Z</time></trkpt><trkpt lat="45.56946838504524" lon="9.387228769318098"><ele>159.0</ele><time>2026-05-04T14:41:46Z</time></trkpt><trkpt lat="45.569491411152214" lon="9.387373176376615"><ele>158.8</ele><time>2026-05-04T14:41:47Z</time></trkpt><trkpt lat="45.56951219125219" lon="9.38751966791244"><ele>158.60000000000002</ele><time>2026-05-04T14:41:48Z</time></trkpt><trkpt lat="45.569528411643304" lon="9.387665345159444"><ele>158.4</ele><time>2026-05-04T14:41:49Z</time></trkpt><trkpt lat="45.56953688818485" lon="9.387819262572112"><ele>158.20000000000002</ele><time>2026-05-04T14:41:50Z</time></trkpt><trkpt lat="45.569541448986" lon="9.387972340251185"><ele>158.0</ele><time>2026-05-04T14:41:51Z</time></trkpt><trkpt lat="45.56955229881239" lon="9.38812013747793"><ele>157.8</ele><time>2026-05-04T14:41:52Z</time></trkpt><trkpt lat="45.56954685273858" lon="9.388269820030567"><ele>157.60000000000002</ele><time>2026-05-04T14:41:53Z</time></trkpt><trkpt lat="45.5695473848368" lon="9.388418038250812"><ele>157.39999999999998</ele><time>2026-05-04T14:41:54Z</time></trkpt><trkpt lat="45.56954541582219" lon="9.388566101692694"><ele>157.2</ele><time>2026-05-04T14:41:55Z</time></trkpt><trkpt lat="45.5695378363158" lon="9.388715541573136"><ele>157.0</ele><time>2026-05-04T14:41:56Z</time></trkpt><trkpt lat="45.569526740759436" lon="9.388871253328686"><ele>158.5</ele><time>2026-05-04T14:41:57Z</time></trkpt><trkpt lat="45.56950460393387" lon="9.389034829887406"><ele>160.0</ele><time>2026-05-04T14:41:58Z</time></trkpt><trkpt lat="45.569470945742886" lon="9.389205436902174"><ele>161.5</ele><time>2026-05-04T14:41:59Z</time></trkpt><trkpt lat="45.569458100608884" lon="9.389376132950598"><ele>163.0</ele><time>2026-05-04T14:42:00Z</time></trkpt><trkpt lat="45.569485569208034" lon="9.389563389928174"><ele>162.25</ele><time>2026-05-04T14:42:01Z</time></trkpt><trkpt lat="45.56953477575544" lon="9.38973874109556"><ele>161.5</ele><time>2026-05-04T14:42:02Z</time></trkpt><trkpt lat="45.56958737840509" lon="9.389905892854644"><ele>160.75</ele><time>2026-05-04T14:42:03Z</time></trkpt><trkpt lat="45.56962271135645" lon="9.390053045654877"><ele>160.0</ele><time>2026-05-04T14:42:04Z</time></trkpt><trkpt lat="45.56965739779473" lon="9.390210569599438"><ele>160.0</ele><time>2026-05-04T14:42:05Z</time></trkpt><trkpt lat="45.56968609660403" lon="9.390387404591408"><ele>160.0</ele><time>2026-05-04T14:42:06Z</time></trkpt><trkpt lat="45.569702774812825" lon="9.39057889565645"><ele>160.0</ele><time>2026-05-04T14:42:07Z</time></trkpt><trkpt lat="45.569722686001924" lon="9.3907674833185"><ele>160.0</ele><time>2026-05-04T14:42:08Z</time></trkpt><trkpt lat="45.569741847985334" lon="9.390946318582152"><ele>159.75</ele><time>2026-05-04T14:42:09Z</time></trkpt><trkpt lat="45.569750788754824" lon="9.391127014464262"><ele>159.5</ele><time>2026-05-04T14:42:10Z</time></trkpt><trkpt lat="45.56975550450603" lon="9.39131329716661"><ele>159.25</ele><time>2026-05-04T14:42:11Z</time></trkpt><trkpt lat="45.56977524469907" lon="9.391508571973066"><ele>159.0</ele><time>2026-05-04T14:42:12Z</time></trkpt><trkpt lat="45.56979282466087" lon="9.391677620144858"><ele>159.16666666666666</ele><time>2026-05-04T14:42:13Z</time></trkpt><trkpt lat="45.56982078392707" lon="9.391772383786297"><ele>159.33333333333334</ele><time>2026-05-04T14:42:14Z</time></trkpt><trkpt lat="45.56981251250735" lon="9.39187701212095"><ele>159.5</ele><time>2026-05-04T14:42:15Z</time></trkpt><trkpt lat="45.569821419111555" lon="9.391989117047869"><ele>159.66666666666669</ele><time>2026-05-04T14:42:16Z</time></trkpt><trkpt lat="45.56983673613714" lon="9.392106201423461"><ele>159.83333333333334</ele><time>2026-05-04T14:42:17Z</time></trkpt><trkpt lat="45.56984216675837" lon="9.392205340751298"><ele>160.0</ele><time>2026-05-04T14:42:18Z</time></trkpt><trkpt lat="45.569851722829924" lon="9.392319081323267"><ele>160.0</ele><time>2026-05-04T14:42:19Z</time></trkpt><trkpt lat="45.56986136608493" lon="9.392413424134505"><ele>160.0</ele><time>2026-05-04T14:42:20Z</time></trkpt><trkpt lat="45.56987309235014" lon="9.392542548986205"><ele>160.0</ele><time>2026-05-04T14:42:22Z</time></trkpt><trkpt lat="45.569780469683785" lon="9.392602498547259"><ele>160.0</ele><time>2026-05-04T14:42:25Z</time></trkpt><trkpt lat="45.569647094292634" lon="9.392548785076173"><ele>160.0</ele><time>2026-05-04T14:42:27Z</time></trkpt><trkpt lat="45.56955882318667" lon="9.392515393450134"><ele>160.16666666666669</ele><time>2026-05-04T14:42:28Z</time></trkpt><trkpt lat="45.569491554080564" lon="9.39247918809637"><ele>160.33333333333334</ele><time>2026-05-04T14:42:29Z</time></trkpt><trkpt lat="45.56942817138538" lon="9.392452774637103"><ele>160.5</ele><time>2026-05-04T14:42:30Z</time></trkpt><trkpt lat="45.569349308633576" lon="9.39243394397005"><ele>160.66666666666666</ele><time>2026-05-04T14:42:32Z</time></trkpt><trkpt lat="45.56929980328336" lon="9.392612589279496"><ele>160.83333333333331</ele><time>2026-05-04T14:42:36Z</time></trkpt><trkpt lat="45.5693463525764" lon="9.392709719418564"><ele>161.0</ele><time>2026-05-04T14:42:40Z</time></trkpt><trkpt lat="45.56936855475043" lon="9.39283164461697"><ele>160.5</ele><time>2026-05-04T14:42:42Z</time></trkpt><trkpt lat="45.5693932782276" lon="9.393014639764358"><ele>160.0</ele><time>2026-05-04T14:42:44Z</time></trkpt><trkpt lat="45.56944047740977" lon="9.393145844873706"><ele>159.5</ele><time>2026-05-04T14:42:45Z</time></trkpt><trkpt lat="45.56947431661436" lon="9.393297645159949"><ele>159.0</ele><time>2026-05-04T14:42:46Z</time></trkpt><trkpt lat="45.569510389692496" lon="9.3934729585669"><ele>159.0</ele><time>2026-05-04T14:42:47Z</time></trkpt><trkpt lat="45.5695395414009" lon="9.393634896311191"><ele>159.0</ele><time>2026-05-04T14:42:48Z</time></trkpt><trkpt lat="45.56957040117902" lon="9.39379738268157"><ele>159.0</ele><time>2026-05-04T14:42:49Z</time></trkpt><trkpt lat="45.56960398416084" lon="9.393971148947879"><ele>159.0</ele><time>2026-05-04T14:42:50Z</time></trkpt><trkpt lat="45.569635931354206" lon="9.394158815067286"><ele>159.0</ele><time>2026-05-04T14:42:51Z</time></trkpt><trkpt lat="45.569674795595006" lon="9.394341888810903"><ele>159.0</ele><time>2026-05-04T14:42:52Z</time></trkpt><trkpt lat="45.56970943495856" lon="9.394526939144075"><ele>159.0</ele><time>2026-05-04T14:42:53Z</time></trkpt><trkpt lat="45.56974991162659" lon="9.394695416348194"><ele>159.0</ele><time>2026-05-04T14:42:54Z</time></trkpt><trkpt lat="45.56978471687359" lon="9.39486135246178"><ele>159.0</ele><time>2026-05-04T14:42:55Z</time></trkpt><trkpt lat="45.569819782926025" lon="9.395039435362788"><ele>159.0</ele><time>2026-05-04T14:42:56Z</time></trkpt><trkpt lat="45.56984476903017" lon="9.395240309202023"><ele>159.0</ele><time>2026-05-04T14:42:57Z</time></trkpt><trkpt lat="45.56988735212208" lon="9.39540942359353"><ele>159.0</ele><time>2026-05-04T14:42:58Z</time></trkpt><trkpt lat="45.56992063058059" lon="9.395571301489808"><ele>159.2</ele><time>2026-05-04T14:42:59Z</time></trkpt><trkpt lat="45.569950882325564" lon="9.3957173632481"><ele>159.4</ele><time>2026-05-04T14:43:00Z</time></trkpt><trkpt lat="45.56997410180526" lon="9.395862349781217"><ele>159.6</ele><time>2026-05-04T14:43:01Z</time></trkpt><trkpt lat="45.5699991169559" lon="9.39598370622393"><ele>159.8</ele><time>2026-05-04T14:43:02Z</time></trkpt><trkpt lat="45.570023608087084" lon="9.396109732467398"><ele>160.0</ele><time>2026-05-04T14:43:03Z</time></trkpt><trkpt lat="45.57005704714799" lon="9.396233483574983"><ele>159.6</ele><time>2026-05-04T14:43:04Z</time></trkpt><trkpt lat="45.570085522128196" lon="9.396353034107625"><ele>159.2</ele><time>2026-05-04T14:43:05Z</time></trkpt><trkpt lat="45.570111292685844" lon="9.396451947592714"><ele>158.8</ele><time>2026-05-04T14:43:06Z</time></trkpt><trkpt lat="45.57014547535274" lon="9.3966091031264"><ele>158.4</ele><time>2026-05-04T14:43:08Z</time></trkpt><trkpt lat="45.5701787346128" lon="9.396763555852349"><ele>158.0</ele><time>2026-05-04T14:43:10Z</time></trkpt><trkpt lat="45.57020541493759" lon="9.396887418439363"><ele>158.0</ele><time>2026-05-04T14:43:12Z</time></trkpt><trkpt lat="45.57021726766437" lon="9.397032849769337"><ele>158.0</ele><time>2026-05-04T14:43:15Z</time></trkpt><trkpt lat="45.57012817773764" lon="9.397094639610582"><ele>158.0</ele><time>2026-05-04T14:43:18Z</time></trkpt><trkpt lat="45.570041698463044" lon="9.397112376856017"><ele>158.0</ele><time>2026-05-04T14:43:20Z</time></trkpt><trkpt lat="45.56998894934947" lon="9.397178889885133"><ele>158.0</ele><time>2026-05-04T14:43:22Z</time></trkpt><trkpt lat="45.569999231886236" lon="9.397303848144126"><ele>158.0</ele><time>2026-05-04T14:43:24Z</time></trkpt><trkpt lat="45.57003235856048" lon="9.397399481606543"><ele>157.6</ele><time>2026-05-04T14:43:25Z</time></trkpt><trkpt lat="45.57006216029511" lon="9.397505453423864"><ele>157.20000000000002</ele><time>2026-05-04T14:43:26Z</time></trkpt><trkpt lat="45.57008571721714" lon="9.397661272205736"><ele>156.8</ele><time>2026-05-04T14:43:27Z</time></trkpt><trkpt lat="45.570118051003526" lon="9.397828169423287"><ele>156.4</ele><time>2026-05-04T14:43:28Z</time></trkpt><trkpt lat="45.570145644175554" lon="9.397979088995056"><ele>156.0</ele><time>2026-05-04T14:43:29Z</time></trkpt><trkpt lat="45.5701691395443" lon="9.398118846558077"><ele>156.0</ele><time>2026-05-04T14:43:30Z</time></trkpt><trkpt lat="45.57020060343259" lon="9.398258460814557"><ele>156.0</ele><time>2026-05-04T14:43:31Z</time></trkpt><trkpt lat="45.570234543229134" lon="9.398407969341644"><ele>156.0</ele><time>2026-05-04T14:43:32Z</time></trkpt><trkpt lat="45.57026564235671" lon="9.39856242687879"><ele>156.0</ele><time>2026-05-04T14:43:33Z</time></trkpt><trkpt lat="45.570290654463655" lon="9.398735645813614"><ele>156.0</ele><time>2026-05-04T14:43:34Z</time></trkpt><trkpt lat="45.57031598615052" lon="9.398907850917062"><ele>156.5</ele><time>2026-05-04T14:43:35Z</time></trkpt><trkpt lat="45.57035032655001" lon="9.399089897132512"><ele>157.0</ele><time>2026-05-04T14:43:36Z</time></trkpt><trkpt lat="45.57037962014006" lon="9.399243119260298"><ele>157.5</ele><time>2026-05-04T14:43:37Z</time></trkpt><trkpt lat="45.57040828340558" lon="9.39940202418805"><ele>158.0</ele><time>2026-05-04T14:43:38Z</time></trkpt><trkpt lat="45.57044380495285" lon="9.399567194772263"><ele>158.20000000000002</ele><time>2026-05-04T14:43:39Z</time></trkpt><trkpt lat="45.57047502985978" lon="9.39971764957083"><ele>158.4</ele><time>2026-05-04T14:43:40Z</time></trkpt><trkpt lat="45.5705122714383" lon="9.399871340792734"><ele>158.60000000000002</ele><time>2026-05-04T14:43:41Z</time></trkpt><trkpt lat="45.57054666886297" lon="9.400012513052925"><ele>158.8</ele><time>2026-05-04T14:43:42Z</time></trkpt><trkpt lat="45.570577822603234" lon="9.400150439841191"><ele>159.0</ele><time>2026-05-04T14:43:43Z</time></trkpt><trkpt lat="45.570606736814746" lon="9.40028288951824"><ele>159.0</ele><time>2026-05-04T14:43:44Z</time></trkpt><trkpt lat="45.57063934846775" lon="9.400411501819415"><ele>159.0</ele><time>2026-05-04T14:43:45Z</time></trkpt><trkpt lat="45.57066821347529" lon="9.400541860897082"><ele>159.0</ele><time>2026-05-04T14:43:46Z</time></trkpt><trkpt lat="45.570707690302804" lon="9.400682541986106"><ele>159.0</ele><time>2026-05-04T14:43:47Z</time></trkpt><trkpt lat="45.570749733454164" lon="9.400814776592519"><ele>159.0</ele><time>2026-05-04T14:43:48Z</time></trkpt><trkpt lat="45.570771784488635" lon="9.401022309124697"><ele>158.8</ele><time>2026-05-04T14:43:49Z</time></trkpt><trkpt lat="45.57079533374385" lon="9.401161557594696"><ele>158.60000000000002</ele><time>2026-05-04T14:43:50Z</time></trkpt><trkpt lat="45.57081744309867" lon="9.401303186021616"><ele>158.4</ele><time>2026-05-04T14:43:51Z</time></trkpt><trkpt lat="45.57084406430068" lon="9.401444300463337"><ele>158.20000000000002</ele><time>2026-05-04T14:43:52Z</time></trkpt><trkpt lat="45.570873909018964" lon="9.401602435776692"><ele>158.0</ele><time>2026-05-04T14:43:53Z</time></trkpt><trkpt lat="45.57090088521766" lon="9.401757349433282"><ele>158.25</ele><time>2026-05-04T14:43:54Z</time></trkpt><trkpt lat="45.57091876904449" lon="9.401903233423909"><ele>158.5</ele><time>2026-05-04T14:43:55Z</time></trkpt><trkpt lat="45.57094216318148" lon="9.402067693546812"><ele>158.75</ele><time>2026-05-04T14:43:56Z</time></trkpt><trkpt lat="45.57096864777073" lon="9.402236539090946"><ele>159.0</ele><time>2026-05-04T14:43:57Z</time></trkpt><trkpt lat="45.57101019732542" lon="9.402425428332965"><ele>159.0</ele><time>2026-05-04T14:43:58Z</time></trkpt><trkpt lat="45.57105302788215" lon="9.402609224048552"><ele>159.0</ele><time>2026-05-04T14:43:59Z</time></trkpt><trkpt lat="45.571088972140466" lon="9.402787896121708"><ele>159.0</ele><time>2026-05-04T14:44:00Z</time></trkpt><trkpt lat="45.57113282968439" lon="9.402977248662895"><ele>159.0</ele><time>2026-05-04T14:44:01Z</time></trkpt><trkpt lat="45.57117222364163" lon="9.403154210443134"><ele>159.2</ele><time>2026-05-04T14:44:02Z</time></trkpt><trkpt lat="45.57120111715602" lon="9.403308293929523"><ele>159.4</ele><time>2026-05-04T14:44:03Z</time></trkpt><trkpt lat="45.57122608569945" lon="9.403438794438763"><ele>159.6</ele><time>2026-05-04T14:44:04Z</time></trkpt><trkpt lat="45.57125260746276" lon="9.403553930659399"><ele>159.8</ele><time>2026-05-04T14:44:05Z</time></trkpt><trkpt lat="45.571284165949585" lon="9.40371045887296"><ele>160.0</ele><time>2026-05-04T14:44:06Z</time></trkpt><trkpt lat="45.57131580793717" lon="9.403867092734036"><ele>160.0</ele><time>2026-05-04T14:44:07Z</time></trkpt><trkpt lat="45.57133766048812" lon="9.403997988434433"><ele>160.0</ele><time>2026-05-04T14:44:08Z</time></trkpt><trkpt lat="45.57135778741341" lon="9.404134954950216"><ele>160.0</ele><time>2026-05-04T14:44:09Z</time></trkpt><trkpt lat="45.571389180851355" lon="9.404282529658055"><ele>160.0</ele><time>2026-05-04T14:44:10Z</time></trkpt><trkpt lat="45.57143072579583" lon="9.404466239043417"><ele>160.0</ele><time>2026-05-04T14:44:11Z</time></trkpt><trkpt lat="45.571464782349295" lon="9.404616145722036"><ele>159.8</ele><time>2026-05-04T14:44:12Z</time></trkpt><trkpt lat="45.57149848432747" lon="9.404774063595246"><ele>159.6</ele><time>2026-05-04T14:44:13Z</time></trkpt><trkpt lat="45.57151867226388" lon="9.404910782762252"><ele>159.4</ele><time>2026-05-04T14:44:14Z</time></trkpt><trkpt lat="45.571567827448064" lon="9.405043203398487"><ele>159.2</ele><time>2026-05-04T14:44:15Z</time></trkpt><trkpt lat="45.57159920104965" lon="9.405171914379748"><ele>159.0</ele><time>2026-05-04T14:44:16Z</time></trkpt><trkpt lat="45.571620937773446" lon="9.40529937990235"><ele>159.0</ele><time>2026-05-04T14:44:17Z</time></trkpt><trkpt lat="45.57164130699498" lon="9.405449259510025"><ele>159.0</ele><time>2026-05-04T14:44:18Z</time></trkpt><trkpt lat="45.57166722949736" lon="9.405600859060574"><ele>159.0</ele><time>2026-05-04T14:44:19Z</time></trkpt><trkpt lat="45.57169784108095" lon="9.405777679407358"><ele>159.0</ele><time>2026-05-04T14:44:20Z</time></trkpt><trkpt lat="45.5717236548388" lon="9.405933609318776"><ele>159.2</ele><time>2026-05-04T14:44:21Z</time></trkpt><trkpt lat="45.571742520265204" lon="9.40606323341632"><ele>159.4</ele><time>2026-05-04T14:44:22Z</time></trkpt><trkpt lat="45.57175359898221" lon="9.40619907504852"><ele>159.6</ele><time>2026-05-04T14:44:23Z</time></trkpt><trkpt lat="45.571770197381916" lon="9.406356470681391"><ele>159.8</ele><time>2026-05-04T14:44:24Z</time></trkpt><trkpt lat="45.57178461412152" lon="9.406527838323116"><ele>160.0</ele><time>2026-05-04T14:44:25Z</time></trkpt><trkpt lat="45.57179948787474" lon="9.406686551084675"><ele>160.0</ele><time>2026-05-04T14:44:26Z</time></trkpt><trkpt lat="45.571840979075816" lon="9.40687567017785"><ele>160.0</ele><time>2026-05-04T14:44:27Z</time></trkpt><trkpt lat="45.57187923181816" lon="9.407060783910119"><ele>160.0</ele><time>2026-05-04T14:44:28Z</time></trkpt><trkpt lat="45.57191501974372" lon="9.407218375323803"><ele>160.0</ele><time>2026-05-04T14:44:29Z</time></trkpt><trkpt lat="45.57196674090867" lon="9.407396463076195"><ele>160.0</ele><time>2026-05-04T14:44:30Z</time></trkpt><trkpt lat="45.572016260248056" lon="9.407582572732125"><ele>160.0</ele><time>2026-05-04T14:44:31Z</time></trkpt><trkpt lat="45.572053875577176" lon="9.40777834799369"><ele>160.0</ele><time>2026-05-04T14:44:32Z</time></trkpt><trkpt lat="45.57208049245328" lon="9.407936823305986"><ele>160.0</ele><time>2026-05-04T14:44:33Z</time></trkpt><trkpt lat="45.5721234240737" lon="9.408076466226792"><ele>160.0</ele><time>2026-05-04T14:44:34Z</time></trkpt><trkpt lat="45.57213326441658" lon="9.408186244692258"><ele>160.0</ele><time>2026-05-04T14:44:36Z</time></trkpt><trkpt lat="45.5721167435608" lon="9.408284386262046"><ele>160.0</ele><time>2026-05-04T14:44:40Z</time></trkpt><trkpt lat="45.572007680477206" lon="9.408362598240677"><ele>160.0</ele><time>2026-05-04T14:44:42Z</time></trkpt><trkpt lat="45.57187895953681" lon="9.408401963218607"><ele>160.0</ele><time>2026-05-04T14:44:43Z</time></trkpt><trkpt lat="45.57174589027808" lon="9.408467784618171"><ele>160.0</ele><time>2026-05-04T14:44:44Z</time></trkpt><trkpt lat="45.571619215324866" lon="9.408504610534905"><ele>160.0</ele><time>2026-05-04T14:44:45Z</time></trkpt><trkpt lat="45.571502238350746" lon="9.408548486807078"><ele>160.0</ele><time>2026-05-04T14:44:46Z</time></trkpt><trkpt lat="45.57135910524363" lon="9.408582607755"><ele>160.0</ele><time>2026-05-04T14:44:47Z</time></trkpt><trkpt lat="45.57124481069684" lon="9.40863024072314"><ele>159.25</ele><time>2026-05-04T14:44:48Z</time></trkpt><trkpt lat="45.571128840686434" lon="9.408664490298635"><ele>158.5</ele><time>2026-05-04T14:44:49Z</time></trkpt><trkpt lat="45.57100472853528" lon="9.408709564649936"><ele>157.75</ele><time>2026-05-04T14:44:50Z</time></trkpt><trkpt lat="45.570842745499185" lon="9.40874598171199"><ele>157.0</ele><time>2026-05-04T14:44:51Z</time></trkpt><trkpt lat="45.57071080841153" lon="9.408801781956186"><ele>157.0</ele><time>2026-05-04T14:44:52Z</time></trkpt><trkpt lat="45.570606377096276" lon="9.408846535069245"><ele>157.0</ele><time>2026-05-04T14:44:53Z</time></trkpt><trkpt lat="45.570526431666906" lon="9.40888160336441"><ele>157.0</ele><time>2026-05-04T14:44:54Z</time></trkpt><trkpt lat="45.570450334445304" lon="9.408890699961216"><ele>157.0</ele><time>2026-05-04T14:44:55Z</time></trkpt><trkpt lat="45.57037827757828" lon="9.40891547348901"><ele>157.0</ele><time>2026-05-04T14:44:56Z</time></trkpt><trkpt lat="45.570312623164604" lon="9.40894311897625"><ele>157.0</ele><time>2026-05-04T14:44:57Z</time></trkpt><trkpt lat="45.570233259340284" lon="9.408983226650422"><ele>157.0</ele><time>2026-05-04T14:44:58Z</time></trkpt><trkpt lat="45.570160109005656" lon="9.409028304232043"><ele>157.0</ele><time>2026-05-04T14:44:59Z</time></trkpt><trkpt lat="45.57009190857171" lon="9.409069897111971"><ele>157.0</ele><time>2026-05-04T14:45:00Z</time></trkpt><trkpt lat="45.57001672162797" lon="9.40909036954271"><ele>157.0</ele><time>2026-05-04T14:45:01Z</time></trkpt><trkpt lat="45.569923279746035" lon="9.409120696236714"><ele>157.0</ele><time>2026-05-04T14:45:02Z</time></trkpt><trkpt lat="45.569842758592905" lon="9.409154831346568"><ele>157.0</ele><time>2026-05-04T14:45:03Z</time></trkpt><trkpt lat="45.56976315188997" lon="9.409196129137333"><ele>157.0</ele><time>2026-05-04T14:45:04Z</time></trkpt><trkpt lat="45.56967636888246" lon="9.409220832662225"><ele>157.0</ele><time>2026-05-04T14:45:05Z</time></trkpt><trkpt lat="45.569606769499615" lon="9.409226122902052"><ele>157.0</ele><time>2026-05-04T14:45:06Z</time></trkpt><trkpt lat="45.56953427002883" lon="9.409292651387608"><ele>157.0</ele><time>2026-05-04T14:45:08Z</time></trkpt><trkpt lat="45.5694904882017" lon="9.409411823515786"><ele>157.0</ele><time>2026-05-04T14:45:12Z</time></trkpt><trkpt lat="45.56952486461075" lon="9.40955500158272"><ele>157.0</ele><time>2026-05-04T14:45:15Z</time></trkpt><trkpt lat="45.56955390514752" lon="9.409675808115088"><ele>157.16666666666669</ele><time>2026-05-04T14:45:17Z</time></trkpt><trkpt lat="45.569581757264785" lon="9.409793792447319"><ele>157.33333333333334</ele><time>2026-05-04T14:45:19Z</time></trkpt><trkpt lat="45.56963257529005" lon="9.409940706861377"><ele>157.5</ele><time>2026-05-04T14:45:21Z</time></trkpt><trkpt lat="45.56966686901746" lon="9.410088881268402"><ele>157.66666666666666</ele><time>2026-05-04T14:45:23Z</time></trkpt><trkpt lat="45.56967511540238" lon="9.410189266421167"><ele>157.83333333333331</ele><time>2026-05-04T14:45:24Z</time></trkpt><trkpt lat="45.56971048014377" lon="9.410268524097724"><ele>158.0</ele><time>2026-05-04T14:45:25Z</time></trkpt><trkpt lat="45.56974561534127" lon="9.41043543441226"><ele>157.6</ele><time>2026-05-04T14:45:27Z</time></trkpt><trkpt lat="45.56977020171881" lon="9.410520632524229"><ele>157.20000000000002</ele><time>2026-05-04T14:45:28Z</time></trkpt><trkpt lat="45.56979133235729" lon="9.410626111702145"><ele>156.8</ele><time>2026-05-04T14:45:29Z</time></trkpt><trkpt lat="45.56981558739323" lon="9.410758760598023"><ele>156.4</ele><time>2026-05-04T14:45:30Z</time></trkpt><trkpt lat="45.56984821944003" lon="9.410903392619426"><ele>156.0</ele><time>2026-05-04T14:45:31Z</time></trkpt><trkpt lat="45.56988433995587" lon="9.411049994577283"><ele>156.0</ele><time>2026-05-04T14:45:32Z</time></trkpt><trkpt lat="45.569932299658355" lon="9.41124584978952"><ele>156.0</ele><time>2026-05-04T14:45:33Z</time></trkpt><trkpt lat="45.56997251576386" lon="9.41144585369509"><ele>156.0</ele><time>2026-05-04T14:45:34Z</time></trkpt><trkpt lat="45.57000008228953" lon="9.411592981077682"><ele>156.0</ele><time>2026-05-04T14:45:35Z</time></trkpt><trkpt lat="45.57002856900981" lon="9.41174804872451"><ele>155.8</ele><time>2026-05-04T14:45:36Z</time></trkpt><trkpt lat="45.570050447314266" lon="9.411893117511092"><ele>155.6</ele><time>2026-05-04T14:45:37Z</time></trkpt><trkpt lat="45.57006921080663" lon="9.412045830264754"><ele>155.4</ele><time>2026-05-04T14:45:38Z</time></trkpt><trkpt lat="45.570071317225754" lon="9.412194192995527"><ele>155.2</ele><time>2026-05-04T14:45:39Z</time></trkpt><trkpt lat="45.570057301550726" lon="9.412339885153518"><ele>155.0</ele><time>2026-05-04T14:45:40Z</time></trkpt><trkpt lat="45.57003586390308" lon="9.412479257767757"><ele>155.0</ele><time>2026-05-04T14:45:41Z</time></trkpt><trkpt lat="45.570032078438935" lon="9.412637376797122"><ele>155.0</ele><time>2026-05-04T14:45:42Z</time></trkpt><trkpt lat="45.57004766045561" lon="9.412794394572229"><ele>155.0</ele><time>2026-05-04T14:45:43Z</time></trkpt><trkpt lat="45.57007442940275" lon="9.41296388673831"><ele>155.0</ele><time>2026-05-04T14:45:44Z</time></trkpt><trkpt lat="45.57010469322046" lon="9.41312216739615"><ele>155.4</ele><time>2026-05-04T14:45:45Z</time></trkpt><trkpt lat="45.570136268576235" lon="9.413272078448136"><ele>155.8</ele><time>2026-05-04T14:45:46Z</time></trkpt><trkpt lat="45.5701622499952" lon="9.41338532044584"><ele>156.2</ele><time>2026-05-04T14:45:47Z</time></trkpt><trkpt lat="45.57021014304847" lon="9.413555080028237"><ele>156.6</ele><time>2026-05-04T14:45:49Z</time></trkpt><trkpt lat="45.57024235260907" lon="9.41367931746512"><ele>157.0</ele><time>2026-05-04T14:45:50Z</time></trkpt><trkpt lat="45.57026572971938" lon="9.413826271893944"><ele>157.4</ele><time>2026-05-04T14:45:51Z</time></trkpt><trkpt lat="45.5702856343536" lon="9.413974771380097"><ele>157.79999999999998</ele><time>2026-05-04T14:45:52Z</time></trkpt><trkpt lat="45.570303415579616" lon="9.414112382727675"><ele>158.2</ele><time>2026-05-04T14:45:53Z</time></trkpt><trkpt lat="45.570345316623666" lon="9.41424041843723"><ele>158.6</ele><time>2026-05-04T14:45:54Z</time></trkpt><trkpt lat="45.57037902369821" lon="9.41437003480132"><ele>159.0</ele><time>2026-05-04T14:45:55Z</time></trkpt><trkpt lat="45.5704058843735" lon="9.414507224589332"><ele>159.0</ele><time>2026-05-04T14:45:56Z</time></trkpt><trkpt lat="45.57043912200356" lon="9.414620993032514"><ele>159.0</ele><time>2026-05-04T14:45:57Z</time></trkpt><trkpt lat="45.570461230059294" lon="9.414762412449656"><ele>159.0</ele><time>2026-05-04T14:45:58Z</time></trkpt><trkpt lat="45.57048434974319" lon="9.414871890931746"><ele>159.0</ele><time>2026-05-04T14:45:59Z</time></trkpt><trkpt lat="45.570514496574546" lon="9.415002255309139"><ele>159.0</ele><time>2026-05-04T14:46:01Z</time></trkpt><trkpt lat="45.57054475522959" lon="9.415125485060804"><ele>159.0</ele><time>2026-05-04T14:46:03Z</time></trkpt><trkpt lat="45.570523001085206" lon="9.415227510922367"><ele>159.0</ele><time>2026-05-04T14:46:06Z</time></trkpt><trkpt lat="45.57037119338762" lon="9.41532931847211"><ele>159.0</ele><time>2026-05-04T14:46:08Z</time></trkpt><trkpt lat="45.57024083656491" lon="9.415388259325884"><ele>159.0</ele><time>2026-05-04T14:46:09Z</time></trkpt><trkpt lat="45.57010480637951" lon="9.415431280231083"><ele>159.0</ele><time>2026-05-04T14:46:10Z</time></trkpt><trkpt lat="45.569996218147764" lon="9.415461081905127"><ele>159.0</ele><time>2026-05-04T14:46:11Z</time></trkpt><trkpt lat="45.5699129087174" lon="9.415479099275665"><ele>159.0</ele><time>2026-05-04T14:46:12Z</time></trkpt><trkpt lat="45.56983635955669" lon="9.41549199205251"><ele>159.0</ele><time>2026-05-04T14:46:13Z</time></trkpt><trkpt lat="45.56977049168193" lon="9.415503891924349"><ele>159.0</ele><time>2026-05-04T14:46:14Z</time></trkpt><trkpt lat="45.569696330237036" lon="9.41548026388044"><ele>159.0</ele><time>2026-05-04T14:46:16Z</time></trkpt><trkpt lat="45.56958939335598" lon="9.415524716664747"><ele>158.5</ele><time>2026-05-04T14:46:46Z</time></trkpt><trkpt lat="45.5695150576658" lon="9.415571249105378"><ele>158.0</ele><time>2026-05-04T14:46:47Z</time></trkpt><trkpt lat="45.56943777251045" lon="9.41562675950476"><ele>157.5</ele><time>2026-05-04T14:46:48Z</time></trkpt><trkpt lat="45.5693622667081" lon="9.415774788347933"><ele>157.0</ele><time>2026-05-04T14:46:49Z</time></trkpt><trkpt lat="45.56917084862316" lon="9.415866964713532"><ele>157.0</ele><time>2026-05-04T14:46:50Z</time></trkpt><trkpt lat="45.568996080059236" lon="9.415982170621206"><ele>157.0</ele><time>2026-05-04T14:46:51Z</time></trkpt><trkpt lat="45.569086244721184" lon="9.415947102509332"><ele>157.0</ele><time>2026-05-04T14:46:52Z</time></trkpt><trkpt lat="45.568961545750376" lon="9.415995646106525"><ele>157.0</ele><time>2026-05-04T14:46:53Z</time></trkpt><trkpt lat="45.56882738493967" lon="9.416055281779064"><ele>156.66666666666669</ele><time>2026-05-04T14:46:54Z</time></trkpt><trkpt lat="45.568684916280226" lon="9.41612555319687"><ele>156.33333333333334</ele><time>2026-05-04T14:46:55Z</time></trkpt><trkpt lat="45.56852232869152" lon="9.416220439247319"><ele>156.0</ele><time>2026-05-04T14:46:56Z</time></trkpt><trkpt lat="45.5683546748242" lon="9.416321316300214"><ele>155.66666666666666</ele><time>2026-05-04T14:46:57Z</time></trkpt><trkpt lat="45.56820883701505" lon="9.416436737699696"><ele>155.33333333333331</ele><time>2026-05-04T14:46:58Z</time></trkpt><trkpt lat="45.56805768361136" lon="9.416558181645785"><ele>155.0</ele><time>2026-05-04T14:46:59Z</time></trkpt><trkpt lat="45.5679150789872" lon="9.416689650765925"><ele>155.0</ele><time>2026-05-04T14:47:00Z</time></trkpt><trkpt lat="45.567778030892796" lon="9.416833657891134"><ele>155.0</ele><time>2026-05-04T14:47:01Z</time></trkpt><trkpt lat="45.567644055999516" lon="9.41698606903672"><ele>155.0</ele><time>2026-05-04T14:47:02Z</time></trkpt><trkpt lat="45.567512688033915" lon="9.417143584938843"><ele>155.66666666666666</ele><time>2026-05-04T14:47:03Z</time></trkpt><trkpt lat="45.56738822439755" lon="9.417307433170691"><ele>156.33333333333334</ele><time>2026-05-04T14:47:04Z</time></trkpt><trkpt lat="45.56726601012997" lon="9.417476516900273"><ele>157.0</ele><time>2026-05-04T14:47:05Z</time></trkpt><trkpt lat="45.56716147383612" lon="9.41766956741734"><ele>157.0</ele><time>2026-05-04T14:47:06Z</time></trkpt><trkpt lat="45.567055640820584" lon="9.417848936012534"><ele>157.0</ele><time>2026-05-04T14:47:07Z</time></trkpt><trkpt lat="45.56695114833474" lon="9.41804172840916"><ele>157.0</ele><time>2026-05-04T14:47:08Z</time></trkpt><trkpt lat="45.56685265739434" lon="9.418235771820761"><ele>156.33333333333334</ele><time>2026-05-04T14:47:09Z</time></trkpt><trkpt lat="45.56676127542425" lon="9.418432833248168"><ele>155.66666666666666</ele><time>2026-05-04T14:47:10Z</time></trkpt><trkpt lat="45.566676972975976" lon="9.418637382837465"><ele>155.0</ele><time>2026-05-04T14:47:11Z</time></trkpt><trkpt lat="45.56659778002502" lon="9.418848226307249"><ele>155.0</ele><time>2026-05-04T14:47:12Z</time></trkpt><trkpt lat="45.56652339713807" lon="9.419063590308118"><ele>155.0</ele><time>2026-05-04T14:47:13Z</time></trkpt><trkpt lat="45.5664568218596" lon="9.419278635339376"><ele>155.0</ele><time>2026-05-04T14:47:14Z</time></trkpt><trkpt lat="45.56639522826623" lon="9.419503609643217"><ele>155.0</ele><time>2026-05-04T14:47:15Z</time></trkpt><trkpt lat="45.56632805132474" lon="9.419729834317254"><ele>155.0</ele><time>2026-05-04T14:47:16Z</time></trkpt><trkpt lat="45.566280359667054" lon="9.419959053035454"><ele>155.0</ele><time>2026-05-04T14:47:17Z</time></trkpt><trkpt lat="45.56623551370754" lon="9.420210414686425"><ele>155.0</ele><time>2026-05-04T14:47:18Z</time></trkpt><trkpt lat="45.56620606357425" lon="9.420454259686473"><ele>155.0</ele><time>2026-05-04T14:47:19Z</time></trkpt><trkpt lat="45.56618118110704" lon="9.420691043158786"><ele>155.0</ele><time>2026-05-04T14:47:20Z</time></trkpt><trkpt lat="45.5661581885946" lon="9.420935982551084"><ele>154.66666666666666</ele><time>2026-05-04T14:47:21Z</time></trkpt><trkpt lat="45.566141345915355" lon="9.421180647993204"><ele>154.33333333333334</ele><time>2026-05-04T14:47:22Z</time></trkpt><trkpt lat="45.56614469916868" lon="9.421418560813397"><ele>154.0</ele><time>2026-05-04T14:47:23Z</time></trkpt><trkpt lat="45.566153609341875" lon="9.421651053207489"><ele>154.33333333333334</ele><time>2026-05-04T14:47:24Z</time></trkpt><trkpt lat="45.56615562474004" lon="9.421891776780674"><ele>154.66666666666666</ele><time>2026-05-04T14:47:25Z</time></trkpt><trkpt lat="45.566162239934954" lon="9.42214224755963"><ele>155.0</ele><time>2026-05-04T14:47:26Z</time></trkpt><trkpt lat="45.56617655740864" lon="9.422395385192067"><ele>154.66666666666666</ele><time>2026-05-04T14:47:27Z</time></trkpt><trkpt lat="45.56620449805555" lon="9.422642570150078"><ele>154.33333333333334</ele><time>2026-05-04T14:47:28Z</time></trkpt><trkpt lat="45.56623034617649" lon="9.422900942326287"><ele>154.0</ele><time>2026-05-04T14:47:29Z</time></trkpt><trkpt lat="45.5662560705608" lon="9.423149452863235"><ele>154.0</ele><time>2026-05-04T14:47:30Z</time></trkpt><trkpt lat="45.56629483820334" lon="9.423395560412413"><ele>154.0</ele><time>2026-05-04T14:47:31Z</time></trkpt><trkpt lat="45.56634041788083" lon="9.423643999228009"><ele>154.0</ele><time>2026-05-04T14:47:32Z</time></trkpt><trkpt lat="45.56638839746896" lon="9.423894983122244"><ele>153.66666666666669</ele><time>2026-05-04T14:47:33Z</time></trkpt><trkpt lat="45.56643072422745" lon="9.424139359596785"><ele>153.33333333333334</ele><time>2026-05-04T14:47:34Z</time></trkpt><trkpt lat="45.566473435944715" lon="9.424396644580545"><ele>153.0</ele><time>2026-05-04T14:47:35Z</time></trkpt><trkpt lat="45.566516243683665" lon="9.42465556672694"><ele>152.66666666666666</ele><time>2026-05-04T14:47:36Z</time></trkpt><trkpt lat="45.56656891994529" lon="9.424898956908688"><ele>152.33333333333331</ele><time>2026-05-04T14:47:37Z</time></trkpt><trkpt lat="45.56661548621528" lon="9.425143232783734"><ele>152.0</ele><time>2026-05-04T14:47:38Z</time></trkpt><trkpt lat="45.56665488665217" lon="9.425387857764786"><ele>152.0</ele><time>2026-05-04T14:47:39Z</time></trkpt><trkpt lat="45.56669723184278" lon="9.42563640896868"><ele>152.0</ele><time>2026-05-04T14:47:40Z</time></trkpt><trkpt lat="45.56674250130185" lon="9.425879937400923"><ele>152.0</ele><time>2026-05-04T14:47:41Z</time></trkpt><trkpt lat="45.5667930393317" lon="9.426120014359823"><ele>152.0</ele><time>2026-05-04T14:47:42Z</time></trkpt><trkpt lat="45.56683854013486" lon="9.426356439208064"><ele>152.0</ele><time>2026-05-04T14:47:43Z</time></trkpt><trkpt lat="45.566873229562574" lon="9.426604096021443"><ele>152.0</ele><time>2026-05-04T14:47:44Z</time></trkpt><trkpt lat="45.56692863648296" lon="9.426834395266553"><ele>152.0</ele><time>2026-05-04T14:47:45Z</time></trkpt><trkpt lat="45.56695725390243" lon="9.427079912804727"><ele>152.0</ele><time>2026-05-04T14:47:46Z</time></trkpt><trkpt lat="45.567003952757496" lon="9.427290026147531"><ele>152.0</ele><time>2026-05-04T14:47:47Z</time></trkpt><trkpt lat="45.56705103740474" lon="9.427497195457676"><ele>152.0</ele><time>2026-05-04T14:47:48Z</time></trkpt><trkpt lat="45.567093919189624" lon="9.427722286559934"><ele>152.0</ele><time>2026-05-04T14:47:49Z</time></trkpt><trkpt lat="45.56713917549593" lon="9.427948859139693"><ele>152.0</ele><time>2026-05-04T14:47:50Z</time></trkpt><trkpt lat="45.56719207013221" lon="9.428158920697301"><ele>152.5</ele><time>2026-05-04T14:47:51Z</time></trkpt><trkpt lat="45.56725391793456" lon="9.428347229984444"><ele>153.0</ele><time>2026-05-04T14:47:52Z</time></trkpt><trkpt lat="45.56731928683014" lon="9.428518540523307"><ele>153.5</ele><time>2026-05-04T14:47:53Z</time></trkpt><trkpt lat="45.567372976427635" lon="9.42868355414039"><ele>154.0</ele><time>2026-05-04T14:47:54Z</time></trkpt><trkpt lat="45.5674307314187" lon="9.428832144349194"><ele>154.2</ele><time>2026-05-04T14:47:55Z</time></trkpt><trkpt lat="45.56747363909653" lon="9.428930043285144"><ele>154.4</ele><time>2026-05-04T14:47:56Z</time></trkpt><trkpt lat="45.56751408307218" lon="9.429040760762465"><ele>154.6</ele><time>2026-05-04T14:47:57Z</time></trkpt><trkpt lat="45.56754515052268" lon="9.42917586386986"><ele>154.8</ele><time>2026-05-04T14:47:58Z</time></trkpt><trkpt lat="45.56754260051177" lon="9.429306776731158"><ele>155.0</ele><time>2026-05-04T14:47:59Z</time></trkpt><trkpt lat="45.56750606713548" lon="9.429446193571525"><ele>155.0</ele><time>2026-05-04T14:48:00Z</time></trkpt><trkpt lat="45.56743991140004" lon="9.429574170202674"><ele>155.0</ele><time>2026-05-04T14:48:01Z</time></trkpt><trkpt lat="45.56743478879732" lon="9.429755503037297"><ele>155.0</ele><time>2026-05-04T14:48:02Z</time></trkpt><trkpt lat="45.56724100033596" lon="9.429717664661228"><ele>155.0</ele><time>2026-05-04T14:48:03Z</time></trkpt><trkpt lat="45.56712750142411" lon="9.429781511359966"><ele>154.66666666666666</ele><time>2026-05-04T14:48:04Z</time></trkpt><trkpt lat="45.56699334952244" lon="9.429837058399935"><ele>154.33333333333334</ele><time>2026-05-04T14:48:05Z</time></trkpt><trkpt lat="45.566856680615984" lon="9.429895707957087"><ele>154.0</ele><time>2026-05-04T14:48:06Z</time></trkpt><trkpt lat="45.56669430206942" lon="9.429958355982354"><ele>154.0</ele><time>2026-05-04T14:48:07Z</time></trkpt><trkpt lat="45.56653282843739" lon="9.430027448771257"><ele>154.0</ele><time>2026-05-04T14:48:08Z</time></trkpt><trkpt lat="45.566383459615835" lon="9.430087295001304"><ele>154.0</ele><time>2026-05-04T14:48:09Z</time></trkpt><trkpt lat="45.56622915011425" lon="9.43014312870589"><ele>153.33333333333334</ele><time>2026-05-04T14:48:10Z</time></trkpt><trkpt lat="45.56607316254537" lon="9.430197828584864"><ele>152.66666666666666</ele><time>2026-05-04T14:48:11Z</time></trkpt><trkpt lat="45.56591925085695" lon="9.43025665230949"><ele>152.0</ele><time>2026-05-04T14:48:12Z</time></trkpt><trkpt lat="45.5657551669017" lon="9.430323959622992"><ele>152.0</ele><time>2026-05-04T14:48:13Z</time></trkpt><trkpt lat="45.5655878456681" lon="9.430404573680448"><ele>152.0</ele><time>2026-05-04T14:48:14Z</time></trkpt><trkpt lat="45.56542114719969" lon="9.430466581836917"><ele>152.0</ele><time>2026-05-04T14:48:15Z</time></trkpt><trkpt lat="45.56525564013494" lon="9.430529016133983"><ele>151.33333333333331</ele><time>2026-05-04T14:48:16Z</time></trkpt><trkpt lat="45.56509375820972" lon="9.430598724244623"><ele>150.66666666666666</ele><time>2026-05-04T14:48:17Z</time></trkpt><trkpt lat="45.56493625028431" lon="9.430658264411035"><ele>150.0</ele><time>2026-05-04T14:48:18Z</time></trkpt><trkpt lat="45.564773984771435" lon="9.430726579645828"><ele>150.0</ele><time>2026-05-04T14:48:19Z</time></trkpt><trkpt lat="45.564612879150644" lon="9.430786297723383"><ele>150.0</ele><time>2026-05-04T14:48:20Z</time></trkpt><trkpt lat="45.56445747412742" lon="9.430848585222847"><ele>150.0</ele><time>2026-05-04T14:48:21Z</time></trkpt><trkpt lat="45.56430888436155" lon="9.430914351992275"><ele>150.0</ele><time>2026-05-04T14:48:22Z</time></trkpt><trkpt lat="45.56415961805097" lon="9.430976108222856"><ele>150.0</ele><time>2026-05-04T14:48:23Z</time></trkpt><trkpt lat="45.56401595280649" lon="9.431036687615222"><ele>150.0</ele><time>2026-05-04T14:48:24Z</time></trkpt><trkpt lat="45.563871467800666" lon="9.431075259763544"><ele>150.0</ele><time>2026-05-04T14:48:25Z</time></trkpt><trkpt lat="45.56371860731865" lon="9.431122125252564"><ele>150.0</ele><time>2026-05-04T14:48:26Z</time></trkpt><trkpt lat="45.56357166570694" lon="9.43117326537409"><ele>150.0</ele><time>2026-05-04T14:48:27Z</time></trkpt><trkpt lat="45.5634431345308" lon="9.431236166962087"><ele>150.0</ele><time>2026-05-04T14:48:28Z</time></trkpt><trkpt lat="45.56332306254028" lon="9.431283290989317"><ele>149.75</ele><time>2026-05-04T14:48:29Z</time></trkpt><trkpt lat="45.56319557907895" lon="9.43132407438777"><ele>149.5</ele><time>2026-05-04T14:48:30Z</time></trkpt><trkpt lat="45.56306592427958" lon="9.431376280439638"><ele>149.25</ele><time>2026-05-04T14:48:31Z</time></trkpt><trkpt lat="45.56294662760358" lon="9.431429842474648"><ele>149.0</ele><time>2026-05-04T14:48:32Z</time></trkpt><trkpt lat="45.56285999424246" lon="9.431457565100777"><ele>148.33333333333331</ele><time>2026-05-04T14:48:33Z</time></trkpt><trkpt lat="45.562790575448545" lon="9.431485932539276"><ele>147.66666666666666</ele><time>2026-05-04T14:48:34Z</time></trkpt><trkpt lat="45.56259125514832" lon="9.431689853312275"><ele>147.0</ele><time>2026-05-04T14:48:37Z</time></trkpt><trkpt lat="45.56270233117973" lon="9.43184646054931"><ele>147.0</ele><time>2026-05-04T14:48:38Z</time></trkpt><trkpt lat="45.56273389452508" lon="9.431971215461397"><ele>147.0</ele><time>2026-05-04T14:48:39Z</time></trkpt><trkpt lat="45.562771612030375" lon="9.43213732186106"><ele>147.0</ele><time>2026-05-04T14:48:40Z</time></trkpt><trkpt lat="45.562810359673975" lon="9.432312720426125"><ele>147.0</ele><time>2026-05-04T14:48:41Z</time></trkpt><trkpt lat="45.562848947817365" lon="9.432488448129897"><ele>147.2</ele><time>2026-05-04T14:48:42Z</time></trkpt><trkpt lat="45.56288081046322" lon="9.432646415353823"><ele>147.39999999999998</ele><time>2026-05-04T14:48:43Z</time></trkpt><trkpt lat="45.56290188111752" lon="9.432780152042026"><ele>147.60000000000002</ele><time>2026-05-04T14:48:44Z</time></trkpt><trkpt lat="45.5629172974518" lon="9.432896779362242"><ele>147.8</ele><time>2026-05-04T14:48:45Z</time></trkpt><trkpt lat="45.56293040260422" lon="9.433012224683658"><ele>148.0</ele><time>2026-05-04T14:48:46Z</time></trkpt><trkpt lat="45.562944756821096" lon="9.433145383515173"><ele>148.0</ele><time>2026-05-04T14:48:47Z</time></trkpt><trkpt lat="45.56295846453783" lon="9.433272545096706"><ele>148.0</ele><time>2026-05-04T14:48:48Z</time></trkpt><trkpt lat="45.56296935398629" lon="9.433373562478202"><ele>148.0</ele><time>2026-05-04T14:48:49Z</time></trkpt><trkpt lat="45.562985667536495" lon="9.433531212266544"><ele>148.0</ele><time>2026-05-04T14:48:51Z</time></trkpt><trkpt lat="45.5629997211366" lon="9.433673680100291"><ele>148.0</ele><time>2026-05-04T14:48:53Z</time></trkpt><trkpt lat="45.563010632652016" lon="9.433786692050244"><ele>148.4</ele><time>2026-05-04T14:48:55Z</time></trkpt><trkpt lat="45.56302050704446" lon="9.433894128770685"><ele>148.8</ele><time>2026-05-04T14:49:00Z</time></trkpt><trkpt lat="45.563029079914244" lon="9.43398740406888"><ele>149.2</ele><time>2026-05-04T14:49:04Z</time></trkpt><trkpt lat="45.563041347489566" lon="9.434120879266175"><ele>149.6</ele><time>2026-05-04T14:49:07Z</time></trkpt><trkpt lat="45.56306136517652" lon="9.434315937360468"><ele>150.0</ele><time>2026-05-04T14:49:09Z</time></trkpt><trkpt lat="45.56307480958192" lon="9.434427507019624"><ele>150.0</ele><time>2026-05-04T14:49:10Z</time></trkpt><trkpt lat="45.56310073700354" lon="9.434620911310798"><ele>150.0</ele><time>2026-05-04T14:49:11Z</time></trkpt><trkpt lat="45.56312896842321" lon="9.434816528413728"><ele>150.0</ele><time>2026-05-04T14:49:12Z</time></trkpt><trkpt lat="45.5631490472034" lon="9.434972499286847"><ele>150.0</ele><time>2026-05-04T14:49:13Z</time></trkpt><trkpt lat="45.56316336221897" lon="9.435094556406275"><ele>150.16666666666666</ele><time>2026-05-04T14:49:14Z</time></trkpt><trkpt lat="45.563176281596824" lon="9.435207625385548"><ele>150.33333333333334</ele><time>2026-05-04T14:49:15Z</time></trkpt><trkpt lat="45.56318623844356" lon="9.43529928326714"><ele>150.5</ele><time>2026-05-04T14:49:16Z</time></trkpt><trkpt lat="45.563197033629734" lon="9.4353986582376"><ele>150.66666666666669</ele><time>2026-05-04T14:49:17Z</time></trkpt><trkpt lat="45.563210106562906" lon="9.435519001276866"><ele>150.83333333333334</ele><time>2026-05-04T14:49:18Z</time></trkpt><trkpt lat="45.56322409140889" lon="9.435647738791292"><ele>151.0</ele><time>2026-05-04T14:49:19Z</time></trkpt><trkpt lat="45.56323987412564" lon="9.435793420139326"><ele>150.4</ele><time>2026-05-04T14:49:20Z</time></trkpt><trkpt lat="45.56325812275163" lon="9.4359619767724"><ele>149.8</ele><time>2026-05-04T14:49:21Z</time></trkpt><trkpt lat="45.56327339818426" lon="9.436102346655973"><ele>149.20000000000002</ele><time>2026-05-04T14:49:22Z</time></trkpt><trkpt lat="45.56328555273704" lon="9.436226631666127"><ele>148.6</ele><time>2026-05-04T14:49:23Z</time></trkpt><trkpt lat="45.56329786939188" lon="9.43635257463564"><ele>148.0</ele><time>2026-05-04T14:49:24Z</time></trkpt><trkpt lat="45.56330958771303" lon="9.436474585495166"><ele>148.0</ele><time>2026-05-04T14:49:25Z</time></trkpt><trkpt lat="45.563321956685535" lon="9.436603504656654"><ele>148.0</ele><time>2026-05-04T14:49:26Z</time></trkpt><trkpt lat="45.56333334699866" lon="9.436722223419864"><ele>148.0</ele><time>2026-05-04T14:49:27Z</time></trkpt><trkpt lat="45.563344455457646" lon="9.436830678860881"><ele>148.0</ele><time>2026-05-04T14:49:28Z</time></trkpt><trkpt lat="45.56335716743412" lon="9.436948687498328"><ele>148.0</ele><time>2026-05-04T14:49:29Z</time></trkpt><trkpt lat="45.56336927565535" lon="9.437061091466118"><ele>148.0</ele><time>2026-05-04T14:49:30Z</time></trkpt><trkpt lat="45.56338910113959" lon="9.437245136793692"><ele>148.16666666666669</ele><time>2026-05-04T14:49:32Z</time></trkpt><trkpt lat="45.56340188091741" lon="9.437365211488311"><ele>148.33333333333334</ele><time>2026-05-04T14:49:34Z</time></trkpt><trkpt lat="45.56341549761658" lon="9.437493359984057"><ele>148.5</ele><time>2026-05-04T14:49:36Z</time></trkpt><trkpt lat="45.56342616762175" lon="9.437593776868695"><ele>148.66666666666666</ele><time>2026-05-04T14:49:40Z</time></trkpt><trkpt lat="45.563436772204085" lon="9.437693577869567"><ele>148.83333333333331</ele><time>2026-05-04T14:49:43Z</time></trkpt><trkpt lat="45.56344679351397" lon="9.437787889653212"><ele>149.0</ele><time>2026-05-04T14:49:44Z</time></trkpt><trkpt lat="45.563456737558276" lon="9.43788147404605"><ele>148.6</ele><time>2026-05-04T14:49:45Z</time></trkpt><trkpt lat="45.563470615999336" lon="9.438006260697842"><ele>148.2</ele><time>2026-05-04T14:49:46Z</time></trkpt><trkpt lat="45.5634893572877" lon="9.438175485616476"><ele>147.79999999999998</ele><time>2026-05-04T14:49:47Z</time></trkpt><trkpt lat="45.56350767046292" lon="9.438340213870475"><ele>147.4</ele><time>2026-05-04T14:49:48Z</time></trkpt><trkpt lat="45.56352791095544" lon="9.438514781104585"><ele>147.0</ele><time>2026-05-04T14:49:49Z</time></trkpt><trkpt lat="45.56354842042028" lon="9.438693413836022"><ele>147.0</ele><time>2026-05-04T14:49:50Z</time></trkpt><trkpt lat="45.56357072663432" lon="9.438888401355902"><ele>147.0</ele><time>2026-05-04T14:49:51Z</time></trkpt><trkpt lat="45.56358958479924" lon="9.4390568802382"><ele>147.0</ele><time>2026-05-04T14:49:52Z</time></trkpt><trkpt lat="45.56360524747888" lon="9.43920262955568"><ele>147.0</ele><time>2026-05-04T14:49:53Z</time></trkpt><trkpt lat="45.56361642347238" lon="9.439311688012856"><ele>147.0</ele><time>2026-05-04T14:49:54Z</time></trkpt><trkpt lat="45.56362795405367" lon="9.439428381525522"><ele>147.0</ele><time>2026-05-04T14:49:55Z</time></trkpt><trkpt lat="45.563637746965526" lon="9.439532980954395"><ele>147.0</ele><time>2026-05-04T14:49:56Z</time></trkpt><trkpt lat="45.56364882130401" lon="9.43965735432806"><ele>147.0</ele><time>2026-05-04T14:49:57Z</time></trkpt><trkpt lat="45.563661782838395" lon="9.439802922316275"><ele>147.0</ele><time>2026-05-04T14:49:58Z</time></trkpt><trkpt lat="45.563676367747576" lon="9.4399665855001"><ele>147.0</ele><time>2026-05-04T14:49:59Z</time></trkpt><trkpt lat="45.56369355420132" lon="9.440153976664975"><ele>147.25</ele><time>2026-05-04T14:50:00Z</time></trkpt><trkpt lat="45.56371418127123" lon="9.44035231762284"><ele>147.5</ele><time>2026-05-04T14:50:01Z</time></trkpt><trkpt lat="45.563736058506606" lon="9.440558116063205"><ele>147.75</ele><time>2026-05-04T14:50:02Z</time></trkpt><trkpt lat="45.56375595851076" lon="9.440755826228035"><ele>148.0</ele><time>2026-05-04T14:50:03Z</time></trkpt><trkpt lat="45.563777761212584" lon="9.440974653283424"><ele>148.0</ele><time>2026-05-04T14:50:04Z</time></trkpt><trkpt lat="45.563797176890006" lon="9.441190457239147"><ele>148.0</ele><time>2026-05-04T14:50:05Z</time></trkpt><trkpt lat="45.56381195275981" lon="9.441362166736965"><ele>148.0</ele><time>2026-05-04T14:50:06Z</time></trkpt><trkpt lat="45.56382623042721" lon="9.44152808656055"><ele>148.0</ele><time>2026-05-04T14:50:07Z</time></trkpt><trkpt lat="45.563838876947344" lon="9.441675050974826"><ele>147.83333333333334</ele><time>2026-05-04T14:50:08Z</time></trkpt><trkpt lat="45.56384913871232" lon="9.441789542466244"><ele>147.66666666666669</ele><time>2026-05-04T14:50:09Z</time></trkpt><trkpt lat="45.56385885130216" lon="9.44189767226942"><ele>147.5</ele><time>2026-05-04T14:50:10Z</time></trkpt><trkpt lat="45.563868675286265" lon="9.441995779535818"><ele>147.33333333333334</ele><time>2026-05-04T14:50:11Z</time></trkpt><trkpt lat="45.563877865480116" lon="9.442088208814432"><ele>147.16666666666666</ele><time>2026-05-04T14:50:12Z</time></trkpt><trkpt lat="45.56389150234323" lon="9.442219995278892"><ele>147.0</ele><time>2026-05-04T14:50:14Z</time></trkpt><trkpt lat="45.5639024772574" lon="9.442323738452256"><ele>147.33333333333334</ele><time>2026-05-04T14:50:16Z</time></trkpt><trkpt lat="45.56391486092024" lon="9.442423247108698"><ele>147.66666666666666</ele><time>2026-05-04T14:50:20Z</time></trkpt><trkpt lat="45.563912815450024" lon="9.442563577004586"><ele>148.0</ele><time>2026-05-04T14:50:23Z</time></trkpt><trkpt lat="45.56392588888006" lon="9.442741902484027"><ele>148.33333333333331</ele><time>2026-05-04T14:50:25Z</time></trkpt><trkpt lat="45.563938787529196" lon="9.442841290343567"><ele>148.66666666666666</ele><time>2026-05-04T14:50:26Z</time></trkpt><trkpt lat="45.56395432992556" lon="9.442949667793627"><ele>149.0</ele><time>2026-05-04T14:50:27Z</time></trkpt><trkpt lat="45.56396386205052" lon="9.44306674978761"><ele>149.16666666666666</ele><time>2026-05-04T14:50:28Z</time></trkpt><trkpt lat="45.56397359718547" lon="9.443180991295007"><ele>149.33333333333331</ele><time>2026-05-04T14:50:29Z</time></trkpt><trkpt lat="45.56399179766561" lon="9.443299764425724"><ele>149.5</ele><time>2026-05-04T14:50:30Z</time></trkpt><trkpt lat="45.56400403419411" lon="9.44342362236038"><ele>149.66666666666666</ele><time>2026-05-04T14:50:31Z</time></trkpt><trkpt lat="45.564015765967746" lon="9.443533987701077"><ele>149.83333333333334</ele><time>2026-05-04T14:50:32Z</time></trkpt><trkpt lat="45.56403747560806" lon="9.443644482439714"><ele>150.0</ele><time>2026-05-04T14:50:33Z</time></trkpt><trkpt lat="45.564046873467746" lon="9.443760189611444"><ele>150.0</ele><time>2026-05-04T14:50:34Z</time></trkpt><trkpt lat="45.564060364330636" lon="9.443883327602856"><ele>150.0</ele><time>2026-05-04T14:50:35Z</time></trkpt><trkpt lat="45.56407548142656" lon="9.444002557618829"><ele>150.0</ele><time>2026-05-04T14:50:36Z</time></trkpt><trkpt lat="45.56408749681864" lon="9.44412993871741"><ele>150.0</ele><time>2026-05-04T14:50:37Z</time></trkpt><trkpt lat="45.5641022032413" lon="9.444283681756987"><ele>150.0</ele><time>2026-05-04T14:50:38Z</time></trkpt><trkpt lat="45.564122227432" lon="9.444467006901748"><ele>150.0</ele><time>2026-05-04T14:50:39Z</time></trkpt><trkpt lat="45.564144285155194" lon="9.444659615245074"><ele>150.0</ele><time>2026-05-04T14:50:40Z</time></trkpt><trkpt lat="45.564164181666506" lon="9.444833408033144"><ele>150.0</ele><time>2026-05-04T14:50:41Z</time></trkpt><trkpt lat="45.564185855212585" lon="9.445025224403336"><ele>150.0</ele><time>2026-05-04T14:50:42Z</time></trkpt><trkpt lat="45.56421068093902" lon="9.445236982542498"><ele>150.0</ele><time>2026-05-04T14:50:43Z</time></trkpt><trkpt lat="45.564225169495934" lon="9.44541156105119"><ele>150.0</ele><time>2026-05-04T14:50:44Z</time></trkpt><trkpt lat="45.56424095302589" lon="9.445562363135883"><ele>150.0</ele><time>2026-05-04T14:50:45Z</time></trkpt><trkpt lat="45.56425648451776" lon="9.445714581497478"><ele>150.0</ele><time>2026-05-04T14:50:46Z</time></trkpt><trkpt lat="45.56427337180384" lon="9.445865950334007"><ele>150.0</ele><time>2026-05-04T14:50:47Z</time></trkpt><trkpt lat="45.56429174701202" lon="9.44600945232187"><ele>150.16666666666666</ele><time>2026-05-04T14:50:48Z</time></trkpt><trkpt lat="45.56430348097023" lon="9.446145900397246"><ele>150.33333333333334</ele><time>2026-05-04T14:50:49Z</time></trkpt><trkpt lat="45.56431440819381" lon="9.446273433319137"><ele>150.5</ele><time>2026-05-04T14:50:50Z</time></trkpt><trkpt lat="45.56432279385603" lon="9.446385363050334"><ele>150.66666666666669</ele><time>2026-05-04T14:50:51Z</time></trkpt><trkpt lat="45.564337667700045" lon="9.446481429392659"><ele>150.83333333333334</ele><time>2026-05-04T14:50:52Z</time></trkpt><trkpt lat="45.56435159183661" lon="9.446633221879129"><ele>151.0</ele><time>2026-05-04T14:50:54Z</time></trkpt><trkpt lat="45.564370989472025" lon="9.446730406578443"><ele>151.0</ele><time>2026-05-04T14:50:56Z</time></trkpt><trkpt lat="45.56438370946958" lon="9.446843540215612"><ele>151.0</ele><time>2026-05-04T14:50:59Z</time></trkpt><trkpt lat="45.56439942507506" lon="9.4469836967795"><ele>151.0</ele><time>2026-05-04T14:51:01Z</time></trkpt><trkpt lat="45.56441213734099" lon="9.447097068597325"><ele>151.0</ele><time>2026-05-04T14:51:02Z</time></trkpt><trkpt lat="45.56442285127768" lon="9.447192618814151"><ele>151.0</ele><time>2026-05-04T14:51:03Z</time></trkpt><trkpt lat="45.56443337605051" lon="9.447286481925682"><ele>151.0</ele><time>2026-05-04T14:51:04Z</time></trkpt><trkpt lat="45.56444514199231" lon="9.447391414151511"><ele>151.0</ele><time>2026-05-04T14:51:05Z</time></trkpt><trkpt lat="45.56445887102372" lon="9.447513853825836"><ele>151.0</ele><time>2026-05-04T14:51:06Z</time></trkpt><trkpt lat="45.564473045928956" lon="9.44764291533295"><ele>151.0</ele><time>2026-05-04T14:51:07Z</time></trkpt><trkpt lat="45.564485428847036" lon="9.447758959611127"><ele>151.0</ele><time>2026-05-04T14:51:08Z</time></trkpt><trkpt lat="45.56449796030578" lon="9.447880473174271"><ele>151.0</ele><time>2026-05-04T14:51:09Z</time></trkpt><trkpt lat="45.56450983680791" lon="9.448005176306586"><ele>151.0</ele><time>2026-05-04T14:51:10Z</time></trkpt><trkpt lat="45.564520674707545" lon="9.448119274400186"><ele>151.0</ele><time>2026-05-04T14:51:11Z</time></trkpt><trkpt lat="45.56453119324251" lon="9.448231322850686"><ele>151.0</ele><time>2026-05-04T14:51:12Z</time></trkpt><trkpt lat="45.56454370896746" lon="9.448363234718581"><ele>151.0</ele><time>2026-05-04T14:51:13Z</time></trkpt><trkpt lat="45.56455520726169" lon="9.448484231110452"><ele>151.0</ele><time>2026-05-04T14:51:14Z</time></trkpt><trkpt lat="45.564565077388885" lon="9.448588094336364"><ele>151.0</ele><time>2026-05-04T14:51:15Z</time></trkpt><trkpt lat="45.56457621051139" lon="9.448699367718758"><ele>151.0</ele><time>2026-05-04T14:51:16Z</time></trkpt><trkpt lat="45.56458669908015" lon="9.448802549688732"><ele>150.66666666666669</ele><time>2026-05-04T14:51:17Z</time></trkpt><trkpt lat="45.56459597853318" lon="9.448893836803459"><ele>150.33333333333334</ele><time>2026-05-04T14:51:18Z</time></trkpt><trkpt lat="45.56461173109053" lon="9.449044832327871"><ele>150.0</ele><time>2026-05-04T14:51:20Z</time></trkpt><trkpt lat="45.564623693965515" lon="9.449152291138475"><ele>149.66666666666666</ele><time>2026-05-04T14:51:22Z</time></trkpt><trkpt lat="45.56463596916049" lon="9.449262555375963"><ele>149.33333333333331</ele><time>2026-05-04T14:51:24Z</time></trkpt><trkpt lat="45.56465316125732" lon="9.449416986695836"><ele>149.0</ele><time>2026-05-04T14:51:26Z</time></trkpt><trkpt lat="45.56466627903833" lon="9.449534819638957"><ele>149.16666666666666</ele><time>2026-05-04T14:51:28Z</time></trkpt><trkpt lat="45.564678736567025" lon="9.44964672178889"><ele>149.33333333333331</ele><time>2026-05-04T14:51:30Z</time></trkpt><trkpt lat="45.564689774917674" lon="9.449745354269178"><ele>149.5</ele><time>2026-05-04T14:51:32Z</time></trkpt><trkpt lat="45.56469995499387" lon="9.449836095659848"><ele>149.66666666666666</ele><time>2026-05-04T14:51:36Z</time></trkpt><trkpt lat="45.56471970232512" lon="9.44994857057762"><ele>149.83333333333334</ele><time>2026-05-04T14:51:39Z</time></trkpt><trkpt lat="45.56472523662091" lon="9.450128780920052"><ele>150.0</ele><time>2026-05-04T14:51:41Z</time></trkpt><trkpt lat="45.564734904497364" lon="9.450219889861039"><ele>149.99999999999997</ele><time>2026-05-04T14:51:42Z</time></trkpt><trkpt lat="45.56475908268392" lon="9.45031140637963"><ele>150.0</ele><time>2026-05-04T14:51:43Z</time></trkpt><trkpt lat="45.56477219499198" lon="9.450399731861836"><ele>150.0</ele><time>2026-05-04T14:51:44Z</time></trkpt><trkpt lat="45.564779303979215" lon="9.450494608583881"><ele>150.0</ele><time>2026-05-04T14:51:45Z</time></trkpt><trkpt lat="45.56478744611231" lon="9.4505943183321"><ele>150.0</ele><time>2026-05-04T14:51:46Z</time></trkpt><trkpt lat="45.56479455929943" lon="9.450697445947402"><ele>149.99999999999997</ele><time>2026-05-04T14:51:47Z</time></trkpt><trkpt lat="45.56480427920882" lon="9.450791177415317"><ele>150.0</ele><time>2026-05-04T14:51:48Z</time></trkpt><trkpt lat="45.564812172403094" lon="9.450893417560103"><ele>150.16666666666666</ele><time>2026-05-04T14:51:49Z</time></trkpt><trkpt lat="45.56482941070872" lon="9.451078772341294"><ele>150.33333333333334</ele><time>2026-05-04T14:51:51Z</time></trkpt><trkpt lat="45.564841327917726" lon="9.451175204155918"><ele>150.5</ele><time>2026-05-04T14:51:52Z</time></trkpt><trkpt lat="45.56485953380129" lon="9.451268625682458"><ele>150.66666666666669</ele><time>2026-05-04T14:51:53Z</time></trkpt><trkpt lat="45.56487267199029" lon="9.451363442556733"><ele>150.83333333333334</ele><time>2026-05-04T14:51:54Z</time></trkpt><trkpt lat="45.56488625094309" lon="9.451464848533856"><ele>151.0</ele><time>2026-05-04T14:51:55Z</time></trkpt><trkpt lat="45.5648938297614" lon="9.451567361959166"><ele>151.0</ele><time>2026-05-04T14:51:56Z</time></trkpt><trkpt lat="45.56490027473113" lon="9.451662609022106"><ele>151.0</ele><time>2026-05-04T14:51:57Z</time></trkpt><trkpt lat="45.56492183333396" lon="9.451806265275335"><ele>151.0</ele><time>2026-05-04T14:51:59Z</time></trkpt><trkpt lat="45.56493141727182" lon="9.451931098105534"><ele>151.0</ele><time>2026-05-04T14:52:01Z</time></trkpt><trkpt lat="45.56494671146663" lon="9.452058054871616"><ele>151.0</ele><time>2026-05-04T14:52:03Z</time></trkpt><trkpt lat="45.564967142483795" lon="9.45220542319322"><ele>151.0</ele><time>2026-05-04T14:52:05Z</time></trkpt><trkpt lat="45.56497750661383" lon="9.452321556815486"><ele>151.0</ele><time>2026-05-04T14:52:07Z</time></trkpt><trkpt lat="45.56499407979176" lon="9.45241877042679"><ele>151.0</ele><time>2026-05-04T14:52:09Z</time></trkpt><trkpt lat="45.56501293706809" lon="9.452555930112746"><ele>151.0</ele><time>2026-05-04T14:52:12Z</time></trkpt><trkpt lat="45.565014637611476" lon="9.452669267457578"><ele>151.0</ele><time>2026-05-04T14:52:14Z</time></trkpt><trkpt lat="45.565025275227335" lon="9.452780004377551"><ele>151.0</ele><time>2026-05-04T14:52:16Z</time></trkpt><trkpt lat="45.56504160204865" lon="9.452966423121923"><ele>151.0</ele><time>2026-05-04T14:52:18Z</time></trkpt><trkpt lat="45.56505410846655" lon="9.453144869169643"><ele>151.0</ele><time>2026-05-04T14:52:20Z</time></trkpt><trkpt lat="45.56508376560986" lon="9.45333087567961"><ele>151.0</ele><time>2026-05-04T14:52:22Z</time></trkpt><trkpt lat="45.565095206417986" lon="9.453436323425429"><ele>151.0</ele><time>2026-05-04T14:52:23Z</time></trkpt><trkpt lat="45.565100821415335" lon="9.453542438455424"><ele>151.0</ele><time>2026-05-04T14:52:24Z</time></trkpt><trkpt lat="45.565111527298896" lon="9.453642242946309"><ele>151.0</ele><time>2026-05-04T14:52:25Z</time></trkpt><trkpt lat="45.565126637724255" lon="9.4537530760793"><ele>151.0</ele><time>2026-05-04T14:52:26Z</time></trkpt><trkpt lat="45.56514476651567" lon="9.453872081160968"><ele>151.0</ele><time>2026-05-04T14:52:27Z</time></trkpt><trkpt lat="45.565147887505084" lon="9.453983314332882"><ele>151.0</ele><time>2026-05-04T14:52:28Z</time></trkpt><trkpt lat="45.56515043348015" lon="9.45409744617005"><ele>151.0</ele><time>2026-05-04T14:52:29Z</time></trkpt><trkpt lat="45.56516231174036" lon="9.454217274502545"><ele>151.0</ele><time>2026-05-04T14:52:30Z</time></trkpt><trkpt lat="45.565171439554256" lon="9.454348294076036"><ele>150.66666666666669</ele><time>2026-05-04T14:52:31Z</time></trkpt><trkpt lat="45.56518612948825" lon="9.454477214316107"><ele>150.33333333333334</ele><time>2026-05-04T14:52:32Z</time></trkpt><trkpt lat="45.565196325079555" lon="9.454601767854562"><ele>150.0</ele><time>2026-05-04T14:52:33Z</time></trkpt><trkpt lat="45.565201239233446" lon="9.45472880363672"><ele>149.66666666666666</ele><time>2026-05-04T14:52:34Z</time></trkpt><trkpt lat="45.56520614286856" lon="9.454855214894991"><ele>149.33333333333331</ele><time>2026-05-04T14:52:35Z</time></trkpt><trkpt lat="45.5652201728238" lon="9.454984707731606"><ele>149.0</ele><time>2026-05-04T14:52:36Z</time></trkpt><trkpt lat="45.56523056942559" lon="9.455134278628814"><ele>149.0</ele><time>2026-05-04T14:52:37Z</time></trkpt><trkpt lat="45.56525091302192" lon="9.455296482864291"><ele>149.0</ele><time>2026-05-04T14:52:38Z</time></trkpt><trkpt lat="45.565260156222635" lon="9.455387977056777"><ele>149.0</ele><time>2026-05-04T14:52:39Z</time></trkpt><trkpt lat="45.565276175236924" lon="9.455499719132327"><ele>149.0</ele><time>2026-05-04T14:52:40Z</time></trkpt><trkpt lat="45.56528967509981" lon="9.45562955344651"><ele>149.0</ele><time>2026-05-04T14:52:41Z</time></trkpt><trkpt lat="45.5653000060907" lon="9.45576263294917"><ele>149.0</ele><time>2026-05-04T14:52:42Z</time></trkpt><trkpt lat="45.565307164100105" lon="9.455893023611269"><ele>149.16666666666666</ele><time>2026-05-04T14:52:43Z</time></trkpt><trkpt lat="45.56531865730714" lon="9.456017037615686"><ele>149.33333333333331</ele><time>2026-05-04T14:52:44Z</time></trkpt><trkpt lat="45.565335720330474" lon="9.456124585809391"><ele>149.5</ele><time>2026-05-04T14:52:45Z</time></trkpt><trkpt lat="45.56535383644533" lon="9.456230039799319"><ele>149.66666666666666</ele><time>2026-05-04T14:52:46Z</time></trkpt><trkpt lat="45.565368662225076" lon="9.456343574125233"><ele>149.83333333333334</ele><time>2026-05-04T14:52:47Z</time></trkpt><trkpt lat="45.565376606587684" lon="9.456464106642159"><ele>150.0</ele><time>2026-05-04T14:52:48Z</time></trkpt><trkpt lat="45.56538801622501" lon="9.456589688451134"><ele>150.0</ele><time>2026-05-04T14:52:49Z</time></trkpt><trkpt lat="45.565404052032285" lon="9.456720413817756"><ele>150.0</ele><time>2026-05-04T14:52:50Z</time></trkpt><trkpt lat="45.56542392853548" lon="9.456833009643976"><ele>150.0</ele><time>2026-05-04T14:52:51Z</time></trkpt><trkpt lat="45.56543339765444" lon="9.45698784852234"><ele>150.0</ele><time>2026-05-04T14:52:52Z</time></trkpt><trkpt lat="45.5654436015928" lon="9.457123173110235"><ele>150.0</ele><time>2026-05-04T14:52:53Z</time></trkpt><trkpt lat="45.56545792422372" lon="9.457250866055613"><ele>150.0</ele><time>2026-05-04T14:52:54Z</time></trkpt><trkpt lat="45.56547113663671" lon="9.457387581726833"><ele>150.0</ele><time>2026-05-04T14:52:55Z</time></trkpt><trkpt lat="45.565484744220086" lon="9.457528473514268"><ele>150.0</ele><time>2026-05-04T14:52:56Z</time></trkpt><trkpt lat="45.5654976305285" lon="9.457661108081215"><ele>150.0</ele><time>2026-05-04T14:52:57Z</time></trkpt><trkpt lat="45.56550521068028" lon="9.457790607812987"><ele>150.0</ele><time>2026-05-04T14:52:58Z</time></trkpt><trkpt lat="45.56552480557013" lon="9.457926816495984"><ele>150.0</ele><time>2026-05-04T14:52:59Z</time></trkpt><trkpt lat="45.56554248911462" lon="9.458058074740638"><ele>150.0</ele><time>2026-05-04T14:53:00Z</time></trkpt><trkpt lat="45.565548534311475" lon="9.458175392209622"><ele>150.0</ele><time>2026-05-04T14:53:01Z</time></trkpt><trkpt lat="45.56554792059344" lon="9.458294242834404"><ele>150.0</ele><time>2026-05-04T14:53:02Z</time></trkpt><trkpt lat="45.56555985354129" lon="9.458435953116334"><ele>150.0</ele><time>2026-05-04T14:53:03Z</time></trkpt><trkpt lat="45.56556335934608" lon="9.458573195578145"><ele>150.0</ele><time>2026-05-04T14:53:04Z</time></trkpt><trkpt lat="45.565559207296054" lon="9.45867993324717"><ele>150.0</ele><time>2026-05-04T14:53:05Z</time></trkpt><trkpt lat="45.56555068599398" lon="9.458790864829313"><ele>150.0</ele><time>2026-05-04T14:53:06Z</time></trkpt><trkpt lat="45.565537856661216" lon="9.458909336416626"><ele>150.0</ele><time>2026-05-04T14:53:07Z</time></trkpt><trkpt lat="45.56552491425112" lon="9.459007823326404"><ele>150.0</ele><time>2026-05-04T14:53:08Z</time></trkpt><trkpt lat="45.56550632480893" lon="9.459142257829505"><ele>150.0</ele><time>2026-05-04T14:53:09Z</time></trkpt><trkpt lat="45.56549669060639" lon="9.459260600538153"><ele>150.33333333333334</ele><time>2026-05-04T14:53:10Z</time></trkpt><trkpt lat="45.565482148797926" lon="9.459377581455978"><ele>150.66666666666666</ele><time>2026-05-04T14:53:11Z</time></trkpt><trkpt lat="45.56548802819729" lon="9.459497748795657"><ele>151.0</ele><time>2026-05-04T14:53:12Z</time></trkpt><trkpt lat="45.56547756816203" lon="9.459620008303949"><ele>151.33333333333331</ele><time>2026-05-04T14:53:13Z</time></trkpt><trkpt lat="45.56547203507974" lon="9.45973107731733"><ele>151.66666666666666</ele><time>2026-05-04T14:53:14Z</time></trkpt><trkpt lat="45.565455622765064" lon="9.459848855607957"><ele>152.0</ele><time>2026-05-04T14:53:15Z</time></trkpt><trkpt lat="45.56544874567532" lon="9.45996950141192"><ele>152.16666666666666</ele><time>2026-05-04T14:53:16Z</time></trkpt><trkpt lat="45.565441913606065" lon="9.460096033568496"><ele>152.33333333333331</ele><time>2026-05-04T14:53:17Z</time></trkpt><trkpt lat="45.56543680730873" lon="9.460220128604144"><ele>152.5</ele><time>2026-05-04T14:53:18Z</time></trkpt><trkpt lat="45.56542792007928" lon="9.460323776457697"><ele>152.66666666666666</ele><time>2026-05-04T14:53:19Z</time></trkpt><trkpt lat="45.56542153976497" lon="9.460430053962014"><ele>152.83333333333334</ele><time>2026-05-04T14:53:20Z</time></trkpt><trkpt lat="45.56540834666345" lon="9.46054937292703"><ele>153.0</ele><time>2026-05-04T14:53:21Z</time></trkpt><trkpt lat="45.56540511626772" lon="9.46065760449238"><ele>153.0</ele><time>2026-05-04T14:53:22Z</time></trkpt><trkpt lat="45.56539593866058" lon="9.460756027365196"><ele>153.0</ele><time>2026-05-04T14:53:23Z</time></trkpt><trkpt lat="45.565375014355226" lon="9.46085534807043"><ele>153.0</ele><time>2026-05-04T14:53:25Z</time></trkpt><trkpt lat="45.565401681345605" lon="9.460952576212147"><ele>153.0</ele><time>2026-05-04T14:54:36Z</time></trkpt><trkpt lat="45.56547709683486" lon="9.460967257159817"><ele>153.0</ele><time>2026-05-04T14:54:37Z</time></trkpt><trkpt lat="45.56554454123428" lon="9.4609744077403"><ele>153.0</ele><time>2026-05-04T14:54:39Z</time></trkpt><trkpt lat="45.56563386637569" lon="9.46101322341158"><ele>153.0</ele><time>2026-05-04T14:54:41Z</time></trkpt><trkpt lat="45.565744423285366" lon="9.461047747008772"><ele>153.0</ele><time>2026-05-04T14:54:43Z</time></trkpt><trkpt lat="45.56583551526518" lon="9.46104384228714"><ele>153.0</ele><time>2026-05-04T14:54:44Z</time></trkpt><trkpt lat="45.56592388889095" lon="9.46106339692487"><ele>153.0</ele><time>2026-05-04T14:54:45Z</time></trkpt><trkpt lat="45.566032225686655" lon="9.46109900064873"><ele>153.0</ele><time>2026-05-04T14:54:46Z</time></trkpt><trkpt lat="45.56615396052107" lon="9.461128053487727"><ele>153.4</ele><time>2026-05-04T14:54:47Z</time></trkpt><trkpt lat="45.56628190462652" lon="9.461165874985392"><ele>153.8</ele><time>2026-05-04T14:54:48Z</time></trkpt><trkpt lat="45.56637178812256" lon="9.461242107022793"><ele>154.2</ele><time>2026-05-04T14:54:49Z</time></trkpt><trkpt lat="45.566452221815524" lon="9.461340406824213"><ele>154.6</ele><time>2026-05-04T14:54:51Z</time></trkpt><trkpt lat="45.56654523373257" lon="9.461395618173746"><ele>155.0</ele><time>2026-05-04T14:54:52Z</time></trkpt><trkpt lat="45.566652068995296" lon="9.461478953654685"><ele>155.0</ele><time>2026-05-04T14:54:53Z</time></trkpt><trkpt lat="45.56674104020928" lon="9.461564876445701"><ele>155.0</ele><time>2026-05-04T14:54:54Z</time></trkpt><trkpt lat="45.56681093112159" lon="9.461630999701333"><ele>155.0</ele><time>2026-05-04T14:54:55Z</time></trkpt><trkpt lat="45.56685972729544" lon="9.461695770970262"><ele>155.0</ele><time>2026-05-04T14:54:56Z</time></trkpt><trkpt lat="45.566906996411355" lon="9.461759670095677"><ele>155.0</ele><time>2026-05-04T14:54:57Z</time></trkpt><trkpt lat="45.566939961474716" lon="9.461844229822052"><ele>155.0</ele><time>2026-05-04T14:54:58Z</time></trkpt><trkpt lat="45.567002660983086" lon="9.46193099453607"><ele>155.0</ele><time>2026-05-04T14:54:59Z</time></trkpt><trkpt lat="45.56706186823323" lon="9.46203557710497"><ele>155.0</ele><time>2026-05-04T14:55:00Z</time></trkpt><trkpt lat="45.56711603076192" lon="9.462132420077337"><ele>155.0</ele><time>2026-05-04T14:55:01Z</time></trkpt><trkpt lat="45.567153692121146" lon="9.462222276691742"><ele>155.0</ele><time>2026-05-04T14:55:02Z</time></trkpt><trkpt lat="45.56721037628475" lon="9.462264367329928"><ele>155.0</ele><time>2026-05-04T14:55:03Z</time></trkpt><trkpt lat="45.56717518297181" lon="9.46234820303586"><ele>155.0</ele><time>2026-05-04T14:55:04Z</time></trkpt><trkpt lat="45.5670690896947" lon="9.462411212906854"><ele>155.0</ele><time>2026-05-04T14:55:05Z</time></trkpt><trkpt lat="45.56702159083313" lon="9.462558108300886"><ele>155.0</ele><time>2026-05-04T14:55:07Z</time></trkpt><trkpt lat="45.56705417962907" lon="9.462669137142182"><ele>155.0</ele><time>2026-05-04T14:55:08Z</time></trkpt><trkpt lat="45.567110673928816" lon="9.462774053265104"><ele>155.0</ele><time>2026-05-04T14:55:09Z</time></trkpt><trkpt lat="45.5671713125101" lon="9.462875649609218"><ele>155.0</ele><time>2026-05-04T14:55:10Z</time></trkpt><trkpt lat="45.567233290810464" lon="9.46296569517703"><ele>154.83333333333331</ele><time>2026-05-04T14:55:11Z</time></trkpt><trkpt lat="45.567296722569" lon="9.463069040830144"><ele>154.66666666666666</ele><time>2026-05-04T14:55:12Z</time></trkpt><trkpt lat="45.56734422652558" lon="9.463188614587608"><ele>154.5</ele><time>2026-05-04T14:55:13Z</time></trkpt><trkpt lat="45.56738158593815" lon="9.463283625273174"><ele>154.33333333333334</ele><time>2026-05-04T14:55:14Z</time></trkpt><trkpt lat="45.56742795391135" lon="9.463351914519347"><ele>154.16666666666669</ele><time>2026-05-04T14:55:15Z</time></trkpt><trkpt lat="45.56745828309098" lon="9.463501338658062"><ele>154.0</ele><time>2026-05-04T14:55:17Z</time></trkpt><trkpt lat="45.56738338542925" lon="9.46364100348226"><ele>154.0</ele><time>2026-05-04T14:55:18Z</time></trkpt><trkpt lat="45.56733579712463" lon="9.463742217950147"><ele>154.0</ele><time>2026-05-04T14:55:19Z</time></trkpt><trkpt lat="45.567291948752235" lon="9.463859510542008"><ele>154.0</ele><time>2026-05-04T14:55:20Z</time></trkpt><trkpt lat="45.56724142589469" lon="9.463988420325578"><ele>154.0</ele><time>2026-05-04T14:55:21Z</time></trkpt><trkpt lat="45.567206556982484" lon="9.464094751912098"><ele>154.0</ele><time>2026-05-04T14:55:22Z</time></trkpt><trkpt lat="45.56717196368011" lon="9.46420203542002"><ele>154.0</ele><time>2026-05-04T14:55:23Z</time></trkpt><trkpt lat="45.567109691775535" lon="9.464329953946708"><ele>154.4</ele><time>2026-05-04T14:55:24Z</time></trkpt><trkpt lat="45.56704894372848" lon="9.464455995036401"><ele>154.8</ele><time>2026-05-04T14:55:25Z</time></trkpt><trkpt lat="45.56697491413965" lon="9.464585729712208"><ele>155.2</ele><time>2026-05-04T14:55:26Z</time></trkpt><trkpt lat="45.56690100908539" lon="9.464713094561906"><ele>155.6</ele><time>2026-05-04T14:55:27Z</time></trkpt><trkpt lat="45.566854324525195" lon="9.464825660427936"><ele>156.0</ele><time>2026-05-04T14:55:28Z</time></trkpt><trkpt lat="45.56678461300364" lon="9.464960289544589"><ele>155.0</ele><time>2026-05-04T14:55:29Z</time></trkpt><trkpt lat="45.56672418509601" lon="9.465098792506446"><ele>154.0</ele><time>2026-05-04T14:55:30Z</time></trkpt><trkpt lat="45.56667013318778" lon="9.465225323654316"><ele>153.0</ele><time>2026-05-04T14:55:31Z</time></trkpt><trkpt lat="45.56660035516803" lon="9.465337556151903"><ele>152.0</ele><time>2026-05-04T14:55:32Z</time></trkpt><trkpt lat="45.566560634156055" lon="9.46547733212211"><ele>151.0</ele><time>2026-05-04T14:55:33Z</time></trkpt><trkpt lat="45.566496745506655" lon="9.465611842338076"><ele>151.0</ele><time>2026-05-04T14:55:34Z</time></trkpt><trkpt lat="45.56640722010956" lon="9.465752620305718"><ele>151.0</ele><time>2026-05-04T14:55:35Z</time></trkpt><trkpt lat="45.566331362275356" lon="9.465891996467402"><ele>151.0</ele><time>2026-05-04T14:55:36Z</time></trkpt><trkpt lat="45.56627353560863" lon="9.466019872208141"><ele>151.0</ele><time>2026-05-04T14:55:37Z</time></trkpt><trkpt lat="45.566207993723204" lon="9.4661380877044"><ele>151.2</ele><time>2026-05-04T14:55:38Z</time></trkpt><trkpt lat="45.56614295407493" lon="9.466262179444616"><ele>151.39999999999998</ele><time>2026-05-04T14:55:39Z</time></trkpt><trkpt lat="45.56608232227808" lon="9.466382206849968"><ele>151.6</ele><time>2026-05-04T14:55:40Z</time></trkpt><trkpt lat="45.56602459437377" lon="9.466479942858603"><ele>151.79999999999998</ele><time>2026-05-04T14:55:41Z</time></trkpt><trkpt lat="45.565952230030206" lon="9.466585696568437"><ele>152.0</ele><time>2026-05-04T14:55:42Z</time></trkpt><trkpt lat="45.565907997364896" lon="9.466709286989195"><ele>152.0</ele><time>2026-05-04T14:55:43Z</time></trkpt><trkpt lat="45.565859773680245" lon="9.466823346385135"><ele>152.0</ele><time>2026-05-04T14:55:44Z</time></trkpt><trkpt lat="45.56581248625475" lon="9.466912821188918"><ele>152.0</ele><time>2026-05-04T14:55:45Z</time></trkpt><trkpt lat="45.565777375673996" lon="9.466994787545932"><ele>152.0</ele><time>2026-05-04T14:55:46Z</time></trkpt><trkpt lat="45.56565667845633" lon="9.467077425576099"><ele>152.0</ele><time>2026-05-04T14:55:48Z</time></trkpt><trkpt lat="45.56557566609281" lon="9.467120824758876"><ele>151.79999999999998</ele><time>2026-05-04T14:55:49Z</time></trkpt><trkpt lat="45.565526780971496" lon="9.467199319621722"><ele>151.6</ele><time>2026-05-04T14:55:50Z</time></trkpt><trkpt lat="45.56550498081758" lon="9.467306612566178"><ele>151.39999999999998</ele><time>2026-05-04T14:55:51Z</time></trkpt><trkpt lat="45.565496470058854" lon="9.467439593884873"><ele>151.2</ele><time>2026-05-04T14:55:52Z</time></trkpt><trkpt lat="45.56549669037673" lon="9.467600265257323"><ele>151.0</ele><time>2026-05-04T14:55:53Z</time></trkpt><trkpt lat="45.5654493859541" lon="9.46776816485757"><ele>150.75</ele><time>2026-05-04T14:55:54Z</time></trkpt><trkpt lat="45.56531269540574" lon="9.467870054591296"><ele>150.5</ele><time>2026-05-04T14:55:55Z</time></trkpt><trkpt lat="45.56521980132348" lon="9.468000801125301"><ele>150.25</ele><time>2026-05-04T14:55:56Z</time></trkpt><trkpt lat="45.565143652733525" lon="9.468150065607706"><ele>150.0</ele><time>2026-05-04T14:55:57Z</time></trkpt><trkpt lat="45.565073221502594" lon="9.46829742951233"><ele>149.8</ele><time>2026-05-04T14:55:58Z</time></trkpt><trkpt lat="45.56501515986781" lon="9.468388866033195"><ele>149.6</ele><time>2026-05-04T14:55:59Z</time></trkpt><trkpt lat="45.56495605984889" lon="9.468492117399489"><ele>149.4</ele><time>2026-05-04T14:56:00Z</time></trkpt><trkpt lat="45.564910349229294" lon="9.468601920333628"><ele>149.2</ele><time>2026-05-04T14:56:01Z</time></trkpt><trkpt lat="45.5648501048234" lon="9.468710266787776"><ele>149.0</ele><time>2026-05-04T14:56:02Z</time></trkpt><trkpt lat="45.56478777392012" lon="9.468833749092633"><ele>148.8</ele><time>2026-05-04T14:56:03Z</time></trkpt><trkpt lat="45.56472136870025" lon="9.468968703708995"><ele>148.60000000000002</ele><time>2026-05-04T14:56:04Z</time></trkpt><trkpt lat="45.564654860863705" lon="9.4691013220396"><ele>148.4</ele><time>2026-05-04T14:56:05Z</time></trkpt><trkpt lat="45.5645910608301" lon="9.469221984130028"><ele>148.20000000000002</ele><time>2026-05-04T14:56:06Z</time></trkpt><trkpt lat="45.56453957787374" lon="9.469318500425192"><ele>148.0</ele><time>2026-05-04T14:56:07Z</time></trkpt><trkpt lat="45.56448495929838" lon="9.469387644025753"><ele>148.0</ele><time>2026-05-04T14:56:08Z</time></trkpt><trkpt lat="45.564438387582015" lon="9.469462115119516"><ele>148.0</ele><time>2026-05-04T14:56:09Z</time></trkpt><trkpt lat="45.564398044255505" lon="9.469556990723014"><ele>148.0</ele><time>2026-05-04T14:56:11Z</time></trkpt><trkpt lat="45.56446140317535" lon="9.469482453474589"><ele>148.0</ele><time>2026-05-04T14:56:17Z</time></trkpt><trkpt lat="45.564609677310585" lon="9.469646060666634"><ele>148.0</ele><time>2026-05-04T14:56:19Z</time></trkpt><trkpt lat="45.56468887763848" lon="9.469760277698045"><ele>147.5</ele><time>2026-05-04T14:56:20Z</time></trkpt><trkpt lat="45.56478510081234" lon="9.469878482088854"><ele>147.0</ele><time>2026-05-04T14:56:21Z</time></trkpt><trkpt lat="45.56490509573795" lon="9.47000093570162"><ele>146.5</ele><time>2026-05-04T14:56:22Z</time></trkpt><trkpt lat="45.56503874154005" lon="9.470150766690844"><ele>146.0</ele><time>2026-05-04T14:56:23Z</time></trkpt><trkpt lat="45.56515836366957" lon="9.470291000896045"><ele>146.0</ele><time>2026-05-04T14:56:24Z</time></trkpt><trkpt lat="45.565263244232796" lon="9.470410322553297"><ele>146.0</ele><time>2026-05-04T14:56:25Z</time></trkpt><trkpt lat="45.56536085076653" lon="9.470518084189509"><ele>146.0</ele><time>2026-05-04T14:56:26Z</time></trkpt><trkpt lat="45.565458358560214" lon="9.470624890609189"><ele>146.0</ele><time>2026-05-04T14:56:27Z</time></trkpt><trkpt lat="45.565542795593835" lon="9.470714625637362"><ele>146.5</ele><time>2026-05-04T14:56:28Z</time></trkpt><trkpt lat="45.56562060737992" lon="9.470802001844296"><ele>147.0</ele><time>2026-05-04T14:56:29Z</time></trkpt><trkpt lat="45.56570191777288" lon="9.470893065754163"><ele>147.5</ele><time>2026-05-04T14:56:30Z</time></trkpt><trkpt lat="45.565771907359235" lon="9.470973383340104"><ele>148.0</ele><time>2026-05-04T14:56:31Z</time></trkpt><trkpt lat="45.565834222909565" lon="9.471033961328361"><ele>148.5</ele><time>2026-05-04T14:56:32Z</time></trkpt><trkpt lat="45.56587334996947" lon="9.471105155949433"><ele>149.0</ele><time>2026-05-04T14:56:34Z</time></trkpt><trkpt lat="45.56581701355243" lon="9.471240072385378"><ele>149.25</ele><time>2026-05-04T14:56:36Z</time></trkpt><trkpt lat="45.565766951093856" lon="9.471349597857996"><ele>149.5</ele><time>2026-05-04T14:56:37Z</time></trkpt><trkpt lat="45.56571852850403" lon="9.471481068766918"><ele>149.75</ele><time>2026-05-04T14:56:38Z</time></trkpt><trkpt lat="45.56567025031824" lon="9.471674206829551"><ele>150.0</ele><time>2026-05-04T14:56:39Z</time></trkpt><trkpt lat="45.5656254416902" lon="9.471839191534185"><ele>150.0</ele><time>2026-05-04T14:56:40Z</time></trkpt><trkpt lat="45.56558386783543" lon="9.471992650327204"><ele>150.0</ele><time>2026-05-04T14:56:41Z</time></trkpt><trkpt lat="45.56555399538585" lon="9.472120180055416"><ele>150.0</ele><time>2026-05-04T14:56:42Z</time></trkpt><trkpt lat="45.56552442167676" lon="9.472237466798719"><ele>150.0</ele><time>2026-05-04T14:56:43Z</time></trkpt><trkpt lat="45.56549192362105" lon="9.47236180868141"><ele>150.0</ele><time>2026-05-04T14:56:44Z</time></trkpt><trkpt lat="45.56544401617593" lon="9.472457169070847"><ele>149.8</ele><time>2026-05-04T14:56:45Z</time></trkpt><trkpt lat="45.56539583145428" lon="9.472571560498489"><ele>149.6</ele><time>2026-05-04T14:56:47Z</time></trkpt><trkpt lat="45.565366812145385" lon="9.472691814910911"><ele>149.4</ele><time>2026-05-04T14:56:49Z</time></trkpt><trkpt lat="45.56529224439631" lon="9.47285483618211"><ele>149.2</ele><time>2026-05-04T14:56:51Z</time></trkpt><trkpt lat="45.56524098638383" lon="9.472959863731905"><ele>149.0</ele><time>2026-05-04T14:56:52Z</time></trkpt><trkpt lat="45.565201216385866" lon="9.473069414017061"><ele>148.8</ele><time>2026-05-04T14:56:53Z</time></trkpt><trkpt lat="45.56515460907954" lon="9.473188381902268"><ele>148.60000000000002</ele><time>2026-05-04T14:56:54Z</time></trkpt><trkpt lat="45.56510326114458" lon="9.473322719594657"><ele>148.4</ele><time>2026-05-04T14:56:55Z</time></trkpt><trkpt lat="45.565045884400355" lon="9.4734627239859"><ele>148.20000000000002</ele><time>2026-05-04T14:56:56Z</time></trkpt><trkpt lat="45.56499045142131" lon="9.473603523418864"><ele>148.0</ele><time>2026-05-04T14:56:57Z</time></trkpt><trkpt lat="45.56493080920804" lon="9.473745277490517"><ele>148.20000000000002</ele><time>2026-05-04T14:56:58Z</time></trkpt><trkpt lat="45.56488885930659" lon="9.473861193645403"><ele>148.4</ele><time>2026-05-04T14:56:59Z</time></trkpt><trkpt lat="45.56485174316768" lon="9.473962915730018"><ele>148.60000000000002</ele><time>2026-05-04T14:57:00Z</time></trkpt><trkpt lat="45.564821650672975" lon="9.474047658984222"><ele>148.8</ele><time>2026-05-04T14:57:01Z</time></trkpt><trkpt lat="45.564769142840596" lon="9.474180781144046"><ele>149.0</ele><time>2026-05-04T14:57:03Z</time></trkpt><trkpt lat="45.56470031224469" lon="9.474356574944629"><ele>149.0</ele><time>2026-05-04T14:57:05Z</time></trkpt><trkpt lat="45.56465708191169" lon="9.47448058622645"><ele>149.0</ele><time>2026-05-04T14:57:06Z</time></trkpt><trkpt lat="45.56460193444341" lon="9.474625347137833"><ele>149.0</ele><time>2026-05-04T14:57:07Z</time></trkpt><trkpt lat="45.56454717662157" lon="9.474773498140449"><ele>149.0</ele><time>2026-05-04T14:57:08Z</time></trkpt><trkpt lat="45.56448920783621" lon="9.474935735469462"><ele>149.0</ele><time>2026-05-04T14:57:09Z</time></trkpt><trkpt lat="45.56443390055952" lon="9.475084198060266"><ele>149.0</ele><time>2026-05-04T14:57:10Z</time></trkpt><trkpt lat="45.564384777747506" lon="9.475228202800652"><ele>149.0</ele><time>2026-05-04T14:57:11Z</time></trkpt><trkpt lat="45.56433380752926" lon="9.475381110657146"><ele>149.0</ele><time>2026-05-04T14:57:12Z</time></trkpt><trkpt lat="45.56427774728587" lon="9.47555101807308"><ele>149.0</ele><time>2026-05-04T14:57:13Z</time></trkpt><trkpt lat="45.56422281027252" lon="9.475736932220173"><ele>149.0</ele><time>2026-05-04T14:57:14Z</time></trkpt><trkpt lat="45.56416109282103" lon="9.475923660515058"><ele>149.0</ele><time>2026-05-04T14:57:15Z</time></trkpt><trkpt lat="45.56410510504392" lon="9.476078164029282"><ele>149.0</ele><time>2026-05-04T14:57:16Z</time></trkpt><trkpt lat="45.56404502517886" lon="9.476244555270982"><ele>149.4</ele><time>2026-05-04T14:57:17Z</time></trkpt><trkpt lat="45.56398290079035" lon="9.476417229414015"><ele>149.8</ele><time>2026-05-04T14:57:18Z</time></trkpt><trkpt lat="45.56393387033547" lon="9.47654985475683"><ele>150.2</ele><time>2026-05-04T14:57:19Z</time></trkpt><trkpt lat="45.563891141165904" lon="9.476655642281202"><ele>150.6</ele><time>2026-05-04T14:57:20Z</time></trkpt><trkpt lat="45.56385472920828" lon="9.476753240477278"><ele>151.0</ele><time>2026-05-04T14:57:21Z</time></trkpt><trkpt lat="45.563818758025526" lon="9.476831653847615"><ele>151.0</ele><time>2026-05-04T14:57:22Z</time></trkpt><trkpt lat="45.563836385369164" lon="9.476939813832919"><ele>151.0</ele><time>2026-05-04T14:57:25Z</time></trkpt><trkpt lat="45.563905013369656" lon="9.476987540056395"><ele>151.0</ele><time>2026-05-04T14:57:26Z</time></trkpt><trkpt lat="45.5640080928499" lon="9.477043526767657"><ele>151.0</ele><time>2026-05-04T14:57:27Z</time></trkpt><trkpt lat="45.564131124233896" lon="9.47714268502356"><ele>151.0</ele><time>2026-05-04T14:57:28Z</time></trkpt><trkpt lat="45.56425678048654" lon="9.477240667394113"><ele>151.0</ele><time>2026-05-04T14:57:29Z</time></trkpt><trkpt lat="45.56439579463654" lon="9.477339249394475"><ele>151.0</ele><time>2026-05-04T14:57:30Z</time></trkpt><trkpt lat="45.56455128532658" lon="9.477450888903926"><ele>151.0</ele><time>2026-05-04T14:57:31Z</time></trkpt><trkpt lat="45.56469541489216" lon="9.477548111269257"><ele>151.0</ele><time>2026-05-04T14:57:32Z</time></trkpt><trkpt lat="45.564800325005976" lon="9.477625875184833"><ele>151.0</ele><time>2026-05-04T14:57:33Z</time></trkpt><trkpt lat="45.56489505694662" lon="9.477699775251118"><ele>151.0</ele><time>2026-05-04T14:57:34Z</time></trkpt><trkpt lat="45.56502648603444" lon="9.477805687241629"><ele>151.0</ele><time>2026-05-04T14:57:35Z</time></trkpt><trkpt lat="45.565182085115126" lon="9.47790902058176"><ele>150.75</ele><time>2026-05-04T14:57:36Z</time></trkpt><trkpt lat="45.565344782761315" lon="9.478031051878263"><ele>150.5</ele><time>2026-05-04T14:57:37Z</time></trkpt><trkpt lat="45.56547808540568" lon="9.478120514992616"><ele>150.25</ele><time>2026-05-04T14:57:38Z</time></trkpt><trkpt lat="45.56557766325789" lon="9.478183222944757"><ele>150.0</ele><time>2026-05-04T14:57:39Z</time></trkpt><trkpt lat="45.56567525955574" lon="9.478240884330809"><ele>150.0</ele><time>2026-05-04T14:57:40Z</time></trkpt><trkpt lat="45.56578298977801" lon="9.47829462880294"><ele>150.0</ele><time>2026-05-04T14:57:41Z</time></trkpt><trkpt lat="45.565885047587415" lon="9.478346931758008"><ele>150.0</ele><time>2026-05-04T14:57:42Z</time></trkpt><trkpt lat="45.565980854078134" lon="9.478422796363605"><ele>150.0</ele><time>2026-05-04T14:57:43Z</time></trkpt><trkpt lat="45.56608478290773" lon="9.478492399064544"><ele>150.0</ele><time>2026-05-04T14:57:44Z</time></trkpt><trkpt lat="45.56619075276087" lon="9.478571316492486"><ele>150.5</ele><time>2026-05-04T14:57:45Z</time></trkpt><trkpt lat="45.56630130231761" lon="9.478649255959786"><ele>151.0</ele><time>2026-05-04T14:57:46Z</time></trkpt><trkpt lat="45.56639933395435" lon="9.478715584457357"><ele>151.5</ele><time>2026-05-04T14:57:47Z</time></trkpt><trkpt lat="45.566494858580946" lon="9.478787725664858"><ele>152.0</ele><time>2026-05-04T14:57:48Z</time></trkpt><trkpt lat="45.56659857562304" lon="9.478863758768506"><ele>152.2</ele><time>2026-05-04T14:57:49Z</time></trkpt><trkpt lat="45.566693193988996" lon="9.478933505653643"><ele>152.39999999999998</ele><time>2026-05-04T14:57:50Z</time></trkpt><trkpt lat="45.566776998467034" lon="9.478994392139045"><ele>152.60000000000002</ele><time>2026-05-04T14:57:51Z</time></trkpt><trkpt lat="45.56685081042837" lon="9.479047484239466"><ele>152.8</ele><time>2026-05-04T14:57:52Z</time></trkpt><trkpt lat="45.56693504613171" lon="9.479107360632572"><ele>153.0</ele><time>2026-05-04T14:57:53Z</time></trkpt><trkpt lat="45.567012179460505" lon="9.479172242445808"><ele>152.66666666666666</ele><time>2026-05-04T14:57:54Z</time></trkpt><trkpt lat="45.567081508349354" lon="9.47922042849551"><ele>152.33333333333334</ele><time>2026-05-04T14:57:55Z</time></trkpt><trkpt lat="45.5671480649082" lon="9.479261650611683"><ele>152.0</ele><time>2026-05-04T14:57:56Z</time></trkpt><trkpt lat="45.56721193277566" lon="9.47931387838129"><ele>151.66666666666669</ele><time>2026-05-04T14:57:57Z</time></trkpt><trkpt lat="45.567270681600824" lon="9.479359860114611"><ele>151.33333333333334</ele><time>2026-05-04T14:57:58Z</time></trkpt><trkpt lat="45.567341313855145" lon="9.479411009543892"><ele>151.0</ele><time>2026-05-04T14:57:59Z</time></trkpt><trkpt lat="45.567437137646394" lon="9.479444633495616"><ele>151.0</ele><time>2026-05-04T14:58:00Z</time></trkpt><trkpt lat="45.56755008321782" lon="9.47949547850531"><ele>151.0</ele><time>2026-05-04T14:58:01Z</time></trkpt><trkpt lat="45.567678161604526" lon="9.479590323905281"><ele>151.0</ele><time>2026-05-04T14:58:02Z</time></trkpt><trkpt lat="45.567805263875805" lon="9.479701157420685"><ele>151.0</ele><time>2026-05-04T14:58:03Z</time></trkpt><trkpt lat="45.567959477363594" lon="9.479807484490118"><ele>151.33333333333334</ele><time>2026-05-04T14:58:04Z</time></trkpt><trkpt lat="45.56812564085396" lon="9.479928580714189"><ele>151.66666666666666</ele><time>2026-05-04T14:58:05Z</time></trkpt><trkpt lat="45.568292253221315" lon="9.48005390085793"><ele>152.0</ele><time>2026-05-04T14:58:06Z</time></trkpt><trkpt lat="45.568474489863206" lon="9.480189516377662"><ele>152.0</ele><time>2026-05-04T14:58:07Z</time></trkpt><trkpt lat="45.568673849156795" lon="9.480342592513267"><ele>152.0</ele><time>2026-05-04T14:58:08Z</time></trkpt><trkpt lat="45.568870606875755" lon="9.480484268849661"><ele>152.0</ele><time>2026-05-04T14:58:09Z</time></trkpt><trkpt lat="45.56905359649754" lon="9.480617025440148"><ele>152.33333333333331</ele><time>2026-05-04T14:58:10Z</time></trkpt><trkpt lat="45.56920964925849" lon="9.480736748213854"><ele>152.66666666666666</ele><time>2026-05-04T14:58:11Z</time></trkpt><trkpt lat="45.56936019971308" lon="9.480843659578204"><ele>153.0</ele><time>2026-05-04T14:58:12Z</time></trkpt><trkpt lat="45.569493831474716" lon="9.480945547592652"><ele>152.75</ele><time>2026-05-04T14:58:13Z</time></trkpt><trkpt lat="45.56962653379918" lon="9.481041548885194"><ele>152.5</ele><time>2026-05-04T14:58:14Z</time></trkpt><trkpt lat="45.569734744118506" lon="9.481120919486573"><ele>152.25</ele><time>2026-05-04T14:58:15Z</time></trkpt><trkpt lat="45.56982707154916" lon="9.481186721379597"><ele>152.0</ele><time>2026-05-04T14:58:16Z</time></trkpt><trkpt lat="45.5699169154803" lon="9.481250622291611"><ele>152.0</ele><time>2026-05-04T14:58:17Z</time></trkpt><trkpt lat="45.56999506491674" lon="9.481313184350347"><ele>152.0</ele><time>2026-05-04T14:58:18Z</time></trkpt><trkpt lat="45.570070704405275" lon="9.481372541776526"><ele>152.0</ele><time>2026-05-04T14:58:19Z</time></trkpt><trkpt lat="45.57013818192863" lon="9.48143371069602"><ele>152.0</ele><time>2026-05-04T14:58:20Z</time></trkpt><trkpt lat="45.57019146850131" lon="9.481498986357984"><ele>152.0</ele><time>2026-05-04T14:58:21Z</time></trkpt><trkpt lat="45.57024621053507" lon="9.481555594964291"><ele>152.0</ele><time>2026-05-04T14:58:22Z</time></trkpt><trkpt lat="45.570299357395626" lon="9.481611163535105"><ele>152.0</ele><time>2026-05-04T14:58:23Z</time></trkpt><trkpt lat="45.570352928794584" lon="9.48167337458775"><ele>152.0</ele><time>2026-05-04T14:58:24Z</time></trkpt><trkpt lat="45.570411286787184" lon="9.481746232844115"><ele>152.0</ele><time>2026-05-04T14:58:25Z</time></trkpt><trkpt lat="45.57046168955122" lon="9.481807453252628"><ele>152.0</ele><time>2026-05-04T14:58:26Z</time></trkpt><trkpt lat="45.57051367493791" lon="9.481864872037681"><ele>152.0</ele><time>2026-05-04T14:58:27Z</time></trkpt><trkpt lat="45.57060456020923" lon="9.481970315989582"><ele>152.0</ele><time>2026-05-04T14:58:29Z</time></trkpt><trkpt lat="45.57068747432326" lon="9.482063923584114"><ele>152.5</ele><time>2026-05-04T14:58:31Z</time></trkpt><trkpt lat="45.57078118210735" lon="9.482157860787076"><ele>153.0</ele><time>2026-05-04T14:58:33Z</time></trkpt><trkpt lat="45.57083362019117" lon="9.482221927244673"><ele>153.5</ele><time>2026-05-04T14:58:34Z</time></trkpt><trkpt lat="45.570888648555055" lon="9.482287876771643"><ele>154.0</ele><time>2026-05-04T14:58:35Z</time></trkpt><trkpt lat="45.57094502793001" lon="9.48234345008229"><ele>154.5</ele><time>2026-05-04T14:58:36Z</time></trkpt><trkpt lat="45.57100350952203" lon="9.4824105621732"><ele>155.0</ele><time>2026-05-04T14:58:37Z</time></trkpt><trkpt lat="45.57106017523701" lon="9.48247155150425"><ele>155.0</ele><time>2026-05-04T14:58:38Z</time></trkpt><trkpt lat="45.57111430811956" lon="9.482522720497025"><ele>155.0</ele><time>2026-05-04T14:58:39Z</time></trkpt><trkpt lat="45.571210792151376" lon="9.482620552648463"><ele>155.0</ele><time>2026-05-04T14:58:41Z</time></trkpt><trkpt lat="45.571294567582825" lon="9.482692442763122"><ele>155.0</ele><time>2026-05-04T14:58:43Z</time></trkpt><trkpt lat="45.571363648563434" lon="9.482780608922091"><ele>155.0</ele><time>2026-05-04T14:58:46Z</time></trkpt><trkpt lat="45.57147208198912" lon="9.482863712769355"><ele>155.0</ele><time>2026-05-04T14:58:48Z</time></trkpt><trkpt lat="45.57154106190108" lon="9.482921856647184"><ele>155.0</ele><time>2026-05-04T14:58:49Z</time></trkpt><trkpt lat="45.57161916409068" lon="9.482989418747241"><ele>155.0</ele><time>2026-05-04T14:58:50Z</time></trkpt><trkpt lat="45.57169722255366" lon="9.483037006993195"><ele>155.0</ele><time>2026-05-04T14:58:51Z</time></trkpt><trkpt lat="45.57175230758237" lon="9.483094685310519"><ele>155.0</ele><time>2026-05-04T14:58:52Z</time></trkpt><trkpt lat="45.57184018429198" lon="9.48314547060781"><ele>155.0</ele><time>2026-05-04T14:58:54Z</time></trkpt><trkpt lat="45.57189864725263" lon="9.483209655580309"><ele>155.0</ele><time>2026-05-04T14:58:55Z</time></trkpt><trkpt lat="45.57196254585326" lon="9.483295306853407"><ele>155.0</ele><time>2026-05-04T14:58:56Z</time></trkpt><trkpt lat="45.572032378950105" lon="9.483396339790723"><ele>155.0</ele><time>2026-05-04T14:58:57Z</time></trkpt><trkpt lat="45.57210561864915" lon="9.483508473792826"><ele>155.0</ele><time>2026-05-04T14:58:58Z</time></trkpt><trkpt lat="45.572182934197535" lon="9.483631917064661"><ele>155.0</ele><time>2026-05-04T14:58:59Z</time></trkpt><trkpt lat="45.5722499753262" lon="9.483747311597858"><ele>155.4</ele><time>2026-05-04T14:59:00Z</time></trkpt><trkpt lat="45.572309164357314" lon="9.483854946018988"><ele>155.8</ele><time>2026-05-04T14:59:01Z</time></trkpt><trkpt lat="45.57235984306559" lon="9.483985697254807"><ele>156.2</ele><time>2026-05-04T14:59:02Z</time></trkpt><trkpt lat="45.572420549480555" lon="9.48411795523028"><ele>156.6</ele><time>2026-05-04T14:59:03Z</time></trkpt><trkpt lat="45.572460837377506" lon="9.48421592701222"><ele>157.0</ele><time>2026-05-04T14:59:04Z</time></trkpt><trkpt lat="45.572508556653695" lon="9.484314442547442"><ele>157.0</ele><time>2026-05-04T14:59:05Z</time></trkpt><trkpt lat="45.57257591912148" lon="9.484410500496375"><ele>157.0</ele><time>2026-05-04T14:59:06Z</time></trkpt><trkpt lat="45.57265261918715" lon="9.484508673144388"><ele>157.0</ele><time>2026-05-04T14:59:07Z</time></trkpt><trkpt lat="45.572734507332605" lon="9.484615804186344"><ele>157.0</ele><time>2026-05-04T14:59:08Z</time></trkpt><trkpt lat="45.57282043238524" lon="9.484696260533525"><ele>157.0</ele><time>2026-05-04T14:59:09Z</time></trkpt><trkpt lat="45.57291416679572" lon="9.484769807478134"><ele>157.2</ele><time>2026-05-04T14:59:10Z</time></trkpt><trkpt lat="45.57299092504847" lon="9.484849616584631"><ele>157.39999999999998</ele><time>2026-05-04T14:59:11Z</time></trkpt><trkpt lat="45.57305798363131" lon="9.484911703458689"><ele>157.60000000000002</ele><time>2026-05-04T14:59:12Z</time></trkpt><trkpt lat="45.57311693136663" lon="9.484973275624327"><ele>157.8</ele><time>2026-05-04T14:59:13Z</time></trkpt><trkpt lat="45.573200802569325" lon="9.485056901535529"><ele>158.0</ele><time>2026-05-04T14:59:14Z</time></trkpt><trkpt lat="45.57329336272652" lon="9.485154796634069"><ele>158.0</ele><time>2026-05-04T14:59:15Z</time></trkpt><trkpt lat="45.57337101057905" lon="9.485230607957236"><ele>158.0</ele><time>2026-05-04T14:59:16Z</time></trkpt><trkpt lat="45.57344914457117" lon="9.485307346224227"><ele>158.0</ele><time>2026-05-04T14:59:17Z</time></trkpt><trkpt lat="45.57354462716978" lon="9.485395388749549"><ele>158.0</ele><time>2026-05-04T14:59:18Z</time></trkpt><trkpt lat="45.57363864362781" lon="9.485495489848017"><ele>158.0</ele><time>2026-05-04T14:59:19Z</time></trkpt><trkpt lat="45.57373909076628" lon="9.48561563617555"><ele>158.5</ele><time>2026-05-04T14:59:20Z</time></trkpt><trkpt lat="45.57381927644762" lon="9.485740301875023"><ele>159.0</ele><time>2026-05-04T14:59:21Z</time></trkpt><trkpt lat="45.573891912217434" lon="9.485865705382505"><ele>159.5</ele><time>2026-05-04T14:59:22Z</time></trkpt><trkpt lat="45.57397350487902" lon="9.486004093883066"><ele>160.0</ele><time>2026-05-04T14:59:23Z</time></trkpt><trkpt lat="45.57406499335073" lon="9.486170657573826"><ele>160.25</ele><time>2026-05-04T14:59:24Z</time></trkpt><trkpt lat="45.57415795724419" lon="9.48633835261581"><ele>160.5</ele><time>2026-05-04T14:59:25Z</time></trkpt><trkpt lat="45.57423147447647" lon="9.48647930000595"><ele>160.75</ele><time>2026-05-04T14:59:26Z</time></trkpt><trkpt lat="45.574296108817215" lon="9.486610858002564"><ele>161.0</ele><time>2026-05-04T14:59:27Z</time></trkpt><trkpt lat="45.574364115184544" lon="9.486757991926257"><ele>161.0</ele><time>2026-05-04T14:59:28Z</time></trkpt><trkpt lat="45.57441919684905" lon="9.486901420380512"><ele>161.0</ele><time>2026-05-04T14:59:29Z</time></trkpt><trkpt lat="45.57444347266653" lon="9.487035272870848"><ele>161.0</ele><time>2026-05-04T14:59:30Z</time></trkpt><trkpt lat="45.574501333135885" lon="9.48713396621932"><ele>161.0</ele><time>2026-05-04T14:59:31Z</time></trkpt><trkpt lat="45.57458494749569" lon="9.487272337853295"><ele>161.0</ele><time>2026-05-04T14:59:32Z</time></trkpt><trkpt lat="45.574687031547874" lon="9.48744094047833"><ele>161.0</ele><time>2026-05-04T14:59:33Z</time></trkpt><trkpt lat="45.574786171287236" lon="9.48761215747128"><ele>161.0</ele><time>2026-05-04T14:59:34Z</time></trkpt><trkpt lat="45.57486785369835" lon="9.487756976046255"><ele>161.0</ele><time>2026-05-04T14:59:35Z</time></trkpt><trkpt lat="45.57494164725737" lon="9.487873648529991"><ele>161.0</ele><time>2026-05-04T14:59:36Z</time></trkpt><trkpt lat="45.57502863963018" lon="9.488000597240674"><ele>161.0</ele><time>2026-05-04T14:59:37Z</time></trkpt><trkpt lat="45.57513082623582" lon="9.488133994548413"><ele>161.0</ele><time>2026-05-04T14:59:38Z</time></trkpt><trkpt lat="45.57522428523816" lon="9.488285917457556"><ele>161.0</ele><time>2026-05-04T14:59:39Z</time></trkpt><trkpt lat="45.57531353302737" lon="9.488432825555886"><ele>161.0</ele><time>2026-05-04T14:59:40Z</time></trkpt><trkpt lat="45.57541098094013" lon="9.488587641133813"><ele>161.25</ele><time>2026-05-04T14:59:41Z</time></trkpt><trkpt lat="45.575522403753" lon="9.488761125925459"><ele>161.5</ele><time>2026-05-04T14:59:42Z</time></trkpt><trkpt lat="45.575618221050064" lon="9.488916209569014"><ele>161.75</ele><time>2026-05-04T14:59:43Z</time></trkpt><trkpt lat="45.575694734565175" lon="9.489034673346618"><ele>162.0</ele><time>2026-05-04T14:59:44Z</time></trkpt><trkpt lat="45.575756848547556" lon="9.489136856523524"><ele>162.0</ele><time>2026-05-04T14:59:45Z</time></trkpt><trkpt lat="45.57584150283088" lon="9.489215550547044"><ele>162.0</ele><time>2026-05-04T14:59:46Z</time></trkpt><trkpt lat="45.575941150260434" lon="9.489365814611633"><ele>162.0</ele><time>2026-05-04T14:59:47Z</time></trkpt><trkpt lat="45.57599361836539" lon="9.489556457170135"><ele>162.0</ele><time>2026-05-04T14:59:48Z</time></trkpt><trkpt lat="45.5760745849658" lon="9.489725647055693"><ele>161.75</ele><time>2026-05-04T14:59:49Z</time></trkpt><trkpt lat="45.57619469355212" lon="9.489891703235235"><ele>161.5</ele><time>2026-05-04T14:59:50Z</time></trkpt><trkpt lat="45.57629484581138" lon="9.490020475669319"><ele>161.25</ele><time>2026-05-04T14:59:51Z</time></trkpt><trkpt lat="45.57637868826398" lon="9.490145284566603"><ele>161.0</ele><time>2026-05-04T14:59:52Z</time></trkpt><trkpt lat="45.576450100513696" lon="9.49026399243095"><ele>161.0</ele><time>2026-05-04T14:59:53Z</time></trkpt><trkpt lat="45.57652673297435" lon="9.4903780200644"><ele>161.0</ele><time>2026-05-04T14:59:54Z</time></trkpt><trkpt lat="45.57661138340295" lon="9.490500890498959"><ele>161.0</ele><time>2026-05-04T14:59:55Z</time></trkpt><trkpt lat="45.57670496385049" lon="9.490628839960255"><ele>161.0</ele><time>2026-05-04T14:59:56Z</time></trkpt><trkpt lat="45.576789031934304" lon="9.490750165593004"><ele>160.5</ele><time>2026-05-04T14:59:57Z</time></trkpt><trkpt lat="45.5768525538126" lon="9.490854692580223"><ele>160.0</ele><time>2026-05-04T14:59:58Z</time></trkpt><trkpt lat="45.576920683697956" lon="9.49096739273848"><ele>159.5</ele><time>2026-05-04T14:59:59Z</time></trkpt><trkpt lat="45.57700107711971" lon="9.491105011505292"><ele>159.0</ele><time>2026-05-04T15:00:00Z</time></trkpt><trkpt lat="45.5770884108991" lon="9.491263513757692"><ele>160.2</ele><time>2026-05-04T15:00:01Z</time></trkpt><trkpt lat="45.57715892418542" lon="9.491401633201114"><ele>161.4</ele><time>2026-05-04T15:00:02Z</time></trkpt><trkpt lat="45.57721964813023" lon="9.491525017122118"><ele>162.6</ele><time>2026-05-04T15:00:03Z</time></trkpt><trkpt lat="45.57728542218164" lon="9.491638088173923"><ele>163.8</ele><time>2026-05-04T15:00:04Z</time></trkpt><trkpt lat="45.57733451851928" lon="9.491755403929565"><ele>165.0</ele><time>2026-05-04T15:00:06Z</time></trkpt><trkpt lat="45.57738407213457" lon="9.491834646693516"><ele>165.0</ele><time>2026-05-04T15:00:10Z</time></trkpt><trkpt lat="45.5774372082909" lon="9.491891754950416"><ele>165.0</ele><time>2026-05-04T15:00:11Z</time></trkpt><trkpt lat="45.57750884494006" lon="9.492016415019068"><ele>165.0</ele><time>2026-05-04T15:00:12Z</time></trkpt><trkpt lat="45.57761134671305" lon="9.492145409106557"><ele>165.0</ele><time>2026-05-04T15:00:13Z</time></trkpt><trkpt lat="45.57771620056024" lon="9.492271774921866"><ele>164.8</ele><time>2026-05-04T15:00:14Z</time></trkpt><trkpt lat="45.57780421502813" lon="9.49236635330311"><ele>164.6</ele><time>2026-05-04T15:00:15Z</time></trkpt><trkpt lat="45.57786816225612" lon="9.492434416287265"><ele>164.39999999999998</ele><time>2026-05-04T15:00:16Z</time></trkpt><trkpt lat="45.57793632369632" lon="9.492501294577737"><ele>164.2</ele><time>2026-05-04T15:00:17Z</time></trkpt><trkpt lat="45.57801434569672" lon="9.49255299412503"><ele>164.0</ele><time>2026-05-04T15:00:18Z</time></trkpt><trkpt lat="45.57810713554197" lon="9.492596542436255"><ele>164.5</ele><time>2026-05-04T15:00:19Z</time></trkpt><trkpt lat="45.57820548983599" lon="9.49263964343222"><ele>165.0</ele><time>2026-05-04T15:00:20Z</time></trkpt><trkpt lat="45.5782842245494" lon="9.49267402670976"><ele>165.5</ele><time>2026-05-04T15:00:21Z</time></trkpt><trkpt lat="45.57834658172281" lon="9.492715968518363"><ele>166.0</ele><time>2026-05-04T15:00:22Z</time></trkpt><trkpt lat="45.5784116838877" lon="9.492735386348901"><ele>166.5</ele><time>2026-05-04T15:00:23Z</time></trkpt><trkpt lat="45.5784943796203" lon="9.492775629194595"><ele>167.0</ele><time>2026-05-04T15:00:24Z</time></trkpt><trkpt lat="45.57857060980251" lon="9.492808933546128"><ele>167.0</ele><time>2026-05-04T15:00:25Z</time></trkpt><trkpt lat="45.57864336156223" lon="9.49285810802671"><ele>167.0</ele><time>2026-05-04T15:00:26Z</time></trkpt><trkpt lat="45.57874681243651" lon="9.492939027050243"><ele>167.0</ele><time>2026-05-04T15:00:28Z</time></trkpt><trkpt lat="45.57882231511538" lon="9.492973692647084"><ele>167.0</ele><time>2026-05-04T15:00:29Z</time></trkpt><trkpt lat="45.57890191054197" lon="9.493052799556295"><ele>167.0</ele><time>2026-05-04T15:00:30Z</time></trkpt><trkpt lat="45.578969597020915" lon="9.493145108162025"><ele>166.66666666666666</ele><time>2026-05-04T15:00:31Z</time></trkpt><trkpt lat="45.57903298766388" lon="9.493213413204412"><ele>166.33333333333331</ele><time>2026-05-04T15:00:32Z</time></trkpt><trkpt lat="45.5791015347683" lon="9.49328198223532"><ele>166.0</ele><time>2026-05-04T15:00:33Z</time></trkpt><trkpt lat="45.57918182962145" lon="9.493344303981115"><ele>165.66666666666666</ele><time>2026-05-04T15:00:34Z</time></trkpt><trkpt lat="45.57923262037011" lon="9.4933980984509"><ele>165.33333333333334</ele><time>2026-05-04T15:00:35Z</time></trkpt><trkpt lat="45.57935193775373" lon="9.493377699932456"><ele>165.0</ele><time>2026-05-04T15:00:36Z</time></trkpt><trkpt lat="45.579439688718914" lon="9.493528445865769"><ele>165.0</ele><time>2026-05-04T15:00:37Z</time></trkpt><trkpt lat="45.5795075198628" lon="9.493636486571047"><ele>165.0</ele><time>2026-05-04T15:00:38Z</time></trkpt><trkpt lat="45.57956997613832" lon="9.493735966262197"><ele>165.0</ele><time>2026-05-04T15:00:39Z</time></trkpt><trkpt lat="45.579643370078585" lon="9.49385533519812"><ele>165.0</ele><time>2026-05-04T15:00:40Z</time></trkpt><trkpt lat="45.57972218214394" lon="9.493984300324913"><ele>165.0</ele><time>2026-05-04T15:00:41Z</time></trkpt><trkpt lat="45.57980394744234" lon="9.494118097064037"><ele>164.5</ele><time>2026-05-04T15:00:42Z</time></trkpt><trkpt lat="45.5798896199166" lon="9.494258287322827"><ele>164.0</ele><time>2026-05-04T15:00:43Z</time></trkpt><trkpt lat="45.579846484646886" lon="9.494509423623999"><ele>163.5</ele><time>2026-05-04T15:00:44Z</time></trkpt><trkpt lat="45.5798964731271" lon="9.494621076506236"><ele>163.0</ele><time>2026-05-04T15:00:45Z</time></trkpt><trkpt lat="45.579950879577595" lon="9.494725882997232"><ele>163.0</ele><time>2026-05-04T15:00:46Z</time></trkpt><trkpt lat="45.580009431488726" lon="9.494820969627419"><ele>163.0</ele><time>2026-05-04T15:00:47Z</time></trkpt><trkpt lat="45.58009419791836" lon="9.494932344038121"><ele>163.0</ele><time>2026-05-04T15:00:48Z</time></trkpt><trkpt lat="45.58019767300404" lon="9.495057679516782"><ele>163.0</ele><time>2026-05-04T15:00:49Z</time></trkpt><trkpt lat="45.58027549321192" lon="9.495154698587903"><ele>163.0</ele><time>2026-05-04T15:00:50Z</time></trkpt><trkpt lat="45.580350666991755" lon="9.495255019304635"><ele>163.4</ele><time>2026-05-04T15:00:51Z</time></trkpt><trkpt lat="45.58041558690584" lon="9.49533572657951"><ele>163.8</ele><time>2026-05-04T15:00:52Z</time></trkpt><trkpt lat="45.58049058189497" lon="9.495443406401089"><ele>164.2</ele><time>2026-05-04T15:00:53Z</time></trkpt><trkpt lat="45.580558068404976" lon="9.495559543431652"><ele>164.6</ele><time>2026-05-04T15:00:54Z</time></trkpt><trkpt lat="45.58063331675767" lon="9.495677776078226"><ele>165.0</ele><time>2026-05-04T15:00:55Z</time></trkpt><trkpt lat="45.58072151908315" lon="9.495789508210516"><ele>165.0</ele><time>2026-05-04T15:00:56Z</time></trkpt><trkpt lat="45.58079508768312" lon="9.495920948187006"><ele>165.0</ele><time>2026-05-04T15:00:57Z</time></trkpt><trkpt lat="45.58086882984486" lon="9.49603607054572"><ele>165.0</ele><time>2026-05-04T15:00:58Z</time></trkpt><trkpt lat="45.580946525324" lon="9.496169371507419"><ele>165.0</ele><time>2026-05-04T15:00:59Z</time></trkpt><trkpt lat="45.58102626818149" lon="9.496318792752579"><ele>165.0</ele><time>2026-05-04T15:01:00Z</time></trkpt><trkpt lat="45.5811036078726" lon="9.496449952247383"><ele>165.0</ele><time>2026-05-04T15:01:01Z</time></trkpt><trkpt lat="45.58117790746141" lon="9.496565960295298"><ele>165.0</ele><time>2026-05-04T15:01:02Z</time></trkpt><trkpt lat="45.58124967393718" lon="9.496683700810019"><ele>165.0</ele><time>2026-05-04T15:01:03Z</time></trkpt><trkpt lat="45.58132099613632" lon="9.496803733528527"><ele>164.8</ele><time>2026-05-04T15:01:04Z</time></trkpt><trkpt lat="45.58137907585837" lon="9.496924370761624"><ele>164.6</ele><time>2026-05-04T15:01:05Z</time></trkpt><trkpt lat="45.581433274423226" lon="9.497028956461753"><ele>164.39999999999998</ele><time>2026-05-04T15:01:06Z</time></trkpt><trkpt lat="45.58147826651154" lon="9.497152392588708"><ele>164.2</ele><time>2026-05-04T15:01:07Z</time></trkpt><trkpt lat="45.5815189271536" lon="9.497269444061653"><ele>164.0</ele><time>2026-05-04T15:01:08Z</time></trkpt><trkpt lat="45.581563122216906" lon="9.497383799336788"><ele>164.5</ele><time>2026-05-04T15:01:09Z</time></trkpt><trkpt lat="45.58162785737792" lon="9.49751389566624"><ele>165.0</ele><time>2026-05-04T15:01:10Z</time></trkpt><trkpt lat="45.581674911456865" lon="9.497644795511825"><ele>165.5</ele><time>2026-05-04T15:01:11Z</time></trkpt><trkpt lat="45.58175721604564" lon="9.497865023030862"><ele>166.0</ele><time>2026-05-04T15:01:12Z</time></trkpt><trkpt lat="45.58183540410703" lon="9.498050322275732"><ele>166.5</ele><time>2026-05-04T15:01:13Z</time></trkpt><trkpt lat="45.58191379683484" lon="9.498222215754486"><ele>167.0</ele><time>2026-05-04T15:01:14Z</time></trkpt><trkpt lat="45.58199797373411" lon="9.498393206070537"><ele>167.5</ele><time>2026-05-04T15:01:15Z</time></trkpt><trkpt lat="45.5820889908548" lon="9.498536240365452"><ele>168.0</ele><time>2026-05-04T15:01:16Z</time></trkpt><trkpt lat="45.582174954020125" lon="9.498662149268519"><ele>167.8</ele><time>2026-05-04T15:01:17Z</time></trkpt><trkpt lat="45.582250701227366" lon="9.49876222629457"><ele>167.60000000000002</ele><time>2026-05-04T15:01:18Z</time></trkpt><trkpt lat="45.58233202930569" lon="9.498850694764553"><ele>167.39999999999998</ele><time>2026-05-04T15:01:19Z</time></trkpt><trkpt lat="45.5824251079152" lon="9.498924156783687"><ele>167.2</ele><time>2026-05-04T15:01:20Z</time></trkpt><trkpt lat="45.58250737292443" lon="9.499007872886772"><ele>167.0</ele><time>2026-05-04T15:01:21Z</time></trkpt><trkpt lat="45.58258408229223" lon="9.499076858670298"><ele>167.0</ele><time>2026-05-04T15:01:22Z</time></trkpt><trkpt lat="45.58263184915268" lon="9.499171550554394"><ele>167.0</ele><time>2026-05-04T15:01:24Z</time></trkpt><trkpt lat="45.58275589680483" lon="9.49882876315958"><ele>167.0</ele><time>2026-05-04T15:01:28Z</time></trkpt><trkpt lat="45.582809325272414" lon="9.498634154922746"><ele>167.0</ele><time>2026-05-04T15:01:29Z</time></trkpt><trkpt lat="45.58285781669412" lon="9.498464892947473"><ele>167.0</ele><time>2026-05-04T15:01:30Z</time></trkpt><trkpt lat="45.58294673830997" lon="9.498205562638637"><ele>167.0</ele><time>2026-05-04T15:01:31Z</time></trkpt><trkpt lat="45.58300746715279" lon="9.498016639703394"><ele>166.66666666666666</ele><time>2026-05-04T15:01:32Z</time></trkpt><trkpt lat="45.583065981536876" lon="9.497817483837084"><ele>166.33333333333334</ele><time>2026-05-04T15:01:33Z</time></trkpt><trkpt lat="45.58313009591135" lon="9.497608684025035"><ele>166.0</ele><time>2026-05-04T15:01:34Z</time></trkpt><trkpt lat="45.583196491088906" lon="9.497407497120747"><ele>166.0</ele><time>2026-05-04T15:01:35Z</time></trkpt><trkpt lat="45.583267892907415" lon="9.49719182529943"><ele>166.0</ele><time>2026-05-04T15:01:36Z</time></trkpt><trkpt lat="45.58331234233531" lon="9.497016897045098"><ele>166.0</ele><time>2026-05-04T15:01:37Z</time></trkpt><trkpt lat="45.583346696633654" lon="9.496867528141179"><ele>166.0</ele><time>2026-05-04T15:01:38Z</time></trkpt><trkpt lat="45.583407425079585" lon="9.496692120349097"><ele>165.75</ele><time>2026-05-04T15:01:39Z</time></trkpt><trkpt lat="45.58347354968924" lon="9.496485084707144"><ele>165.5</ele><time>2026-05-04T15:01:40Z</time></trkpt><trkpt lat="45.58352539909247" lon="9.496312528866726"><ele>165.25</ele><time>2026-05-04T15:01:41Z</time></trkpt><trkpt lat="45.58357411488707" lon="9.496157718031688"><ele>165.0</ele><time>2026-05-04T15:01:42Z</time></trkpt><trkpt lat="45.583614362543486" lon="9.496021486554861"><ele>165.0</ele><time>2026-05-04T15:01:43Z</time></trkpt><trkpt lat="45.583651527586724" lon="9.495879842749519"><ele>165.0</ele><time>2026-05-04T15:01:44Z</time></trkpt><trkpt lat="45.583691789075424" lon="9.495737887601909"><ele>165.0</ele><time>2026-05-04T15:01:45Z</time></trkpt><trkpt lat="45.583724658017154" lon="9.495597160705278"><ele>165.0</ele><time>2026-05-04T15:01:46Z</time></trkpt><trkpt lat="45.58374811067735" lon="9.495473419277635"><ele>165.0</ele><time>2026-05-04T15:01:47Z</time></trkpt><trkpt lat="45.58377639019889" lon="9.49534518732977"><ele>165.4</ele><time>2026-05-04T15:01:48Z</time></trkpt><trkpt lat="45.583806629021154" lon="9.495212714335926"><ele>165.8</ele><time>2026-05-04T15:01:49Z</time></trkpt><trkpt lat="45.58383569855997" lon="9.495092103423683"><ele>166.2</ele><time>2026-05-04T15:01:50Z</time></trkpt><trkpt lat="45.583858469705014" lon="9.494975931513485"><ele>166.6</ele><time>2026-05-04T15:01:51Z</time></trkpt><trkpt lat="45.58388943129102" lon="9.494820557781212"><ele>167.0</ele><time>2026-05-04T15:01:53Z</time></trkpt><trkpt lat="45.583918725552614" lon="9.494706920406625"><ele>167.0</ele><time>2026-05-04T15:01:55Z</time></trkpt><trkpt lat="45.58394336519745" lon="9.494602656279596"><ele>167.0</ele><time>2026-05-04T15:01:57Z</time></trkpt><trkpt lat="45.583972900593416" lon="9.494485825191648"><ele>167.0</ele><time>2026-05-04T15:02:00Z</time></trkpt><trkpt lat="45.58400204505075" lon="9.494379564325659"><ele>167.0</ele><time>2026-05-04T15:02:03Z</time></trkpt><trkpt lat="45.584015669803165" lon="9.494228015699287"><ele>167.0</ele><time>2026-05-04T15:02:05Z</time></trkpt><trkpt lat="45.58404879695177" lon="9.494146012361183"><ele>167.0</ele><time>2026-05-04T15:02:06Z</time></trkpt><trkpt lat="45.5840796613147" lon="9.494018711441576"><ele>167.0</ele><time>2026-05-04T15:02:07Z</time></trkpt><trkpt lat="45.58411743490406" lon="9.493887253241724"><ele>167.0</ele><time>2026-05-04T15:02:08Z</time></trkpt><trkpt lat="45.58416867208311" lon="9.493746102994029"><ele>167.0</ele><time>2026-05-04T15:02:09Z</time></trkpt><trkpt lat="45.58420134024522" lon="9.49363236116775"><ele>167.0</ele><time>2026-05-04T15:02:10Z</time></trkpt><trkpt lat="45.5842244928076" lon="9.493535130049294"><ele>167.0</ele><time>2026-05-04T15:02:11Z</time></trkpt><trkpt lat="45.58427270621976" lon="9.493387750772325"><ele>167.0</ele><time>2026-05-04T15:02:13Z</time></trkpt><trkpt lat="45.584300787316074" lon="9.493295580162965"><ele>167.0</ele><time>2026-05-04T15:02:14Z</time></trkpt><trkpt lat="45.5843406643779" lon="9.493164055504524"><ele>167.0</ele><time>2026-05-04T15:02:15Z</time></trkpt><trkpt lat="45.58437248855844" lon="9.493059709179024"><ele>167.0</ele><time>2026-05-04T15:02:16Z</time></trkpt><trkpt lat="45.584411867967994" lon="9.492937477661831"><ele>167.0</ele><time>2026-05-04T15:02:18Z</time></trkpt><trkpt lat="45.58443651970248" lon="9.492836904577372"><ele>167.0</ele><time>2026-05-04T15:02:19Z</time></trkpt><trkpt lat="45.584462460016574" lon="9.4927112215966"><ele>167.5</ele><time>2026-05-04T15:02:20Z</time></trkpt><trkpt lat="45.58448971680069" lon="9.492586125329044"><ele>168.0</ele><time>2026-05-04T15:02:21Z</time></trkpt><trkpt lat="45.5845433882972" lon="9.492423097418826"><ele>168.5</ele><time>2026-05-04T15:02:23Z</time></trkpt><trkpt lat="45.58458257053008" lon="9.492313529453174"><ele>169.0</ele><time>2026-05-04T15:02:25Z</time></trkpt><trkpt lat="45.58464543266412" lon="9.49227150839622"><ele>169.5</ele><time>2026-05-04T15:02:29Z</time></trkpt><trkpt lat="45.5847003412889" lon="9.492326611203005"><ele>170.0</ele><time>2026-05-04T15:02:30Z</time></trkpt><trkpt lat="45.58475341697619" lon="9.492442701121897"><ele>170.0</ele><time>2026-05-04T15:02:31Z</time></trkpt><trkpt lat="45.5848112483718" lon="9.492521665985556"><ele>170.0</ele><time>2026-05-04T15:02:32Z</time></trkpt><trkpt lat="45.58489553332423" lon="9.49261117115141"><ele>170.0</ele><time>2026-05-04T15:02:34Z</time></trkpt><trkpt lat="45.58495091107843" lon="9.492682807812196"><ele>170.0</ele><time>2026-05-04T15:02:35Z</time></trkpt><trkpt lat="45.585018336892496" lon="9.492758209127524"><ele>170.0</ele><time>2026-05-04T15:02:36Z</time></trkpt><trkpt lat="45.585071815998454" lon="9.492838268684153"><ele>170.0</ele><time>2026-05-04T15:02:37Z</time></trkpt><trkpt lat="45.58511910961429" lon="9.49290805645231"><ele>170.0</ele><time>2026-05-04T15:02:38Z</time></trkpt><trkpt lat="45.58518244417856" lon="9.49292518572306"><ele>170.0</ele><time>2026-05-04T15:02:39Z</time></trkpt><trkpt lat="45.58525207718297" lon="9.492872975494976"><ele>170.0</ele><time>2026-05-04T15:02:40Z</time></trkpt><trkpt lat="45.58530647310687" lon="9.492766851727549"><ele>170.0</ele><time>2026-05-04T15:02:41Z</time></trkpt><trkpt lat="45.585366605425484" lon="9.492623897324695"><ele>170.0</ele><time>2026-05-04T15:02:42Z</time></trkpt><trkpt lat="45.58542300817719" lon="9.492489972596047"><ele>170.0</ele><time>2026-05-04T15:02:43Z</time></trkpt><trkpt lat="45.585472322653196" lon="9.492366102334655"><ele>170.0</ele><time>2026-05-04T15:02:44Z</time></trkpt><trkpt lat="45.58552047666733" lon="9.49224558355192"><ele>170.0</ele><time>2026-05-04T15:02:45Z</time></trkpt><trkpt lat="45.58556279701448" lon="9.49213255497364"><ele>170.0</ele><time>2026-05-04T15:02:46Z</time></trkpt><trkpt lat="45.58561297435898" lon="9.492019100556275"><ele>170.0</ele><time>2026-05-04T15:02:47Z</time></trkpt><trkpt lat="45.58566255873847" lon="9.491909308069184"><ele>170.0</ele><time>2026-05-04T15:02:48Z</time></trkpt><trkpt lat="45.585724796344195" lon="9.491781727035134"><ele>170.0</ele><time>2026-05-04T15:02:49Z</time></trkpt><trkpt lat="45.58577909106702" lon="9.491640190561446"><ele>170.0</ele><time>2026-05-04T15:02:50Z</time></trkpt><trkpt lat="45.58584468540634" lon="9.491514706304425"><ele>170.0</ele><time>2026-05-04T15:02:51Z</time></trkpt><trkpt lat="45.58588195870418" lon="9.49141040022267"><ele>170.0</ele><time>2026-05-04T15:02:52Z</time></trkpt><trkpt lat="45.585915757373364" lon="9.491315213582986"><ele>170.8</ele><time>2026-05-04T15:02:53Z</time></trkpt><trkpt lat="45.58596165855007" lon="9.49117140831985"><ele>171.6</ele><time>2026-05-04T15:02:59Z</time></trkpt><trkpt lat="45.58600828385942" lon="9.491091341317277"><ele>172.39999999999998</ele><time>2026-05-04T15:03:00Z</time></trkpt><trkpt lat="45.586155057185444" lon="9.491107160237265"><ele>173.2</ele><time>2026-05-04T15:03:02Z</time></trkpt><trkpt lat="45.586231083564414" lon="9.491187677218651"><ele>174.0</ele><time>2026-05-04T15:03:03Z</time></trkpt><trkpt lat="45.586315554945884" lon="9.49125119349284"><ele>173.5</ele><time>2026-05-04T15:03:04Z</time></trkpt><trkpt lat="45.58642192407165" lon="9.491312903340758"><ele>173.0</ele><time>2026-05-04T15:03:05Z</time></trkpt><trkpt lat="45.58652568557829" lon="9.491383873746718"><ele>172.5</ele><time>2026-05-04T15:03:06Z</time></trkpt><trkpt lat="45.586632693734344" lon="9.491447313904576"><ele>172.0</ele><time>2026-05-04T15:03:07Z</time></trkpt><trkpt lat="45.58673484419272" lon="9.491516232246262"><ele>172.0</ele><time>2026-05-04T15:03:08Z</time></trkpt><trkpt lat="45.58681552364172" lon="9.491580399766073"><ele>172.0</ele><time>2026-05-04T15:03:09Z</time></trkpt><trkpt lat="45.586888490977834" lon="9.491620020778885"><ele>172.0</ele><time>2026-05-04T15:03:10Z</time></trkpt><trkpt lat="45.58694682982771" lon="9.491662163047007"><ele>172.0</ele><time>2026-05-04T15:03:11Z</time></trkpt><trkpt lat="45.58702788060099" lon="9.491725172904887"><ele>172.0</ele><time>2026-05-04T15:03:13Z</time></trkpt><trkpt lat="45.5871535183903" lon="9.49187077457124"><ele>172.39999999999998</ele><time>2026-05-04T15:03:15Z</time></trkpt><trkpt lat="45.58722706939031" lon="9.491937736432977"><ele>172.79999999999998</ele><time>2026-05-04T15:03:16Z</time></trkpt><trkpt lat="45.587332001052566" lon="9.49195641216313"><ele>173.2</ele><time>2026-05-04T15:03:17Z</time></trkpt><trkpt lat="45.58745459520699" lon="9.49194352706886"><ele>173.6</ele><time>2026-05-04T15:03:18Z</time></trkpt><trkpt lat="45.58758411418865" lon="9.491969991257639"><ele>174.0</ele><time>2026-05-04T15:03:19Z</time></trkpt><trkpt lat="45.58771895086252" lon="9.49199338179376"><ele>174.66666666666666</ele><time>2026-05-04T15:03:20Z</time></trkpt><trkpt lat="45.58783207694522" lon="9.492170243895176"><ele>175.33333333333331</ele><time>2026-05-04T15:03:21Z</time></trkpt><trkpt lat="45.58796606206888" lon="9.49228670986722"><ele>176.0</ele><time>2026-05-04T15:03:22Z</time></trkpt><trkpt lat="45.58812688144714" lon="9.492387562078553"><ele>176.0</ele><time>2026-05-04T15:03:23Z</time></trkpt><trkpt lat="45.588285575182475" lon="9.492487357182753"><ele>176.0</ele><time>2026-05-04T15:03:24Z</time></trkpt><trkpt lat="45.58843712152228" lon="9.492581387162472"><ele>176.0</ele><time>2026-05-04T15:03:25Z</time></trkpt><trkpt lat="45.58857217962214" lon="9.492667324892718"><ele>176.4</ele><time>2026-05-04T15:03:26Z</time></trkpt><trkpt lat="45.58868586021736" lon="9.492746514201162"><ele>176.8</ele><time>2026-05-04T15:03:27Z</time></trkpt><trkpt lat="45.58879055264454" lon="9.49282759090929"><ele>177.20000000000002</ele><time>2026-05-04T15:03:28Z</time></trkpt><trkpt lat="45.58888900504724" lon="9.492882831570732"><ele>177.60000000000002</ele><time>2026-05-04T15:03:29Z</time></trkpt><trkpt lat="45.588958919327794" lon="9.49291421984127"><ele>178.0</ele><time>2026-05-04T15:03:30Z</time></trkpt><trkpt lat="45.58902470520294" lon="9.492958060734166"><ele>178.25</ele><time>2026-05-04T15:03:33Z</time></trkpt><trkpt lat="45.589135732098875" lon="9.4930261584618"><ele>178.5</ele><time>2026-05-04T15:03:35Z</time></trkpt><trkpt lat="45.58923258368765" lon="9.493086491130068"><ele>178.75</ele><time>2026-05-04T15:03:36Z</time></trkpt><trkpt lat="45.589351515567095" lon="9.493159990172352"><ele>179.0</ele><time>2026-05-04T15:03:37Z</time></trkpt><trkpt lat="45.58948776890203" lon="9.493252817330916"><ele>179.0</ele><time>2026-05-04T15:03:38Z</time></trkpt><trkpt lat="45.58963204067787" lon="9.493364427574146"><ele>179.0</ele><time>2026-05-04T15:03:39Z</time></trkpt><trkpt lat="45.58976764429628" lon="9.493444046441507"><ele>179.0</ele><time>2026-05-04T15:03:40Z</time></trkpt><trkpt lat="45.58987844886254" lon="9.4935146448329"><ele>179.0</ele><time>2026-05-04T15:03:41Z</time></trkpt><trkpt lat="45.5899849629114" lon="9.493584456104177"><ele>179.0</ele><time>2026-05-04T15:03:42Z</time></trkpt><trkpt lat="45.59006374968254" lon="9.493642908222684"><ele>179.0</ele><time>2026-05-04T15:03:43Z</time></trkpt><trkpt lat="45.590127703090836" lon="9.493685295196816"><ele>179.0</ele><time>2026-05-04T15:03:44Z</time></trkpt><trkpt lat="45.590209761621665" lon="9.493789767427543"><ele>179.0</ele><time>2026-05-04T15:03:46Z</time></trkpt><trkpt lat="45.590274117028535" lon="9.493838883184479"><ele>179.0</ele><time>2026-05-04T15:03:49Z</time></trkpt><trkpt lat="45.590374249480966" lon="9.493892276157126"><ele>179.0</ele><time>2026-05-04T15:04:15Z</time></trkpt><trkpt lat="45.59044559846" lon="9.493941887157186"><ele>178.79999999999998</ele><time>2026-05-04T15:04:17Z</time></trkpt><trkpt lat="45.59040250727393" lon="9.494138744610641"><ele>178.6</ele><time>2026-05-04T15:04:18Z</time></trkpt><trkpt lat="45.590371353886624" lon="9.494259581453791"><ele>178.4</ele><time>2026-05-04T15:04:19Z</time></trkpt><trkpt lat="45.590326939041304" lon="9.494383898840027"><ele>178.2</ele><time>2026-05-04T15:04:20Z</time></trkpt><trkpt lat="45.59028312548733" lon="9.494530908053724"><ele>178.0</ele><time>2026-05-04T15:04:21Z</time></trkpt><trkpt lat="45.59023403578247" lon="9.494694795601665"><ele>178.0</ele><time>2026-05-04T15:04:22Z</time></trkpt><trkpt lat="45.59016324207263" lon="9.49486536227725"><ele>178.0</ele><time>2026-05-04T15:04:23Z</time></trkpt><trkpt lat="45.590114809319644" lon="9.495050817493178"><ele>178.0</ele><time>2026-05-04T15:04:24Z</time></trkpt><trkpt lat="45.590028771587306" lon="9.495255430486257"><ele>178.0</ele><time>2026-05-04T15:04:25Z</time></trkpt><trkpt lat="45.58997113439303" lon="9.49546413295313"><ele>177.66666666666669</ele><time>2026-05-04T15:04:26Z</time></trkpt><trkpt lat="45.58990802399684" lon="9.495660871241189"><ele>177.33333333333334</ele><time>2026-05-04T15:04:27Z</time></trkpt><trkpt lat="45.58984365464112" lon="9.495869988296244"><ele>177.0</ele><time>2026-05-04T15:04:28Z</time></trkpt><trkpt lat="45.58977863723539" lon="9.496070752997497"><ele>176.5</ele><time>2026-05-04T15:04:29Z</time></trkpt><trkpt lat="45.58971562409538" lon="9.496264880827589"><ele>176.0</ele><time>2026-05-04T15:04:30Z</time></trkpt><trkpt lat="45.589651825238406" lon="9.49644799226581"><ele>175.5</ele><time>2026-05-04T15:04:31Z</time></trkpt><trkpt lat="45.58959490318878" lon="9.496632974457857"><ele>175.0</ele><time>2026-05-04T15:04:32Z</time></trkpt><trkpt lat="45.589542736080986" lon="9.496797235145486"><ele>174.6</ele><time>2026-05-04T15:04:33Z</time></trkpt><trkpt lat="45.58949204771261" lon="9.49695977618605"><ele>174.2</ele><time>2026-05-04T15:04:34Z</time></trkpt><trkpt lat="45.58944595683526" lon="9.497097928372504"><ele>173.8</ele><time>2026-05-04T15:04:35Z</time></trkpt><trkpt lat="45.589405415357966" lon="9.497219556632713"><ele>173.4</ele><time>2026-05-04T15:04:36Z</time></trkpt><trkpt lat="45.58938591610985" lon="9.497322615009605"><ele>173.0</ele><time>2026-05-04T15:04:37Z</time></trkpt><trkpt lat="45.58931332899815" lon="9.497422075241559"><ele>172.75</ele><time>2026-05-04T15:04:38Z</time></trkpt><trkpt lat="45.589277865873676" lon="9.497559753204287"><ele>172.5</ele><time>2026-05-04T15:04:39Z</time></trkpt><trkpt lat="45.589268519556235" lon="9.49773270128516"><ele>172.25</ele><time>2026-05-04T15:04:40Z</time></trkpt><trkpt lat="45.589237563694866" lon="9.497935033422387"><ele>172.0</ele><time>2026-05-04T15:04:41Z</time></trkpt><trkpt lat="45.58919072377649" lon="9.498129876812875"><ele>172.0</ele><time>2026-05-04T15:04:42Z</time></trkpt><trkpt lat="45.58913586120877" lon="9.4983360811977"><ele>172.0</ele><time>2026-05-04T15:04:43Z</time></trkpt><trkpt lat="45.58908594092487" lon="9.498579303930708"><ele>172.0</ele><time>2026-05-04T15:04:44Z</time></trkpt><trkpt lat="45.589032912802175" lon="9.498813726321654"><ele>172.33333333333334</ele><time>2026-05-04T15:04:45Z</time></trkpt><trkpt lat="45.588980865760846" lon="9.499029889506359"><ele>172.66666666666666</ele><time>2026-05-04T15:04:46Z</time></trkpt><trkpt lat="45.588932488018536" lon="9.499256280655256"><ele>173.0</ele><time>2026-05-04T15:04:47Z</time></trkpt><trkpt lat="45.588880052452" lon="9.499488159214728"><ele>173.66666666666666</ele><time>2026-05-04T15:04:48Z</time></trkpt><trkpt lat="45.58883299153065" lon="9.499722112216864"><ele>174.33333333333334</ele><time>2026-05-04T15:04:49Z</time></trkpt><trkpt lat="45.58878149610068" lon="9.499959666662813"><ele>175.0</ele><time>2026-05-04T15:04:50Z</time></trkpt><trkpt lat="45.58873132138819" lon="9.500198382597848"><ele>174.66666666666669</ele><time>2026-05-04T15:04:51Z</time></trkpt><trkpt lat="45.588682734350314" lon="9.500436959588496"><ele>174.33333333333334</ele><time>2026-05-04T15:04:52Z</time></trkpt><trkpt lat="45.5886297676761" lon="9.50067159778305"><ele>174.0</ele><time>2026-05-04T15:04:53Z</time></trkpt><trkpt lat="45.588579999463924" lon="9.50090879629253"><ele>173.66666666666666</ele><time>2026-05-04T15:04:54Z</time></trkpt><trkpt lat="45.5885247572645" lon="9.501152419322556"><ele>173.33333333333331</ele><time>2026-05-04T15:04:55Z</time></trkpt><trkpt lat="45.58847165838658" lon="9.50138911814664"><ele>173.0</ele><time>2026-05-04T15:04:56Z</time></trkpt><trkpt lat="45.58841380034223" lon="9.501616311256841"><ele>173.0</ele><time>2026-05-04T15:04:57Z</time></trkpt><trkpt lat="45.588363654873284" lon="9.501847583544864"><ele>173.0</ele><time>2026-05-04T15:04:58Z</time></trkpt><trkpt lat="45.5883151512407" lon="9.502071058190403"><ele>173.0</ele><time>2026-05-04T15:04:59Z</time></trkpt><trkpt lat="45.58826503802594" lon="9.502284808950082"><ele>173.0</ele><time>2026-05-04T15:05:00Z</time></trkpt><trkpt lat="45.58820807334977" lon="9.502504681911127"><ele>173.0</ele><time>2026-05-04T15:05:01Z</time></trkpt><trkpt lat="45.58815499863694" lon="9.50272546394593"><ele>173.0</ele><time>2026-05-04T15:05:02Z</time></trkpt><trkpt lat="45.588096863109996" lon="9.502939773586508"><ele>172.66666666666666</ele><time>2026-05-04T15:05:03Z</time></trkpt><trkpt lat="45.58803828301916" lon="9.503148415524018"><ele>172.33333333333334</ele><time>2026-05-04T15:05:04Z</time></trkpt><trkpt lat="45.587982766707306" lon="9.503378281362615"><ele>172.0</ele><time>2026-05-04T15:05:05Z</time></trkpt><trkpt lat="45.587929094339984" lon="9.50361289004072"><ele>172.33333333333334</ele><time>2026-05-04T15:05:06Z</time></trkpt><trkpt lat="45.58787560999777" lon="9.50384856683927"><ele>172.66666666666666</ele><time>2026-05-04T15:05:07Z</time></trkpt><trkpt lat="45.58781442571357" lon="9.504079951025508"><ele>173.0</ele><time>2026-05-04T15:05:08Z</time></trkpt><trkpt lat="45.58775918136981" lon="9.50430518637457"><ele>172.5</ele><time>2026-05-04T15:05:09Z</time></trkpt><trkpt lat="45.5877056852746" lon="9.504514463458786"><ele>172.0</ele><time>2026-05-04T15:05:10Z</time></trkpt><trkpt lat="45.58765634652179" lon="9.504709274360408"><ele>171.5</ele><time>2026-05-04T15:05:11Z</time></trkpt><trkpt lat="45.587610120876036" lon="9.504881546379254"><ele>171.0</ele><time>2026-05-04T15:05:12Z</time></trkpt><trkpt lat="45.587570882585354" lon="9.505036051491242"><ele>170.8</ele><time>2026-05-04T15:05:13Z</time></trkpt><trkpt lat="45.58751510087269" lon="9.505185722537272"><ele>170.60000000000002</ele><time>2026-05-04T15:05:14Z</time></trkpt><trkpt lat="45.58745760086744" lon="9.505280112066705"><ele>170.4</ele><time>2026-05-04T15:05:15Z</time></trkpt><trkpt lat="45.587384329713984" lon="9.505390889750254"><ele>170.2</ele><time>2026-05-04T15:05:17Z</time></trkpt><trkpt lat="45.58731825037913" lon="9.50550057330016"><ele>170.0</ele><time>2026-05-04T15:05:21Z</time></trkpt><trkpt lat="45.58724637802032" lon="9.505587423008196"><ele>170.0</ele><time>2026-05-04T15:05:22Z</time></trkpt><trkpt lat="45.587189234002395" lon="9.50565741772767"><ele>170.0</ele><time>2026-05-04T15:05:23Z</time></trkpt><trkpt lat="45.587153855362835" lon="9.505770698538521"><ele>170.0</ele><time>2026-05-04T15:05:24Z</time></trkpt><trkpt lat="45.58716391066457" lon="9.505885175542737"><ele>170.0</ele><time>2026-05-04T15:05:25Z</time></trkpt><trkpt lat="45.58724335260649" lon="9.505967924196671"><ele>170.0</ele><time>2026-05-04T15:05:26Z</time></trkpt><trkpt lat="45.58732670343218" lon="9.506023797505739"><ele>170.0</ele><time>2026-05-04T15:05:27Z</time></trkpt><trkpt lat="45.58741938135747" lon="9.506040736473269"><ele>170.0</ele><time>2026-05-04T15:05:28Z</time></trkpt><trkpt lat="45.58751923635202" lon="9.506062242276121"><ele>170.0</ele><time>2026-05-04T15:05:29Z</time></trkpt><trkpt lat="45.58760873515045" lon="9.506098148979945"><ele>170.0</ele><time>2026-05-04T15:05:30Z</time></trkpt><trkpt lat="45.58788350587425" lon="9.506133643849436"><ele>169.66666666666666</ele><time>2026-05-04T15:05:31Z</time></trkpt><trkpt lat="45.588078124312034" lon="9.506254809094202"><ele>169.33333333333334</ele><time>2026-05-04T15:05:32Z</time></trkpt><trkpt lat="45.5882641386972" lon="9.506343644252839"><ele>169.0</ele><time>2026-05-04T15:05:33Z</time></trkpt><trkpt lat="45.58842933651102" lon="9.506402886741874"><ele>169.0</ele><time>2026-05-04T15:05:34Z</time></trkpt><trkpt lat="45.58859452111355" lon="9.50644186359648"><ele>169.0</ele><time>2026-05-04T15:05:35Z</time></trkpt><trkpt lat="45.58875062131984" lon="9.50646715317761"><ele>169.0</ele><time>2026-05-04T15:05:36Z</time></trkpt><trkpt lat="45.588901473997616" lon="9.506484133031528"><ele>169.25</ele><time>2026-05-04T15:05:37Z</time></trkpt><trkpt lat="45.5890388741903" lon="9.506490127237253"><ele>169.5</ele><time>2026-05-04T15:05:38Z</time></trkpt><trkpt lat="45.58918427548438" lon="9.506487400620257"><ele>169.75</ele><time>2026-05-04T15:05:39Z</time></trkpt><trkpt lat="45.58933300454636" lon="9.506474083579013"><ele>170.0</ele><time>2026-05-04T15:05:40Z</time></trkpt><trkpt lat="45.58948157154818" lon="9.506472740813326"><ele>170.0</ele><time>2026-05-04T15:05:41Z</time></trkpt><trkpt lat="45.589622220841086" lon="9.506477908936075"><ele>170.0</ele><time>2026-05-04T15:05:42Z</time></trkpt><trkpt lat="45.589762925432346" lon="9.50647364724979"><ele>170.0</ele><time>2026-05-04T15:05:43Z</time></trkpt><trkpt lat="45.58989927486403" lon="9.50646878775673"><ele>170.0</ele><time>2026-05-04T15:05:44Z</time></trkpt><trkpt lat="45.59002817215059" lon="9.506467748890293"><ele>170.0</ele><time>2026-05-04T15:05:45Z</time></trkpt><trkpt lat="45.59015261850548" lon="9.5064573469594"><ele>170.0</ele><time>2026-05-04T15:05:46Z</time></trkpt><trkpt lat="45.59028079895209" lon="9.506457942548307"><ele>170.0</ele><time>2026-05-04T15:05:47Z</time></trkpt><trkpt lat="45.59041017511181" lon="9.506449456432625"><ele>170.0</ele><time>2026-05-04T15:05:48Z</time></trkpt><trkpt lat="45.590543185078374" lon="9.506442350810657"><ele>169.75</ele><time>2026-05-04T15:05:49Z</time></trkpt><trkpt lat="45.59067709740181" lon="9.506437187045996"><ele>169.5</ele><time>2026-05-04T15:05:50Z</time></trkpt><trkpt lat="45.59081574183962" lon="9.506434286416663"><ele>169.25</ele><time>2026-05-04T15:05:51Z</time></trkpt><trkpt lat="45.59095514453175" lon="9.506432402475884"><ele>169.0</ele><time>2026-05-04T15:05:52Z</time></trkpt><trkpt lat="45.591098195413466" lon="9.506427543712759"><ele>170.0</ele><time>2026-05-04T15:05:53Z</time></trkpt><trkpt lat="45.59124101239036" lon="9.506433178594305"><ele>171.0</ele><time>2026-05-04T15:05:54Z</time></trkpt><trkpt lat="45.59136943839557" lon="9.506425517399832"><ele>172.0</ele><time>2026-05-04T15:05:55Z</time></trkpt><trkpt lat="45.5915038826201" lon="9.506418454416977"><ele>173.0</ele><time>2026-05-04T15:05:56Z</time></trkpt><trkpt lat="45.59164224237657" lon="9.506413415729833"><ele>173.0</ele><time>2026-05-04T15:05:57Z</time></trkpt><trkpt lat="45.59177700832906" lon="9.506410132702985"><ele>173.0</ele><time>2026-05-04T15:05:58Z</time></trkpt><trkpt lat="45.59189792718356" lon="9.5064070668144"><ele>173.0</ele><time>2026-05-04T15:05:59Z</time></trkpt><trkpt lat="45.592013481188225" lon="9.506400267729422"><ele>173.0</ele><time>2026-05-04T15:06:00Z</time></trkpt><trkpt lat="45.59211940571718" lon="9.506401006402498"><ele>173.2</ele><time>2026-05-04T15:06:01Z</time></trkpt><trkpt lat="45.59222331526237" lon="9.506406641440796"><ele>173.4</ele><time>2026-05-04T15:06:02Z</time></trkpt><trkpt lat="45.592337626589185" lon="9.506431859304877"><ele>173.6</ele><time>2026-05-04T15:06:03Z</time></trkpt><trkpt lat="45.59244714871728" lon="9.506488881611924"><ele>173.79999999999998</ele><time>2026-05-04T15:06:04Z</time></trkpt><trkpt lat="45.59253207588962" lon="9.506552712862607"><ele>174.0</ele><time>2026-05-04T15:06:05Z</time></trkpt><trkpt lat="45.59260193328432" lon="9.506626152183582"><ele>174.0</ele><time>2026-05-04T15:06:06Z</time></trkpt><trkpt lat="45.5926680954787" lon="9.506706763022763"><ele>174.0</ele><time>2026-05-04T15:06:07Z</time></trkpt><trkpt lat="45.59274352813624" lon="9.506798251021696"><ele>174.0</ele><time>2026-05-04T15:06:08Z</time></trkpt><trkpt lat="45.59282748859336" lon="9.506895567712602"><ele>174.0</ele><time>2026-05-04T15:06:09Z</time></trkpt><trkpt lat="45.59291881505507" lon="9.506950914923127"><ele>174.0</ele><time>2026-05-04T15:06:10Z</time></trkpt><trkpt lat="45.593016202406524" lon="9.506957085917783"><ele>174.2</ele><time>2026-05-04T15:06:11Z</time></trkpt><trkpt lat="45.59310785840249" lon="9.50690817217078"><ele>174.39999999999998</ele><time>2026-05-04T15:06:12Z</time></trkpt><trkpt lat="45.59318212930012" lon="9.506817433811872"><ele>174.6</ele><time>2026-05-04T15:06:13Z</time></trkpt><trkpt lat="45.59323399615337" lon="9.506687432968086"><ele>174.8</ele><time>2026-05-04T15:06:14Z</time></trkpt><trkpt lat="45.59325031775053" lon="9.506532612238772"><ele>175.0</ele><time>2026-05-04T15:06:15Z</time></trkpt><trkpt lat="45.59323361916124" lon="9.506369809916878"><ele>175.25</ele><time>2026-05-04T15:06:16Z</time></trkpt><trkpt lat="45.593211593284835" lon="9.506190773128857"><ele>175.5</ele><time>2026-05-04T15:06:17Z</time></trkpt><trkpt lat="45.59321925217969" lon="9.506013663257066"><ele>175.75</ele><time>2026-05-04T15:06:18Z</time></trkpt><trkpt lat="45.59324920392658" lon="9.505848735634551"><ele>176.0</ele><time>2026-05-04T15:06:19Z</time></trkpt><trkpt lat="45.5932925234675" lon="9.50571427339488"><ele>176.0</ele><time>2026-05-04T15:06:20Z</time></trkpt><trkpt lat="45.593349707316605" lon="9.505557481435405"><ele>176.0</ele><time>2026-05-04T15:06:21Z</time></trkpt><trkpt lat="45.59339464797507" lon="9.50543675890745"><ele>176.0</ele><time>2026-05-04T15:06:22Z</time></trkpt><trkpt lat="45.59344276546013" lon="9.505297501700825"><ele>176.0</ele><time>2026-05-04T15:06:23Z</time></trkpt><trkpt lat="45.59349141239382" lon="9.505153730400638"><ele>176.0</ele><time>2026-05-04T15:06:24Z</time></trkpt><trkpt lat="45.593552205072456" lon="9.505000933327679"><ele>176.0</ele><time>2026-05-04T15:06:25Z</time></trkpt><trkpt lat="45.593617906589685" lon="9.504829504234614"><ele>176.0</ele><time>2026-05-04T15:06:26Z</time></trkpt><trkpt lat="45.59368057844646" lon="9.504672057251573"><ele>176.0</ele><time>2026-05-04T15:06:27Z</time></trkpt><trkpt lat="45.59373485951873" lon="9.504545649477883"><ele>176.0</ele><time>2026-05-04T15:06:28Z</time></trkpt><trkpt lat="45.59380006159151" lon="9.504461833489922"><ele>176.20000000000002</ele><time>2026-05-04T15:06:29Z</time></trkpt><trkpt lat="45.593861446513536" lon="9.504372996950416"><ele>176.4</ele><time>2026-05-04T15:06:30Z</time></trkpt><trkpt lat="45.593929105300056" lon="9.504280776346665"><ele>176.6</ele><time>2026-05-04T15:06:31Z</time></trkpt><trkpt lat="45.59400349156473" lon="9.504197130057408"><ele>176.8</ele><time>2026-05-04T15:06:32Z</time></trkpt><trkpt lat="45.594082468725134" lon="9.504121816797817"><ele>177.0</ele><time>2026-05-04T15:06:33Z</time></trkpt><trkpt lat="45.594160131824054" lon="9.50405534248119"><ele>177.0</ele><time>2026-05-04T15:06:34Z</time></trkpt><trkpt lat="45.594233683368145" lon="9.503980276862782"><ele>177.0</ele><time>2026-05-04T15:06:35Z</time></trkpt><trkpt lat="45.59430822108799" lon="9.503938549000402"><ele>177.0</ele><time>2026-05-04T15:06:36Z</time></trkpt><trkpt lat="45.5943940945294" lon="9.503894524591832"><ele>177.0</ele><time>2026-05-04T15:06:37Z</time></trkpt><trkpt lat="45.59448128402235" lon="9.503866377966188"><ele>177.0</ele><time>2026-05-04T15:06:38Z</time></trkpt><trkpt lat="45.59457597674393" lon="9.503838109603713"><ele>177.0</ele><time>2026-05-04T15:06:39Z</time></trkpt><trkpt lat="45.59467288719998" lon="9.503817116849284"><ele>176.8</ele><time>2026-05-04T15:06:40Z</time></trkpt><trkpt lat="45.59476752897739" lon="9.503816398703295"><ele>176.6</ele><time>2026-05-04T15:06:41Z</time></trkpt><trkpt lat="45.59486652462707" lon="9.5038133118998"><ele>176.4</ele><time>2026-05-04T15:06:42Z</time></trkpt><trkpt lat="45.59496139299285" lon="9.503815087863215"><ele>176.20000000000002</ele><time>2026-05-04T15:06:43Z</time></trkpt><trkpt lat="45.59503864029001" lon="9.503826970739947"><ele>176.0</ele><time>2026-05-04T15:06:44Z</time></trkpt><trkpt lat="45.59513602309132" lon="9.503851531834743"><ele>176.0</ele><time>2026-05-04T15:06:46Z</time></trkpt><trkpt lat="45.59521931256545" lon="9.50385555675067"><ele>176.0</ele><time>2026-05-04T15:06:48Z</time></trkpt><trkpt lat="45.59529231669627" lon="9.503862947687947"><ele>176.0</ele><time>2026-05-04T15:06:50Z</time></trkpt><trkpt lat="45.595369844887195" lon="9.503861971342177"><ele>176.0</ele><time>2026-05-04T15:06:53Z</time></trkpt><trkpt lat="45.59552600472342" lon="9.503880009026263"><ele>176.0</ele><time>2026-05-04T15:06:55Z</time></trkpt><trkpt lat="45.59562079080645" lon="9.503893596706172"><ele>176.20000000000002</ele><time>2026-05-04T15:06:56Z</time></trkpt><trkpt lat="45.59571364734973" lon="9.503904797181557"><ele>176.4</ele><time>2026-05-04T15:06:57Z</time></trkpt><trkpt lat="45.59581544471383" lon="9.503919398372537"><ele>176.6</ele><time>2026-05-04T15:06:58Z</time></trkpt><trkpt lat="45.59591966392947" lon="9.503922964248275"><ele>176.8</ele><time>2026-05-04T15:06:59Z</time></trkpt><trkpt lat="45.59603907512343" lon="9.503931244712565"><ele>177.0</ele><time>2026-05-04T15:07:00Z</time></trkpt><trkpt lat="45.59615718717301" lon="9.503944667758025"><ele>177.25</ele><time>2026-05-04T15:07:01Z</time></trkpt><trkpt lat="45.59627712908467" lon="9.503956182237562"><ele>177.5</ele><time>2026-05-04T15:07:02Z</time></trkpt><trkpt lat="45.596393857583514" lon="9.503970103704525"><ele>177.75</ele><time>2026-05-04T15:07:03Z</time></trkpt><trkpt lat="45.59651780137886" lon="9.503993104580118"><ele>178.0</ele><time>2026-05-04T15:07:04Z</time></trkpt><trkpt lat="45.59663423508621" lon="9.504011768268477"><ele>178.0</ele><time>2026-05-04T15:07:05Z</time></trkpt><trkpt lat="45.596752697982744" lon="9.50402910088021"><ele>178.0</ele><time>2026-05-04T15:07:06Z</time></trkpt><trkpt lat="45.596869905547585" lon="9.504039818757612"><ele>178.0</ele><time>2026-05-04T15:07:07Z</time></trkpt><trkpt lat="45.59698193289163" lon="9.50405551173487"><ele>178.0</ele><time>2026-05-04T15:07:08Z</time></trkpt><trkpt lat="45.597086197689514" lon="9.504066490247897"><ele>178.4</ele><time>2026-05-04T15:07:09Z</time></trkpt><trkpt lat="45.59718116972257" lon="9.504079882159894"><ele>178.8</ele><time>2026-05-04T15:07:10Z</time></trkpt><trkpt lat="45.59728947320577" lon="9.504097059555932"><ele>179.2</ele><time>2026-05-04T15:07:11Z</time></trkpt><trkpt lat="45.5974038112174" lon="9.504129668611622"><ele>179.6</ele><time>2026-05-04T15:07:12Z</time></trkpt><trkpt lat="45.59750541519567" lon="9.504187330863125"><ele>180.0</ele><time>2026-05-04T15:07:13Z</time></trkpt><trkpt lat="45.59759696580524" lon="9.50427299367912"><ele>180.0</ele><time>2026-05-04T15:07:14Z</time></trkpt><trkpt lat="45.59768821696615" lon="9.504372037818507"><ele>180.0</ele><time>2026-05-04T15:07:15Z</time></trkpt><trkpt lat="45.597770977919616" lon="9.504468050312143"><ele>180.0</ele><time>2026-05-04T15:07:16Z</time></trkpt><trkpt lat="45.59784741202246" lon="9.50456730993203"><ele>180.0</ele><time>2026-05-04T15:07:17Z</time></trkpt><trkpt lat="45.59791830621434" lon="9.504660952567095"><ele>180.0</ele><time>2026-05-04T15:07:18Z</time></trkpt><trkpt lat="45.597984999587666" lon="9.504747459798022"><ele>179.8</ele><time>2026-05-04T15:07:19Z</time></trkpt><trkpt lat="45.598054098612344" lon="9.504842438953572"><ele>179.6</ele><time>2026-05-04T15:07:20Z</time></trkpt><trkpt lat="45.59813335744938" lon="9.504939871193471"><ele>179.39999999999998</ele><time>2026-05-04T15:07:21Z</time></trkpt><trkpt lat="45.59821649885789" lon="9.505043870633902"><ele>179.2</ele><time>2026-05-04T15:07:22Z</time></trkpt><trkpt lat="45.59829499387088" lon="9.50514856020404"><ele>179.0</ele><time>2026-05-04T15:07:23Z</time></trkpt><trkpt lat="45.59837199158137" lon="9.505258830032089"><ele>179.0</ele><time>2026-05-04T15:07:24Z</time></trkpt><trkpt lat="45.598456947986" lon="9.50534949996147"><ele>179.0</ele><time>2026-05-04T15:07:25Z</time></trkpt><trkpt lat="45.59853254978274" lon="9.505447148128926"><ele>179.0</ele><time>2026-05-04T15:07:26Z</time></trkpt><trkpt lat="45.59861455728607" lon="9.505551945515627"><ele>179.0</ele><time>2026-05-04T15:07:27Z</time></trkpt><trkpt lat="45.59871146409906" lon="9.505668178223884"><ele>179.0</ele><time>2026-05-04T15:07:28Z</time></trkpt><trkpt lat="45.598813055993624" lon="9.50578618457646"><ele>179.25</ele><time>2026-05-04T15:07:29Z</time></trkpt><trkpt lat="45.598910853678966" lon="9.505893202637823"><ele>179.5</ele><time>2026-05-04T15:07:30Z</time></trkpt><trkpt lat="45.599001494065305" lon="9.505995898103874"><ele>179.75</ele><time>2026-05-04T15:07:31Z</time></trkpt><trkpt lat="45.59908770002341" lon="9.506096995138279"><ele>180.0</ele><time>2026-05-04T15:07:32Z</time></trkpt><trkpt lat="45.599166253389036" lon="9.506184974553099"><ele>180.2</ele><time>2026-05-04T15:07:33Z</time></trkpt><trkpt lat="45.5992390498971" lon="9.50625940319172"><ele>180.4</ele><time>2026-05-04T15:07:34Z</time></trkpt><trkpt lat="45.59930988414529" lon="9.506326121626278"><ele>180.60000000000002</ele><time>2026-05-04T15:07:35Z</time></trkpt><trkpt lat="45.599390543488404" lon="9.506396955682566"><ele>180.8</ele><time>2026-05-04T15:07:36Z</time></trkpt><trkpt lat="45.59947483801284" lon="9.506473932702939"><ele>181.0</ele><time>2026-05-04T15:07:37Z</time></trkpt><trkpt lat="45.59954519690978" lon="9.506548915604837"><ele>180.5</ele><time>2026-05-04T15:07:38Z</time></trkpt><trkpt lat="45.59959950562355" lon="9.506614995145352"><ele>180.0</ele><time>2026-05-04T15:07:39Z</time></trkpt><trkpt lat="45.59965276980961" lon="9.506704498749162"><ele>179.5</ele><time>2026-05-04T15:07:41Z</time></trkpt><trkpt lat="45.59969882847432" lon="9.506816082172348"><ele>179.0</ele><time>2026-05-04T15:07:45Z</time></trkpt><trkpt lat="45.599745507224206" lon="9.50690558485651"><ele>178.5</ele><time>2026-05-04T15:07:46Z</time></trkpt><trkpt lat="45.59978288903161" lon="9.507003105328991"><ele>178.0</ele><time>2026-05-04T15:07:47Z</time></trkpt><trkpt lat="45.59982353641313" lon="9.507097372132508"><ele>178.0</ele><time>2026-05-04T15:07:48Z</time></trkpt><trkpt lat="45.59989464515717" lon="9.507179168215622"><ele>178.0</ele><time>2026-05-04T15:07:49Z</time></trkpt><trkpt lat="45.59998481550831" lon="9.507230564849946"><ele>178.0</ele><time>2026-05-04T15:07:50Z</time></trkpt><trkpt lat="45.60005960234434" lon="9.507289087255502"><ele>178.0</ele><time>2026-05-04T15:07:51Z</time></trkpt><trkpt lat="45.60013907842739" lon="9.507372732468472"><ele>178.0</ele><time>2026-05-04T15:07:52Z</time></trkpt><trkpt lat="45.60021896832286" lon="9.507467924801734"><ele>178.0</ele><time>2026-05-04T15:07:53Z</time></trkpt><trkpt lat="45.60030212793848" lon="9.507573956695795"><ele>178.0</ele><time>2026-05-04T15:07:54Z</time></trkpt><trkpt lat="45.60038283543527" lon="9.507681609224049"><ele>178.0</ele><time>2026-05-04T15:07:55Z</time></trkpt><trkpt lat="45.600472385373045" lon="9.507787669315213"><ele>178.0</ele><time>2026-05-04T15:07:56Z</time></trkpt><trkpt lat="45.60058156385643" lon="9.507909809610647"><ele>177.75</ele><time>2026-05-04T15:07:57Z</time></trkpt><trkpt lat="45.60068427925147" lon="9.508029129111488"><ele>177.5</ele><time>2026-05-04T15:07:58Z</time></trkpt><trkpt lat="45.60078068985686" lon="9.50814724078626"><ele>177.25</ele><time>2026-05-04T15:07:59Z</time></trkpt><trkpt lat="45.600873013840804" lon="9.508258288243105"><ele>177.0</ele><time>2026-05-04T15:08:00Z</time></trkpt><trkpt lat="45.600974067172686" lon="9.508385170214671"><ele>177.0</ele><time>2026-05-04T15:08:01Z</time></trkpt><trkpt lat="45.60107071385158" lon="9.508500337802094"><ele>177.0</ele><time>2026-05-04T15:08:02Z</time></trkpt><trkpt lat="45.60116750942071" lon="9.508613173838185"><ele>177.0</ele><time>2026-05-04T15:08:03Z</time></trkpt><trkpt lat="45.60125488203361" lon="9.508703049143826"><ele>177.0</ele><time>2026-05-04T15:08:04Z</time></trkpt><trkpt lat="45.601337027397804" lon="9.508804375799183"><ele>177.2</ele><time>2026-05-04T15:08:05Z</time></trkpt><trkpt lat="45.60142061375835" lon="9.508907454300585"><ele>177.39999999999998</ele><time>2026-05-04T15:08:06Z</time></trkpt><trkpt lat="45.60150293773986" lon="9.509001868426507"><ele>177.60000000000002</ele><time>2026-05-04T15:08:07Z</time></trkpt><trkpt lat="45.601581404731874" lon="9.509088637405258"><ele>177.8</ele><time>2026-05-04T15:08:08Z</time></trkpt><trkpt lat="45.60165635125478" lon="9.509171096146353"><ele>178.0</ele><time>2026-05-04T15:08:09Z</time></trkpt><trkpt lat="45.601730549713274" lon="9.509262424820538"><ele>178.0</ele><time>2026-05-04T15:08:10Z</time></trkpt><trkpt lat="45.60180393456508" lon="9.509331738091827"><ele>178.0</ele><time>2026-05-04T15:08:11Z</time></trkpt><trkpt lat="45.60188128627506" lon="9.5094050106283"><ele>178.0</ele><time>2026-05-04T15:08:12Z</time></trkpt><trkpt lat="45.60195257208418" lon="9.509470866965039"><ele>178.0</ele><time>2026-05-04T15:08:13Z</time></trkpt><trkpt lat="45.602019913015845" lon="9.509529151407632"><ele>178.0</ele><time>2026-05-04T15:08:14Z</time></trkpt><trkpt lat="45.60207989311753" lon="9.509583186172977"><ele>178.0</ele><time>2026-05-04T15:08:15Z</time></trkpt><trkpt lat="45.60213905884607" lon="9.509638506632552"><ele>177.83333333333334</ele><time>2026-05-04T15:08:16Z</time></trkpt><trkpt lat="45.602202316271345" lon="9.50969208755707"><ele>177.66666666666669</ele><time>2026-05-04T15:08:17Z</time></trkpt><trkpt lat="45.602259356427254" lon="9.509738001993908"><ele>177.5</ele><time>2026-05-04T15:08:18Z</time></trkpt><trkpt lat="45.602365917281595" lon="9.509823012710788"><ele>177.33333333333334</ele><time>2026-05-04T15:08:20Z</time></trkpt><trkpt lat="45.602437456789865" lon="9.509876796311874"><ele>177.16666666666666</ele><time>2026-05-04T15:08:21Z</time></trkpt><trkpt lat="45.60250120407095" lon="9.509932205122722"><ele>177.0</ele><time>2026-05-04T15:08:22Z</time></trkpt><trkpt lat="45.60256055094353" lon="9.510006733993364"><ele>177.0</ele><time>2026-05-04T15:08:23Z</time></trkpt><trkpt lat="45.60260596503281" lon="9.510080016339034"><ele>177.0</ele><time>2026-05-04T15:08:24Z</time></trkpt><trkpt lat="45.602628139159236" lon="9.510164339237996"><ele>177.0</ele><time>2026-05-04T15:08:25Z</time></trkpt><trkpt lat="45.60273063468429" lon="9.510170887929496"><ele>177.0</ele><time>2026-05-04T15:08:26Z</time></trkpt><trkpt lat="45.602831107013785" lon="9.510192461973718"><ele>177.0</ele><time>2026-05-04T15:08:27Z</time></trkpt><trkpt lat="45.60295279398828" lon="9.510234655306098"><ele>177.0</ele><time>2026-05-04T15:08:28Z</time></trkpt><trkpt lat="45.60305693326136" lon="9.51031789287762"><ele>177.0</ele><time>2026-05-04T15:08:29Z</time></trkpt><trkpt lat="45.60318522447773" lon="9.510421115020739"><ele>177.0</ele><time>2026-05-04T15:08:30Z</time></trkpt><trkpt lat="45.60333141401699" lon="9.510517228518935"><ele>177.0</ele><time>2026-05-04T15:08:31Z</time></trkpt><trkpt lat="45.60347707151496" lon="9.510615203459134"><ele>177.0</ele><time>2026-05-04T15:08:32Z</time></trkpt><trkpt lat="45.603620492421335" lon="9.510711652394491"><ele>177.0</ele><time>2026-05-04T15:08:33Z</time></trkpt><trkpt lat="45.60374982355742" lon="9.510801598824015"><ele>177.0</ele><time>2026-05-04T15:08:34Z</time></trkpt><trkpt lat="45.603889251458966" lon="9.510882859713945"><ele>177.0</ele><time>2026-05-04T15:08:35Z</time></trkpt><trkpt lat="45.60404545862043" lon="9.510964129414145"><ele>177.0</ele><time>2026-05-04T15:08:36Z</time></trkpt><trkpt lat="45.60420111410218" lon="9.511035028826575"><ele>177.0</ele><time>2026-05-04T15:08:37Z</time></trkpt><trkpt lat="45.60435735341157" lon="9.51107594161259"><ele>178.33333333333334</ele><time>2026-05-04T15:08:38Z</time></trkpt><trkpt lat="45.60451531386134" lon="9.51109902022236"><ele>179.66666666666669</ele><time>2026-05-04T15:08:39Z</time></trkpt><trkpt lat="45.60467303250393" lon="9.511099386079767"><ele>181.0</ele><time>2026-05-04T15:08:40Z</time></trkpt><trkpt lat="45.60482396240678" lon="9.511067451136995"><ele>181.0</ele><time>2026-05-04T15:08:41Z</time></trkpt><trkpt lat="45.6049869368541" lon="9.511035250470242"><ele>181.0</ele><time>2026-05-04T15:08:42Z</time></trkpt><trkpt lat="45.60514550425202" lon="9.51095421971964"><ele>181.0</ele><time>2026-05-04T15:08:43Z</time></trkpt><trkpt lat="45.605292203207995" lon="9.510885283481878"><ele>181.0</ele><time>2026-05-04T15:08:44Z</time></trkpt><trkpt lat="45.60543718113632" lon="9.51080054681944"><ele>181.0</ele><time>2026-05-04T15:08:45Z</time></trkpt><trkpt lat="45.605581352336756" lon="9.510722857162568"><ele>181.0</ele><time>2026-05-04T15:08:46Z</time></trkpt><trkpt lat="45.60571737528135" lon="9.510607912665199"><ele>181.0</ele><time>2026-05-04T15:08:47Z</time></trkpt><trkpt lat="45.60585518916171" lon="9.510503808920582"><ele>181.0</ele><time>2026-05-04T15:08:48Z</time></trkpt><trkpt lat="45.60598175584535" lon="9.510379662002038"><ele>181.0</ele><time>2026-05-04T15:08:49Z</time></trkpt><trkpt lat="45.60610352497267" lon="9.510267547341767"><ele>182.66666666666669</ele><time>2026-05-04T15:08:50Z</time></trkpt><trkpt lat="45.60621009527044" lon="9.510129820354877"><ele>184.33333333333334</ele><time>2026-05-04T15:08:51Z</time></trkpt><trkpt lat="45.606309241850774" lon="9.509954554900462"><ele>186.0</ele><time>2026-05-04T15:08:52Z</time></trkpt><trkpt lat="45.606388052006466" lon="9.50977459224413"><ele>186.0</ele><time>2026-05-04T15:08:53Z</time></trkpt><trkpt lat="45.60644773956799" lon="9.509590162098476"><ele>186.0</ele><time>2026-05-04T15:08:54Z</time></trkpt><trkpt lat="45.60649203721825" lon="9.50939506228214"><ele>186.0</ele><time>2026-05-04T15:08:55Z</time></trkpt><trkpt lat="45.60653596142898" lon="9.509197071098068"><ele>186.0</ele><time>2026-05-04T15:08:56Z</time></trkpt><trkpt lat="45.60658440639595" lon="9.509024801502333"><ele>186.0</ele><time>2026-05-04T15:08:57Z</time></trkpt><trkpt lat="45.60663406556757" lon="9.50882956539273"><ele>186.0</ele><time>2026-05-04T15:08:58Z</time></trkpt><trkpt lat="45.606698041576365" lon="9.508648089891903"><ele>186.0</ele><time>2026-05-04T15:08:59Z</time></trkpt><trkpt lat="45.60677230275432" lon="9.508470800605236"><ele>186.0</ele><time>2026-05-04T15:09:00Z</time></trkpt><trkpt lat="45.60684424356567" lon="9.508306653402505"><ele>186.0</ele><time>2026-05-04T15:09:01Z</time></trkpt><trkpt lat="45.606918505069544" lon="9.508147898207824"><ele>186.0</ele><time>2026-05-04T15:09:02Z</time></trkpt><trkpt lat="45.60698611413474" lon="9.508002610003974"><ele>186.0</ele><time>2026-05-04T15:09:03Z</time></trkpt><trkpt lat="45.60705911382124" lon="9.50785193226379"><ele>186.0</ele><time>2026-05-04T15:09:04Z</time></trkpt><trkpt lat="45.607157397003476" lon="9.507707650954345"><ele>187.0</ele><time>2026-05-04T15:09:05Z</time></trkpt><trkpt lat="45.60724933091975" lon="9.507570028751912"><ele>188.0</ele><time>2026-05-04T15:09:06Z</time></trkpt><trkpt lat="45.60733010469533" lon="9.507435984202681"><ele>189.0</ele><time>2026-05-04T15:09:07Z</time></trkpt><trkpt lat="45.60740136314754" lon="9.507325391603198"><ele>190.0</ele><time>2026-05-04T15:09:08Z</time></trkpt><trkpt lat="45.607465554196715" lon="9.507233207620889"><ele>190.0</ele><time>2026-05-04T15:09:09Z</time></trkpt><trkpt lat="45.607516641857714" lon="9.507158115741575"><ele>190.0</ele><time>2026-05-04T15:09:10Z</time></trkpt><trkpt lat="45.6075773585099" lon="9.507072555770065"><ele>190.0</ele><time>2026-05-04T15:09:12Z</time></trkpt><trkpt lat="45.60763863316375" lon="9.506984230072804"><ele>190.0</ele><time>2026-05-04T15:09:14Z</time></trkpt><trkpt lat="45.60768776440963" lon="9.506917426431569"><ele>190.0</ele><time>2026-05-04T15:09:15Z</time></trkpt><trkpt lat="45.60773644439011" lon="9.506851227740533"><ele>190.0</ele><time>2026-05-04T15:09:16Z</time></trkpt><trkpt lat="45.607821003565334" lon="9.50673485126723"><ele>191.2</ele><time>2026-05-04T15:09:18Z</time></trkpt><trkpt lat="45.60792550950883" lon="9.506624554373156"><ele>192.4</ele><time>2026-05-04T15:09:20Z</time></trkpt><trkpt lat="45.608007836933375" lon="9.50659311985334"><ele>193.60000000000002</ele><time>2026-05-04T15:09:21Z</time></trkpt><trkpt lat="45.60808779857915" lon="9.506575994081508"><ele>194.8</ele><time>2026-05-04T15:09:22Z</time></trkpt><trkpt lat="45.60817506484768" lon="9.506561941372661"><ele>196.0</ele><time>2026-05-04T15:09:23Z</time></trkpt><trkpt lat="45.608234762011456" lon="9.50649428141392"><ele>195.99999999999997</ele><time>2026-05-04T15:09:24Z</time></trkpt><trkpt lat="45.608267863571314" lon="9.50638113992476"><ele>196.0</ele><time>2026-05-04T15:09:25Z</time></trkpt><trkpt lat="45.60826674369137" lon="9.50626423767479"><ele>196.0</ele><time>2026-05-04T15:09:26Z</time></trkpt><trkpt lat="45.608240062116465" lon="9.50614426746344"><ele>196.0</ele><time>2026-05-04T15:09:27Z</time></trkpt><trkpt lat="45.60822238431572" lon="9.506022475464464"><ele>195.99999999999997</ele><time>2026-05-04T15:09:28Z</time></trkpt><trkpt lat="45.60823846652658" lon="9.505892923244165"><ele>196.0</ele><time>2026-05-04T15:09:29Z</time></trkpt><trkpt lat="45.608283851992084" lon="9.505759301850793"><ele>196.0</ele><time>2026-05-04T15:09:30Z</time></trkpt><trkpt lat="45.60833092673803" lon="9.505630075796564"><ele>196.0</ele><time>2026-05-04T15:09:31Z</time></trkpt><trkpt lat="45.60837482456529" lon="9.505496783774452"><ele>196.0</ele><time>2026-05-04T15:09:32Z</time></trkpt><trkpt lat="45.60841552888398" lon="9.505362865526983"><ele>196.0</ele><time>2026-05-04T15:09:33Z</time></trkpt><trkpt lat="45.60845657009053" lon="9.505230449295262"><ele>196.0</ele><time>2026-05-04T15:09:34Z</time></trkpt><trkpt lat="45.608494680604075" lon="9.505096314138997"><ele>195.75</ele><time>2026-05-04T15:09:35Z</time></trkpt><trkpt lat="45.60853722465505" lon="9.504943963613531"><ele>195.5</ele><time>2026-05-04T15:09:36Z</time></trkpt><trkpt lat="45.60857288766517" lon="9.504795745139031"><ele>195.25</ele><time>2026-05-04T15:09:37Z</time></trkpt><trkpt lat="45.6086139498596" lon="9.504627136460108"><ele>195.0</ele><time>2026-05-04T15:09:38Z</time></trkpt><trkpt lat="45.60864610723913" lon="9.504460692382887"><ele>195.5</ele><time>2026-05-04T15:09:39Z</time></trkpt><trkpt lat="45.60867507331117" lon="9.504274766761112"><ele>196.0</ele><time>2026-05-04T15:09:40Z</time></trkpt><trkpt lat="45.608699956797906" lon="9.504077890089617"><ele>196.5</ele><time>2026-05-04T15:09:41Z</time></trkpt><trkpt lat="45.60872148947753" lon="9.503870992078436"><ele>197.0</ele><time>2026-05-04T15:09:42Z</time></trkpt><trkpt lat="45.608745098894204" lon="9.503670646853227"><ele>197.0</ele><time>2026-05-04T15:09:43Z</time></trkpt><trkpt lat="45.60877158961547" lon="9.503467413448663"><ele>197.0</ele><time>2026-05-04T15:09:44Z</time></trkpt><trkpt lat="45.60879172661623" lon="9.503262915767664"><ele>197.0</ele><time>2026-05-04T15:09:45Z</time></trkpt><trkpt lat="45.608811381202415" lon="9.503068648399674"><ele>197.0</ele><time>2026-05-04T15:09:46Z</time></trkpt><trkpt lat="45.608833621551064" lon="9.502879548804295"><ele>197.25</ele><time>2026-05-04T15:09:47Z</time></trkpt><trkpt lat="45.60885185455117" lon="9.50269922306155"><ele>197.5</ele><time>2026-05-04T15:09:48Z</time></trkpt><trkpt lat="45.60886575687655" lon="9.502527133133338"><ele>197.75</ele><time>2026-05-04T15:09:49Z</time></trkpt><trkpt lat="45.608888478140386" lon="9.502355196362428"><ele>198.0</ele><time>2026-05-04T15:09:50Z</time></trkpt><trkpt lat="45.60891731807346" lon="9.502184566698718"><ele>198.2</ele><time>2026-05-04T15:09:51Z</time></trkpt><trkpt lat="45.60895439726775" lon="9.502030231704445"><ele>198.4</ele><time>2026-05-04T15:09:52Z</time></trkpt><trkpt lat="45.60898965592391" lon="9.501880817502737"><ele>198.6</ele><time>2026-05-04T15:09:53Z</time></trkpt><trkpt lat="45.60903787285835" lon="9.501760196000415"><ele>198.79999999999998</ele><time>2026-05-04T15:09:54Z</time></trkpt><trkpt lat="45.60908262501096" lon="9.50164897002265"><ele>199.0</ele><time>2026-05-04T15:09:55Z</time></trkpt><trkpt lat="45.609140054043586" lon="9.501541156103404"><ele>199.0</ele><time>2026-05-04T15:09:56Z</time></trkpt><trkpt lat="45.60921812260049" lon="9.501460418769916"><ele>199.0</ele><time>2026-05-04T15:09:57Z</time></trkpt><trkpt lat="45.60929694545456" lon="9.501355482032112"><ele>199.0</ele><time>2026-05-04T15:09:58Z</time></trkpt><trkpt lat="45.60935150687873" lon="9.501207643508796"><ele>199.0</ele><time>2026-05-04T15:09:59Z</time></trkpt><trkpt lat="45.60938694026759" lon="9.501050963193869"><ele>199.0</ele><time>2026-05-04T15:10:00Z</time></trkpt><trkpt lat="45.60950456138489" lon="9.500941678649237"><ele>198.25</ele><time>2026-05-04T15:10:01Z</time></trkpt><trkpt lat="45.60962080695908" lon="9.500837633314447"><ele>197.5</ele><time>2026-05-04T15:10:02Z</time></trkpt><trkpt lat="45.609729777211236" lon="9.500760024145494"><ele>196.75</ele><time>2026-05-04T15:10:03Z</time></trkpt><trkpt lat="45.609830763860664" lon="9.500685935133692"><ele>196.0</ele><time>2026-05-04T15:10:04Z</time></trkpt><trkpt lat="45.609929114887834" lon="9.500629868610051"><ele>196.0</ele><time>2026-05-04T15:10:05Z</time></trkpt><trkpt lat="45.61003720547515" lon="9.500581111802108"><ele>196.0</ele><time>2026-05-04T15:10:06Z</time></trkpt><trkpt lat="45.61015834225327" lon="9.500548841517409"><ele>196.0</ele><time>2026-05-04T15:10:07Z</time></trkpt><trkpt lat="45.6102746205595" lon="9.500516628787953"><ele>196.0</ele><time>2026-05-04T15:10:08Z</time></trkpt><trkpt lat="45.610414900227845" lon="9.500493673981179"><ele>196.75</ele><time>2026-05-04T15:10:09Z</time></trkpt><trkpt lat="45.610547367321615" lon="9.500481810033328"><ele>197.5</ele><time>2026-05-04T15:10:10Z</time></trkpt><trkpt lat="45.61068681450329" lon="9.50045468391074"><ele>198.25</ele><time>2026-05-04T15:10:11Z</time></trkpt><trkpt lat="45.610813134486165" lon="9.50044209530989"><ele>199.0</ele><time>2026-05-04T15:10:12Z</time></trkpt><trkpt lat="45.61095022046267" lon="9.500432777955792"><ele>199.0</ele><time>2026-05-04T15:10:13Z</time></trkpt><trkpt lat="45.61108913854639" lon="9.500423882504666"><ele>199.0</ele><time>2026-05-04T15:10:14Z</time></trkpt><trkpt lat="45.61123227689159" lon="9.500422782144966"><ele>199.0</ele><time>2026-05-04T15:10:15Z</time></trkpt><trkpt lat="45.611352719955505" lon="9.50041945632018"><ele>199.0</ele><time>2026-05-04T15:10:16Z</time></trkpt><trkpt lat="45.61148621031082" lon="9.500414126929906"><ele>199.5</ele><time>2026-05-04T15:10:17Z</time></trkpt><trkpt lat="45.611614906522114" lon="9.500394917937552"><ele>200.0</ele><time>2026-05-04T15:10:18Z</time></trkpt><trkpt lat="45.6117447817448" lon="9.500372687806033"><ele>200.5</ele><time>2026-05-04T15:10:19Z</time></trkpt><trkpt lat="45.61187832519765" lon="9.500337076860166"><ele>201.0</ele><time>2026-05-04T15:10:20Z</time></trkpt><trkpt lat="45.61201084484123" lon="9.500295177182277"><ele>201.0</ele><time>2026-05-04T15:10:21Z</time></trkpt><trkpt lat="45.61214686690967" lon="9.500248829293204"><ele>201.0</ele><time>2026-05-04T15:10:22Z</time></trkpt><trkpt lat="45.61228376290158" lon="9.500198419767415"><ele>201.0</ele><time>2026-05-04T15:10:23Z</time></trkpt><trkpt lat="45.612413922860405" lon="9.500128718550437"><ele>201.0</ele><time>2026-05-04T15:10:24Z</time></trkpt><trkpt lat="45.61254381108077" lon="9.500055227902239"><ele>201.0</ele><time>2026-05-04T15:10:25Z</time></trkpt><trkpt lat="45.61266585236451" lon="9.49997827784749"><ele>201.0</ele><time>2026-05-04T15:10:26Z</time></trkpt><trkpt lat="45.61276858498332" lon="9.499900298981022"><ele>201.0</ele><time>2026-05-04T15:10:27Z</time></trkpt><trkpt lat="45.612867661981035" lon="9.499821602249254"><ele>201.0</ele><time>2026-05-04T15:10:28Z</time></trkpt><trkpt lat="45.61297097541502" lon="9.49972802986808"><ele>201.0</ele><time>2026-05-04T15:10:29Z</time></trkpt><trkpt lat="45.61307113047805" lon="9.499622640269619"><ele>201.0</ele><time>2026-05-04T15:10:30Z</time></trkpt><trkpt lat="45.61316334536203" lon="9.499526226847733"><ele>201.0</ele><time>2026-05-04T15:10:31Z</time></trkpt><trkpt lat="45.61324877605029" lon="9.499437973795334"><ele>201.0</ele><time>2026-05-04T15:10:32Z</time></trkpt><trkpt lat="45.61334033481918" lon="9.49934097809526"><ele>201.0</ele><time>2026-05-04T15:10:33Z</time></trkpt><trkpt lat="45.61341739510124" lon="9.49924458339543"><ele>201.0</ele><time>2026-05-04T15:10:34Z</time></trkpt><trkpt lat="45.61348474858082" lon="9.499162189683718"><ele>201.0</ele><time>2026-05-04T15:10:35Z</time></trkpt><trkpt lat="45.61353815204576" lon="9.499103816949779"><ele>201.0</ele><time>2026-05-04T15:10:36Z</time></trkpt><trkpt lat="45.61358818797584" lon="9.49904365199718"><ele>201.0</ele><time>2026-05-04T15:10:37Z</time></trkpt><trkpt lat="45.61368156372923" lon="9.498986170780158"><ele>201.0</ele><time>2026-05-04T15:10:39Z</time></trkpt><trkpt lat="45.6137589798956" lon="9.498984648823464"><ele>201.5</ele><time>2026-05-04T15:10:53Z</time></trkpt><trkpt lat="45.61382274584507" lon="9.499011392803588"><ele>202.0</ele><time>2026-05-04T15:10:54Z</time></trkpt><trkpt lat="45.61390565021088" lon="9.499057949521262"><ele>202.5</ele><time>2026-05-04T15:10:55Z</time></trkpt><trkpt lat="45.61398020009117" lon="9.499080408473219"><ele>203.0</ele><time>2026-05-04T15:10:56Z</time></trkpt><trkpt lat="45.61407948795676" lon="9.499028433348736"><ele>203.5</ele><time>2026-05-04T15:10:58Z</time></trkpt><trkpt lat="45.61413845843769" lon="9.498965158504287"><ele>204.0</ele><time>2026-05-04T15:11:00Z</time></trkpt><trkpt lat="45.61418530224026" lon="9.498838001390101"><ele>204.16666666666666</ele><time>2026-05-04T15:11:02Z</time></trkpt><trkpt lat="45.614201785226385" lon="9.498747046528683"><ele>204.33333333333331</ele><time>2026-05-04T15:11:03Z</time></trkpt><trkpt lat="45.614200708134376" lon="9.498655820357225"><ele>204.5</ele><time>2026-05-04T15:11:04Z</time></trkpt><trkpt lat="45.61418573668359" lon="9.498531016460992"><ele>204.66666666666666</ele><time>2026-05-04T15:11:06Z</time></trkpt><trkpt lat="45.61416603558548" lon="9.498444006306121"><ele>204.83333333333331</ele><time>2026-05-04T15:11:09Z</time></trkpt><trkpt lat="45.61421515204762" lon="9.49830434190767"><ele>205.0</ele><time>2026-05-04T15:11:12Z</time></trkpt><trkpt lat="45.61420474580412" lon="9.49817313248471"><ele>205.0</ele><time>2026-05-04T15:11:15Z</time></trkpt><trkpt lat="45.6142540382662" lon="9.498099440967609"><ele>205.0</ele><time>2026-05-04T15:11:16Z</time></trkpt><trkpt lat="45.61430661029011" lon="9.497958786768402"><ele>205.0</ele><time>2026-05-04T15:11:18Z</time></trkpt><trkpt lat="45.61439445091636" lon="9.497897359936069"><ele>205.0</ele><time>2026-05-04T15:11:20Z</time></trkpt><trkpt lat="45.614537416263" lon="9.497385663047268"><ele>205.16666666666666</ele><time>2026-05-04T15:11:23Z</time></trkpt><trkpt lat="45.61459530300959" lon="9.497265446782393"><ele>205.33333333333331</ele><time>2026-05-04T15:11:24Z</time></trkpt><trkpt lat="45.61463183556061" lon="9.497144268967475"><ele>205.5</ele><time>2026-05-04T15:11:25Z</time></trkpt><trkpt lat="45.61466524713573" lon="9.497035065775904"><ele>205.66666666666669</ele><time>2026-05-04T15:11:26Z</time></trkpt><trkpt lat="45.61469376539488" lon="9.496931787807544"><ele>205.83333333333334</ele><time>2026-05-04T15:11:27Z</time></trkpt><trkpt lat="45.61472208932605" lon="9.496828565395589"><ele>206.0</ele><time>2026-05-04T15:11:28Z</time></trkpt><trkpt lat="45.61476460127417" lon="9.496712943693407"><ele>206.0</ele><time>2026-05-04T15:11:29Z</time></trkpt><trkpt lat="45.614791892942904" lon="9.49660646326646"><ele>206.0</ele><time>2026-05-04T15:11:30Z</time></trkpt><trkpt lat="45.6148253319498" lon="9.496485744640966"><ele>206.0</ele><time>2026-05-04T15:11:31Z</time></trkpt><trkpt lat="45.614865571569574" lon="9.496355188302932"><ele>206.0</ele><time>2026-05-04T15:11:32Z</time></trkpt><trkpt lat="45.614898487839476" lon="9.49622653350868"><ele>206.0</ele><time>2026-05-04T15:11:33Z</time></trkpt><trkpt lat="45.61493443484775" lon="9.496095099815397"><ele>205.8</ele><time>2026-05-04T15:11:34Z</time></trkpt><trkpt lat="45.614973307829445" lon="9.495951885615433"><ele>205.60000000000002</ele><time>2026-05-04T15:11:35Z</time></trkpt><trkpt lat="45.6150121743376" lon="9.49581591142773"><ele>205.4</ele><time>2026-05-04T15:11:36Z</time></trkpt><trkpt lat="45.615057294010654" lon="9.49566622441069"><ele>205.2</ele><time>2026-05-04T15:11:37Z</time></trkpt><trkpt lat="45.61509893198133" lon="9.495520648921408"><ele>205.0</ele><time>2026-05-04T15:11:38Z</time></trkpt><trkpt lat="45.615146208694604" lon="9.495355288381882"><ele>205.0</ele><time>2026-05-04T15:11:39Z</time></trkpt><trkpt lat="45.615197828258324" lon="9.495160741200824"><ele>205.0</ele><time>2026-05-04T15:11:40Z</time></trkpt><trkpt lat="45.615239429918496" lon="9.49499727352737"><ele>205.0</ele><time>2026-05-04T15:11:41Z</time></trkpt><trkpt lat="45.61529189411415" lon="9.494818369809465"><ele>205.0</ele><time>2026-05-04T15:11:42Z</time></trkpt><trkpt lat="45.61534303590001" lon="9.494628153049828"><ele>205.5</ele><time>2026-05-04T15:11:43Z</time></trkpt><trkpt lat="45.61539396733376" lon="9.49445328876319"><ele>206.0</ele><time>2026-05-04T15:11:44Z</time></trkpt><trkpt lat="45.61545252042476" lon="9.494272074055312"><ele>206.5</ele><time>2026-05-04T15:11:45Z</time></trkpt><trkpt lat="45.61549888873897" lon="9.494117393429795"><ele>207.0</ele><time>2026-05-04T15:11:46Z</time></trkpt><trkpt lat="45.61554552980983" lon="9.493940818454663"><ele>207.0</ele><time>2026-05-04T15:11:47Z</time></trkpt><trkpt lat="45.615590991972304" lon="9.49376819684134"><ele>207.0</ele><time>2026-05-04T15:11:48Z</time></trkpt><trkpt lat="45.61564070815429" lon="9.493599109053411"><ele>207.0</ele><time>2026-05-04T15:11:49Z</time></trkpt><trkpt lat="45.61569229748933" lon="9.493445131939245"><ele>207.0</ele><time>2026-05-04T15:11:50Z</time></trkpt><trkpt lat="45.61573299580762" lon="9.493281410725203"><ele>207.0</ele><time>2026-05-04T15:11:51Z</time></trkpt><trkpt lat="45.61578005085671" lon="9.493112156720269"><ele>207.0</ele><time>2026-05-04T15:11:52Z</time></trkpt><trkpt lat="45.61582941319142" lon="9.49291466228373"><ele>207.0</ele><time>2026-05-04T15:11:53Z</time></trkpt><trkpt lat="45.61589176917303" lon="9.492727918538806"><ele>207.0</ele><time>2026-05-04T15:11:54Z</time></trkpt><trkpt lat="45.615938801967985" lon="9.492568189519151"><ele>207.0</ele><time>2026-05-04T15:11:55Z</time></trkpt><trkpt lat="45.615983670689324" lon="9.492434454456715"><ele>207.0</ele><time>2026-05-04T15:11:56Z</time></trkpt><trkpt lat="45.616024602078795" lon="9.492273592190728"><ele>207.0</ele><time>2026-05-04T15:11:57Z</time></trkpt><trkpt lat="45.61606597041939" lon="9.492115784937884"><ele>207.0</ele><time>2026-05-04T15:11:58Z</time></trkpt><trkpt lat="45.61611153429535" lon="9.491961995288431"><ele>206.75</ele><time>2026-05-04T15:11:59Z</time></trkpt><trkpt lat="45.61615882011529" lon="9.491796185890147"><ele>206.5</ele><time>2026-05-04T15:12:00Z</time></trkpt><trkpt lat="45.616207184631506" lon="9.49160694390342"><ele>206.25</ele><time>2026-05-04T15:12:01Z</time></trkpt><trkpt lat="45.61625824229455" lon="9.491419155638157"><ele>206.0</ele><time>2026-05-04T15:12:02Z</time></trkpt><trkpt lat="45.61631185232388" lon="9.491247507813712"><ele>206.0</ele><time>2026-05-04T15:12:03Z</time></trkpt><trkpt lat="45.61636854506323" lon="9.491072293815915"><ele>206.0</ele><time>2026-05-04T15:12:04Z</time></trkpt><trkpt lat="45.6164171945345" lon="9.490894451324086"><ele>206.0</ele><time>2026-05-04T15:12:05Z</time></trkpt><trkpt lat="45.61647243404895" lon="9.49072247548894"><ele>206.0</ele><time>2026-05-04T15:12:06Z</time></trkpt><trkpt lat="45.61651359009213" lon="9.490540467052048"><ele>206.0</ele><time>2026-05-04T15:12:07Z</time></trkpt><trkpt lat="45.616567408788846" lon="9.490353897999649"><ele>206.0</ele><time>2026-05-04T15:12:08Z</time></trkpt><trkpt lat="45.616625659989396" lon="9.490138237666534"><ele>206.0</ele><time>2026-05-04T15:12:09Z</time></trkpt><trkpt lat="45.61668391225525" lon="9.489914442646505"><ele>206.0</ele><time>2026-05-04T15:12:10Z</time></trkpt><trkpt lat="45.61674259888547" lon="9.48970822818172"><ele>206.0</ele><time>2026-05-04T15:12:11Z</time></trkpt><trkpt lat="45.616806960889555" lon="9.489482682788907"><ele>206.0</ele><time>2026-05-04T15:12:12Z</time></trkpt><trkpt lat="45.61686368970278" lon="9.489275173808887"><ele>206.25</ele><time>2026-05-04T15:12:13Z</time></trkpt><trkpt lat="45.61691375330286" lon="9.489095046073492"><ele>206.5</ele><time>2026-05-04T15:12:14Z</time></trkpt><trkpt lat="45.616966957716656" lon="9.488931210389477"><ele>206.75</ele><time>2026-05-04T15:12:15Z</time></trkpt><trkpt lat="45.6170123164683" lon="9.48876436402934"><ele>207.0</ele><time>2026-05-04T15:12:16Z</time></trkpt><trkpt lat="45.617054821657014" lon="9.48861581817581"><ele>207.0</ele><time>2026-05-04T15:12:17Z</time></trkpt><trkpt lat="45.617098725755284" lon="9.48847023756162"><ele>207.0</ele><time>2026-05-04T15:12:18Z</time></trkpt><trkpt lat="45.6171383824803" lon="9.488334227404643"><ele>207.0</ele><time>2026-05-04T15:12:19Z</time></trkpt><trkpt lat="45.617175481917045" lon="9.488210289982895"><ele>207.0</ele><time>2026-05-04T15:12:20Z</time></trkpt><trkpt lat="45.61721081859266" lon="9.48807973489396"><ele>207.0</ele><time>2026-05-04T15:12:21Z</time></trkpt><trkpt lat="45.617249479679195" lon="9.48793739434346"><ele>207.0</ele><time>2026-05-04T15:12:22Z</time></trkpt><trkpt lat="45.6172871513979" lon="9.487802397857806"><ele>207.0</ele><time>2026-05-04T15:12:23Z</time></trkpt><trkpt lat="45.617323165717536" lon="9.487687490159253"><ele>207.0</ele><time>2026-05-04T15:12:24Z</time></trkpt><trkpt lat="45.617364867462236" lon="9.487538837147211"><ele>207.0</ele><time>2026-05-04T15:12:25Z</time></trkpt><trkpt lat="45.617413951965" lon="9.487388927282597"><ele>207.0</ele><time>2026-05-04T15:12:26Z</time></trkpt><trkpt lat="45.617447548491974" lon="9.487264478368719"><ele>207.0</ele><time>2026-05-04T15:12:27Z</time></trkpt><trkpt lat="45.61748246237139" lon="9.48715027299954"><ele>207.0</ele><time>2026-05-04T15:12:28Z</time></trkpt><trkpt lat="45.61751179634475" lon="9.487041408366656"><ele>207.0</ele><time>2026-05-04T15:12:29Z</time></trkpt><trkpt lat="45.617543278950976" lon="9.486927603461263"><ele>207.0</ele><time>2026-05-04T15:12:30Z</time></trkpt><trkpt lat="45.61757141811377" lon="9.486821652409843"><ele>207.0</ele><time>2026-05-04T15:12:31Z</time></trkpt><trkpt lat="45.617597904247646" lon="9.48673904118958"><ele>207.0</ele><time>2026-05-04T15:12:32Z</time></trkpt><trkpt lat="45.617646114722255" lon="9.486617990891194"><ele>207.0</ele><time>2026-05-04T15:12:34Z</time></trkpt><trkpt lat="45.6177302137803" lon="9.48652468093345"><ele>207.0</ele><time>2026-05-04T15:12:36Z</time></trkpt><trkpt lat="45.61779437708072" lon="9.486442444913893"><ele>207.0</ele><time>2026-05-04T15:12:37Z</time></trkpt><trkpt lat="45.61787202656966" lon="9.4863416192814"><ele>207.0</ele><time>2026-05-04T15:12:38Z</time></trkpt><trkpt lat="45.61794657445126" lon="9.486234723161983"><ele>207.0</ele><time>2026-05-04T15:12:39Z</time></trkpt><trkpt lat="45.61810886539853" lon="9.48627830034057"><ele>207.0</ele><time>2026-05-04T15:12:40Z</time></trkpt><trkpt lat="45.61823269031591" lon="9.48630987118409"><ele>207.0</ele><time>2026-05-04T15:12:41Z</time></trkpt><trkpt lat="45.6183576910484" lon="9.486358329263313"><ele>207.0</ele><time>2026-05-04T15:12:42Z</time></trkpt><trkpt lat="45.61847748379169" lon="9.486384504596973"><ele>207.0</ele><time>2026-05-04T15:12:43Z</time></trkpt><trkpt lat="45.618584540184486" lon="9.486392786045592"><ele>207.39999999999998</ele><time>2026-05-04T15:12:44Z</time></trkpt><trkpt lat="45.61869389495844" lon="9.48640533511273"><ele>207.79999999999998</ele><time>2026-05-04T15:12:45Z</time></trkpt><trkpt lat="45.618808282328764" lon="9.486423192928111"><ele>208.2</ele><time>2026-05-04T15:12:46Z</time></trkpt><trkpt lat="45.61891989868083" lon="9.486438838848805"><ele>208.6</ele><time>2026-05-04T15:12:47Z</time></trkpt><trkpt lat="45.61902921374948" lon="9.486452380714939"><ele>209.0</ele><time>2026-05-04T15:12:48Z</time></trkpt><trkpt lat="45.61912499487499" lon="9.486469464096228"><ele>209.0</ele><time>2026-05-04T15:12:49Z</time></trkpt><trkpt lat="45.61923232466223" lon="9.486491748245971"><ele>209.0</ele><time>2026-05-04T15:12:50Z</time></trkpt><trkpt lat="45.61935053591203" lon="9.486510853873051"><ele>209.0</ele><time>2026-05-04T15:12:51Z</time></trkpt><trkpt lat="45.6194617993675" lon="9.486524884294955"><ele>209.0</ele><time>2026-05-04T15:12:52Z</time></trkpt><trkpt lat="45.61956964098237" lon="9.486537776243159"><ele>209.0</ele><time>2026-05-04T15:12:53Z</time></trkpt><trkpt lat="45.61968309612514" lon="9.486556735019585"><ele>209.75</ele><time>2026-05-04T15:12:54Z</time></trkpt><trkpt lat="45.61979336667979" lon="9.48657547260297"><ele>210.5</ele><time>2026-05-04T15:12:55Z</time></trkpt><trkpt lat="45.619917557542756" lon="9.486597621610152"><ele>211.25</ele><time>2026-05-04T15:12:56Z</time></trkpt><trkpt lat="45.62003926435482" lon="9.486615294156861"><ele>212.0</ele><time>2026-05-04T15:12:57Z</time></trkpt><trkpt lat="45.62017521305128" lon="9.486630997064097"><ele>212.0</ele><time>2026-05-04T15:12:58Z</time></trkpt><trkpt lat="45.620318629678394" lon="9.486653796382754"><ele>212.0</ele><time>2026-05-04T15:12:59Z</time></trkpt><trkpt lat="45.6204595750094" lon="9.486674303723515"><ele>212.0</ele><time>2026-05-04T15:13:00Z</time></trkpt><trkpt lat="45.62061558605282" lon="9.486687356202244"><ele>212.0</ele><time>2026-05-04T15:13:01Z</time></trkpt><trkpt lat="45.620734254122915" lon="9.486708161536686"><ele>212.0</ele><time>2026-05-04T15:13:02Z</time></trkpt><trkpt lat="45.620879760858976" lon="9.486728504708772"><ele>212.0</ele><time>2026-05-04T15:13:03Z</time></trkpt><trkpt lat="45.62103225985731" lon="9.48674751037389"><ele>212.0</ele><time>2026-05-04T15:13:04Z</time></trkpt><trkpt lat="45.6211885841944" lon="9.486770635194217"><ele>212.33333333333334</ele><time>2026-05-04T15:13:05Z</time></trkpt><trkpt lat="45.621343338249034" lon="9.486813832658441"><ele>212.66666666666669</ele><time>2026-05-04T15:13:06Z</time></trkpt><trkpt lat="45.6215073758171" lon="9.486910326810003"><ele>213.0</ele><time>2026-05-04T15:13:07Z</time></trkpt><trkpt lat="45.621648161861245" lon="9.487024350503756"><ele>213.0</ele><time>2026-05-04T15:13:08Z</time></trkpt><trkpt lat="45.621783767397716" lon="9.48713288654382"><ele>213.0</ele><time>2026-05-04T15:13:09Z</time></trkpt><trkpt lat="45.621918302258955" lon="9.487233071918187"><ele>213.0</ele><time>2026-05-04T15:13:10Z</time></trkpt><trkpt lat="45.62205702799922" lon="9.48732844105775"><ele>213.0</ele><time>2026-05-04T15:13:11Z</time></trkpt><trkpt lat="45.622191985273176" lon="9.487419094972223"><ele>213.0</ele><time>2026-05-04T15:13:12Z</time></trkpt><trkpt lat="45.6223224023" lon="9.48750465402265"><ele>213.0</ele><time>2026-05-04T15:13:13Z</time></trkpt><trkpt lat="45.622456567144674" lon="9.487602881805739"><ele>213.0</ele><time>2026-05-04T15:13:14Z</time></trkpt><trkpt lat="45.62258664619496" lon="9.487708530736892"><ele>213.0</ele><time>2026-05-04T15:13:15Z</time></trkpt><trkpt lat="45.62271601953619" lon="9.48779663983905"><ele>213.0</ele><time>2026-05-04T15:13:16Z</time></trkpt><trkpt lat="45.6228440781959" lon="9.487880837840798"><ele>213.0</ele><time>2026-05-04T15:13:17Z</time></trkpt><trkpt lat="45.622959826632126" lon="9.48797178001449"><ele>213.0</ele><time>2026-05-04T15:13:18Z</time></trkpt><trkpt lat="45.6231210258116" lon="9.488056119414015"><ele>214.0</ele><time>2026-05-04T15:13:19Z</time></trkpt><trkpt lat="45.623226392916" lon="9.488144557348665"><ele>215.0</ele><time>2026-05-04T15:13:20Z</time></trkpt><trkpt lat="45.62335074403746" lon="9.488231755634983"><ele>216.0</ele><time>2026-05-04T15:13:21Z</time></trkpt><trkpt lat="45.62348122546314" lon="9.488321580083712"><ele>217.0</ele><time>2026-05-04T15:13:22Z</time></trkpt><trkpt lat="45.623612064364984" lon="9.488415449640026"><ele>216.5</ele><time>2026-05-04T15:13:23Z</time></trkpt><trkpt lat="45.623742524975825" lon="9.48850745424549"><ele>216.0</ele><time>2026-05-04T15:13:24Z</time></trkpt><trkpt lat="45.62387712794648" lon="9.48859898497365"><ele>215.5</ele><time>2026-05-04T15:13:25Z</time></trkpt><trkpt lat="45.62401296120759" lon="9.48868389135403"><ele>215.0</ele><time>2026-05-04T15:13:26Z</time></trkpt><trkpt lat="45.62414916962417" lon="9.48876963544261"><ele>215.0</ele><time>2026-05-04T15:13:27Z</time></trkpt><trkpt lat="45.624279026507146" lon="9.488853624801765"><ele>215.0</ele><time>2026-05-04T15:13:28Z</time></trkpt><trkpt lat="45.62441880713919" lon="9.488951175625651"><ele>215.0</ele><time>2026-05-04T15:13:29Z</time></trkpt><trkpt lat="45.62454506935032" lon="9.489046827528066"><ele>215.0</ele><time>2026-05-04T15:13:30Z</time></trkpt><trkpt lat="45.62468189290077" lon="9.48914220413311"><ele>215.0</ele><time>2026-05-04T15:13:31Z</time></trkpt><trkpt lat="45.62480719880505" lon="9.489237770203543"><ele>215.0</ele><time>2026-05-04T15:13:32Z</time></trkpt><trkpt lat="45.62494079455406" lon="9.489329063324744"><ele>215.0</ele><time>2026-05-04T15:13:33Z</time></trkpt><trkpt lat="45.62506799053844" lon="9.489418885463758"><ele>215.0</ele><time>2026-05-04T15:13:34Z</time></trkpt><trkpt lat="45.625185443533205" lon="9.48949559596967"><ele>215.0</ele><time>2026-05-04T15:13:35Z</time></trkpt><trkpt lat="45.62530046322528" lon="9.489571441313966"><ele>215.0</ele><time>2026-05-04T15:13:35.999Z</time></trkpt><trkpt lat="45.62542486083852" lon="9.48965894390227"><ele>215.0</ele><time>2026-05-04T15:13:36.999Z</time></trkpt><trkpt lat="45.62555419881659" lon="9.489744363256644"><ele>215.0</ele><time>2026-05-04T15:13:37.999Z</time></trkpt><trkpt lat="45.625693533500154" lon="9.489848505596317"><ele>216.0</ele><time>2026-05-04T15:13:38.999Z</time></trkpt><trkpt lat="45.625822665855154" lon="9.489938127694144"><ele>217.0</ele><time>2026-05-04T15:13:39.999Z</time></trkpt><trkpt lat="45.62594935922798" lon="9.490018407265126"><ele>218.0</ele><time>2026-05-04T15:13:40.999Z</time></trkpt><trkpt lat="45.62600553464074" lon="9.490065387168041"><ele>219.0</ele><time>2026-05-04T15:13:41.999Z</time></trkpt><trkpt lat="45.626059743365786" lon="9.490122266592001"><ele>220.0</ele><time>2026-05-04T15:13:43.999Z</time></trkpt><trkpt lat="45.62601064194558" lon="9.490378287061445"><ele>219.0</ele><time>2026-05-04T15:13:46Z</time></trkpt><trkpt lat="45.62595661407825" lon="9.490481848885581"><ele>218.0</ele><time>2026-05-04T15:13:47Z</time></trkpt><trkpt lat="45.62587937330256" lon="9.49056982753312"><ele>217.0</ele><time>2026-05-04T15:13:48Z</time></trkpt><trkpt lat="45.625775342266365" lon="9.490701577741081"><ele>216.0</ele><time>2026-05-04T15:13:49Z</time></trkpt><trkpt lat="45.62568683178841" lon="9.490843833090558"><ele>216.0</ele><time>2026-05-04T15:13:50Z</time></trkpt><trkpt lat="45.625593311917974" lon="9.491014113953515"><ele>216.0</ele><time>2026-05-04T15:13:51Z</time></trkpt><trkpt lat="45.62551168085953" lon="9.491163414873329"><ele>216.0</ele><time>2026-05-04T15:13:52Z</time></trkpt><trkpt lat="45.625436561601944" lon="9.491315311744748"><ele>216.0</ele><time>2026-05-04T15:13:53Z</time></trkpt><trkpt lat="45.62537328526564" lon="9.49145936126918"><ele>216.0</ele><time>2026-05-04T15:13:54Z</time></trkpt><trkpt lat="45.625314640930945" lon="9.491594464132183"><ele>216.00000000000003</ele><time>2026-05-04T15:13:55Z</time></trkpt><trkpt lat="45.62526157965188" lon="9.491725530885176"><ele>216.00000000000003</ele><time>2026-05-04T15:13:56Z</time></trkpt><trkpt lat="45.62521581089237" lon="9.491855468588959"><ele>216.0</ele><time>2026-05-04T15:13:57Z</time></trkpt><trkpt lat="45.62517936354322" lon="9.491953967674927"><ele>216.0</ele><time>2026-05-04T15:13:58Z</time></trkpt><trkpt lat="45.62514179052138" lon="9.492091728787441"><ele>215.8</ele><time>2026-05-04T15:14:00Z</time></trkpt><trkpt lat="45.62510448937114" lon="9.492253510167597"><ele>215.60000000000002</ele><time>2026-05-04T15:14:02Z</time></trkpt><trkpt lat="45.625041863953754" lon="9.492373617175536"><ele>215.4</ele><time>2026-05-04T15:14:04Z</time></trkpt><trkpt lat="45.625013509303756" lon="9.492494232430767"><ele>215.2</ele><time>2026-05-04T15:14:06Z</time></trkpt><trkpt lat="45.62501282591999" lon="9.492617742548479"><ele>215.0</ele><time>2026-05-04T15:14:08Z</time></trkpt><trkpt lat="45.62513049232008" lon="9.492752103563019"><ele>215.0</ele><time>2026-05-04T15:14:10Z</time></trkpt><trkpt lat="45.62519992911842" lon="9.492821977130749"><ele>215.0</ele><time>2026-05-04T15:14:11Z</time></trkpt><trkpt lat="45.625274732948725" lon="9.492891913223529"><ele>215.0</ele><time>2026-05-04T15:14:12Z</time></trkpt><trkpt lat="45.62538747445742" lon="9.49300464432731"><ele>215.0</ele><time>2026-05-04T15:14:13Z</time></trkpt><trkpt lat="45.625491233373324" lon="9.493106959397405"><ele>215.0</ele><time>2026-05-04T15:14:14Z</time></trkpt><trkpt lat="45.62557864109365" lon="9.493188976228357"><ele>215.4</ele><time>2026-05-04T15:14:15Z</time></trkpt><trkpt lat="45.62565305169955" lon="9.493255035179725"><ele>215.8</ele><time>2026-05-04T15:14:16Z</time></trkpt><trkpt lat="45.62570910459136" lon="9.493303595431055"><ele>216.2</ele><time>2026-05-04T15:14:17Z</time></trkpt><trkpt lat="45.62582453814213" lon="9.493420821644564"><ele>216.6</ele><time>2026-05-04T15:14:19Z</time></trkpt><trkpt lat="45.62588778304019" lon="9.493509188647323"><ele>217.0</ele><time>2026-05-04T15:14:20Z</time></trkpt><trkpt lat="45.625969861548484" lon="9.49363402107649"><ele>217.0</ele><time>2026-05-04T15:14:21Z</time></trkpt><trkpt lat="45.626069567728884" lon="9.493749549347195"><ele>217.0</ele><time>2026-05-04T15:14:22Z</time></trkpt><trkpt lat="45.62617180307624" lon="9.49387387430473"><ele>217.0</ele><time>2026-05-04T15:14:23Z</time></trkpt><trkpt lat="45.6262550994369" lon="9.493980443775806"><ele>217.0</ele><time>2026-05-04T15:14:24Z</time></trkpt><trkpt lat="45.626334305990454" lon="9.49407538454216"><ele>217.2</ele><time>2026-05-04T15:14:25Z</time></trkpt><trkpt lat="45.626419918608576" lon="9.494184310268965"><ele>217.39999999999998</ele><time>2026-05-04T15:14:26Z</time></trkpt><trkpt lat="45.62651231994022" lon="9.494291538562775"><ele>217.60000000000002</ele><time>2026-05-04T15:14:27Z</time></trkpt><trkpt lat="45.6265859683255" lon="9.494371398267567"><ele>217.8</ele><time>2026-05-04T15:14:28Z</time></trkpt><trkpt lat="45.62665833265501" lon="9.494462377604156"><ele>218.0</ele><time>2026-05-04T15:14:29Z</time></trkpt><trkpt lat="45.62671878925799" lon="9.494552821640076"><ele>217.83333333333334</ele><time>2026-05-04T15:14:30Z</time></trkpt><trkpt lat="45.62676721320713" lon="9.494644860938218"><ele>217.66666666666669</ele><time>2026-05-04T15:14:31Z</time></trkpt><trkpt lat="45.62680799458146" lon="9.494731489898975"><ele>217.5</ele><time>2026-05-04T15:14:32Z</time></trkpt><trkpt lat="45.626815213826255" lon="9.49482534025582"><ele>217.33333333333331</ele><time>2026-05-04T15:14:33Z</time></trkpt><trkpt lat="45.62681253719321" lon="9.494936566333896"><ele>217.16666666666666</ele><time>2026-05-04T15:14:34Z</time></trkpt><trkpt lat="45.62675712993202" lon="9.495054659307067"><ele>217.0</ele><time>2026-05-04T15:14:35Z</time></trkpt><trkpt lat="45.62668744446323" lon="9.495187173558831"><ele>217.0</ele><time>2026-05-04T15:14:36Z</time></trkpt><trkpt lat="45.6266224357905" lon="9.495331903296973"><ele>217.0</ele><time>2026-05-04T15:14:37Z</time></trkpt><trkpt lat="45.62657195916285" lon="9.49544484731126"><ele>217.0</ele><time>2026-05-04T15:14:38Z</time></trkpt><trkpt lat="45.626520580946035" lon="9.495548275361136"><ele>217.0</ele><time>2026-05-04T15:14:39Z</time></trkpt><trkpt lat="45.62647144849862" lon="9.49564193990477"><ele>217.0</ele><time>2026-05-04T15:14:40Z</time></trkpt><trkpt lat="45.626417647307164" lon="9.495780010699377"><ele>216.75</ele><time>2026-05-04T15:14:41Z</time></trkpt><trkpt lat="45.62635397260142" lon="9.495928870573008"><ele>216.5</ele><time>2026-05-04T15:14:42Z</time></trkpt><trkpt lat="45.62628950842677" lon="9.496078094203968"><ele>216.25</ele><time>2026-05-04T15:14:43Z</time></trkpt><trkpt lat="45.62622562787089" lon="9.496221945365503"><ele>216.0</ele><time>2026-05-04T15:14:44Z</time></trkpt><trkpt lat="45.62616645031266" lon="9.496358760630006"><ele>216.0</ele><time>2026-05-04T15:14:45Z</time></trkpt><trkpt lat="45.626098232202345" lon="9.496483065681284"><ele>216.0</ele><time>2026-05-04T15:14:46Z</time></trkpt><trkpt lat="45.62603546378896" lon="9.496579872172127"><ele>216.0</ele><time>2026-05-04T15:14:47Z</time></trkpt><trkpt lat="45.62597197569464" lon="9.496667791591035"><ele>216.0</ele><time>2026-05-04T15:14:48Z</time></trkpt><trkpt lat="45.62590463652179" lon="9.496754405704388"><ele>216.0</ele><time>2026-05-04T15:14:49Z</time></trkpt><trkpt lat="45.62585166194889" lon="9.496812374553592"><ele>216.0</ele><time>2026-05-04T15:14:50Z</time></trkpt><trkpt lat="45.62575209151389" lon="9.49691434195008"><ele>216.0</ele><time>2026-05-04T15:14:52Z</time></trkpt><trkpt lat="45.625684243088585" lon="9.49697812135554"><ele>216.0</ele><time>2026-05-04T15:14:53Z</time></trkpt><trkpt lat="45.62562234422329" lon="9.49704783284564"><ele>216.0</ele><time>2026-05-04T15:14:54Z</time></trkpt><trkpt lat="45.62556573918346" lon="9.49711537957712"><ele>216.0</ele><time>2026-05-04T15:14:55Z</time></trkpt><trkpt lat="45.62551841552067" lon="9.497192568147536"><ele>216.0</ele><time>2026-05-04T15:14:56Z</time></trkpt><trkpt lat="45.625474773424266" lon="9.497258196847643"><ele>216.0</ele><time>2026-05-04T15:14:57Z</time></trkpt><trkpt lat="45.62542405921469" lon="9.497317827763094"><ele>216.0</ele><time>2026-05-04T15:14:58Z</time></trkpt><trkpt lat="45.62536657755577" lon="9.497364044680108"><ele>216.33333333333334</ele><time>2026-05-04T15:14:59Z</time></trkpt><trkpt lat="45.62529791737557" lon="9.497424446857908"><ele>216.66666666666669</ele><time>2026-05-04T15:15:01Z</time></trkpt><trkpt lat="45.62523398717624" lon="9.497518070268423"><ele>217.0</ele><time>2026-05-04T15:15:03Z</time></trkpt><trkpt lat="45.625182097908265" lon="9.497603640554859"><ele>217.33333333333334</ele><time>2026-05-04T15:15:04Z</time></trkpt><trkpt lat="45.62513306789315" lon="9.497684150875877"><ele>217.66666666666669</ele><time>2026-05-04T15:15:05Z</time></trkpt><trkpt lat="45.62507893901862" lon="9.49776827353248"><ele>218.0</ele><time>2026-05-04T15:15:06Z</time></trkpt><trkpt lat="45.625013668328116" lon="9.497849187494248"><ele>218.16666666666669</ele><time>2026-05-04T15:15:07Z</time></trkpt><trkpt lat="45.62493375965602" lon="9.497957448079648"><ele>218.33333333333334</ele><time>2026-05-04T15:15:08Z</time></trkpt><trkpt lat="45.62486577299174" lon="9.498055632433744"><ele>218.5</ele><time>2026-05-04T15:15:09Z</time></trkpt><trkpt lat="45.624810159773254" lon="9.498133723158084"><ele>218.66666666666669</ele><time>2026-05-04T15:15:10Z</time></trkpt><trkpt lat="45.62474710536797" lon="9.498183743203816"><ele>218.83333333333334</ele><time>2026-05-04T15:15:11Z</time></trkpt><trkpt lat="45.62470201004704" lon="9.498289339928704"><ele>219.0</ele><time>2026-05-04T15:15:13Z</time></trkpt><trkpt lat="45.62461259650908" lon="9.498375968359417"><ele>219.0</ele><time>2026-05-04T15:15:15Z</time></trkpt><trkpt lat="45.624546335727786" lon="9.498490602453474"><ele>218.99999999999997</ele><time>2026-05-04T15:15:17Z</time></trkpt><trkpt lat="45.624454204283005" lon="9.49860722020792"><ele>218.99999999999997</ele><time>2026-05-04T15:15:19Z</time></trkpt><trkpt lat="45.62438265432329" lon="9.498645754639153"><ele>219.0</ele><time>2026-05-04T15:15:20Z</time></trkpt><trkpt lat="45.62429773508392" lon="9.498709168878449"><ele>219.0</ele><time>2026-05-04T15:15:22Z</time></trkpt><trkpt lat="45.624213069739476" lon="9.498835917591427"><ele>218.5</ele><time>2026-05-04T15:15:24Z</time></trkpt><trkpt lat="45.624159856745955" lon="9.498923427659456"><ele>218.0</ele><time>2026-05-04T15:15:25Z</time></trkpt><trkpt lat="45.62410484510196" lon="9.499004916337991"><ele>217.5</ele><time>2026-05-04T15:15:26Z</time></trkpt><trkpt lat="45.62404356227418" lon="9.499099510659917"><ele>217.0</ele><time>2026-05-04T15:15:28Z</time></trkpt><trkpt lat="45.62398491007341" lon="9.499188849008146"><ele>216.5</ele><time>2026-05-04T15:15:33Z</time></trkpt><trkpt lat="45.62393655376404" lon="9.4992615232391"><ele>216.0</ele><time>2026-05-04T15:15:34Z</time></trkpt><trkpt lat="45.62387177062638" lon="9.499350724196118"><ele>216.0</ele><time>2026-05-04T15:15:35Z</time></trkpt><trkpt lat="45.62381800518653" lon="9.499435736587339"><ele>216.00000000000003</ele><time>2026-05-04T15:15:36Z</time></trkpt><trkpt lat="45.62377027588201" lon="9.499521177913902"><ele>216.00000000000003</ele><time>2026-05-04T15:15:37Z</time></trkpt><trkpt lat="45.623696809362976" lon="9.499616747201777"><ele>216.0</ele><time>2026-05-04T15:15:38Z</time></trkpt><trkpt lat="45.62359996348712" lon="9.499718328497591"><ele>216.0</ele><time>2026-05-04T15:15:39Z</time></trkpt><trkpt lat="45.623498939117276" lon="9.49984349035352"><ele>216.0</ele><time>2026-05-04T15:15:40Z</time></trkpt><trkpt lat="45.6234006887768" lon="9.499991152207077"><ele>216.0</ele><time>2026-05-04T15:15:41Z</time></trkpt><trkpt lat="45.62331120576601" lon="9.50011961793061"><ele>216.0</ele><time>2026-05-04T15:15:42Z</time></trkpt><trkpt lat="45.623237868063754" lon="9.500217809452304"><ele>216.0</ele><time>2026-05-04T15:15:43Z</time></trkpt><trkpt lat="45.623159009751255" lon="9.500321200499434"><ele>216.0</ele><time>2026-05-04T15:15:44Z</time></trkpt><trkpt lat="45.623090677181395" lon="9.500391373901705"><ele>216.00000000000003</ele><time>2026-05-04T15:15:45Z</time></trkpt><trkpt lat="45.62300874713014" lon="9.500504966191135"><ele>216.00000000000003</ele><time>2026-05-04T15:15:47Z</time></trkpt><trkpt lat="45.622996265223264" lon="9.500647809113643"><ele>216.0</ele><time>2026-05-04T15:15:49Z</time></trkpt><trkpt lat="45.62307294173393" lon="9.500825549882807"><ele>216.0</ele><time>2026-05-04T15:15:51Z</time></trkpt><trkpt lat="45.62310717168794" lon="9.500911301064196"><ele>216.0</ele><time>2026-05-04T15:15:52Z</time></trkpt><trkpt lat="45.623099921746096" lon="9.50101320180634"><ele>216.00000000000003</ele><time>2026-05-04T15:15:54Z</time></trkpt><trkpt lat="45.62303460845088" lon="9.501164950966121"><ele>216.00000000000003</ele><time>2026-05-04T15:15:56Z</time></trkpt><trkpt lat="45.622969646919806" lon="9.501245542893551"><ele>216.0</ele><time>2026-05-04T15:15:57Z</time></trkpt><trkpt lat="45.62289216813507" lon="9.501326154063532"><ele>216.0</ele><time>2026-05-04T15:15:58Z</time></trkpt><trkpt lat="45.62284934416193" lon="9.501414236689435"><ele>215.66666666666666</ele><time>2026-05-04T15:15:59Z</time></trkpt><trkpt lat="45.622797677138834" lon="9.501495230012765"><ele>215.33333333333331</ele><time>2026-05-04T15:16:00Z</time></trkpt><trkpt lat="45.622746411349134" lon="9.501552394111087"><ele>215.0</ele><time>2026-05-04T15:16:01Z</time></trkpt><trkpt lat="45.62269616438653" lon="9.501617093568552"><ele>214.66666666666666</ele><time>2026-05-04T15:16:02Z</time></trkpt><trkpt lat="45.62266216159249" lon="9.501699093941518"><ele>214.33333333333331</ele><time>2026-05-04T15:16:03Z</time></trkpt><trkpt lat="45.622598471293195" lon="9.501799654403557"><ele>214.0</ele><time>2026-05-04T15:16:04Z</time></trkpt><trkpt lat="45.62253620374216" lon="9.50188836229613"><ele>214.0</ele><time>2026-05-04T15:16:05Z</time></trkpt><trkpt lat="45.62247796118502" lon="9.501970960083277"><ele>213.99999999999997</ele><time>2026-05-04T15:16:06Z</time></trkpt><trkpt lat="45.62240247089721" lon="9.50207306301942"><ele>213.99999999999997</ele><time>2026-05-04T15:16:07Z</time></trkpt><trkpt lat="45.622356592092345" lon="9.502140490753044"><ele>214.0</ele><time>2026-05-04T15:16:08Z</time></trkpt><trkpt lat="45.62225501502664" lon="9.502261624815528"><ele>214.0</ele><time>2026-05-04T15:16:10Z</time></trkpt><trkpt lat="45.62219827893677" lon="9.502333431391063"><ele>213.79999999999998</ele><time>2026-05-04T15:16:11Z</time></trkpt><trkpt lat="45.62213502925641" lon="9.5024124280216"><ele>213.59999999999997</ele><time>2026-05-04T15:16:13Z</time></trkpt><trkpt lat="45.6220438660056" lon="9.502482083193069"><ele>213.4</ele><time>2026-05-04T15:16:15Z</time></trkpt><trkpt lat="45.62213627625228" lon="9.502560514646746"><ele>213.2</ele><time>2026-05-04T15:16:16Z</time></trkpt><trkpt lat="45.62218522501782" lon="9.502620581649186"><ele>213.0</ele><time>2026-05-04T15:16:17Z</time></trkpt><trkpt lat="45.622287824403585" lon="9.502653701529931"><ele>213.0</ele><time>2026-05-04T15:16:19Z</time></trkpt><trkpt lat="45.62231645038722" lon="9.502748846752176"><ele>213.0</ele><time>2026-05-04T15:16:21Z</time></trkpt><trkpt lat="45.6222404716139" lon="9.502841811864338"><ele>213.0</ele><time>2026-05-04T15:16:23Z</time></trkpt><trkpt lat="45.62214215188182" lon="9.502913113073497"><ele>213.0</ele><time>2026-05-04T15:16:24Z</time></trkpt><trkpt lat="45.62203695712934" lon="9.503073759742161"><ele>213.0</ele><time>2026-05-04T15:16:25Z</time></trkpt><trkpt lat="45.62188784936667" lon="9.503287532461714"><ele>213.0</ele><time>2026-05-04T15:16:26Z</time></trkpt><trkpt lat="45.621766388304216" lon="9.503495160232513"><ele>213.0</ele><time>2026-05-04T15:16:27Z</time></trkpt><trkpt lat="45.62162517846893" lon="9.503699563619241"><ele>213.0</ele><time>2026-05-04T15:16:28Z</time></trkpt><trkpt lat="45.6215035302104" lon="9.503876480697704"><ele>213.0</ele><time>2026-05-04T15:16:29Z</time></trkpt><trkpt lat="45.62139466648486" lon="9.50403262451466"><ele>213.0</ele><time>2026-05-04T15:16:30Z</time></trkpt><trkpt lat="45.62131002132524" lon="9.504153912485277"><ele>213.0</ele><time>2026-05-04T15:16:31Z</time></trkpt><trkpt lat="45.62122581575415" lon="9.504269374197502"><ele>213.0</ele><time>2026-05-04T15:16:32Z</time></trkpt><trkpt lat="45.62115212586041" lon="9.504369172609948"><ele>212.8</ele><time>2026-05-04T15:16:33Z</time></trkpt><trkpt lat="45.62109305972886" lon="9.50447230427716"><ele>212.60000000000002</ele><time>2026-05-04T15:16:34Z</time></trkpt><trkpt lat="45.621030368962266" lon="9.50458091341346"><ele>212.39999999999998</ele><time>2026-05-04T15:16:35Z</time></trkpt><trkpt lat="45.62095933485322" lon="9.504656122152916"><ele>212.2</ele><time>2026-05-04T15:16:36Z</time></trkpt><trkpt lat="45.62089927848659" lon="9.504781251070156"><ele>212.0</ele><time>2026-05-04T15:16:38Z</time></trkpt><trkpt lat="45.62090476545901" lon="9.50488605248917"><ele>212.0</ele><time>2026-05-04T15:16:40Z</time></trkpt><trkpt lat="45.621001846426665" lon="9.505045155833006"><ele>212.0</ele><time>2026-05-04T15:16:41Z</time></trkpt><trkpt lat="45.62110541116833" lon="9.50516944974469"><ele>212.0</ele><time>2026-05-04T15:16:42Z</time></trkpt><trkpt lat="45.6212393136454" lon="9.505310419202678"><ele>212.0</ele><time>2026-05-04T15:16:43Z</time></trkpt><trkpt lat="45.62134352451863" lon="9.50539235108994"><ele>212.0</ele><time>2026-05-04T15:16:44Z</time></trkpt><trkpt lat="45.62141435416674" lon="9.505494693833468"><ele>212.0</ele><time>2026-05-04T15:16:45Z</time></trkpt><trkpt lat="45.62147493585416" lon="9.50561669718981"><ele>212.0</ele><time>2026-05-04T15:16:47Z</time></trkpt><trkpt lat="45.62147610140047" lon="9.505707662650634"><ele>212.0</ele><time>2026-05-04T15:16:49Z</time></trkpt><trkpt lat="45.62144403565805" lon="9.505846340097888"><ele>212.0</ele><time>2026-05-04T15:16:51Z</time></trkpt><trkpt lat="45.62135076922111" lon="9.505935707526454"><ele>212.0</ele><time>2026-05-04T15:16:52Z</time></trkpt><trkpt lat="45.62124741088246" lon="9.506028030918301"><ele>212.0</ele><time>2026-05-04T15:16:53Z</time></trkpt><trkpt lat="45.6211746857012" lon="9.506131008630682"><ele>212.0</ele><time>2026-05-04T15:16:54Z</time></trkpt><trkpt lat="45.62105410101827" lon="9.506252255904949"><ele>212.0</ele><time>2026-05-04T15:16:55Z</time></trkpt><trkpt lat="45.62093281680051" lon="9.506367180168478"><ele>211.33333333333334</ele><time>2026-05-04T15:16:56Z</time></trkpt><trkpt lat="45.62080066604131" lon="9.506484173223571"><ele>210.66666666666669</ele><time>2026-05-04T15:16:57Z</time></trkpt><trkpt lat="45.620673746624426" lon="9.506615303051884"><ele>210.0</ele><time>2026-05-04T15:16:58Z</time></trkpt><trkpt lat="45.62053619206973" lon="9.506686031460314"><ele>210.0</ele><time>2026-05-04T15:16:59Z</time></trkpt><trkpt lat="45.62038788839703" lon="9.506777446140902"><ele>210.0</ele><time>2026-05-04T15:17:00Z</time></trkpt><trkpt lat="45.62017715786662" lon="9.50689564136804"><ele>210.0</ele><time>2026-05-04T15:17:01Z</time></trkpt><trkpt lat="45.62002091597433" lon="9.50698228507718"><ele>209.75</ele><time>2026-05-04T15:17:02Z</time></trkpt><trkpt lat="45.619877594934856" lon="9.50708102999897"><ele>209.5</ele><time>2026-05-04T15:17:03Z</time></trkpt><trkpt lat="45.61974727639595" lon="9.507154340776786"><ele>209.25</ele><time>2026-05-04T15:17:04Z</time></trkpt><trkpt lat="45.61963423338462" lon="9.507206703418108"><ele>209.0</ele><time>2026-05-04T15:17:05Z</time></trkpt><trkpt lat="45.619536337534015" lon="9.507267257883955"><ele>208.79999999999998</ele><time>2026-05-04T15:17:06Z</time></trkpt><trkpt lat="45.61945815108308" lon="9.507348722879266"><ele>208.6</ele><time>2026-05-04T15:17:07Z</time></trkpt><trkpt lat="45.61936611032276" lon="9.50741057278961"><ele>208.4</ele><time>2026-05-04T15:17:08Z</time></trkpt><trkpt lat="45.61926619258145" lon="9.50750449840572"><ele>208.2</ele><time>2026-05-04T15:17:09Z</time></trkpt><trkpt lat="45.61916655756493" lon="9.507584944733383"><ele>208.0</ele><time>2026-05-04T15:17:10Z</time></trkpt><trkpt lat="45.61907604638687" lon="9.507667992872863"><ele>208.0</ele><time>2026-05-04T15:17:11Z</time></trkpt><trkpt lat="45.618980377801066" lon="9.50775651868133"><ele>208.0</ele><time>2026-05-04T15:17:12Z</time></trkpt><trkpt lat="45.61890456748982" lon="9.507828208380767"><ele>208.0</ele><time>2026-05-04T15:17:13Z</time></trkpt><trkpt lat="45.61881167025873" lon="9.507936350889617"><ele>208.0</ele><time>2026-05-04T15:17:15Z</time></trkpt><trkpt lat="45.61874139661801" lon="9.508001515991046"><ele>208.0</ele><time>2026-05-04T15:17:16Z</time></trkpt><trkpt lat="45.61867616373079" lon="9.508079207724576"><ele>207.4</ele><time>2026-05-04T15:17:17Z</time></trkpt><trkpt lat="45.61862589548276" lon="9.508162366247259"><ele>206.8</ele><time>2026-05-04T15:17:18Z</time></trkpt><trkpt lat="45.61855492457114" lon="9.508240600896668"><ele>206.2</ele><time>2026-05-04T15:17:19Z</time></trkpt><trkpt lat="45.618450197579975" lon="9.508357020017028"><ele>205.6</ele><time>2026-05-04T15:17:20Z</time></trkpt><trkpt lat="45.618365579223465" lon="9.50846583641307"><ele>205.0</ele><time>2026-05-04T15:17:21Z</time></trkpt><trkpt lat="45.61828827572437" lon="9.50854017882824"><ele>205.0</ele><time>2026-05-04T15:17:22Z</time></trkpt><trkpt lat="45.618192417043744" lon="9.508656968377043"><ele>205.0</ele><time>2026-05-04T15:17:24Z</time></trkpt><trkpt lat="45.618141725009075" lon="9.508742600752768"><ele>205.0</ele><time>2026-05-04T15:17:25Z</time></trkpt><trkpt lat="45.618088916858646" lon="9.5088080323506"><ele>205.0</ele><time>2026-05-04T15:17:26Z</time></trkpt><trkpt lat="45.61803011694647" lon="9.508884401432903"><ele>205.0</ele><time>2026-05-04T15:17:27Z</time></trkpt><trkpt lat="45.617946037834" lon="9.50899064665142"><ele>204.6</ele><time>2026-05-04T15:17:28Z</time></trkpt><trkpt lat="45.61784680037494" lon="9.509022778096869"><ele>204.2</ele><time>2026-05-04T15:17:29Z</time></trkpt><trkpt lat="45.61776922274471" lon="9.50908848140268"><ele>203.8</ele><time>2026-05-04T15:17:30Z</time></trkpt><trkpt lat="45.61767296713907" lon="9.509172184924818"><ele>203.4</ele><time>2026-05-04T15:17:31Z</time></trkpt><trkpt lat="45.617586188448755" lon="9.509226567693121"><ele>203.0</ele><time>2026-05-04T15:17:32Z</time></trkpt><trkpt lat="45.61749982049659" lon="9.509286070218948"><ele>203.0</ele><time>2026-05-04T15:17:33Z</time></trkpt><trkpt lat="45.61741130717522" lon="9.50934401883893"><ele>203.0</ele><time>2026-05-04T15:17:34Z</time></trkpt><trkpt lat="45.61732369620558" lon="9.50943211948351"><ele>203.0</ele><time>2026-05-04T15:17:35Z</time></trkpt><trkpt lat="45.61724644918292" lon="9.509521836243596"><ele>203.0</ele><time>2026-05-04T15:17:36Z</time></trkpt><trkpt lat="45.61715826285316" lon="9.509616124251034"><ele>203.0</ele><time>2026-05-04T15:17:37Z</time></trkpt><trkpt lat="45.61704682846921" lon="9.5097261081879"><ele>202.25</ele><time>2026-05-04T15:17:38Z</time></trkpt><trkpt lat="45.616933228173195" lon="9.50984783758374"><ele>201.5</ele><time>2026-05-04T15:17:39Z</time></trkpt><trkpt lat="45.616819358607316" lon="9.50998253793483"><ele>200.75</ele><time>2026-05-04T15:17:40Z</time></trkpt><trkpt lat="45.61669778330655" lon="9.510088669804844"><ele>200.0</ele><time>2026-05-04T15:17:41Z</time></trkpt><trkpt lat="45.61657809166992" lon="9.510153748596132"><ele>200.0</ele><time>2026-05-04T15:17:42Z</time></trkpt><trkpt lat="45.616428346386215" lon="9.5102201869896"><ele>200.0</ele><time>2026-05-04T15:17:43Z</time></trkpt><trkpt lat="45.61630824596252" lon="9.510249861935762"><ele>200.0</ele><time>2026-05-04T15:17:44Z</time></trkpt><trkpt lat="45.616196398152574" lon="9.510269897360049"><ele>200.0</ele><time>2026-05-04T15:17:45Z</time></trkpt><trkpt lat="45.616076129618094" lon="9.510283358808538"><ele>199.5</ele><time>2026-05-04T15:17:46Z</time></trkpt><trkpt lat="45.615961831035726" lon="9.510312993847382"><ele>199.0</ele><time>2026-05-04T15:17:47Z</time></trkpt><trkpt lat="45.61585984344376" lon="9.510401227851043"><ele>198.5</ele><time>2026-05-04T15:17:49Z</time></trkpt><trkpt lat="45.61581466261272" lon="9.510538057355493"><ele>198.0</ele><time>2026-05-04T15:17:50Z</time></trkpt><trkpt lat="45.615784599639696" lon="9.510710607927155"><ele>196.75</ele><time>2026-05-04T15:17:51Z</time></trkpt><trkpt lat="45.61575171051547" lon="9.51085206298545"><ele>195.5</ele><time>2026-05-04T15:17:52Z</time></trkpt><trkpt lat="45.61564540370519" lon="9.511057883316044"><ele>194.25</ele><time>2026-05-04T15:17:54Z</time></trkpt><trkpt lat="45.615587944376216" lon="9.511153797714126"><ele>193.0</ele><time>2026-05-04T15:17:55Z</time></trkpt><trkpt lat="45.61547589739504" lon="9.51133353097059"><ele>192.5</ele><time>2026-05-04T15:17:56Z</time></trkpt><trkpt lat="45.61542199833169" lon="9.511468173580132"><ele>192.0</ele><time>2026-05-04T15:17:57Z</time></trkpt><trkpt lat="45.61529670457565" lon="9.511705453522621"><ele>191.5</ele><time>2026-05-04T15:17:58Z</time></trkpt><trkpt lat="45.61524207167166" lon="9.511791486167153"><ele>191.0</ele><time>2026-05-04T15:17:59Z</time></trkpt><trkpt lat="45.61524401266872" lon="9.51190505194023"><ele>191.0</ele><time>2026-05-04T15:18:00Z</time></trkpt><trkpt lat="45.61522170448643" lon="9.512049464585152"><ele>191.0</ele><time>2026-05-04T15:18:01Z</time></trkpt><trkpt lat="45.61519240853998" lon="9.51218901837119"><ele>191.0</ele><time>2026-05-04T15:18:02Z</time></trkpt><trkpt lat="45.61516200983444" lon="9.51236526328969"><ele>191.0</ele><time>2026-05-04T15:18:03Z</time></trkpt><trkpt lat="45.61514274233731" lon="9.512506031442365"><ele>191.0</ele><time>2026-05-04T15:18:04Z</time></trkpt><trkpt lat="45.615124555879795" lon="9.512623686138275"><ele>190.4</ele><time>2026-05-04T15:18:05Z</time></trkpt><trkpt lat="45.615112636326884" lon="9.512730880836203"><ele>189.8</ele><time>2026-05-04T15:18:06Z</time></trkpt><trkpt lat="45.61509500234706" lon="9.51283267977948"><ele>189.20000000000002</ele><time>2026-05-04T15:18:07Z</time></trkpt><trkpt lat="45.615073657809624" lon="9.512974386353608"><ele>188.60000000000002</ele><time>2026-05-04T15:18:08Z</time></trkpt><trkpt lat="45.615043213963936" lon="9.513137956483131"><ele>188.0</ele><time>2026-05-04T15:18:09Z</time></trkpt><trkpt lat="45.615022623638936" lon="9.513304863759394"><ele>188.0</ele><time>2026-05-04T15:18:10Z</time></trkpt><trkpt lat="45.61499659029246" lon="9.513481900269966"><ele>188.0</ele><time>2026-05-04T15:18:11Z</time></trkpt><trkpt lat="45.61496937296805" lon="9.513678256303761"><ele>188.0</ele><time>2026-05-04T15:18:12Z</time></trkpt><trkpt lat="45.614942322177" lon="9.513840201916766"><ele>188.0</ele><time>2026-05-04T15:18:13Z</time></trkpt><trkpt lat="45.61492039284831" lon="9.513992408977746"><ele>187.2</ele><time>2026-05-04T15:18:14Z</time></trkpt><trkpt lat="45.614891641495454" lon="9.514166990792395"><ele>186.4</ele><time>2026-05-04T15:18:15Z</time></trkpt><trkpt lat="45.61485742993066" lon="9.514322186666918"><ele>185.6</ele><time>2026-05-04T15:18:16Z</time></trkpt><trkpt lat="45.614818486061104" lon="9.514462731134365"><ele>184.79999999999998</ele><time>2026-05-04T15:18:17Z</time></trkpt><trkpt lat="45.61479014810904" lon="9.514594319324852"><ele>184.0</ele><time>2026-05-04T15:18:18Z</time></trkpt><trkpt lat="45.614761976695824" lon="9.514690497760363"><ele>184.5</ele><time>2026-05-04T15:18:19Z</time></trkpt><trkpt lat="45.61471661945131" lon="9.514762224383743"><ele>185.0</ele><time>2026-05-04T15:18:20Z</time></trkpt><trkpt lat="45.61465503239505" lon="9.514818042669443"><ele>185.5</ele><time>2026-05-04T15:18:21Z</time></trkpt><trkpt lat="45.61459027908601" lon="9.514899187468359"><ele>186.0</ele><time>2026-05-04T15:18:22Z</time></trkpt><trkpt lat="45.61451758905444" lon="9.514968254028537"><ele>186.5</ele><time>2026-05-04T15:18:23Z</time></trkpt><trkpt lat="45.614444219406614" lon="9.515021684237794"><ele>187.0</ele><time>2026-05-04T15:18:24Z</time></trkpt><trkpt lat="45.61438059132003" lon="9.515047747727943"><ele>187.0</ele><time>2026-05-04T15:18:25Z</time></trkpt><trkpt lat="45.61432100324512" lon="9.515087368120017"><ele>187.0</ele><time>2026-05-04T15:18:27Z</time></trkpt><trkpt lat="45.61439172025436" lon="9.515169758834492"><ele>187.0</ele><time>2026-05-04T15:18:33Z</time></trkpt><trkpt lat="45.61450798646601" lon="9.515121396862806"><ele>187.0</ele><time>2026-05-04T15:18:34Z</time></trkpt><trkpt lat="45.614619106279925" lon="9.515053279995827"><ele>187.0</ele><time>2026-05-04T15:18:35Z</time></trkpt><trkpt lat="45.614718634418395" lon="9.51499795499884"><ele>186.25</ele><time>2026-05-04T15:18:36Z</time></trkpt><trkpt lat="45.614800542756306" lon="9.514898924546886"><ele>185.5</ele><time>2026-05-04T15:18:37Z</time></trkpt><trkpt lat="45.614879017759506" lon="9.514751852103977"><ele>184.75</ele><time>2026-05-04T15:18:38Z</time></trkpt><trkpt lat="45.614946379593434" lon="9.514590379870091"><ele>184.0</ele><time>2026-05-04T15:18:39Z</time></trkpt><trkpt lat="45.615001465566905" lon="9.514410514506558"><ele>184.0</ele><time>2026-05-04T15:18:40Z</time></trkpt><trkpt lat="45.6150540436452" lon="9.51424188604243"><ele>184.0</ele><time>2026-05-04T15:18:41Z</time></trkpt><trkpt lat="45.615107540242605" lon="9.514102526842818"><ele>184.0</ele><time>2026-05-04T15:18:42Z</time></trkpt><trkpt lat="45.61516532264539" lon="9.513910466793861"><ele>184.0</ele><time>2026-05-04T15:18:43Z</time></trkpt><trkpt lat="45.61520331539482" lon="9.513717741740553"><ele>184.79999999999998</ele><time>2026-05-04T15:18:44Z</time></trkpt><trkpt lat="45.61522664023262" lon="9.513558982986005"><ele>185.6</ele><time>2026-05-04T15:18:45Z</time></trkpt><trkpt lat="45.615271278817836" lon="9.513437178649134"><ele>186.4</ele><time>2026-05-04T15:18:46Z</time></trkpt><trkpt lat="45.61529914910455" lon="9.513336111098074"><ele>187.2</ele><time>2026-05-04T15:18:47Z</time></trkpt><trkpt lat="45.61534729175938" lon="9.513209601284952"><ele>188.0</ele><time>2026-05-04T15:18:49Z</time></trkpt><trkpt lat="45.61540388561544" lon="9.513316746669451"><ele>188.0</ele><time>2026-05-04T15:18:52Z</time></trkpt><trkpt lat="45.61530824612689" lon="9.513485730010682"><ele>188.0</ele><time>2026-05-04T15:18:54Z</time></trkpt><trkpt lat="45.61527283447716" lon="9.513612341355497"><ele>188.0</ele><time>2026-05-04T15:18:55Z</time></trkpt><trkpt lat="45.615315031514115" lon="9.513699413361563"><ele>188.0</ele><time>2026-05-04T15:18:56Z</time></trkpt><trkpt lat="45.61545125725076" lon="9.513664159081989"><ele>184.5</ele><time>2026-05-04T15:18:58Z</time></trkpt><trkpt lat="45.615502475674376" lon="9.513539620767983"><ele>181.0</ele><time>2026-05-04T15:18:59Z</time></trkpt><trkpt lat="45.61558126608314" lon="9.513408406453006"><ele>177.5</ele><time>2026-05-04T15:19:00Z</time></trkpt><trkpt lat="45.6156629094201" lon="9.513259528542367"><ele>174.0</ele><time>2026-05-04T15:19:01Z</time></trkpt><trkpt lat="45.61577057772015" lon="9.513119941924153"><ele>174.0</ele><time>2026-05-04T15:19:02Z</time></trkpt><trkpt lat="45.61589117228818" lon="9.512991721998764"><ele>174.0</ele><time>2026-05-04T15:19:03Z</time></trkpt><trkpt lat="45.616034563682994" lon="9.51291694823248"><ele>174.0</ele><time>2026-05-04T15:19:04Z</time></trkpt><trkpt lat="45.61619311438225" lon="9.512874045244828"><ele>173.33333333333334</ele><time>2026-05-04T15:19:05Z</time></trkpt><trkpt lat="45.61636639341194" lon="9.51283460636147"><ele>172.66666666666669</ele><time>2026-05-04T15:19:06Z</time></trkpt><trkpt lat="45.616538456967156" lon="9.51282921621348"><ele>172.0</ele><time>2026-05-04T15:19:07Z</time></trkpt><trkpt lat="45.61670317530416" lon="9.512824884068653"><ele>172.0</ele><time>2026-05-04T15:19:08Z</time></trkpt><trkpt lat="45.61686154509321" lon="9.512802249816364"><ele>172.0</ele><time>2026-05-04T15:19:09Z</time></trkpt><trkpt lat="45.617028226818334" lon="9.512703629719876"><ele>172.0</ele><time>2026-05-04T15:19:10Z</time></trkpt><trkpt lat="45.61719570414872" lon="9.512574319685218"><ele>170.66666666666669</ele><time>2026-05-04T15:19:11Z</time></trkpt><trkpt lat="45.61735027252141" lon="9.512423718637441"><ele>169.33333333333334</ele><time>2026-05-04T15:19:12Z</time></trkpt><trkpt lat="45.61749192253417" lon="9.512269895384224"><ele>168.0</ele><time>2026-05-04T15:19:13Z</time></trkpt><trkpt lat="45.617637694676034" lon="9.512145433989485"><ele>172.0</ele><time>2026-05-04T15:19:14Z</time></trkpt><trkpt lat="45.61779431167939" lon="9.512065210472997"><ele>176.0</ele><time>2026-05-04T15:19:15Z</time></trkpt><trkpt lat="45.61797354543791" lon="9.512020289567129"><ele>180.0</ele><time>2026-05-04T15:19:16Z</time></trkpt><trkpt lat="45.61817138270055" lon="9.51199567880025"><ele>180.0</ele><time>2026-05-04T15:19:17Z</time></trkpt><trkpt lat="45.61836052627926" lon="9.511975608671824"><ele>180.0</ele><time>2026-05-04T15:19:18Z</time></trkpt><trkpt lat="45.61852926321847" lon="9.51196086907635"><ele>180.0</ele><time>2026-05-04T15:19:19Z</time></trkpt><trkpt lat="45.61869889736496" lon="9.51196672338133"><ele>179.25</ele><time>2026-05-04T15:19:20Z</time></trkpt><trkpt lat="45.61884286397514" lon="9.511970854195749"><ele>178.5</ele><time>2026-05-04T15:19:21Z</time></trkpt><trkpt lat="45.618980371826176" lon="9.511997745140786"><ele>177.75</ele><time>2026-05-04T15:19:22Z</time></trkpt><trkpt lat="45.6191184330323" lon="9.512011905782611"><ele>177.0</ele><time>2026-05-04T15:19:23Z</time></trkpt><trkpt lat="45.619268120632796" lon="9.512014671050522"><ele>177.0</ele><time>2026-05-04T15:19:24Z</time></trkpt><trkpt lat="45.619410693240425" lon="9.512006070820496"><ele>177.0</ele><time>2026-05-04T15:19:25Z</time></trkpt><trkpt lat="45.619557405610955" lon="9.511978708584376"><ele>177.0</ele><time>2026-05-04T15:19:26Z</time></trkpt><trkpt lat="45.619698458529655" lon="9.511960061145954"><ele>177.0</ele><time>2026-05-04T15:19:27Z</time></trkpt><trkpt lat="45.619846042695926" lon="9.511944738175808"><ele>176.75</ele><time>2026-05-04T15:19:28Z</time></trkpt><trkpt lat="45.61998744641713" lon="9.511914822015548"><ele>176.5</ele><time>2026-05-04T15:19:29Z</time></trkpt><trkpt lat="45.620111283520174" lon="9.511876619284243"><ele>176.25</ele><time>2026-05-04T15:19:30Z</time></trkpt><trkpt lat="45.62024314739221" lon="9.511807347790425"><ele>176.0</ele><time>2026-05-04T15:19:31Z</time></trkpt><trkpt lat="45.6203762757979" lon="9.511715574197648"><ele>173.75</ele><time>2026-05-04T15:19:32Z</time></trkpt><trkpt lat="45.62050867977728" lon="9.511622623572954"><ele>171.5</ele><time>2026-05-04T15:19:33Z</time></trkpt><trkpt lat="45.620640262949856" lon="9.511544251367383"><ele>169.25</ele><time>2026-05-04T15:19:34Z</time></trkpt><trkpt lat="45.62076162191623" lon="9.511464277325006"><ele>167.0</ele><time>2026-05-04T15:19:35Z</time></trkpt><trkpt lat="45.62089590595392" lon="9.511406523002195"><ele>167.0</ele><time>2026-05-04T15:19:36Z</time></trkpt><trkpt lat="45.62103066263292" lon="9.511324821589742"><ele>167.0</ele><time>2026-05-04T15:19:37Z</time></trkpt><trkpt lat="45.621156866312454" lon="9.511254356888077"><ele>167.0</ele><time>2026-05-04T15:19:38Z</time></trkpt><trkpt lat="45.621281714521004" lon="9.511179573180971"><ele>167.0</ele><time>2026-05-04T15:19:39Z</time></trkpt><trkpt lat="45.62141090513863" lon="9.511110881311206"><ele>169.75</ele><time>2026-05-04T15:19:40Z</time></trkpt><trkpt lat="45.621524547159346" lon="9.511020508548146"><ele>172.5</ele><time>2026-05-04T15:19:41Z</time></trkpt><trkpt lat="45.62163384035295" lon="9.510956462370778"><ele>175.25</ele><time>2026-05-04T15:19:42Z</time></trkpt><trkpt lat="45.62174401107982" lon="9.510883632724086"><ele>178.0</ele><time>2026-05-04T15:19:43Z</time></trkpt><trkpt lat="45.62184976832941" lon="9.510816809936587"><ele>178.0</ele><time>2026-05-04T15:19:44Z</time></trkpt><trkpt lat="45.621944518549" lon="9.510731256198671"><ele>178.0</ele><time>2026-05-04T15:19:45Z</time></trkpt><trkpt lat="45.622058600772256" lon="9.510653009410596"><ele>178.0</ele><time>2026-05-04T15:19:46Z</time></trkpt><trkpt lat="45.62216485076186" lon="9.510552186884333"><ele>178.0</ele><time>2026-05-04T15:19:47Z</time></trkpt><trkpt lat="45.6222919141224" lon="9.51047096398788"><ele>180.66666666666669</ele><time>2026-05-04T15:19:48Z</time></trkpt><trkpt lat="45.62242328611936" lon="9.510352444512876"><ele>183.33333333333334</ele><time>2026-05-04T15:19:49Z</time></trkpt><trkpt lat="45.62255454158749" lon="9.510282247786572"><ele>186.0</ele><time>2026-05-04T15:19:50Z</time></trkpt><trkpt lat="45.62270769691529" lon="9.510199764859733"><ele>180.33333333333334</ele><time>2026-05-04T15:19:51Z</time></trkpt><trkpt lat="45.622866620846644" lon="9.510110033111017"><ele>174.66666666666669</ele><time>2026-05-04T15:19:52Z</time></trkpt><trkpt lat="45.623012945149" lon="9.509969270005275"><ele>169.0</ele><time>2026-05-04T15:19:53Z</time></trkpt><trkpt lat="45.6231622408065" lon="9.509818500629741"><ele>169.0</ele><time>2026-05-04T15:19:54Z</time></trkpt><trkpt lat="45.623317208324906" lon="9.509685204813183"><ele>169.0</ele><time>2026-05-04T15:19:55Z</time></trkpt><trkpt lat="45.62344661245636" lon="9.509531533830508"><ele>169.0</ele><time>2026-05-04T15:19:56Z</time></trkpt><trkpt lat="45.62357644072311" lon="9.509402881089954"><ele>166.66666666666669</ele><time>2026-05-04T15:19:57Z</time></trkpt><trkpt lat="45.623713585721895" lon="9.509288140483415"><ele>164.33333333333334</ele><time>2026-05-04T15:19:58Z</time></trkpt><trkpt lat="45.623832902915225" lon="9.509168317842228"><ele>162.0</ele><time>2026-05-04T15:19:59Z</time></trkpt><trkpt lat="45.6239599730462" lon="9.50903486257865"><ele>162.0</ele><time>2026-05-04T15:20:00Z</time></trkpt><trkpt lat="45.62408533599127" lon="9.508867948274952"><ele>162.0</ele><time>2026-05-04T15:20:01Z</time></trkpt><trkpt lat="45.62419557032583" lon="9.508704133649534"><ele>162.0</ele><time>2026-05-04T15:20:02Z</time></trkpt><trkpt lat="45.62430199922214" lon="9.508550957644097"><ele>162.75</ele><time>2026-05-04T15:20:03Z</time></trkpt><trkpt lat="45.62439661170415" lon="9.508407200058926"><ele>163.5</ele><time>2026-05-04T15:20:04Z</time></trkpt><trkpt lat="45.62446582507733" lon="9.50825706809698"><ele>164.25</ele><time>2026-05-04T15:20:05Z</time></trkpt><trkpt lat="45.62454847437418" lon="9.50811867240044"><ele>165.0</ele><time>2026-05-04T15:20:06Z</time></trkpt><trkpt lat="45.62462239076343" lon="9.507969178413969"><ele>166.5</ele><time>2026-05-04T15:20:07Z</time></trkpt><trkpt lat="45.6246898893317" lon="9.507836320805112"><ele>168.0</ele><time>2026-05-04T15:20:08Z</time></trkpt><trkpt lat="45.62475967319721" lon="9.507697457344273"><ele>169.5</ele><time>2026-05-04T15:20:09Z</time></trkpt><trkpt lat="45.624819725345304" lon="9.507530240071011"><ele>171.0</ele><time>2026-05-04T15:20:10Z</time></trkpt><trkpt lat="45.62489387014678" lon="9.507372049543395"><ele>171.0</ele><time>2026-05-04T15:20:11Z</time></trkpt><trkpt lat="45.624975898128476" lon="9.507221416067113"><ele>171.0</ele><time>2026-05-04T15:20:12Z</time></trkpt><trkpt lat="45.62505458460519" lon="9.507028367651921"><ele>171.0</ele><time>2026-05-04T15:20:13Z</time></trkpt><trkpt lat="45.625145128629036" lon="9.50682389401188"><ele>169.0</ele><time>2026-05-04T15:20:14Z</time></trkpt><trkpt lat="45.62523328493949" lon="9.506594100453968"><ele>167.0</ele><time>2026-05-04T15:20:15Z</time></trkpt><trkpt lat="45.62531850577189" lon="9.506367520088792"><ele>165.0</ele><time>2026-05-04T15:20:16Z</time></trkpt><trkpt lat="45.62540526354" lon="9.506151396162851"><ele>165.0</ele><time>2026-05-04T15:20:17Z</time></trkpt><trkpt lat="45.625494683781675" lon="9.505938834546606"><ele>165.0</ele><time>2026-05-04T15:20:18Z</time></trkpt><trkpt lat="45.625589891454965" lon="9.505729163607954"><ele>165.0</ele><time>2026-05-04T15:20:19Z</time></trkpt><trkpt lat="45.62568635639204" lon="9.505521405173713"><ele>170.0</ele><time>2026-05-04T15:20:20Z</time></trkpt><trkpt lat="45.6257795353171" lon="9.505316526114376"><ele>175.0</ele><time>2026-05-04T15:20:21Z</time></trkpt><trkpt lat="45.62586610982012" lon="9.505127952600617"><ele>180.0</ele><time>2026-05-04T15:20:22Z</time></trkpt><trkpt lat="45.62595579978938" lon="9.504934670518582"><ele>180.0</ele><time>2026-05-04T15:20:23Z</time></trkpt><trkpt lat="45.62604443490881" lon="9.504744043664342"><ele>180.0</ele><time>2026-05-04T15:20:24Z</time></trkpt><trkpt lat="45.62613640731121" lon="9.504551343177273"><ele>180.0</ele><time>2026-05-04T15:20:25Z</time></trkpt><trkpt lat="45.62622870179969" lon="9.504357967803234"><ele>174.33333333333334</ele><time>2026-05-04T15:20:26Z</time></trkpt><trkpt lat="45.62631924673914" lon="9.504165901638057"><ele>168.66666666666669</ele><time>2026-05-04T15:20:27Z</time></trkpt><trkpt lat="45.62640471055392" lon="9.503981146653503"><ele>163.0</ele><time>2026-05-04T15:20:28Z</time></trkpt><trkpt lat="45.62649061157885" lon="9.503795446504899"><ele>167.0</ele><time>2026-05-04T15:20:29Z</time></trkpt><trkpt lat="45.626579721658594" lon="9.503602809031575"><ele>171.0</ele><time>2026-05-04T15:20:30Z</time></trkpt><trkpt lat="45.626667932731415" lon="9.503412115049107"><ele>175.0</ele><time>2026-05-04T15:20:31Z</time></trkpt><trkpt lat="45.62674504175226" lon="9.503245421469286"><ele>175.0</ele><time>2026-05-04T15:20:32Z</time></trkpt><trkpt lat="45.626826325105455" lon="9.503085957272287"><ele>175.0</ele><time>2026-05-04T15:20:33Z</time></trkpt><trkpt lat="45.62690928832306" lon="9.502935755608437"><ele>175.0</ele><time>2026-05-04T15:20:34Z</time></trkpt><trkpt lat="45.62698075192589" lon="9.502792012571762"><ele>175.0</ele><time>2026-05-04T15:20:35Z</time></trkpt><trkpt lat="45.62707748146869" lon="9.502579645938845"><ele>174.0</ele><time>2026-05-04T15:20:36Z</time></trkpt><trkpt lat="45.62713733425215" lon="9.502475407892428"><ele>173.0</ele><time>2026-05-04T15:20:37Z</time></trkpt><trkpt lat="45.627196884268486" lon="9.502354961516673"><ele>172.0</ele><time>2026-05-04T15:20:38Z</time></trkpt><trkpt lat="45.62724694455462" lon="9.502239547823507"><ele>171.0</ele><time>2026-05-04T15:20:39Z</time></trkpt><trkpt lat="45.62728625344507" lon="9.502133831850898"><ele>170.0</ele><time>2026-05-04T15:20:40Z</time></trkpt><trkpt lat="45.627322220951534" lon="9.502031306081282"><ele>170.0</ele><time>2026-05-04T15:20:41Z</time></trkpt><trkpt lat="45.62735671514376" lon="9.501930028037021"><ele>170.0</ele><time>2026-05-04T15:20:42Z</time></trkpt><trkpt lat="45.62738729094038" lon="9.501839650531853"><ele>170.0</ele><time>2026-05-04T15:20:43Z</time></trkpt><trkpt lat="45.627428224795516" lon="9.50171797936843"><ele>170.0</ele><time>2026-05-04T15:20:45Z</time></trkpt><trkpt lat="45.62749401258933" lon="9.501522432093497"><ele>170.0</ele><time>2026-05-04T15:20:47Z</time></trkpt><trkpt lat="45.627582483949766" lon="9.501409612164752"><ele>170.0</ele><time>2026-05-04T15:20:48Z</time></trkpt><trkpt lat="45.62763659294681" lon="9.501255904891671"><ele>170.0</ele><time>2026-05-04T15:20:49Z</time></trkpt><trkpt lat="45.62771411557104" lon="9.501109813386893"><ele>170.0</ele><time>2026-05-04T15:20:50Z</time></trkpt><trkpt lat="45.62780059253682" lon="9.50097159525871"><ele>170.0</ele><time>2026-05-04T15:20:51Z</time></trkpt><trkpt lat="45.62790952614822" lon="9.500829721310199"><ele>169.2</ele><time>2026-05-04T15:20:52Z</time></trkpt><trkpt lat="45.62799152946775" lon="9.500715004227507"><ele>168.4</ele><time>2026-05-04T15:20:53Z</time></trkpt><trkpt lat="45.62805032031156" lon="9.500619267927426"><ele>167.60000000000002</ele><time>2026-05-04T15:20:54Z</time></trkpt><trkpt lat="45.62811288544353" lon="9.500500133753793"><ele>166.8</ele><time>2026-05-04T15:20:55Z</time></trkpt><trkpt lat="45.628175314526224" lon="9.500331852747518"><ele>166.0</ele><time>2026-05-04T15:20:56Z</time></trkpt><trkpt lat="45.62824384779499" lon="9.500138865158725"><ele>167.60000000000002</ele><time>2026-05-04T15:20:57Z</time></trkpt><trkpt lat="45.62823133824669" lon="9.500002346106811"><ele>169.2</ele><time>2026-05-04T15:20:58Z</time></trkpt><trkpt lat="45.62829152708234" lon="9.499861103121487"><ele>170.8</ele><time>2026-05-04T15:20:59Z</time></trkpt><trkpt lat="45.62834611676424" lon="9.499727376325568"><ele>172.39999999999998</ele><time>2026-05-04T15:21:00Z</time></trkpt><trkpt lat="45.628417450722786" lon="9.499594011019855"><ele>174.0</ele><time>2026-05-04T15:21:01Z</time></trkpt><trkpt lat="45.62852280805675" lon="9.499434517685334"><ele>170.33333333333334</ele><time>2026-05-04T15:21:02Z</time></trkpt><trkpt lat="45.628627152499675" lon="9.499272815195539"><ele>166.66666666666669</ele><time>2026-05-04T15:21:03Z</time></trkpt><trkpt lat="45.62873226033821" lon="9.499090087721918"><ele>163.0</ele><time>2026-05-04T15:21:04Z</time></trkpt><trkpt lat="45.628809335360536" lon="9.498937785955421"><ele>163.0</ele><time>2026-05-04T15:21:05Z</time></trkpt><trkpt lat="45.62889144617089" lon="9.49878608603991"><ele>163.0</ele><time>2026-05-04T15:21:06Z</time></trkpt><trkpt lat="45.62896510297772" lon="9.498651728295643"><ele>163.0</ele><time>2026-05-04T15:21:07Z</time></trkpt><trkpt lat="45.629034110501" lon="9.498533327290978"><ele>163.0</ele><time>2026-05-04T15:21:08Z</time></trkpt><trkpt lat="45.6291282372496" lon="9.498399237386776"><ele>162.5</ele><time>2026-05-04T15:21:09Z</time></trkpt><trkpt lat="45.62922793885749" lon="9.498263625627173"><ele>162.0</ele><time>2026-05-04T15:21:10Z</time></trkpt><trkpt lat="45.629333398685695" lon="9.498143907464978"><ele>161.5</ele><time>2026-05-04T15:21:11Z</time></trkpt><trkpt lat="45.62940244802305" lon="9.498005075009102"><ele>161.0</ele><time>2026-05-04T15:21:12Z</time></trkpt><trkpt lat="45.62952427176116" lon="9.497828815519098"><ele>161.0</ele><time>2026-05-04T15:21:13Z</time></trkpt><trkpt lat="45.62959060880085" lon="9.49770460311214"><ele>161.0</ele><time>2026-05-04T15:21:14Z</time></trkpt><trkpt lat="45.629658305432734" lon="9.497576902625868"><ele>161.0</ele><time>2026-05-04T15:21:15Z</time></trkpt><trkpt lat="45.62972022558076" lon="9.497485981612694"><ele>161.0</ele><time>2026-05-04T15:21:16Z</time></trkpt><trkpt lat="45.62978515273144" lon="9.497426038430747"><ele>161.0</ele><time>2026-05-04T15:21:17Z</time></trkpt><trkpt lat="45.62986679004106" lon="9.497354080215601"><ele>161.0</ele><time>2026-05-04T15:21:18Z</time></trkpt><trkpt lat="45.62995502900917" lon="9.497287316831622"><ele>161.0</ele><time>2026-05-04T15:21:19Z</time></trkpt><trkpt lat="45.63002149948656" lon="9.497244701705654"><ele>161.0</ele><time>2026-05-04T15:21:20Z</time></trkpt><trkpt lat="45.63009740069911" lon="9.497154751506992"><ele>161.0</ele><time>2026-05-04T15:21:21Z</time></trkpt><trkpt lat="45.63023138081872" lon="9.497100280670415"><ele>161.0</ele><time>2026-05-04T15:21:22Z</time></trkpt><trkpt lat="45.63033198043092" lon="9.49697147326297"><ele>159.0</ele><time>2026-05-04T15:21:23Z</time></trkpt><trkpt lat="45.63045231335956" lon="9.496841414049557"><ele>157.0</ele><time>2026-05-04T15:21:24Z</time></trkpt><trkpt lat="45.63056432807106" lon="9.496696641097348"><ele>155.0</ele><time>2026-05-04T15:21:25Z</time></trkpt><trkpt lat="45.63064847301217" lon="9.496556159286456"><ele>153.0</ele><time>2026-05-04T15:21:26Z</time></trkpt><trkpt lat="45.63071211245752" lon="9.496441953957694"><ele>153.0</ele><time>2026-05-04T15:21:27Z</time></trkpt><trkpt lat="45.6307549661414" lon="9.496364044140087"><ele>153.0</ele><time>2026-05-04T15:21:28Z</time></trkpt><trkpt lat="45.63082781158829" lon="9.496222592906344"><ele>153.0</ele><time>2026-05-04T15:21:30Z</time></trkpt><trkpt lat="45.6308605180419" lon="9.49614546122447"><ele>153.0</ele><time>2026-05-04T15:21:31Z</time></trkpt><trkpt lat="45.63086960368214" lon="9.49605362514508"><ele>153.0</ele><time>2026-05-04T15:21:32Z</time></trkpt><trkpt lat="45.630930011643756" lon="9.49596349913955"><ele>153.0</ele><time>2026-05-04T15:21:34Z</time></trkpt><trkpt lat="45.63096909424958" lon="9.49589005385237"><ele>153.14285714285714</ele><time>2026-05-04T15:21:35Z</time></trkpt><trkpt lat="45.631011760186155" lon="9.495812262793924"><ele>153.28571428571428</ele><time>2026-05-04T15:21:36Z</time></trkpt><trkpt lat="45.63105264620317" lon="9.495738170045842"><ele>153.42857142857144</ele><time>2026-05-04T15:21:37Z</time></trkpt><trkpt lat="45.63109977184843" lon="9.49565077078557"><ele>153.57142857142856</ele><time>2026-05-04T15:21:38Z</time></trkpt><trkpt lat="45.631144003580374" lon="9.495565655017632"><ele>153.71428571428572</ele><time>2026-05-04T15:21:39Z</time></trkpt><trkpt lat="45.631193655848755" lon="9.495480865875372"><ele>153.85714285714286</ele><time>2026-05-04T15:21:40Z</time></trkpt><trkpt lat="45.63121823048341" lon="9.495380601180914"><ele>154.0</ele><time>2026-05-04T15:21:41Z</time></trkpt><trkpt lat="45.63124188695616" lon="9.495294175059346"><ele>155.16666666666669</ele><time>2026-05-04T15:21:42Z</time></trkpt><trkpt lat="45.631322867540554" lon="9.495185218436427"><ele>156.33333333333334</ele><time>2026-05-04T15:21:43Z</time></trkpt><trkpt lat="45.63136767644228" lon="9.495106814191802"><ele>157.5</ele><time>2026-05-04T15:21:44Z</time></trkpt><trkpt lat="45.63141742005073" lon="9.495042244760578"><ele>158.66666666666666</ele><time>2026-05-04T15:21:45Z</time></trkpt><trkpt lat="45.63149577907745" lon="9.494947605309914"><ele>159.83333333333331</ele><time>2026-05-04T15:21:46Z</time></trkpt><trkpt lat="45.631559959216865" lon="9.494885494770266"><ele>161.0</ele><time>2026-05-04T15:21:47Z</time></trkpt><trkpt lat="45.6316352974032" lon="9.494820073520103"><ele>161.0</ele><time>2026-05-04T15:21:48Z</time></trkpt><trkpt lat="45.631725532069126" lon="9.494723095968997"><ele>161.0</ele><time>2026-05-04T15:21:49Z</time></trkpt><trkpt lat="45.63179558163483" lon="9.494690615688292"><ele>161.0</ele><time>2026-05-04T15:21:50Z</time></trkpt><trkpt lat="45.63186077755357" lon="9.494659324660486"><ele>161.0</ele><time>2026-05-04T15:21:51Z</time></trkpt><trkpt lat="45.63192338542917" lon="9.494614697243925"><ele>161.0</ele><time>2026-05-04T15:21:52Z</time></trkpt><trkpt lat="45.63198533787652" lon="9.49454412087316"><ele>161.0</ele><time>2026-05-04T15:21:53Z</time></trkpt><trkpt lat="45.63204767777293" lon="9.494474859789397"><ele>160.83333333333331</ele><time>2026-05-04T15:21:54Z</time></trkpt><trkpt lat="45.63211174800994" lon="9.494413184302259"><ele>160.66666666666666</ele><time>2026-05-04T15:21:55Z</time></trkpt><trkpt lat="45.632187811765526" lon="9.494368410334307"><ele>160.5</ele><time>2026-05-04T15:21:56Z</time></trkpt><trkpt lat="45.632254302271335" lon="9.49428917975743"><ele>160.33333333333334</ele><time>2026-05-04T15:21:57Z</time></trkpt><trkpt lat="45.632336835063604" lon="9.494234261311203"><ele>160.16666666666669</ele><time>2026-05-04T15:21:58Z</time></trkpt><trkpt lat="45.63241928207188" lon="9.49418343110934"><ele>160.0</ele><time>2026-05-04T15:21:59Z</time></trkpt><trkpt lat="45.63249864054644" lon="9.494150675860144"><ele>160.0</ele><time>2026-05-04T15:22:00Z</time></trkpt><trkpt lat="45.63257765145433" lon="9.49409942264124"><ele>160.0</ele><time>2026-05-04T15:22:01Z</time></trkpt><trkpt lat="45.632662867178546" lon="9.49405940731497"><ele>160.0</ele><time>2026-05-04T15:22:02Z</time></trkpt><trkpt lat="45.63275101575161" lon="9.494012367119899"><ele>160.0</ele><time>2026-05-04T15:22:03Z</time></trkpt><trkpt lat="45.63284313779307" lon="9.49397942036716"><ele>160.0</ele><time>2026-05-04T15:22:04Z</time></trkpt><trkpt lat="45.63295569265568" lon="9.493968334270827"><ele>157.75</ele><time>2026-05-04T15:22:05Z</time></trkpt><trkpt lat="45.63306125293891" lon="9.49390937778028"><ele>155.5</ele><time>2026-05-04T15:22:06Z</time></trkpt><trkpt lat="45.63318204933074" lon="9.49389113126772"><ele>153.25</ele><time>2026-05-04T15:22:07Z</time></trkpt><trkpt lat="45.6332950313631" lon="9.493875139646338"><ele>151.0</ele><time>2026-05-04T15:22:08Z</time></trkpt><trkpt lat="45.633420526341595" lon="9.493841618650809"><ele>151.0</ele><time>2026-05-04T15:22:09Z</time></trkpt><trkpt lat="45.63351952869997" lon="9.49384972751564"><ele>151.0</ele><time>2026-05-04T15:22:10Z</time></trkpt><trkpt lat="45.633646021412225" lon="9.49382790243535"><ele>151.0</ele><time>2026-05-04T15:22:11Z</time></trkpt><trkpt lat="45.63376045384457" lon="9.493821468288774"><ele>151.0</ele><time>2026-05-04T15:22:12Z</time></trkpt><trkpt lat="45.63386452616642" lon="9.493835410488945"><ele>151.0</ele><time>2026-05-04T15:22:13Z</time></trkpt><trkpt lat="45.63396197011402" lon="9.493834035667335"><ele>151.5</ele><time>2026-05-04T15:22:14Z</time></trkpt><trkpt lat="45.63406705927797" lon="9.49384502395567"><ele>152.0</ele><time>2026-05-04T15:22:15Z</time></trkpt><trkpt lat="45.63417892411397" lon="9.493885121661958"><ele>152.5</ele><time>2026-05-04T15:22:16Z</time></trkpt><trkpt lat="45.634297976177" lon="9.493912287729898"><ele>153.0</ele><time>2026-05-04T15:22:17Z</time></trkpt><trkpt lat="45.63441306633841" lon="9.493919639083385"><ele>152.33333333333334</ele><time>2026-05-04T15:22:18Z</time></trkpt><trkpt lat="45.634546588868105" lon="9.493963801521797"><ele>151.66666666666669</ele><time>2026-05-04T15:22:19Z</time></trkpt><trkpt lat="45.634696139076986" lon="9.494022042512524"><ele>151.0</ele><time>2026-05-04T15:22:20Z</time></trkpt><trkpt lat="45.6348722882187" lon="9.494085033576326"><ele>151.0</ele><time>2026-05-04T15:22:21Z</time></trkpt><trkpt lat="45.635066963802316" lon="9.494148969399077"><ele>151.0</ele><time>2026-05-04T15:22:22Z</time></trkpt><trkpt lat="45.63522986218094" lon="9.494200466489369"><ele>151.0</ele><time>2026-05-04T15:22:23Z</time></trkpt><trkpt lat="45.63537771791643" lon="9.494261909942113"><ele>151.66666666666669</ele><time>2026-05-04T15:22:24Z</time></trkpt><trkpt lat="45.635563147151004" lon="9.494350042291268"><ele>152.33333333333334</ele><time>2026-05-04T15:22:25Z</time></trkpt><trkpt lat="45.6357258782348" lon="9.494420848513801"><ele>153.0</ele><time>2026-05-04T15:22:26Z</time></trkpt><trkpt lat="45.63585057422668" lon="9.49447584851314"><ele>153.0</ele><time>2026-05-04T15:22:27Z</time></trkpt><trkpt lat="45.63596688307167" lon="9.494524048203036"><ele>153.0</ele><time>2026-05-04T15:22:28Z</time></trkpt><trkpt lat="45.636075008934846" lon="9.494567208010476"><ele>153.0</ele><time>2026-05-04T15:22:29Z</time></trkpt><trkpt lat="45.63617873789782" lon="9.494599320036123"><ele>153.0</ele><time>2026-05-04T15:22:30Z</time></trkpt><trkpt lat="45.63628504102926" lon="9.494587173578513"><ele>153.0</ele><time>2026-05-04T15:22:31Z</time></trkpt><trkpt lat="45.636374358026515" lon="9.49461865636723"><ele>153.33333333333334</ele><time>2026-05-04T15:22:32Z</time></trkpt><trkpt lat="45.63646358914048" lon="9.494641181808236"><ele>153.66666666666666</ele><time>2026-05-04T15:22:33Z</time></trkpt><trkpt lat="45.63654890622598" lon="9.494654821508744"><ele>154.0</ele><time>2026-05-04T15:22:34Z</time></trkpt><trkpt lat="45.63661970707602" lon="9.494656734426387"><ele>154.33333333333331</ele><time>2026-05-04T15:22:35Z</time></trkpt><trkpt lat="45.63669775998415" lon="9.494650094444218"><ele>154.66666666666666</ele><time>2026-05-04T15:22:36Z</time></trkpt><trkpt lat="45.63678400556694" lon="9.494639621487114"><ele>155.0</ele><time>2026-05-04T15:22:37Z</time></trkpt><trkpt lat="45.63685493270931" lon="9.494632269249916"><ele>155.0</ele><time>2026-05-04T15:22:38Z</time></trkpt><trkpt lat="45.636929439560404" lon="9.494633759692126"><ele>155.0</ele><time>2026-05-04T15:22:39Z</time></trkpt><trkpt lat="45.63701455569173" lon="9.494617215422867"><ele>155.0</ele><time>2026-05-04T15:22:40Z</time></trkpt><trkpt lat="45.63709903301314" lon="9.494601776129596"><ele>155.0</ele><time>2026-05-04T15:22:41Z</time></trkpt><trkpt lat="45.63718596210196" lon="9.494582457147583"><ele>155.0</ele><time>2026-05-04T15:22:42Z</time></trkpt><trkpt lat="45.63727235459314" lon="9.49455405708331"><ele>155.0</ele><time>2026-05-04T15:22:43Z</time></trkpt><trkpt lat="45.63736000829669" lon="9.49452391580041"><ele>154.8</ele><time>2026-05-04T15:22:44Z</time></trkpt><trkpt lat="45.63744674827416" lon="9.494501931159968"><ele>154.6</ele><time>2026-05-04T15:22:45Z</time></trkpt><trkpt lat="45.637526272583024" lon="9.494486668150508"><ele>154.4</ele><time>2026-05-04T15:22:46Z</time></trkpt><trkpt lat="45.637684103108526" lon="9.494415756844894"><ele>154.2</ele><time>2026-05-04T15:22:48Z</time></trkpt><trkpt lat="45.63777482140634" lon="9.494381001444442"><ele>154.0</ele><time>2026-05-04T15:22:49Z</time></trkpt><trkpt lat="45.6378590727275" lon="9.49434269891639"><ele>153.8</ele><time>2026-05-04T15:22:50Z</time></trkpt><trkpt lat="45.63794972344883" lon="9.494307964365865"><ele>153.60000000000002</ele><time>2026-05-04T15:22:51Z</time></trkpt><trkpt lat="45.638049603157604" lon="9.494279481562504"><ele>153.4</ele><time>2026-05-04T15:22:52Z</time></trkpt><trkpt lat="45.638142266487776" lon="9.494252751754138"><ele>153.20000000000002</ele><time>2026-05-04T15:22:53Z</time></trkpt><trkpt lat="45.638237128255426" lon="9.49422895316754"><ele>153.0</ele><time>2026-05-04T15:22:54Z</time></trkpt><trkpt lat="45.63831646411692" lon="9.494202411449496"><ele>153.0</ele><time>2026-05-04T15:22:55Z</time></trkpt><trkpt lat="45.63842421886078" lon="9.494177335697772"><ele>153.0</ele><time>2026-05-04T15:22:56Z</time></trkpt><trkpt lat="45.638543299504505" lon="9.494142247548863"><ele>153.0</ele><time>2026-05-04T15:22:57Z</time></trkpt><trkpt lat="45.63866772768238" lon="9.494105459146024"><ele>153.0</ele><time>2026-05-04T15:22:58Z</time></trkpt><trkpt lat="45.63878804224305" lon="9.494086189418553"><ele>152.25</ele><time>2026-05-04T15:22:59Z</time></trkpt><trkpt lat="45.638899496491916" lon="9.494055218699508"><ele>151.5</ele><time>2026-05-04T15:23:00Z</time></trkpt><trkpt lat="45.63901157541558" lon="9.494041300985923"><ele>150.75</ele><time>2026-05-04T15:23:01Z</time></trkpt><trkpt lat="45.63912486615988" lon="9.494018895174094"><ele>150.0</ele><time>2026-05-04T15:23:02Z</time></trkpt><trkpt lat="45.63924024021658" lon="9.493991171114864"><ele>150.0</ele><time>2026-05-04T15:23:03Z</time></trkpt><trkpt lat="45.639351362821664" lon="9.493979254265833"><ele>150.0</ele><time>2026-05-04T15:23:04Z</time></trkpt><trkpt lat="45.63947882178594" lon="9.493977800701217"><ele>150.0</ele><time>2026-05-04T15:23:05Z</time></trkpt><trkpt lat="45.63960238676202" lon="9.493977113941545"><ele>150.0</ele><time>2026-05-04T15:23:06Z</time></trkpt><trkpt lat="45.639758331349505" lon="9.493965176247345"><ele>149.66666666666666</ele><time>2026-05-04T15:23:07Z</time></trkpt><trkpt lat="45.6399406418819" lon="9.493958974416117"><ele>149.33333333333331</ele><time>2026-05-04T15:23:08Z</time></trkpt><trkpt lat="45.64010718622946" lon="9.493956072737824"><ele>149.0</ele><time>2026-05-04T15:23:09Z</time></trkpt><trkpt lat="45.64024137640932" lon="9.493947385779165"><ele>149.75</ele><time>2026-05-04T15:23:10Z</time></trkpt><trkpt lat="45.64036132679927" lon="9.49394993059502"><ele>150.5</ele><time>2026-05-04T15:23:11Z</time></trkpt><trkpt lat="45.64047909180917" lon="9.493953220571598"><ele>151.25</ele><time>2026-05-04T15:23:12Z</time></trkpt><trkpt lat="45.64059569853633" lon="9.493949897336739"><ele>152.0</ele><time>2026-05-04T15:23:13Z</time></trkpt><trkpt lat="45.64069337064476" lon="9.49396452257936"><ele>152.0</ele><time>2026-05-04T15:23:14Z</time></trkpt><trkpt lat="45.64077572096603" lon="9.4939755129802"><ele>152.0</ele><time>2026-05-04T15:23:15Z</time></trkpt><trkpt lat="45.64086150231863" lon="9.493996527271301"><ele>152.0</ele><time>2026-05-04T15:23:16Z</time></trkpt><trkpt lat="45.64096227952795" lon="9.494015681435853"><ele>152.0</ele><time>2026-05-04T15:23:17Z</time></trkpt><trkpt lat="45.64106946882405" lon="9.494029048661538"><ele>152.0</ele><time>2026-05-04T15:23:18Z</time></trkpt><trkpt lat="45.641176890576205" lon="9.494032775591002"><ele>153.25</ele><time>2026-05-04T15:23:19Z</time></trkpt><trkpt lat="45.64128942122685" lon="9.494037847166414"><ele>154.5</ele><time>2026-05-04T15:23:20Z</time></trkpt><trkpt lat="45.641387433109415" lon="9.494048423398125"><ele>155.75</ele><time>2026-05-04T15:23:21Z</time></trkpt><trkpt lat="45.641499316068966" lon="9.494060500485485"><ele>157.0</ele><time>2026-05-04T15:23:22Z</time></trkpt><trkpt lat="45.64162930310197" lon="9.494086881435205"><ele>157.0</ele><time>2026-05-04T15:23:23Z</time></trkpt><trkpt lat="45.6417737274614" lon="9.494124728323456"><ele>157.0</ele><time>2026-05-04T15:23:24Z</time></trkpt><trkpt lat="45.64191352823879" lon="9.49414423113332"><ele>157.0</ele><time>2026-05-04T15:23:25Z</time></trkpt><trkpt lat="45.64204699442568" lon="9.494157038392228"><ele>157.0</ele><time>2026-05-04T15:23:26Z</time></trkpt><trkpt lat="45.642175735048994" lon="9.4941634233106"><ele>156.0</ele><time>2026-05-04T15:23:27Z</time></trkpt><trkpt lat="45.642301287894924" lon="9.494173229403765"><ele>155.0</ele><time>2026-05-04T15:23:28Z</time></trkpt><trkpt lat="45.64243207808659" lon="9.494193366044781"><ele>154.0</ele><time>2026-05-04T15:23:29Z</time></trkpt><trkpt lat="45.64256780452521" lon="9.494211038894154"><ele>153.0</ele><time>2026-05-04T15:23:30Z</time></trkpt><trkpt lat="45.64271538730523" lon="9.494220783160607"><ele>153.25</ele><time>2026-05-04T15:23:31Z</time></trkpt><trkpt lat="45.642855948229986" lon="9.494238139127635"><ele>153.5</ele><time>2026-05-04T15:23:32Z</time></trkpt><trkpt lat="45.64299177599846" lon="9.494244755075501"><ele>153.75</ele><time>2026-05-04T15:23:33Z</time></trkpt><trkpt lat="45.64312195383309" lon="9.494244677102433"><ele>154.0</ele><time>2026-05-04T15:23:34Z</time></trkpt><trkpt lat="45.6432451082068" lon="9.494237506716955"><ele>154.0</ele><time>2026-05-04T15:23:35Z</time></trkpt><trkpt lat="45.64335455109778" lon="9.494241353408844"><ele>154.0</ele><time>2026-05-04T15:23:36Z</time></trkpt><trkpt lat="45.64346953767875" lon="9.494235447862435"><ele>154.0</ele><time>2026-05-04T15:23:37Z</time></trkpt><trkpt lat="45.64359264678655" lon="9.49422542592668"><ele>154.0</ele><time>2026-05-04T15:23:38Z</time></trkpt><trkpt lat="45.64370916280061" lon="9.494220819589247"><ele>154.4</ele><time>2026-05-04T15:23:39Z</time></trkpt><trkpt lat="45.64382357747523" lon="9.49421455050272"><ele>154.8</ele><time>2026-05-04T15:23:40Z</time></trkpt><trkpt lat="45.64393004498994" lon="9.494203692925812"><ele>155.2</ele><time>2026-05-04T15:23:41Z</time></trkpt><trkpt lat="45.64402386453737" lon="9.494189024593501"><ele>155.6</ele><time>2026-05-04T15:23:42Z</time></trkpt><trkpt lat="45.644120945655295" lon="9.494178470718506"><ele>156.0</ele><time>2026-05-04T15:23:43Z</time></trkpt><trkpt lat="45.644219102954864" lon="9.494166924719568"><ele>156.0</ele><time>2026-05-04T15:23:44Z</time></trkpt><trkpt lat="45.6443079776886" lon="9.494156367607165"><ele>156.0</ele><time>2026-05-04T15:23:45Z</time></trkpt><trkpt lat="45.644402073337716" lon="9.494147052302562"><ele>156.0</ele><time>2026-05-04T15:23:46Z</time></trkpt><trkpt lat="45.64449266471371" lon="9.494146058896385"><ele>156.0</ele><time>2026-05-04T15:23:47Z</time></trkpt><trkpt lat="45.64459993571038" lon="9.494152702975853"><ele>156.0</ele><time>2026-05-04T15:23:48Z</time></trkpt><trkpt lat="45.64471948988375" lon="9.494169741646296"><ele>156.25</ele><time>2026-05-04T15:23:49Z</time></trkpt><trkpt lat="45.64480888785893" lon="9.49417195003551"><ele>156.5</ele><time>2026-05-04T15:23:50Z</time></trkpt><trkpt lat="45.64494535116695" lon="9.494176868406976"><ele>156.75</ele><time>2026-05-04T15:23:51Z</time></trkpt><trkpt lat="45.645093040528906" lon="9.494179358745843"><ele>157.0</ele><time>2026-05-04T15:23:53Z</time></trkpt><trkpt lat="45.64517999452225" lon="9.494182745302446"><ele>157.0</ele><time>2026-05-04T15:23:54Z</time></trkpt><trkpt lat="45.64525982116903" lon="9.494186390347746"><ele>157.0</ele><time>2026-05-04T15:23:55Z</time></trkpt><trkpt lat="45.645329137993315" lon="9.494187459289504"><ele>157.0</ele><time>2026-05-04T15:23:56Z</time></trkpt><trkpt lat="45.64539680283895" lon="9.494184290846489"><ele>157.0</ele><time>2026-05-04T15:23:57Z</time></trkpt><trkpt lat="45.645460848847364" lon="9.49418200336137"><ele>157.0</ele><time>2026-05-04T15:23:58Z</time></trkpt><trkpt lat="45.64559140886828" lon="9.494177127787314"><ele>157.0</ele><time>2026-05-04T15:24:00Z</time></trkpt><trkpt lat="45.64567175309386" lon="9.494183484804472"><ele>157.66666666666669</ele><time>2026-05-04T15:24:01Z</time></trkpt><trkpt lat="45.645753885025364" lon="9.494187327112101"><ele>158.33333333333334</ele><time>2026-05-04T15:24:02Z</time></trkpt><trkpt lat="45.64584235496715" lon="9.494179877385866"><ele>159.0</ele><time>2026-05-04T15:24:03Z</time></trkpt><trkpt lat="45.64593358501371" lon="9.494189608073624"><ele>159.66666666666666</ele><time>2026-05-04T15:24:04Z</time></trkpt><trkpt lat="45.64602478482815" lon="9.494187144042904"><ele>160.33333333333331</ele><time>2026-05-04T15:24:05Z</time></trkpt><trkpt lat="45.64611458313095" lon="9.494177768607067"><ele>161.0</ele><time>2026-05-04T15:24:06.001Z</time></trkpt><trkpt lat="45.64619249452867" lon="9.494175646064061"><ele>161.0</ele><time>2026-05-04T15:24:07.001Z</time></trkpt><trkpt lat="45.646284099715054" lon="9.494166468412018"><ele>161.0</ele><time>2026-05-04T15:24:08.001Z</time></trkpt><trkpt lat="45.64638087629627" lon="9.494168859223318"><ele>161.0</ele><time>2026-05-04T15:24:09.001Z</time></trkpt><trkpt lat="45.64646314305669" lon="9.494163312617356"><ele>161.0</ele><time>2026-05-04T15:24:10.001Z</time></trkpt><trkpt lat="45.64654956047121" lon="9.494147005537416"><ele>161.0</ele><time>2026-05-04T15:24:11.001Z</time></trkpt><trkpt lat="45.64662757557598" lon="9.494162802169352"><ele>161.0</ele><time>2026-05-04T15:24:12.001Z</time></trkpt><trkpt lat="45.64670889265823" lon="9.494136804923569"><ele>161.0</ele><time>2026-05-04T15:24:13.001Z</time></trkpt><trkpt lat="45.6468013256267" lon="9.494128919509958"><ele>161.0</ele><time>2026-05-04T15:24:14.001Z</time></trkpt><trkpt lat="45.64688846407807" lon="9.494121756638556"><ele>161.0</ele><time>2026-05-04T15:24:15Z</time></trkpt><trkpt lat="45.64697466709076" lon="9.494113763005057"><ele>161.0</ele><time>2026-05-04T15:24:16Z</time></trkpt><trkpt lat="45.64707231165055" lon="9.49410362372794"><ele>161.0</ele><time>2026-05-04T15:24:17Z</time></trkpt><trkpt lat="45.64716567137019" lon="9.494076198297606"><ele>160.0</ele><time>2026-05-04T15:24:18Z</time></trkpt><trkpt lat="45.647252928130186" lon="9.49405268119283"><ele>159.0</ele><time>2026-05-04T15:24:19Z</time></trkpt><trkpt lat="45.647318263568984" lon="9.494018294876863"><ele>158.0</ele><time>2026-05-04T15:24:20Z</time></trkpt><trkpt lat="45.647382878065656" lon="9.493955072681631"><ele>157.0</ele><time>2026-05-04T15:24:21Z</time></trkpt><trkpt lat="45.64744607191907" lon="9.493901406427804"><ele>156.0</ele><time>2026-05-04T15:24:22Z</time></trkpt><trkpt lat="45.64756395464952" lon="9.493801330076916"><ele>155.0</ele><time>2026-05-04T15:24:24Z</time></trkpt><trkpt lat="45.64763219174734" lon="9.493765135965374"><ele>154.5</ele><time>2026-05-04T15:24:25Z</time></trkpt><trkpt lat="45.64769209283821" lon="9.49367509437719"><ele>154.0</ele><time>2026-05-04T15:24:26Z</time></trkpt><trkpt lat="45.64776682288349" lon="9.493604837743938"><ele>153.5</ele><time>2026-05-04T15:24:27Z</time></trkpt><trkpt lat="45.647833710658986" lon="9.493530993886717"><ele>153.0</ele><time>2026-05-04T15:24:28Z</time></trkpt><trkpt lat="45.64789578626014" lon="9.493461932692506"><ele>152.5</ele><time>2026-05-04T15:24:29Z</time></trkpt><trkpt lat="45.64794727842803" lon="9.493359781414183"><ele>152.0</ele><time>2026-05-04T15:24:30Z</time></trkpt><trkpt lat="45.64801002752462" lon="9.49324824097567"><ele>152.0</ele><time>2026-05-04T15:24:31Z</time></trkpt><trkpt lat="45.64807857474657" lon="9.493160394269712"><ele>152.0</ele><time>2026-05-04T15:24:32Z</time></trkpt><trkpt lat="45.64812874520919" lon="9.493071952986858"><ele>152.0</ele><time>2026-05-04T15:24:33Z</time></trkpt><trkpt lat="45.648180991139846" lon="9.492964121343528"><ele>152.0</ele><time>2026-05-04T15:24:34Z</time></trkpt><trkpt lat="45.64820648122948" lon="9.492834088550705"><ele>152.0</ele><time>2026-05-04T15:24:35Z</time></trkpt><trkpt lat="45.64826402828149" lon="9.492720784253716"><ele>152.4</ele><time>2026-05-04T15:24:36Z</time></trkpt><trkpt lat="45.6482906632361" lon="9.492589785094182"><ele>152.79999999999998</ele><time>2026-05-04T15:24:37Z</time></trkpt><trkpt lat="45.648325147689796" lon="9.492440177005987"><ele>153.2</ele><time>2026-05-04T15:24:38Z</time></trkpt><trkpt lat="45.64835764843746" lon="9.492271838070813"><ele>153.6</ele><time>2026-05-04T15:24:39Z</time></trkpt><trkpt lat="45.64840064321937" lon="9.49214432557029"><ele>154.0</ele><time>2026-05-04T15:24:40Z</time></trkpt><trkpt lat="45.64844396350145" lon="9.491997948611395"><ele>154.0</ele><time>2026-05-04T15:24:41Z</time></trkpt><trkpt lat="45.64848313173639" lon="9.491830624360574"><ele>154.0</ele><time>2026-05-04T15:24:42Z</time></trkpt><trkpt lat="45.648556160750466" lon="9.491646132595237"><ele>154.0</ele><time>2026-05-04T15:24:43Z</time></trkpt><trkpt lat="45.64861058918502" lon="9.491486461061616"><ele>154.0</ele><time>2026-05-04T15:24:44Z</time></trkpt><trkpt lat="45.648667034747575" lon="9.491335197545835"><ele>153.75</ele><time>2026-05-04T15:24:45Z</time></trkpt><trkpt lat="45.648697198995684" lon="9.491185746656617"><ele>153.5</ele><time>2026-05-04T15:24:46Z</time></trkpt><trkpt lat="45.648753933806674" lon="9.491041741441462"><ele>153.25</ele><time>2026-05-04T15:24:47Z</time></trkpt><trkpt lat="45.64879306054825" lon="9.490884864378769"><ele>153.0</ele><time>2026-05-04T15:24:48Z</time></trkpt><trkpt lat="45.648833039352645" lon="9.490738034574292"><ele>153.0</ele><time>2026-05-04T15:24:49Z</time></trkpt><trkpt lat="45.648874698662254" lon="9.49061157927364"><ele>153.0</ele><time>2026-05-04T15:24:50Z</time></trkpt><trkpt lat="45.64891593025067" lon="9.490502968269587"><ele>153.0</ele><time>2026-05-04T15:24:51Z</time></trkpt><trkpt lat="45.648960272093795" lon="9.490394956130272"><ele>153.0</ele><time>2026-05-04T15:24:52Z</time></trkpt><trkpt lat="45.649007290577124" lon="9.490242443891415"><ele>153.0</ele><time>2026-05-04T15:24:53Z</time></trkpt><trkpt lat="45.64911974717579" lon="9.490110556032851"><ele>153.6</ele><time>2026-05-04T15:24:54Z</time></trkpt><trkpt lat="45.64917771659318" lon="9.489979800234076"><ele>154.20000000000002</ele><time>2026-05-04T15:24:55Z</time></trkpt><trkpt lat="45.6492306038023" lon="9.489891810810596"><ele>154.8</ele><time>2026-05-04T15:24:56Z</time></trkpt><trkpt lat="45.64928639967753" lon="9.489772922069124"><ele>155.4</ele><time>2026-05-04T15:24:57Z</time></trkpt><trkpt lat="45.64934164618648" lon="9.489674378496176"><ele>156.0</ele><time>2026-05-04T15:24:58Z</time></trkpt><trkpt lat="45.6493948021793" lon="9.489552117232487"><ele>155.5</ele><time>2026-05-04T15:24:59Z</time></trkpt><trkpt lat="45.64946352198743" lon="9.489414507550162"><ele>155.0</ele><time>2026-05-04T15:25:00Z</time></trkpt><trkpt lat="45.649524317569174" lon="9.489242273254785"><ele>154.5</ele><time>2026-05-04T15:25:01Z</time></trkpt><trkpt lat="45.64959911168959" lon="9.48904855034657"><ele>154.0</ele><time>2026-05-04T15:25:02Z</time></trkpt><trkpt lat="45.649682764158904" lon="9.488749572690317"><ele>153.75</ele><time>2026-05-04T15:25:03Z</time></trkpt><trkpt lat="45.64975857871218" lon="9.488547593165539"><ele>153.5</ele><time>2026-05-04T15:25:04Z</time></trkpt><trkpt lat="45.649837219490394" lon="9.488356327541844"><ele>153.25</ele><time>2026-05-04T15:25:05Z</time></trkpt><trkpt lat="45.64987889729879" lon="9.48817721064091"><ele>153.0</ele><time>2026-05-04T15:25:06Z</time></trkpt><trkpt lat="45.64991284823789" lon="9.48806118940073"><ele>153.0</ele><time>2026-05-04T15:25:07Z</time></trkpt><trkpt lat="45.64995352848616" lon="9.487927978866846"><ele>153.0</ele><time>2026-05-04T15:25:08Z</time></trkpt><trkpt lat="45.65000332354036" lon="9.487776332890165"><ele>153.0</ele><time>2026-05-04T15:25:09Z</time></trkpt><trkpt lat="45.65003268344086" lon="9.48764183509457"><ele>153.0</ele><time>2026-05-04T15:25:10Z</time></trkpt><trkpt lat="45.650084641530626" lon="9.487523083487531"><ele>153.0</ele><time>2026-05-04T15:25:11Z</time></trkpt><trkpt lat="45.650149435448625" lon="9.48740317818521"><ele>152.8</ele><time>2026-05-04T15:25:12Z</time></trkpt><trkpt lat="45.65020340563066" lon="9.487309179410193"><ele>152.60000000000002</ele><time>2026-05-04T15:25:13Z</time></trkpt><trkpt lat="45.65025319235139" lon="9.487227409664065"><ele>152.39999999999998</ele><time>2026-05-04T15:25:14Z</time></trkpt><trkpt lat="45.65031118078109" lon="9.48711842129338"><ele>152.2</ele><time>2026-05-04T15:25:15Z</time></trkpt><trkpt lat="45.65036994307063" lon="9.48699318435674"><ele>152.0</ele><time>2026-05-04T15:25:16Z</time></trkpt><trkpt lat="45.65040347545611" lon="9.486876669679434"><ele>151.83333333333331</ele><time>2026-05-04T15:25:17Z</time></trkpt><trkpt lat="45.65043788296723" lon="9.486757254223289"><ele>151.66666666666666</ele><time>2026-05-04T15:25:18Z</time></trkpt><trkpt lat="45.65045760823145" lon="9.486652970247219"><ele>151.5</ele><time>2026-05-04T15:25:19Z</time></trkpt><trkpt lat="45.65049104315955" lon="9.486561196387592"><ele>151.33333333333334</ele><time>2026-05-04T15:25:20Z</time></trkpt><trkpt lat="45.65051560676293" lon="9.486471507541125"><ele>151.16666666666669</ele><time>2026-05-04T15:25:21Z</time></trkpt><trkpt lat="45.6505285179817" lon="9.48637134700974"><ele>151.0</ele><time>2026-05-04T15:25:24Z</time></trkpt><trkpt lat="45.65055952379619" lon="9.486267385984146"><ele>152.8</ele><time>2026-05-04T15:25:33Z</time></trkpt><trkpt lat="45.65060369705106" lon="9.486180752010965"><ele>154.6</ele><time>2026-05-04T15:25:34Z</time></trkpt><trkpt lat="45.65064847274609" lon="9.48609154403963"><ele>156.4</ele><time>2026-05-04T15:25:35Z</time></trkpt><trkpt lat="45.65074783578587" lon="9.485951955722921"><ele>158.2</ele><time>2026-05-04T15:25:36Z</time></trkpt><trkpt lat="45.65083233657561" lon="9.485819530018993"><ele>160.0</ele><time>2026-05-04T15:25:37Z</time></trkpt><trkpt lat="45.650902887859885" lon="9.485676248473784"><ele>160.0</ele><time>2026-05-04T15:25:38Z</time></trkpt><trkpt lat="45.650955552950364" lon="9.485576079183403"><ele>160.0</ele><time>2026-05-04T15:25:39Z</time></trkpt><trkpt lat="45.65101835327355" lon="9.485498210268084"><ele>160.0</ele><time>2026-05-04T15:25:40Z</time></trkpt><trkpt lat="45.65109400666307" lon="9.485431143362621"><ele>160.0</ele><time>2026-05-04T15:25:41Z</time></trkpt><trkpt lat="45.65115756328156" lon="9.485380000116201"><ele>160.0</ele><time>2026-05-04T15:25:42Z</time></trkpt><trkpt lat="45.65122534353716" lon="9.485286804689771"><ele>160.0</ele><time>2026-05-04T15:25:44Z</time></trkpt><trkpt lat="45.651355606925065" lon="9.485151401335663"><ele>161.0</ele><time>2026-05-04T15:25:46Z</time></trkpt><trkpt lat="45.65141262906191" lon="9.485082380083774"><ele>162.0</ele><time>2026-05-04T15:25:47Z</time></trkpt><trkpt lat="45.651492803660176" lon="9.485022637610562"><ele>163.0</ele><time>2026-05-04T15:25:48Z</time></trkpt><trkpt lat="45.6515758770115" lon="9.484945092402477"><ele>164.0</ele><time>2026-05-04T15:25:49Z</time></trkpt><trkpt lat="45.65166603210168" lon="9.484857105372289"><ele>165.0</ele><time>2026-05-04T15:25:50Z</time></trkpt><trkpt lat="45.65173906019348" lon="9.484780992066764"><ele>165.0</ele><time>2026-05-04T15:25:51Z</time></trkpt><trkpt lat="45.65181261664931" lon="9.484702671277846"><ele>165.0</ele><time>2026-05-04T15:25:52Z</time></trkpt><trkpt lat="45.65187249212123" lon="9.48463891762424"><ele>165.0</ele><time>2026-05-04T15:25:53Z</time></trkpt><trkpt lat="45.6519502511606" lon="9.484560190988187"><ele>165.0</ele><time>2026-05-04T15:25:55Z</time></trkpt><trkpt lat="45.652009894445996" lon="9.484463003093987"><ele>165.0</ele><time>2026-05-04T15:25:57Z</time></trkpt><trkpt lat="45.65207266859903" lon="9.484411833711588"><ele>165.0</ele><time>2026-05-04T15:25:58Z</time></trkpt><trkpt lat="45.65215015427758" lon="9.484370542979503"><ele>165.2</ele><time>2026-05-04T15:25:59Z</time></trkpt><trkpt lat="45.652234992763184" lon="9.484329108693673"><ele>165.4</ele><time>2026-05-04T15:26:00Z</time></trkpt><trkpt lat="45.65232689259822" lon="9.484291318353508"><ele>165.60000000000002</ele><time>2026-05-04T15:26:01Z</time></trkpt><trkpt lat="45.65240378245132" lon="9.484274513212737"><ele>165.8</ele><time>2026-05-04T15:26:02Z</time></trkpt><trkpt lat="45.652525239445794" lon="9.48425256280744"><ele>166.0</ele><time>2026-05-04T15:26:04Z</time></trkpt><trkpt lat="45.65260138542357" lon="9.484239739871072"><ele>166.0</ele><time>2026-05-04T15:26:05Z</time></trkpt><trkpt lat="45.6526700948761" lon="9.484235835921332"><ele>166.0</ele><time>2026-05-04T15:26:06Z</time></trkpt><trkpt lat="45.652740266976586" lon="9.484253040692266"><ele>166.0</ele><time>2026-05-04T15:26:07Z</time></trkpt><trkpt lat="45.652811033154165" lon="9.484255079208875"><ele>166.0</ele><time>2026-05-04T15:26:08Z</time></trkpt><trkpt lat="45.652886660777106" lon="9.484255531900034"><ele>166.0</ele><time>2026-05-04T15:26:09Z</time></trkpt><trkpt lat="45.65295229002282" lon="9.484270088006728"><ele>166.0</ele><time>2026-05-04T15:26:10Z</time></trkpt><trkpt lat="45.65302696745383" lon="9.484272670602508"><ele>166.0</ele><time>2026-05-04T15:26:11Z</time></trkpt><trkpt lat="45.653093933373576" lon="9.484294951102632"><ele>164.8</ele><time>2026-05-04T15:26:12Z</time></trkpt><trkpt lat="45.65315779595353" lon="9.484287263710693"><ele>163.60000000000002</ele><time>2026-05-04T15:26:13Z</time></trkpt><trkpt lat="45.65322423311183" lon="9.484294302460622"><ele>162.4</ele><time>2026-05-04T15:26:14Z</time></trkpt><trkpt lat="45.653338719346735" lon="9.484357098078064"><ele>161.2</ele><time>2026-05-04T15:26:16Z</time></trkpt><trkpt lat="45.65346167481246" lon="9.484381412499866"><ele>160.0</ele><time>2026-05-04T15:26:18Z</time></trkpt><trkpt lat="45.653573899760644" lon="9.484411053054412"><ele>160.0</ele><time>2026-05-04T15:26:20Z</time></trkpt><trkpt lat="45.65366611227087" lon="9.484479983400933"><ele>160.0</ele><time>2026-05-04T15:26:22Z</time></trkpt><trkpt lat="45.65375243972982" lon="9.484536115819646"><ele>160.0</ele><time>2026-05-04T15:26:24Z</time></trkpt><trkpt lat="45.65384288008225" lon="9.484608433364498"><ele>160.0</ele><time>2026-05-04T15:26:26Z</time></trkpt><trkpt lat="45.65391377863253" lon="9.484684503197776"><ele>160.0</ele><time>2026-05-04T15:26:28Z</time></trkpt><trkpt lat="45.65398897099055" lon="9.484762314332485"><ele>159.4</ele><time>2026-05-04T15:26:31Z</time></trkpt><trkpt lat="45.65404465957368" lon="9.48481777034"><ele>158.8</ele><time>2026-05-04T15:26:33Z</time></trkpt><trkpt lat="45.654132296041006" lon="9.484849348318027"><ele>158.2</ele><time>2026-05-04T15:26:34Z</time></trkpt><trkpt lat="45.65420495143754" lon="9.485027630485755"><ele>157.6</ele><time>2026-05-04T15:26:35Z</time></trkpt><trkpt lat="45.654308767893426" lon="9.485154195845027"><ele>157.0</ele><time>2026-05-04T15:26:36Z</time></trkpt><trkpt lat="45.65441763363799" lon="9.485274109810103"><ele>157.5</ele><time>2026-05-04T15:26:37Z</time></trkpt><trkpt lat="45.65453286840567" lon="9.485424467154072"><ele>158.0</ele><time>2026-05-04T15:26:38Z</time></trkpt><trkpt lat="45.65464978093926" lon="9.485525295456187"><ele>158.5</ele><time>2026-05-04T15:26:39Z</time></trkpt><trkpt lat="45.654766823029696" lon="9.485609105869969"><ele>159.0</ele><time>2026-05-04T15:26:40Z</time></trkpt><trkpt lat="45.65485499461344" lon="9.48567789568153"><ele>157.8</ele><time>2026-05-04T15:26:41Z</time></trkpt><trkpt lat="45.65494282817706" lon="9.485754480745369"><ele>156.60000000000002</ele><time>2026-05-04T15:26:42Z</time></trkpt><trkpt lat="45.655035768519284" lon="9.48579416471304"><ele>155.4</ele><time>2026-05-04T15:26:43Z</time></trkpt><trkpt lat="45.65513134345928" lon="9.485827175155789"><ele>154.20000000000002</ele><time>2026-05-04T15:26:44Z</time></trkpt><trkpt lat="45.655242086670135" lon="9.48588460961646"><ele>153.0</ele><time>2026-05-04T15:26:45Z</time></trkpt><trkpt lat="45.655359163520494" lon="9.48593137975468"><ele>153.0</ele><time>2026-05-04T15:26:46Z</time></trkpt><trkpt lat="45.655484849524164" lon="9.485988344143722"><ele>153.0</ele><time>2026-05-04T15:26:47Z</time></trkpt><trkpt lat="45.65561468838747" lon="9.48604995333361"><ele>153.0</ele><time>2026-05-04T15:26:48Z</time></trkpt><trkpt lat="45.65576056690496" lon="9.486117839257359"><ele>153.0</ele><time>2026-05-04T15:26:49Z</time></trkpt><trkpt lat="45.655908965757526" lon="9.48619034537595"><ele>153.0</ele><time>2026-05-04T15:26:50Z</time></trkpt><trkpt lat="45.656035731850565" lon="9.48627903791572"><ele>153.0</ele><time>2026-05-04T15:26:51Z</time></trkpt><trkpt lat="45.65616992364735" lon="9.486357279823439"><ele>153.0</ele><time>2026-05-04T15:26:52Z</time></trkpt><trkpt lat="45.65629795664831" lon="9.486415451258882"><ele>153.0</ele><time>2026-05-04T15:26:53Z</time></trkpt><trkpt lat="45.656413449434574" lon="9.486479129815425"><ele>152.75</ele><time>2026-05-04T15:26:54Z</time></trkpt><trkpt lat="45.656536364672924" lon="9.486517659544837"><ele>152.5</ele><time>2026-05-04T15:26:55Z</time></trkpt><trkpt lat="45.656654220707914" lon="9.48658275417758"><ele>152.25</ele><time>2026-05-04T15:26:56Z</time></trkpt><trkpt lat="45.656771189923425" lon="9.486662982709506"><ele>152.0</ele><time>2026-05-04T15:26:57Z</time></trkpt><trkpt lat="45.656895612857106" lon="9.486726873456744"><ele>153.0</ele><time>2026-05-04T15:26:58Z</time></trkpt><trkpt lat="45.657023551548974" lon="9.48676702487527"><ele>154.0</ele><time>2026-05-04T15:26:59Z</time></trkpt><trkpt lat="45.65713324487056" lon="9.48682352483702"><ele>155.0</ele><time>2026-05-04T15:27:00Z</time></trkpt><trkpt lat="45.65724162687982" lon="9.486908977566236"><ele>156.0</ele><time>2026-05-04T15:27:01Z</time></trkpt><trkpt lat="45.657367361109685" lon="9.486966292837364"><ele>156.0</ele><time>2026-05-04T15:27:02Z</time></trkpt><trkpt lat="45.65748071971102" lon="9.48700394626593"><ele>156.0</ele><time>2026-05-04T15:27:03Z</time></trkpt><trkpt lat="45.65759643392017" lon="9.487028596480606"><ele>156.0</ele><time>2026-05-04T15:27:04Z</time></trkpt><trkpt lat="45.65771167604277" lon="9.48705650005754"><ele>156.0</ele><time>2026-05-04T15:27:05Z</time></trkpt><trkpt lat="45.657824467503396" lon="9.487062819184445"><ele>156.0</ele><time>2026-05-04T15:27:06Z</time></trkpt><trkpt lat="45.657937425941896" lon="9.487045067831007"><ele>156.0</ele><time>2026-05-04T15:27:07Z</time></trkpt><trkpt lat="45.65804497498633" lon="9.487038425359565"><ele>156.0</ele><time>2026-05-04T15:27:08Z</time></trkpt><trkpt lat="45.65815633477514" lon="9.4870405670965"><ele>156.0</ele><time>2026-05-04T15:27:09Z</time></trkpt><trkpt lat="45.65827160893333" lon="9.487035201222248"><ele>156.0</ele><time>2026-05-04T15:27:10Z</time></trkpt><trkpt lat="45.65838262956402" lon="9.487031180438542"><ele>156.0</ele><time>2026-05-04T15:27:11Z</time></trkpt><trkpt lat="45.65850364786357" lon="9.487018530677755"><ele>156.0</ele><time>2026-05-04T15:27:12Z</time></trkpt><trkpt lat="45.65861577295989" lon="9.487015045032976"><ele>156.0</ele><time>2026-05-04T15:27:13Z</time></trkpt><trkpt lat="45.65872167999851" lon="9.487011068338616"><ele>156.0</ele><time>2026-05-04T15:27:14Z</time></trkpt><trkpt lat="45.65883914786142" lon="9.487010033234332"><ele>156.0</ele><time>2026-05-04T15:27:15Z</time></trkpt><trkpt lat="45.65895577659751" lon="9.487003881739437"><ele>156.0</ele><time>2026-05-04T15:27:16Z</time></trkpt><trkpt lat="45.65907986733904" lon="9.487015149961275"><ele>156.0</ele><time>2026-05-04T15:27:17Z</time></trkpt><trkpt lat="45.65919975686726" lon="9.487006034671056"><ele>156.0</ele><time>2026-05-04T15:27:18Z</time></trkpt><trkpt lat="45.65930917382133" lon="9.487001225631019"><ele>156.0</ele><time>2026-05-04T15:27:19Z</time></trkpt><trkpt lat="45.6594176060609" lon="9.486995973878695"><ele>156.0</ele><time>2026-05-04T15:27:20Z</time></trkpt><trkpt lat="45.65953015679435" lon="9.486957894027801"><ele>156.0</ele><time>2026-05-04T15:27:21Z</time></trkpt><trkpt lat="45.65964800279242" lon="9.48692094315953"><ele>156.0</ele><time>2026-05-04T15:27:22Z</time></trkpt><trkpt lat="45.659756975114654" lon="9.486850830473548"><ele>154.75</ele><time>2026-05-04T15:27:23Z</time></trkpt><trkpt lat="45.659867762773295" lon="9.486798152800096"><ele>153.5</ele><time>2026-05-04T15:27:24Z</time></trkpt><trkpt lat="45.659983426241915" lon="9.486699148706029"><ele>152.25</ele><time>2026-05-04T15:27:25Z</time></trkpt><trkpt lat="45.660118178549936" lon="9.486590859037115"><ele>151.0</ele><time>2026-05-04T15:27:26Z</time></trkpt><trkpt lat="45.66023919307352" lon="9.486492352135217"><ele>151.25</ele><time>2026-05-04T15:27:27Z</time></trkpt><trkpt lat="45.660356093235826" lon="9.486422895597643"><ele>151.5</ele><time>2026-05-04T15:27:28Z</time></trkpt><trkpt lat="45.660472308374175" lon="9.486323848408297"><ele>151.75</ele><time>2026-05-04T15:27:29Z</time></trkpt><trkpt lat="45.66057945671071" lon="9.486267543670847"><ele>152.0</ele><time>2026-05-04T15:27:30Z</time></trkpt><trkpt lat="45.66064953967313" lon="9.486207076182069"><ele>153.0</ele><time>2026-05-04T15:27:31Z</time></trkpt><trkpt lat="45.66076686512155" lon="9.486176392508359"><ele>154.0</ele><time>2026-05-04T15:27:32Z</time></trkpt><trkpt lat="45.66087926833034" lon="9.486132127978756"><ele>155.0</ele><time>2026-05-04T15:27:33Z</time></trkpt><trkpt lat="45.66100877479732" lon="9.486081128233666"><ele>156.0</ele><time>2026-05-04T15:27:34Z</time></trkpt><trkpt lat="45.66111272040798" lon="9.48604369384157"><ele>157.75</ele><time>2026-05-04T15:27:35Z</time></trkpt><trkpt lat="45.66123141879629" lon="9.485986655144915"><ele>159.5</ele><time>2026-05-04T15:27:36Z</time></trkpt><trkpt lat="45.66140625515116" lon="9.485961583875174"><ele>161.25</ele><time>2026-05-04T15:27:37Z</time></trkpt><trkpt lat="45.66152953185073" lon="9.485938696673253"><ele>163.0</ele><time>2026-05-04T15:27:38Z</time></trkpt><trkpt lat="45.66165122947632" lon="9.485919494622836"><ele>163.0</ele><time>2026-05-04T15:27:39Z</time></trkpt><trkpt lat="45.66177124021659" lon="9.485901832305597"><ele>163.0</ele><time>2026-05-04T15:27:40Z</time></trkpt><trkpt lat="45.6618955288553" lon="9.48588288512884"><ele>163.0</ele><time>2026-05-04T15:27:41Z</time></trkpt><trkpt lat="45.66201305724366" lon="9.485875736337317"><ele>163.0</ele><time>2026-05-04T15:27:42Z</time></trkpt><trkpt lat="45.6621259160269" lon="9.48586147535964"><ele>163.2</ele><time>2026-05-04T15:27:43Z</time></trkpt><trkpt lat="45.66223425663429" lon="9.485873404866457"><ele>163.4</ele><time>2026-05-04T15:27:44Z</time></trkpt><trkpt lat="45.66233781149847" lon="9.485883030057368"><ele>163.6</ele><time>2026-05-04T15:27:45Z</time></trkpt><trkpt lat="45.66244653852517" lon="9.485875347235336"><ele>163.79999999999998</ele><time>2026-05-04T15:27:46Z</time></trkpt><trkpt lat="45.662548077295895" lon="9.485873985795108"><ele>164.0</ele><time>2026-05-04T15:27:47Z</time></trkpt><trkpt lat="45.662653453014244" lon="9.485879558861988"><ele>164.0</ele><time>2026-05-04T15:27:48Z</time></trkpt><trkpt lat="45.66276894456176" lon="9.485848539332649"><ele>164.0</ele><time>2026-05-04T15:27:49Z</time></trkpt><trkpt lat="45.66287936632281" lon="9.485840375316597"><ele>164.0</ele><time>2026-05-04T15:27:50Z</time></trkpt><trkpt lat="45.66299720964209" lon="9.485845463198268"><ele>164.0</ele><time>2026-05-04T15:27:51Z</time></trkpt><trkpt lat="45.66310860584799" lon="9.485822780661572"><ele>164.25</ele><time>2026-05-04T15:27:52Z</time></trkpt><trkpt lat="45.663229713974836" lon="9.48581139692641"><ele>164.5</ele><time>2026-05-04T15:27:53Z</time></trkpt><trkpt lat="45.66334628179133" lon="9.485798732043326"><ele>164.75</ele><time>2026-05-04T15:27:54Z</time></trkpt><trkpt lat="45.663460995510725" lon="9.485777734850675"><ele>165.0</ele><time>2026-05-04T15:27:55Z</time></trkpt><trkpt lat="45.66359969283432" lon="9.485747542020455"><ele>164.0</ele><time>2026-05-04T15:27:56Z</time></trkpt><trkpt lat="45.66372901691879" lon="9.485725798055912"><ele>163.0</ele><time>2026-05-04T15:27:57Z</time></trkpt><trkpt lat="45.66385303334184" lon="9.485699979471876"><ele>162.0</ele><time>2026-05-04T15:27:58Z</time></trkpt><trkpt lat="45.663954582945756" lon="9.485686379524232"><ele>161.0</ele><time>2026-05-04T15:27:59Z</time></trkpt><trkpt lat="45.66404406373447" lon="9.48566448574542"><ele>160.0</ele><time>2026-05-04T15:28:00Z</time></trkpt><trkpt lat="45.664126588706196" lon="9.485648395214621"><ele>160.0</ele><time>2026-05-04T15:28:01Z</time></trkpt><trkpt lat="45.66425637301501" lon="9.485592464189285"><ele>160.0</ele><time>2026-05-04T15:28:03Z</time></trkpt><trkpt lat="45.66437988145724" lon="9.485541915932432"><ele>160.0</ele><time>2026-05-04T15:28:05Z</time></trkpt><trkpt lat="45.664473192019294" lon="9.485471856048429"><ele>160.0</ele><time>2026-05-04T15:28:07Z</time></trkpt><trkpt lat="45.66458293506588" lon="9.485444535378859"><ele>160.0</ele><time>2026-05-04T15:28:09Z</time></trkpt><trkpt lat="45.664663691868576" lon="9.485435163258172"><ele>160.0</ele><time>2026-05-04T15:28:11Z</time></trkpt><trkpt lat="45.664749756242344" lon="9.485361177380646"><ele>160.0</ele><time>2026-05-04T15:28:32Z</time></trkpt><trkpt lat="45.66473020259538" lon="9.485249887250955"><ele>160.0</ele><time>2026-05-04T15:28:33Z</time></trkpt><trkpt lat="45.66474945318169" lon="9.485135694310665"><ele>160.0</ele><time>2026-05-04T15:28:34Z</time></trkpt><trkpt lat="45.66475471145342" lon="9.485034914237282"><ele>160.0</ele><time>2026-05-04T15:28:35Z</time></trkpt><trkpt lat="45.664766906316174" lon="9.484929123947774"><ele>160.0</ele><time>2026-05-04T15:28:36Z</time></trkpt><trkpt lat="45.66477803434395" lon="9.484824904177916"><ele>160.0</ele><time>2026-05-04T15:28:37Z</time></trkpt><trkpt lat="45.66478790312077" lon="9.484728069404438"><ele>160.0</ele><time>2026-05-04T15:28:38Z</time></trkpt><trkpt lat="45.66479520392321" lon="9.48459632804318"><ele>160.0</ele><time>2026-05-04T15:28:39Z</time></trkpt><trkpt lat="45.66478143408589" lon="9.484474839642417"><ele>160.0</ele><time>2026-05-04T15:28:40Z</time></trkpt><trkpt lat="45.664740896659374" lon="9.484306106005418"><ele>160.0</ele><time>2026-05-04T15:28:42Z</time></trkpt><trkpt lat="45.664662008765696" lon="9.48418784557101"><ele>163.2</ele><time>2026-05-04T15:28:44Z</time></trkpt><trkpt lat="45.66455937715502" lon="9.484199769753515"><ele>166.4</ele><time>2026-05-04T15:28:46Z</time></trkpt><trkpt lat="45.664475620930155" lon="9.48429470073918"><ele>169.60000000000002</ele><time>2026-05-04T15:28:47Z</time></trkpt><trkpt lat="45.66435832162815" lon="9.48438837830464"><ele>172.8</ele><time>2026-05-04T15:28:49Z</time></trkpt><trkpt lat="45.664294857367985" lon="9.4844269124231"><ele>176.0</ele><time>2026-05-04T15:28:50Z</time></trkpt><trkpt lat="45.66420842681513" lon="9.484492273179777"><ele>177.60000000000002</ele><time>2026-05-04T15:28:51Z</time></trkpt><trkpt lat="45.664092353278164" lon="9.484526694572887"><ele>179.2</ele><time>2026-05-04T15:28:53Z</time></trkpt><trkpt lat="45.66400449729791" lon="9.484501845752028"><ele>180.8</ele><time>2026-05-04T15:29:01Z</time></trkpt><trkpt lat="45.66392004975551" lon="9.484485926291473"><ele>182.39999999999998</ele><time>2026-05-04T15:29:02Z</time></trkpt><trkpt lat="45.66382333507745" lon="9.484465574345416"><ele>184.0</ele><time>2026-05-04T15:29:03Z</time></trkpt><trkpt lat="45.663739243511905" lon="9.48446342325494"><ele>184.0</ele><time>2026-05-04T15:29:04Z</time></trkpt><trkpt lat="45.66365252216725" lon="9.484432284885244"><ele>184.0</ele><time>2026-05-04T15:29:06Z</time></trkpt><trkpt lat="45.663550286482774" lon="9.48440546712046"><ele>184.0</ele><time>2026-05-04T15:29:07Z</time></trkpt><trkpt lat="45.66344846165319" lon="9.484354082223067"><ele>184.0</ele><time>2026-05-04T15:29:08Z</time></trkpt><trkpt lat="45.66332107246272" lon="9.484327159241722"><ele>184.0</ele><time>2026-05-04T15:29:09Z</time></trkpt><trkpt lat="45.663206066870465" lon="9.48429120342891"><ele>185.2</ele><time>2026-05-04T15:29:10Z</time></trkpt><trkpt lat="45.66313207407559" lon="9.484274338471087"><ele>186.39999999999998</ele><time>2026-05-04T15:29:11Z</time></trkpt><trkpt lat="45.66304671375349" lon="9.48424213137759"><ele>187.6</ele><time>2026-05-04T15:29:13Z</time></trkpt><trkpt lat="45.66299206906966" lon="9.484197044455634"><ele>188.8</ele><time>2026-05-04T15:29:16Z</time></trkpt><trkpt lat="45.663070747086124" lon="9.483994196687103"><ele>190.0</ele><time>2026-05-04T15:29:17Z</time></trkpt><trkpt lat="45.6631063824797" lon="9.483874358130336"><ele>189.75</ele><time>2026-05-04T15:29:18Z</time></trkpt><trkpt lat="45.663148514049794" lon="9.483737728329773"><ele>189.5</ele><time>2026-05-04T15:29:19Z</time></trkpt><trkpt lat="45.66319422908842" lon="9.483557800457751"><ele>189.25</ele><time>2026-05-04T15:29:20Z</time></trkpt><trkpt lat="45.66324837022864" lon="9.483370660902128"><ele>189.0</ele><time>2026-05-04T15:29:21Z</time></trkpt><trkpt lat="45.66332230498822" lon="9.48316262465569"><ele>189.0</ele><time>2026-05-04T15:29:22Z</time></trkpt><trkpt lat="45.66340469705888" lon="9.482951893394658"><ele>189.0</ele><time>2026-05-04T15:29:23Z</time></trkpt><trkpt lat="45.663487454140615" lon="9.482703794068073"><ele>189.0</ele><time>2026-05-04T15:29:24Z</time></trkpt><trkpt lat="45.66354824842155" lon="9.482462169596028"><ele>189.5</ele><time>2026-05-04T15:29:25Z</time></trkpt><trkpt lat="45.663602705408216" lon="9.482254968898038"><ele>190.0</ele><time>2026-05-04T15:29:26Z</time></trkpt><trkpt lat="45.66365509392477" lon="9.482075800388902"><ele>190.5</ele><time>2026-05-04T15:29:27Z</time></trkpt><trkpt lat="45.663698393557794" lon="9.48193328049266"><ele>191.0</ele><time>2026-05-04T15:29:28Z</time></trkpt><trkpt lat="45.66374002982653" lon="9.481829159346397"><ele>194.8</ele><time>2026-05-04T15:29:29Z</time></trkpt><trkpt lat="45.66380832390144" lon="9.481739766899397"><ele>198.60000000000002</ele><time>2026-05-04T15:29:30Z</time></trkpt><trkpt lat="45.663894277626305" lon="9.481689247092282"><ele>202.4</ele><time>2026-05-04T15:29:31Z</time></trkpt><trkpt lat="45.66397357776754" lon="9.48168768865108"><ele>206.2</ele><time>2026-05-04T15:29:32Z</time></trkpt><trkpt lat="45.66407403553824" lon="9.48174272757205"><ele>210.0</ele><time>2026-05-04T15:29:33Z</time></trkpt><trkpt lat="45.66414377651078" lon="9.48187413859785"><ele>210.0</ele><time>2026-05-04T15:29:34Z</time></trkpt><trkpt lat="45.66420808691673" lon="9.482009561271742"><ele>210.0</ele><time>2026-05-04T15:29:35Z</time></trkpt><trkpt lat="45.664265488131896" lon="9.482138139607434"><ele>210.0</ele><time>2026-05-04T15:29:36Z</time></trkpt><trkpt lat="45.664304514930606" lon="9.48225279051288"><ele>210.0</ele><time>2026-05-04T15:29:37Z</time></trkpt><trkpt lat="45.66436394801625" lon="9.482395844311428"><ele>210.0</ele><time>2026-05-04T15:29:38Z</time></trkpt><trkpt lat="45.664420710048134" lon="9.482582418375818"><ele>211.0</ele><time>2026-05-04T15:29:39Z</time></trkpt><trkpt lat="45.66445709319618" lon="9.48275763574999"><ele>212.0</ele><time>2026-05-04T15:29:40Z</time></trkpt><trkpt lat="45.66448884367062" lon="9.482843600766028"><ele>213.0</ele><time>2026-05-04T15:29:41Z</time></trkpt><trkpt lat="45.66459929308558" lon="9.482958620967453"><ele>214.0</ele><time>2026-05-04T15:29:43Z</time></trkpt><trkpt lat="45.664689069299946" lon="9.482922008130764"><ele>215.0</ele><time>2026-05-04T15:29:44Z</time></trkpt><trkpt lat="45.66473801455845" lon="9.482807920945374"><ele>215.0</ele><time>2026-05-04T15:29:45Z</time></trkpt><trkpt lat="45.66470730088926" lon="9.482653575348024"><ele>215.0</ele><time>2026-05-04T15:29:46Z</time></trkpt><trkpt lat="45.66464855483721" lon="9.482533383564336"><ele>215.0</ele><time>2026-05-04T15:29:47Z</time></trkpt><trkpt lat="45.66461454229965" lon="9.48241755645752"><ele>215.0</ele><time>2026-05-04T15:29:48Z</time></trkpt><trkpt lat="45.664563235159136" lon="9.482278154501776"><ele>215.0</ele><time>2026-05-04T15:29:49Z</time></trkpt><trkpt lat="45.6645210111196" lon="9.482161460468577"><ele>214.0</ele><time>2026-05-04T15:29:50Z</time></trkpt><trkpt lat="45.66447023772558" lon="9.482067377135447"><ele>213.0</ele><time>2026-05-04T15:29:51Z</time></trkpt><trkpt lat="45.66446297368057" lon="9.481948746297107"><ele>212.0</ele><time>2026-05-04T15:29:52Z</time></trkpt><trkpt lat="45.66443190783243" lon="9.481866882964054"><ele>211.0</ele><time>2026-05-04T15:29:53Z</time></trkpt><trkpt lat="45.66437103022745" lon="9.481701465504035"><ele>210.0</ele><time>2026-05-04T15:29:55Z</time></trkpt><trkpt lat="45.664305656364796" lon="9.481503286693526"><ele>210.0</ele><time>2026-05-04T15:29:56Z</time></trkpt><trkpt lat="45.66424775726888" lon="9.481372130955927"><ele>210.0</ele><time>2026-05-04T15:29:57Z</time></trkpt><trkpt lat="45.66418865102931" lon="9.481234602996873"><ele>210.0</ele><time>2026-05-04T15:29:58Z</time></trkpt><trkpt lat="45.66412065663718" lon="9.481093005144608"><ele>210.0</ele><time>2026-05-04T15:29:59Z</time></trkpt><trkpt lat="45.66403690311727" lon="9.480926971271069"><ele>212.25</ele><time>2026-05-04T15:30:00Z</time></trkpt><trkpt lat="45.66393422756946" lon="9.480767797723596"><ele>214.5</ele><time>2026-05-04T15:30:01Z</time></trkpt><trkpt lat="45.663833763293525" lon="9.480610592087286"><ele>216.75</ele><time>2026-05-04T15:30:02Z</time></trkpt><trkpt lat="45.66374623099371" lon="9.480460419923403"><ele>219.0</ele><time>2026-05-04T15:30:03Z</time></trkpt><trkpt lat="45.66364511297988" lon="9.480285465127732"><ele>219.25</ele><time>2026-05-04T15:30:04Z</time></trkpt><trkpt lat="45.66352310123696" lon="9.480097873290212"><ele>219.5</ele><time>2026-05-04T15:30:05Z</time></trkpt><trkpt lat="45.66343324007823" lon="9.479944012720123"><ele>219.75</ele><time>2026-05-04T15:30:06Z</time></trkpt><trkpt lat="45.66336497091056" lon="9.479823233924195"><ele>220.0</ele><time>2026-05-04T15:30:07Z</time></trkpt><trkpt lat="45.663322754099" lon="9.479660033552825"><ele>222.0</ele><time>2026-05-04T15:30:08Z</time></trkpt><trkpt lat="45.66330228821642" lon="9.479501819384508"><ele>224.0</ele><time>2026-05-04T15:30:09Z</time></trkpt><trkpt lat="45.66331208606688" lon="9.479372555102456"><ele>226.0</ele><time>2026-05-04T15:30:10Z</time></trkpt><trkpt lat="45.663311660143" lon="9.479208149759563"><ele>228.0</ele><time>2026-05-04T15:30:11Z</time></trkpt><trkpt lat="45.663311214781615" lon="9.479036245554049"><ele>230.0</ele><time>2026-05-04T15:30:12Z</time></trkpt><trkpt lat="45.66330856369466" lon="9.47885621473364"><ele>230.25</ele><time>2026-05-04T15:30:13Z</time></trkpt><trkpt lat="45.66327989398163" lon="9.47866468180981"><ele>230.5</ele><time>2026-05-04T15:30:14Z</time></trkpt><trkpt lat="45.66327982843791" lon="9.47847736495054"><ele>230.75</ele><time>2026-05-04T15:30:15Z</time></trkpt><trkpt lat="45.66327013771175" lon="9.478296421008224"><ele>231.0</ele><time>2026-05-04T15:30:16Z</time></trkpt><trkpt lat="45.66325580222646" lon="9.478126944144872"><ele>231.0</ele><time>2026-05-04T15:30:17Z</time></trkpt><trkpt lat="45.6632451263533" lon="9.477972652200407"><ele>231.0</ele><time>2026-05-04T15:30:18Z</time></trkpt><trkpt lat="45.66323436330325" lon="9.477810899407602"><ele>231.0</ele><time>2026-05-04T15:30:19Z</time></trkpt><trkpt lat="45.66322569883179" lon="9.477643034529766"><ele>231.0</ele><time>2026-05-04T15:30:20Z</time></trkpt><trkpt lat="45.6632087698532" lon="9.477480074955052"><ele>231.4</ele><time>2026-05-04T15:30:21Z</time></trkpt><trkpt lat="45.66319100956397" lon="9.47731422283524"><ele>231.8</ele><time>2026-05-04T15:30:22Z</time></trkpt><trkpt lat="45.663178198563784" lon="9.477145705709148"><ele>232.20000000000002</ele><time>2026-05-04T15:30:23Z</time></trkpt><trkpt lat="45.66317956158982" lon="9.477000686842693"><ele>232.60000000000002</ele><time>2026-05-04T15:30:24Z</time></trkpt><trkpt lat="45.66318681494436" lon="9.476892648577667"><ele>233.0</ele><time>2026-05-04T15:30:25Z</time></trkpt><trkpt lat="45.66317182889824" lon="9.476783678886225"><ele>233.50000000000003</ele><time>2026-05-04T15:30:27Z</time></trkpt><trkpt lat="45.66310771217508" lon="9.476773716846726"><ele>234.0</ele><time>2026-05-04T15:30:28Z</time></trkpt><trkpt lat="45.66302069144258" lon="9.476798511907901"><ele>234.5</ele><time>2026-05-04T15:30:29Z</time></trkpt><trkpt lat="45.6629296535587" lon="9.476853748618005"><ele>235.0</ele><time>2026-05-04T15:30:30Z</time></trkpt><trkpt lat="45.66283511062288" lon="9.476865082888711"><ele>235.50000000000003</ele><time>2026-05-04T15:30:31Z</time></trkpt><trkpt lat="45.66275078981332" lon="9.47686237232817"><ele>236.0</ele><time>2026-05-04T15:30:32Z</time></trkpt><trkpt lat="45.6626796520092" lon="9.476631252484376"><ele>236.0</ele><time>2026-05-04T15:30:38Z</time></trkpt><trkpt lat="45.66266968590812" lon="9.476521256168594"><ele>236.00000000000003</ele><time>2026-05-04T15:30:39Z</time></trkpt><trkpt lat="45.66266112171804" lon="9.476367003563166"><ele>236.00000000000003</ele><time>2026-05-04T15:30:40Z</time></trkpt><trkpt lat="45.66263744641971" lon="9.476175715899211"><ele>236.0</ele><time>2026-05-04T15:30:41Z</time></trkpt><trkpt lat="45.66262437863226" lon="9.476009723801432"><ele>236.0</ele><time>2026-05-04T15:30:42Z</time></trkpt><trkpt lat="45.662609281000734" lon="9.47589690769389"><ele>236.4</ele><time>2026-05-04T15:30:43Z</time></trkpt><trkpt lat="45.662577459440364" lon="9.475774122964626"><ele>236.8</ele><time>2026-05-04T15:30:45Z</time></trkpt><trkpt lat="45.66257452619114" lon="9.475681656862147"><ele>237.20000000000002</ele><time>2026-05-04T15:30:47Z</time></trkpt><trkpt lat="45.66274036868125" lon="9.475641853093322"><ele>237.60000000000002</ele><time>2026-05-04T15:30:49Z</time></trkpt><trkpt lat="45.66285126461769" lon="9.47562860723778"><ele>238.0</ele><time>2026-05-04T15:30:50Z</time></trkpt><trkpt lat="45.66301120815655" lon="9.47560061194645"><ele>238.5</ele><time>2026-05-04T15:30:51Z</time></trkpt><trkpt lat="45.6631920937918" lon="9.475571562755398"><ele>239.0</ele><time>2026-05-04T15:30:52Z</time></trkpt><trkpt lat="45.663258307933155" lon="9.475557204502719"><ele>239.5</ele><time>2026-05-04T15:30:53Z</time></trkpt><trkpt lat="45.66335755443697" lon="9.475481919531452"><ele>240.0</ele><time>2026-05-04T15:30:57Z</time></trkpt><trkpt lat="45.66333900534889" lon="9.475283878044161"><ele>240.25</ele><time>2026-05-04T15:30:58Z</time></trkpt><trkpt lat="45.66332690724323" lon="9.475112825536405"><ele>240.5</ele><time>2026-05-04T15:30:59Z</time></trkpt><trkpt lat="45.66328668540753" lon="9.474923762398197"><ele>240.75</ele><time>2026-05-04T15:31:00Z</time></trkpt><trkpt lat="45.66325688974001" lon="9.474728136303618"><ele>241.0</ele><time>2026-05-04T15:31:01Z</time></trkpt><trkpt lat="45.66323212759277" lon="9.474546976555994"><ele>242.0</ele><time>2026-05-04T15:31:02Z</time></trkpt><trkpt lat="45.663202896934365" lon="9.474375276821009"><ele>243.0</ele><time>2026-05-04T15:31:03Z</time></trkpt><trkpt lat="45.66316551576511" lon="9.474237508284979"><ele>244.0</ele><time>2026-05-04T15:31:04Z</time></trkpt><trkpt lat="45.66311643974189" lon="9.474025934150577"><ele>245.0</ele><time>2026-05-04T15:31:06Z</time></trkpt><trkpt lat="45.66304496615565" lon="9.473803468620691"><ele>245.25</ele><time>2026-05-04T15:31:07Z</time></trkpt><trkpt lat="45.66301025154587" lon="9.473634192653133"><ele>245.5</ele><time>2026-05-04T15:31:08Z</time></trkpt><trkpt lat="45.66299121379027" lon="9.473463510036089"><ele>245.75</ele><time>2026-05-04T15:31:09Z</time></trkpt><trkpt lat="45.662971207235685" lon="9.473299282197807"><ele>246.0</ele><time>2026-05-04T15:31:10Z</time></trkpt><trkpt lat="45.662942354393344" lon="9.473169367323328"><ele>246.0</ele><time>2026-05-04T15:31:11Z</time></trkpt><trkpt lat="45.66292071541495" lon="9.473028653915291"><ele>246.00000000000003</ele><time>2026-05-04T15:31:12Z</time></trkpt><trkpt lat="45.6629294473576" lon="9.47293463936845"><ele>246.00000000000003</ele><time>2026-05-04T15:31:13Z</time></trkpt><trkpt lat="45.66289404411316" lon="9.472784179260444"><ele>246.0</ele><time>2026-05-04T15:31:15Z</time></trkpt><trkpt lat="45.66290107765283" lon="9.472632040866088"><ele>246.0</ele><time>2026-05-04T15:31:20Z</time></trkpt><trkpt lat="45.66287644569168" lon="9.47254165580564"><ele>246.0</ele><time>2026-05-04T15:31:21Z</time></trkpt><trkpt lat="45.66284378105036" lon="9.472411238740314"><ele>246.00000000000003</ele><time>2026-05-04T15:31:22Z</time></trkpt><trkpt lat="45.66283575085417" lon="9.472269078210712"><ele>246.00000000000003</ele><time>2026-05-04T15:31:23Z</time></trkpt><trkpt lat="45.66281313556197" lon="9.472127754520061"><ele>246.0</ele><time>2026-05-04T15:31:24Z</time></trkpt><trkpt lat="45.66278949467861" lon="9.47202276150969"><ele>246.0</ele><time>2026-05-04T15:31:25Z</time></trkpt><trkpt lat="45.66290811306729" lon="9.471920439177365"><ele>246.0</ele><time>2026-05-04T15:31:28Z</time></trkpt><trkpt lat="45.66301620758644" lon="9.471907077381129"><ele>246.0</ele><time>2026-05-04T15:31:29Z</time></trkpt><trkpt lat="45.66314756964613" lon="9.47188436083747"><ele>246.0</ele><time>2026-05-04T15:31:30Z</time></trkpt><trkpt lat="45.663285925465104" lon="9.471867647222552"><ele>246.0</ele><time>2026-05-04T15:31:31Z</time></trkpt><trkpt lat="45.66340751066247" lon="9.471851733554626"><ele>246.00000000000003</ele><time>2026-05-04T15:31:32Z</time></trkpt><trkpt lat="45.663486290565295" lon="9.471840812099522"><ele>246.0</ele><time>2026-05-04T15:31:33Z</time></trkpt><trkpt lat="45.66356038766271" lon="9.47183505051153"><ele>246.00000000000003</ele><time>2026-05-04T15:31:34Z</time></trkpt><trkpt lat="45.66362710741232" lon="9.47183495011488"><ele>246.00000000000003</ele><time>2026-05-04T15:31:35Z</time></trkpt><trkpt lat="45.6637002336555" lon="9.471826764433725"><ele>246.0</ele><time>2026-05-04T15:31:36Z</time></trkpt><trkpt lat="45.66377174338831" lon="9.471816136983154"><ele>246.00000000000003</ele><time>2026-05-04T15:31:37Z</time></trkpt><trkpt lat="45.66385063073857" lon="9.471793282141524"><ele>246.00000000000003</ele><time>2026-05-04T15:31:38Z</time></trkpt><trkpt lat="45.663924713549264" lon="9.471777582019303"><ele>246.16666666666666</ele><time>2026-05-04T15:31:39Z</time></trkpt><trkpt lat="45.66399935478174" lon="9.47176736720721"><ele>246.33333333333331</ele><time>2026-05-04T15:31:40Z</time></trkpt><trkpt lat="45.66407136106389" lon="9.471754232702995"><ele>246.5</ele><time>2026-05-04T15:31:41Z</time></trkpt><trkpt lat="45.66415439228736" lon="9.471741438943301"><ele>246.66666666666666</ele><time>2026-05-04T15:31:42Z</time></trkpt><trkpt lat="45.66423567820378" lon="9.47172519740769"><ele>246.83333333333331</ele><time>2026-05-04T15:31:43Z</time></trkpt><trkpt lat="45.66432189988081" lon="9.4717086664761"><ele>247.0</ele><time>2026-05-04T15:31:44Z</time></trkpt><trkpt lat="45.66440659036107" lon="9.471695355988636"><ele>247.16666666666666</ele><time>2026-05-04T15:31:45Z</time></trkpt><trkpt lat="45.66447952677207" lon="9.471684432518229"><ele>247.33333333333331</ele><time>2026-05-04T15:31:46Z</time></trkpt><trkpt lat="45.66454806056901" lon="9.471666474447211"><ele>247.5</ele><time>2026-05-04T15:31:47Z</time></trkpt><trkpt lat="45.66461161259713" lon="9.471661903386874"><ele>247.66666666666669</ele><time>2026-05-04T15:31:48Z</time></trkpt><trkpt lat="45.66467430967161" lon="9.471651262032566"><ele>247.83333333333334</ele><time>2026-05-04T15:31:49Z</time></trkpt><trkpt lat="45.664778617259444" lon="9.471641154456595"><ele>248.0</ele><time>2026-05-04T15:31:51Z</time></trkpt><trkpt lat="45.66487882874566" lon="9.471644256700385"><ele>248.0</ele><time>2026-05-04T15:31:53Z</time></trkpt><trkpt lat="45.66497179530929" lon="9.471645951016868"><ele>248.0</ele><time>2026-05-04T15:31:55Z</time></trkpt><trkpt lat="45.665063950126076" lon="9.471655456329358"><ele>248.0</ele><time>2026-05-04T15:31:57Z</time></trkpt><trkpt lat="45.6651571632692" lon="9.471671903321674"><ele>248.0</ele><time>2026-05-04T15:31:59Z</time></trkpt><trkpt lat="45.66526291816056" lon="9.471676843574109"><ele>248.0</ele><time>2026-05-04T15:32:01Z</time></trkpt><trkpt lat="45.66532880898566" lon="9.471687492815967"><ele>248.4</ele><time>2026-05-04T15:32:02Z</time></trkpt><trkpt lat="45.665396961432656" lon="9.471699730672043"><ele>248.8</ele><time>2026-05-04T15:32:03Z</time></trkpt><trkpt lat="45.66548240797792" lon="9.471705050096329"><ele>249.2</ele><time>2026-05-04T15:32:04Z</time></trkpt><trkpt lat="45.665589087280686" lon="9.471721103263548"><ele>249.6</ele><time>2026-05-04T15:32:05Z</time></trkpt><trkpt lat="45.665701930937864" lon="9.471729914009247"><ele>250.0</ele><time>2026-05-04T15:32:06Z</time></trkpt><trkpt lat="45.665831235104555" lon="9.471741678039429"><ele>249.99999999999997</ele><time>2026-05-04T15:32:07Z</time></trkpt><trkpt lat="45.665940208491" lon="9.471742012351482"><ele>250.0</ele><time>2026-05-04T15:32:08Z</time></trkpt><trkpt lat="45.666022340942334" lon="9.471750616482694"><ele>250.0</ele><time>2026-05-04T15:32:09Z</time></trkpt><trkpt lat="45.66610584346717" lon="9.4717500708507"><ele>250.0</ele><time>2026-05-04T15:32:10Z</time></trkpt><trkpt lat="45.66618587066977" lon="9.471749267447994"><ele>249.99999999999997</ele><time>2026-05-04T15:32:11Z</time></trkpt><trkpt lat="45.66625700347847" lon="9.471743682587356"><ele>250.0</ele><time>2026-05-04T15:32:12Z</time></trkpt><trkpt lat="45.66635207126695" lon="9.471755723892848"><ele>249.66666666666666</ele><time>2026-05-04T15:32:14Z</time></trkpt><trkpt lat="45.666433664649766" lon="9.471742954500376"><ele>249.33333333333331</ele><time>2026-05-04T15:32:17Z</time></trkpt><trkpt lat="45.66645928198387" lon="9.471648235342395"><ele>249.0</ele><time>2026-05-04T15:32:19Z</time></trkpt><trkpt lat="45.66647423967606" lon="9.471547244888907"><ele>248.66666666666669</ele><time>2026-05-04T15:32:20Z</time></trkpt><trkpt lat="45.66648606103065" lon="9.471454380244554"><ele>248.33333333333334</ele><time>2026-05-04T15:32:21Z</time></trkpt><trkpt lat="45.66649217249769" lon="9.471359281466615"><ele>248.0</ele><time>2026-05-04T15:32:22Z</time></trkpt><trkpt lat="45.666497441626326" lon="9.471207957014926"><ele>248.00000000000003</ele><time>2026-05-04T15:32:24Z</time></trkpt><trkpt lat="45.666542245186626" lon="9.471107820449506"><ele>248.0</ele><time>2026-05-04T15:32:26Z</time></trkpt><trkpt lat="45.66657941608291" lon="9.470982728948336"><ele>248.0</ele><time>2026-05-04T15:32:28Z</time></trkpt><trkpt lat="45.666573884835756" lon="9.47085989332685"><ele>248.0</ele><time>2026-05-04T15:32:30Z</time></trkpt><trkpt lat="45.66656532299646" lon="9.470763481260903"><ele>248.00000000000003</ele><time>2026-05-04T15:32:32Z</time></trkpt><trkpt lat="45.666567299224326" lon="9.470639286128867"><ele>248.0</ele><time>2026-05-04T15:32:35Z</time></trkpt><trkpt lat="45.66659076575802" lon="9.4704893517318"><ele>248.33333333333334</ele><time>2026-05-04T15:32:37Z</time></trkpt><trkpt lat="45.66658545926722" lon="9.470387349895132"><ele>248.66666666666669</ele><time>2026-05-04T15:32:38Z</time></trkpt><trkpt lat="45.66659124576327" lon="9.470212805673576"><ele>249.0</ele><time>2026-05-04T15:32:40Z</time></trkpt><trkpt lat="45.66661725457952" lon="9.470122025970928"><ele>249.33333333333331</ele><time>2026-05-04T15:32:41Z</time></trkpt><trkpt lat="45.66664946304167" lon="9.470026605383477"><ele>249.66666666666666</ele><time>2026-05-04T15:32:42Z</time></trkpt><trkpt lat="45.66668441230723" lon="9.46991720760822"><ele>250.0</ele><time>2026-05-04T15:32:43Z</time></trkpt><trkpt lat="45.66673186390155" lon="9.46977634313374"><ele>250.0</ele><time>2026-05-04T15:32:45Z</time></trkpt><trkpt lat="45.666760450749884" lon="9.469682553314792"><ele>250.0</ele><time>2026-05-04T15:32:46Z</time></trkpt><trkpt lat="45.666786571270826" lon="9.469576468189059"><ele>250.0</ele><time>2026-05-04T15:32:47Z</time></trkpt><trkpt lat="45.666803066189196" lon="9.46945205299768"><ele>250.0</ele><time>2026-05-04T15:32:48Z</time></trkpt><trkpt lat="45.666816839663426" lon="9.469282457247806"><ele>250.0</ele><time>2026-05-04T15:32:49Z</time></trkpt><trkpt lat="45.66682937628903" lon="9.469111651162638"><ele>250.2</ele><time>2026-05-04T15:32:50Z</time></trkpt><trkpt lat="45.66683848183018" lon="9.468954630351432"><ele>250.4</ele><time>2026-05-04T15:32:51Z</time></trkpt><trkpt lat="45.66685585008121" lon="9.468822429517013"><ele>250.60000000000002</ele><time>2026-05-04T15:32:52Z</time></trkpt><trkpt lat="45.66688373435191" lon="9.46868282770294"><ele>250.8</ele><time>2026-05-04T15:32:53Z</time></trkpt><trkpt lat="45.666918832534776" lon="9.468546626824313"><ele>251.0</ele><time>2026-05-04T15:32:54Z</time></trkpt><trkpt lat="45.66695645474314" lon="9.468419527360156"><ele>251.16666666666669</ele><time>2026-05-04T15:32:55Z</time></trkpt><trkpt lat="45.666994125791916" lon="9.468310794497722"><ele>251.33333333333334</ele><time>2026-05-04T15:32:56Z</time></trkpt><trkpt lat="45.66703088250283" lon="9.468217933296234"><ele>251.5</ele><time>2026-05-04T15:32:57Z</time></trkpt><trkpt lat="45.667078428500055" lon="9.468122969313175"><ele>251.66666666666669</ele><time>2026-05-04T15:32:58Z</time></trkpt><trkpt lat="45.66713537818808" lon="9.468043115912728"><ele>251.83333333333334</ele><time>2026-05-04T15:32:59Z</time></trkpt><trkpt lat="45.66721022820731" lon="9.467971740388993"><ele>252.0</ele><time>2026-05-04T15:33:00Z</time></trkpt><trkpt lat="45.66730434713678" lon="9.467891190767187"><ele>252.16666666666666</ele><time>2026-05-04T15:33:01Z</time></trkpt><trkpt lat="45.66738890546177" lon="9.467832012420276"><ele>252.33333333333331</ele><time>2026-05-04T15:33:02Z</time></trkpt><trkpt lat="45.66746273847542" lon="9.467775139613245"><ele>252.5</ele><time>2026-05-04T15:33:03Z</time></trkpt><trkpt lat="45.66751499038566" lon="9.467715294856125"><ele>252.66666666666666</ele><time>2026-05-04T15:33:04Z</time></trkpt><trkpt lat="45.667556748455496" lon="9.46762709393126"><ele>252.83333333333331</ele><time>2026-05-04T15:33:05Z</time></trkpt><trkpt lat="45.66757142548932" lon="9.467523736113712"><ele>253.0</ele><time>2026-05-04T15:33:06Z</time></trkpt><trkpt lat="45.66757401740223" lon="9.467414633803394"><ele>253.0</ele><time>2026-05-04T15:33:07Z</time></trkpt><trkpt lat="45.66758353790136" lon="9.467256562016795"><ele>253.0</ele><time>2026-05-04T15:33:08Z</time></trkpt><trkpt lat="45.66760390470302" lon="9.467062190866837"><ele>253.0</ele><time>2026-05-04T15:33:09Z</time></trkpt><trkpt lat="45.6676285926283" lon="9.466889246278994"><ele>253.0</ele><time>2026-05-04T15:33:10Z</time></trkpt><trkpt lat="45.66764912331907" lon="9.466730476545626"><ele>253.2</ele><time>2026-05-04T15:33:11Z</time></trkpt><trkpt lat="45.66766834254447" lon="9.466582993470293"><ele>253.4</ele><time>2026-05-04T15:33:12Z</time></trkpt><trkpt lat="45.66768288404987" lon="9.466454871660819"><ele>253.59999999999997</ele><time>2026-05-04T15:33:13Z</time></trkpt><trkpt lat="45.667696967806556" lon="9.466331814198442"><ele>253.79999999999998</ele><time>2026-05-04T15:33:14Z</time></trkpt><trkpt lat="45.667707759552634" lon="9.466163608349902"><ele>254.0</ele><time>2026-05-04T15:33:16Z</time></trkpt><trkpt lat="45.667715915952165" lon="9.466074283569904"><ele>254.00000000000003</ele><time>2026-05-04T15:33:17Z</time></trkpt><trkpt lat="45.667719714457135" lon="9.465973755244756"><ele>254.0</ele><time>2026-05-04T15:33:18Z</time></trkpt><trkpt lat="45.66772572788561" lon="9.465880606511698"><ele>254.0</ele><time>2026-05-04T15:33:19Z</time></trkpt><trkpt lat="45.66773055233122" lon="9.465783928452696"><ele>254.0</ele><time>2026-05-04T15:33:20Z</time></trkpt><trkpt lat="45.6677206940284" lon="9.465609535939848"><ele>254.00000000000003</ele><time>2026-05-04T15:33:22Z</time></trkpt><trkpt lat="45.66772115831992" lon="9.465517750145363"><ele>254.0</ele><time>2026-05-04T15:33:23Z</time></trkpt><trkpt lat="45.667723615463736" lon="9.465414317513908"><ele>254.33333333333334</ele><time>2026-05-04T15:33:24Z</time></trkpt><trkpt lat="45.66772509416012" lon="9.465237464456553"><ele>254.66666666666669</ele><time>2026-05-04T15:33:26Z</time></trkpt><trkpt lat="45.667726856681135" lon="9.46514289059413"><ele>255.0</ele><time>2026-05-04T15:33:27Z</time></trkpt><trkpt lat="45.667728887659734" lon="9.465032165233739"><ele>255.33333333333331</ele><time>2026-05-04T15:33:28Z</time></trkpt><trkpt lat="45.66772831660475" lon="9.464914638721638"><ele>255.66666666666666</ele><time>2026-05-04T15:33:29Z</time></trkpt><trkpt lat="45.66773114987255" lon="9.46480082995759"><ele>256.0</ele><time>2026-05-04T15:33:30Z</time></trkpt><trkpt lat="45.66773701858697" lon="9.464689253738168"><ele>255.99999999999997</ele><time>2026-05-04T15:33:31Z</time></trkpt><trkpt lat="45.66773517618798" lon="9.46457761013984"><ele>256.0</ele><time>2026-05-04T15:33:32Z</time></trkpt><trkpt lat="45.6677348651999" lon="9.464478094846106"><ele>256.0</ele><time>2026-05-04T15:33:33Z</time></trkpt><trkpt lat="45.66773861899299" lon="9.464382325744277"><ele>256.0</ele><time>2026-05-04T15:33:34Z</time></trkpt><trkpt lat="45.66774338480467" lon="9.464286753912706"><ele>255.99999999999997</ele><time>2026-05-04T15:33:35Z</time></trkpt><trkpt lat="45.66777988138103" lon="9.464145372500855"><ele>256.0</ele><time>2026-05-04T15:33:37Z</time></trkpt><trkpt lat="45.667897230017914" lon="9.464065092887521"><ele>256.0</ele><time>2026-05-04T15:33:39Z</time></trkpt><trkpt lat="45.667985144876845" lon="9.464035781701943"><ele>256.0</ele><time>2026-05-04T15:33:40Z</time></trkpt><trkpt lat="45.66810042550714" lon="9.463972979328629"><ele>256.0</ele><time>2026-05-04T15:33:41Z</time></trkpt><trkpt lat="45.66817792770173" lon="9.463927234177147"><ele>256.0</ele><time>2026-05-04T15:33:42Z</time></trkpt><trkpt lat="45.6682586709975" lon="9.463882713459407"><ele>256.0</ele><time>2026-05-04T15:33:43Z</time></trkpt><trkpt lat="45.66832900224093" lon="9.46384790673234"><ele>255.99999999999997</ele><time>2026-05-04T15:33:44Z</time></trkpt><trkpt lat="45.668399507072564" lon="9.463807218587531"><ele>256.0</ele><time>2026-05-04T15:33:45Z</time></trkpt><trkpt lat="45.668468854922075" lon="9.46376821566972"><ele>256.0</ele><time>2026-05-04T15:33:46Z</time></trkpt><trkpt lat="45.66853526023856" lon="9.463734932783405"><ele>256.0</ele><time>2026-05-04T15:33:47Z</time></trkpt><trkpt lat="45.668607068428955" lon="9.463712506924715"><ele>255.99999999999997</ele><time>2026-05-04T15:33:48Z</time></trkpt><trkpt lat="45.668711214586544" lon="9.463676565113452"><ele>256.0</ele><time>2026-05-04T15:33:49Z</time></trkpt><trkpt lat="45.66881551720297" lon="9.463633820747726"><ele>255.99999999999997</ele><time>2026-05-04T15:33:50Z</time></trkpt><trkpt lat="45.66890118434686" lon="9.46366304192904"><ele>256.0</ele><time>2026-05-04T15:33:51Z</time></trkpt><trkpt lat="45.66897043277612" lon="9.46364608904251"><ele>256.0</ele><time>2026-05-04T15:33:52Z</time></trkpt><trkpt lat="45.669033170504996" lon="9.463629274406255"><ele>256.0</ele><time>2026-05-04T15:33:53Z</time></trkpt><trkpt lat="45.66911452117103" lon="9.463606937775433"><ele>255.99999999999997</ele><time>2026-05-04T15:33:55Z</time></trkpt><trkpt lat="45.6691870563182" lon="9.46367161877337"><ele>256.0</ele><time>2026-05-04T15:33:59Z</time></trkpt><trkpt lat="45.6692859732742" lon="9.463634038737148"><ele>256.0</ele><time>2026-05-04T15:34:00Z</time></trkpt><trkpt lat="45.66940519755778" lon="9.463582144671983"><ele>256.0</ele><time>2026-05-04T15:34:01Z</time></trkpt><trkpt lat="45.66956192731193" lon="9.463538793447587"><ele>256.0</ele><time>2026-05-04T15:34:02Z</time></trkpt><trkpt lat="45.669695176381076" lon="9.463501738289837"><ele>256.0</ele><time>2026-05-04T15:34:03Z</time></trkpt><trkpt lat="45.66982740907313" lon="9.463475955376909"><ele>256.25</ele><time>2026-05-04T15:34:04Z</time></trkpt><trkpt lat="45.66997568654926" lon="9.463447423637279"><ele>256.5</ele><time>2026-05-04T15:34:05Z</time></trkpt><trkpt lat="45.67011368596945" lon="9.463422319732917"><ele>256.75</ele><time>2026-05-04T15:34:06Z</time></trkpt><trkpt lat="45.670254126563236" lon="9.463386168847697"><ele>257.0</ele><time>2026-05-04T15:34:07Z</time></trkpt><trkpt lat="45.67038504142751" lon="9.463349574099183"><ele>257.0</ele><time>2026-05-04T15:34:08Z</time></trkpt><trkpt lat="45.67050153145579" lon="9.463320511530725"><ele>257.0</ele><time>2026-05-04T15:34:09Z</time></trkpt><trkpt lat="45.67061204705398" lon="9.463316340808392"><ele>257.0</ele><time>2026-05-04T15:34:10Z</time></trkpt><trkpt lat="45.67073306779247" lon="9.46326532502015"><ele>257.0</ele><time>2026-05-04T15:34:11Z</time></trkpt><trkpt lat="45.67085872524499" lon="9.46322514539963"><ele>257.0</ele><time>2026-05-04T15:34:12Z</time></trkpt><trkpt lat="45.67097642841892" lon="9.463200303460694"><ele>257.0</ele><time>2026-05-04T15:34:13Z</time></trkpt><trkpt lat="45.67106654099792" lon="9.463156688350294"><ele>257.0</ele><time>2026-05-04T15:34:14Z</time></trkpt><trkpt lat="45.671165152948426" lon="9.463125292078487"><ele>257.0</ele><time>2026-05-04T15:34:15Z</time></trkpt><trkpt lat="45.67128108510079" lon="9.463088448368381"><ele>257.0</ele><time>2026-05-04T15:34:16Z</time></trkpt><trkpt lat="45.67139058622512" lon="9.463046937389262"><ele>257.0</ele><time>2026-05-04T15:34:17Z</time></trkpt><trkpt lat="45.671490435112844" lon="9.463000611661714"><ele>257.0</ele><time>2026-05-04T15:34:18Z</time></trkpt><trkpt lat="45.6715823696717" lon="9.462943515848957"><ele>257.0</ele><time>2026-05-04T15:34:19Z</time></trkpt><trkpt lat="45.67169042310848" lon="9.462901702663054"><ele>257.0</ele><time>2026-05-04T15:34:20Z</time></trkpt><trkpt lat="45.671818738568646" lon="9.462888597876688"><ele>257.0</ele><time>2026-05-04T15:34:21Z</time></trkpt><trkpt lat="45.67194810747028" lon="9.462889511263391"><ele>257.75</ele><time>2026-05-04T15:34:22Z</time></trkpt><trkpt lat="45.67206711432743" lon="9.462908833061686"><ele>258.5</ele><time>2026-05-04T15:34:23Z</time></trkpt><trkpt lat="45.672175215835054" lon="9.462936732870514"><ele>259.25</ele><time>2026-05-04T15:34:24Z</time></trkpt><trkpt lat="45.67227767778591" lon="9.462959797184462"><ele>260.0</ele><time>2026-05-04T15:34:25Z</time></trkpt><trkpt lat="45.67239563052092" lon="9.46298730116247"><ele>260.2</ele><time>2026-05-04T15:34:26Z</time></trkpt><trkpt lat="45.67250719922233" lon="9.463015082974495"><ele>260.4</ele><time>2026-05-04T15:34:27Z</time></trkpt><trkpt lat="45.67261344046784" lon="9.463035127980833"><ele>260.6</ele><time>2026-05-04T15:34:28Z</time></trkpt><trkpt lat="45.67270093543942" lon="9.463052992615456"><ele>260.8</ele><time>2026-05-04T15:34:29Z</time></trkpt><trkpt lat="45.67279089822475" lon="9.463063292803977"><ele>261.0</ele><time>2026-05-04T15:34:30Z</time></trkpt><trkpt lat="45.672882301989056" lon="9.463067979190122"><ele>261.0</ele><time>2026-05-04T15:34:31Z</time></trkpt><trkpt lat="45.67297639714673" lon="9.463059854816564"><ele>261.0</ele><time>2026-05-04T15:34:32Z</time></trkpt><trkpt lat="45.67306950173114" lon="9.463026221544778"><ele>261.0</ele><time>2026-05-04T15:34:33Z</time></trkpt><trkpt lat="45.67316949507196" lon="9.462983471725796"><ele>261.0</ele><time>2026-05-04T15:34:34Z</time></trkpt><trkpt lat="45.67326531507559" lon="9.462946334145952"><ele>261.0</ele><time>2026-05-04T15:34:35Z</time></trkpt><trkpt lat="45.673342994023564" lon="9.462916863445008"><ele>261.0</ele><time>2026-05-04T15:34:35.999Z</time></trkpt><trkpt lat="45.673412661783786" lon="9.462890896216166"><ele>261.0</ele><time>2026-05-04T15:34:36.999Z</time></trkpt><trkpt lat="45.6734817239478" lon="9.462868564070284"><ele>261.0</ele><time>2026-05-04T15:34:37.999Z</time></trkpt><trkpt lat="45.673553616526085" lon="9.46284647450412"><ele>261.0</ele><time>2026-05-04T15:34:38.999Z</time></trkpt><trkpt lat="45.67361780609303" lon="9.462842374531041"><ele>261.0</ele><time>2026-05-04T15:34:39.999Z</time></trkpt><trkpt lat="45.67369871018089" lon="9.462846489029774"><ele>261.0</ele><time>2026-05-04T15:34:40.999Z</time></trkpt><trkpt lat="45.67378472661386" lon="9.462850678687186"><ele>261.0</ele><time>2026-05-04T15:34:41.999Z</time></trkpt><trkpt lat="45.67386115105054" lon="9.462867879987265"><ele>260.8333333333333</ele><time>2026-05-04T15:34:42.999Z</time></trkpt><trkpt lat="45.673945637422285" lon="9.462877998341567"><ele>260.6666666666667</ele><time>2026-05-04T15:34:43.999Z</time></trkpt><trkpt lat="45.674023508524975" lon="9.462879687497644"><ele>260.5</ele><time>2026-05-04T15:34:44.999Z</time></trkpt><trkpt lat="45.67411532636733" lon="9.462892313437232"><ele>260.33333333333337</ele><time>2026-05-04T15:34:45.999Z</time></trkpt><trkpt lat="45.67420275969929" lon="9.462894266939836"><ele>260.1666666666667</ele><time>2026-05-04T15:34:46.999Z</time></trkpt><trkpt lat="45.674291039165794" lon="9.462877462689963"><ele>260.0</ele><time>2026-05-04T15:34:47.999Z</time></trkpt><trkpt lat="45.67438120649851" lon="9.46282517428964"><ele>259.0</ele><time>2026-05-04T15:34:50Z</time></trkpt><trkpt lat="45.674441367517424" lon="9.462775218641742"><ele>258.0</ele><time>2026-05-04T15:34:53Z</time></trkpt><trkpt lat="45.674547158928625" lon="9.462664094664845"><ele>257.0</ele><time>2026-05-04T15:34:55Z</time></trkpt><trkpt lat="45.67460469419783" lon="9.462584960055192"><ele>256.0</ele><time>2026-05-04T15:34:56Z</time></trkpt><trkpt lat="45.6746500900464" lon="9.462499457331596"><ele>255.00000000000003</ele><time>2026-05-04T15:34:57Z</time></trkpt><trkpt lat="45.674691389657596" lon="9.462413726288863"><ele>254.0</ele><time>2026-05-04T15:34:58Z</time></trkpt><trkpt lat="45.67472244885044" lon="9.462334186005789"><ele>254.0</ele><time>2026-05-04T15:34:59Z</time></trkpt><trkpt lat="45.67476199885292" lon="9.462238291089275"><ele>253.99999999999997</ele><time>2026-05-04T15:35:01Z</time></trkpt><trkpt lat="45.6748104139053" lon="9.462095976421255"><ele>253.99999999999997</ele><time>2026-05-04T15:35:03Z</time></trkpt><trkpt lat="45.67485649023002" lon="9.461946091171155"><ele>254.0</ele><time>2026-05-04T15:35:05Z</time></trkpt><trkpt lat="45.6749007490469" lon="9.461773143767045"><ele>254.0</ele><time>2026-05-04T15:35:07Z</time></trkpt><trkpt lat="45.67495162848326" lon="9.461683434107767"><ele>257.0</ele><time>2026-05-04T15:35:08Z</time></trkpt><trkpt lat="45.674974030978696" lon="9.46154035573519"><ele>257.0</ele><time>2026-05-04T15:35:10Z</time></trkpt><trkpt lat="45.67499764787094" lon="9.461409718087072"><ele>257.0</ele><time>2026-05-04T15:35:12Z</time></trkpt><trkpt lat="45.675035097031554" lon="9.46131689277076"><ele>257.0</ele><time>2026-05-04T15:35:14Z</time></trkpt></trkseg></trk></gpx>